Wetterdaten: Sonntag, 05.03.2017
Datum Zeit Temp. A. Temp. A. max Feuchte A. Luftdruck Regen Wind Richtung Richtung Sonnenschein ET UV Solar Taupunkt Windchill Windböen
05.03.2017 00:00 4,5 °C 4,5 °C 72 % 1000,0 hPa 0,0 mm 13,8 km/h (3 Bft) SW 235 ° 0 min 0,000 mm 0,0 UV-I 0 W/m² -0,1 °C 1,3 °C 19,3 km/h (3 Bft)
05.03.2017 00:01 4,5 °C 4,5 °C 73 % 1000,2 hPa 0,0 mm 16,3 km/h (3 Bft) W-SW 237 ° 0 min 0,000 mm 0,0 UV-I 0 W/m² 0,1 °C 0,9 °C 25,7 km/h (4 Bft)
05.03.2017 00:02 4,5 °C 4,6 °C 72 % 1000,2 hPa 0,0 mm 14,2 km/h (3 Bft) W 261 ° 0 min 0,000 mm 0,0 UV-I 0 W/m² -0,1 °C 1,3 °C 19,3 km/h (3 Bft)
05.03.2017 00:03 4,6 °C 4,6 °C 73 % 1000,2 hPa 0,0 mm 11,3 km/h (2 Bft) W-SW 245 ° 0 min 0,000 mm 0,0 UV-I 0 W/m² 0,2 °C 1,9 °C 17,7 km/h (3 Bft)
05.03.2017 00:04 4,6 °C 4,6 °C 73 % 1000,2 hPa 0,0 mm 16,2 km/h (3 Bft) SW 228 ° 0 min 0,000 mm 0,0 UV-I 0 W/m² 0,2 °C 1,1 °C 24,1 km/h (4 Bft)
05.03.2017 00:05 4,6 °C 4,6 °C 72 % 1000,2 hPa 0,0 mm 19,7 km/h (3 Bft) W-SW 242 ° 0 min 0,000 mm 0,0 UV-I 0 W/m² -0,0 °C 0,6 °C 38,6 km/h (5 Bft)
05.03.2017 00:06 4,6 °C 4,6 °C 72 % 1000,2 hPa 0,0 mm 22,3 km/h (4 Bft) W-SW 248 ° 0 min 0,000 mm 0,0 UV-I 0 W/m² -0,0 °C 0,3 °C 32,2 km/h (5 Bft)
05.03.2017 00:07 4,7 °C 4,7 °C 72 % 1000,2 hPa 0,0 mm 18,1 km/h (3 Bft) W-NW 298 ° 0 min 0,000 mm 0,0 UV-I 0 W/m² 0,1 °C 0,9 °C 24,1 km/h (4 Bft)
05.03.2017 00:08 4,7 °C 4,7 °C 72 % 1000,2 hPa 0,0 mm 14,2 km/h (3 Bft) W-SW 257 ° 0 min 0,000 mm 0,0 UV-I 0 W/m² 0,1 °C 1,5 °C 22,5 km/h (4 Bft)
05.03.2017 00:09 4,7 °C 4,7 °C 72 % 1000,2 hPa 0,0 mm 19,5 km/h (3 Bft) W-NW 289 ° 0 min 0,000 mm 0,0 UV-I 0 W/m² 0,1 °C 0,8 °C 30,6 km/h (5 Bft)
05.03.2017 00:10 4,7 °C 4,7 °C 71 % 1000,1 hPa 0,0 mm 19,0 km/h (3 Bft) W-SW 257 ° 0 min 0,000 mm 0,0 UV-I 0 W/m² -0,1 °C 0,8 °C 29,0 km/h (5 Bft)
05.03.2017 00:11 4,7 °C 4,7 °C 71 % 1000,3 hPa 0,0 mm 14,5 km/h (3 Bft) W-SW 248 ° 0 min 0,000 mm 0,0 UV-I 0 W/m² -0,1 °C 1,5 °C 22,5 km/h (4 Bft)
05.03.2017 00:12 4,7 °C 4,7 °C 71 % 1000,2 hPa 0,0 mm 18,8 km/h (3 Bft) W 267 ° 0 min 0,000 mm 0,0 UV-I 0 W/m² -0,1 °C 0,8 °C 22,5 km/h (4 Bft)
05.03.2017 00:13 4,7 °C 4,8 °C 71 % 1000,3 hPa 0,0 mm 17,0 km/h (3 Bft) W-SW 242 ° 0 min 0,000 mm 0,0 UV-I 0 W/m² -0,1 °C 1,1 °C 29,0 km/h (5 Bft)
05.03.2017 00:14 4,8 °C 4,8 °C 70 % 1000,3 hPa 0,0 mm 20,3 km/h (4 Bft) SW 236 ° 0 min 0,000 mm 0,0 UV-I 0 W/m² -0,2 °C 0,8 °C 32,2 km/h (5 Bft)
05.03.2017 00:15 4,8 °C 4,8 °C 70 % 1000,3 hPa 0,0 mm 22,0 km/h (4 Bft) W 263 ° 0 min 0,000 mm 0,0 UV-I 0 W/m² -0,2 °C 0,6 °C 33,8 km/h (5 Bft)
05.03.2017 00:16 4,8 °C 4,8 °C 70 % 1000,2 hPa 0,0 mm 19,2 km/h (3 Bft) W-SW 251 ° 0 min 0,000 mm 0,0 UV-I 0 W/m² -0,2 °C 0,9 °C 25,7 km/h (4 Bft)
05.03.2017 00:17 4,8 °C 4,9 °C 70 % 1000,2 hPa 0,0 mm 16,0 km/h (3 Bft) W-SW 238 ° 0 min 0,000 mm 0,0 UV-I 0 W/m² -0,2 °C 1,4 °C 20,9 km/h (4 Bft)
05.03.2017 00:18 4,8 °C 4,9 °C 70 % 1000,3 hPa 0,0 mm 12,0 km/h (2 Bft) W-SW 258 ° 0 min 0,000 mm 0,0 UV-I 0 W/m² -0,2 °C 2,0 °C 17,7 km/h (3 Bft)
05.03.2017 00:19 4,8 °C 4,9 °C 70 % 1000,3 hPa 0,0 mm 17,1 km/h (3 Bft) W-SW 258 ° 0 min 0,000 mm 0,0 UV-I 0 W/m² -0,2 °C 1,2 °C 29,0 km/h (5 Bft)
05.03.2017 00:20 4,8 °C 4,8 °C 70 % 1000,4 hPa 0,0 mm 16,9 km/h (3 Bft) W-NW 286 ° 0 min 0,000 mm 0,0 UV-I 0 W/m² -0,2 °C 1,2 °C 22,5 km/h (4 Bft)
05.03.2017 00:21 4,8 °C 4,8 °C 70 % 1000,2 hPa 0,0 mm 15,9 km/h (3 Bft) W 272 ° 0 min 0,000 mm 0,0 UV-I 0 W/m² -0,2 °C 1,4 °C 20,9 km/h (4 Bft)
05.03.2017 00:22 4,9 °C 4,9 °C 70 % 1000,3 hPa 0,0 mm 18,0 km/h (3 Bft) W 262 ° 0 min 0,000 mm 0,0 UV-I 0 W/m² -0,1 °C 1,2 °C 25,7 km/h (4 Bft)
05.03.2017 00:23 4,9 °C 4,9 °C 70 % 1000,4 hPa 0,0 mm 17,4 km/h (3 Bft) W-NW 301 ° 0 min 0,000 mm 0,0 UV-I 0 W/m² -0,1 °C 1,3 °C 22,5 km/h (4 Bft)
05.03.2017 00:24 4,9 °C 4,9 °C 70 % 1000,4 hPa 0,0 mm 15,2 km/h (3 Bft) W 264 ° 0 min 0,000 mm 0,0 UV-I 0 W/m² -0,1 °C 1,6 °C 24,1 km/h (4 Bft)
05.03.2017 00:25 4,9 °C 4,9 °C 70 % 1000,4 hPa 0,0 mm 19,4 km/h (3 Bft) W 281 ° 0 min 0,000 mm 0,0 UV-I 0 W/m² -0,1 °C 1,0 °C 24,1 km/h (4 Bft)
05.03.2017 00:26 4,9 °C 4,9 °C 70 % 1000,3 hPa 0,0 mm 20,5 km/h (4 Bft) SW 233 ° 0 min 0,000 mm 0,0 UV-I 0 W/m² -0,1 °C 0,9 °C 30,6 km/h (5 Bft)
05.03.2017 00:27 4,9 °C 4,9 °C 70 % 1000,4 hPa 0,0 mm 16,7 km/h (3 Bft) W-SW 253 ° 0 min 0,000 mm 0,0 UV-I 0 W/m² -0,1 °C 1,4 °C 25,7 km/h (4 Bft)
05.03.2017 00:28 4,9 °C 4,9 °C 69 % 1000,4 hPa 0,0 mm 17,8 km/h (3 Bft) W-SW 252 ° 0 min 0,000 mm 0,0 UV-I 0 W/m² -0,3 °C 1,2 °C 27,4 km/h (4 Bft)
05.03.2017 00:29 4,9 °C 4,9 °C 69 % 1000,4 hPa 0,0 mm 15,4 km/h (3 Bft) W 265 ° 0 min 0,000 mm 0,0 UV-I 0 W/m² -0,3 °C 1,6 °C 22,5 km/h (4 Bft)
05.03.2017 00:30 4,9 °C 4,9 °C 69 % 1000,5 hPa 0,0 mm 17,3 km/h (3 Bft) W 269 ° 0 min 0,000 mm 0,0 UV-I 0 W/m² -0,3 °C 1,3 °C 20,9 km/h (4 Bft)
05.03.2017 00:31 4,9 °C 4,9 °C 69 % 1000,5 hPa 0,0 mm 9,3 km/h (2 Bft) W 281 ° 0 min 0,000 mm 0,0 UV-I 0 W/m² -0,3 °C 2,7 °C 17,7 km/h (3 Bft)
05.03.2017 00:32 4,9 °C 4,9 °C 69 % 1000,5 hPa 0,0 mm 11,9 km/h (2 Bft) W 275 ° 0 min 0,000 mm 0,0 UV-I 0 W/m² -0,3 °C 2,2 °C 16,1 km/h (3 Bft)
05.03.2017 00:33 4,9 °C 4,9 °C 69 % 1000,5 hPa 0,0 mm 15,3 km/h (3 Bft) W-SW 250 ° 0 min 0,000 mm 0,0 UV-I 0 W/m² -0,3 °C 1,6 °C 19,3 km/h (3 Bft)
05.03.2017 00:34 4,9 °C 4,9 °C 69 % 1000,5 hPa 0,0 mm 18,4 km/h (3 Bft) W 261 ° 0 min 0,000 mm 0,0 UV-I 0 W/m² -0,3 °C 1,1 °C 24,1 km/h (4 Bft)
05.03.2017 00:35 4,9 °C 4,9 °C 69 % 1000,5 hPa 0,0 mm 14,3 km/h (3 Bft) SW 222 ° 0 min 0,000 mm 0,0 UV-I 0 W/m² -0,3 °C 1,7 °C 19,3 km/h (3 Bft)
05.03.2017 00:36 4,9 °C 4,9 °C 69 % 1000,5 hPa 0,0 mm 21,1 km/h (4 Bft) SW 235 ° 0 min 0,000 mm 0,0 UV-I 0 W/m² -0,3 °C 0,8 °C 29,0 km/h (5 Bft)
05.03.2017 00:37 4,9 °C 4,9 °C 69 % 1000,6 hPa 0,0 mm 18,0 km/h (3 Bft) W-SW 252 ° 0 min 0,000 mm 0,0 UV-I 0 W/m² -0,3 °C 1,2 °C 32,2 km/h (5 Bft)
05.03.2017 00:38 4,9 °C 4,9 °C 69 % 1000,5 hPa 0,0 mm 23,0 km/h (4 Bft) W 268 ° 0 min 0,000 mm 0,0 UV-I 0 W/m² -0,3 °C 0,6 °C 37,0 km/h (5 Bft)
05.03.2017 00:39 4,9 °C 4,9 °C 69 % 1000,5 hPa 0,0 mm 19,0 km/h (3 Bft) W-SW 254 ° 0 min 0,000 mm 0,0 UV-I 0 W/m² -0,3 °C 1,1 °C 27,4 km/h (4 Bft)
05.03.2017 00:40 4,9 °C 4,9 °C 69 % 1000,6 hPa 0,0 mm 17,2 km/h (3 Bft) W-SW 244 ° 0 min 0,000 mm 0,0 UV-I 0 W/m² -0,3 °C 1,3 °C 24,1 km/h (4 Bft)
05.03.2017 00:41 5,0 °C 5,0 °C 69 % 1000,5 hPa 0,0 mm 14,0 km/h (3 Bft) W 263 ° 0 min 0,000 mm 0,0 UV-I 0 W/m² -0,2 °C 1,9 °C 19,3 km/h (3 Bft)
05.03.2017 00:42 5,0 °C 5,0 °C 69 % 1000,5 hPa 0,0 mm 13,7 km/h (3 Bft) W-SW 246 ° 0 min 0,000 mm 0,0 UV-I 0 W/m² -0,2 °C 2,0 °C 20,9 km/h (4 Bft)
05.03.2017 00:43 4,9 °C 5,0 °C 69 % 1000,5 hPa 0,0 mm 12,4 km/h (3 Bft) S-SW 211 ° 0 min 0,000 mm 0,0 UV-I 0 W/m² -0,3 °C 2,1 °C 20,9 km/h (4 Bft)
05.03.2017 00:44 4,9 °C 4,9 °C 69 % 1000,5 hPa 0,0 mm 13,1 km/h (3 Bft) W-SW 244 ° 0 min 0,000 mm 0,0 UV-I 0 W/m² -0,3 °C 1,9 °C 19,3 km/h (3 Bft)
05.03.2017 00:45 4,9 °C 4,9 °C 69 % 1000,6 hPa 0,0 mm 20,7 km/h (4 Bft) W 263 ° 0 min 0,000 mm 0,0 UV-I 0 W/m² -0,3 °C 0,9 °C 27,4 km/h (4 Bft)
05.03.2017 00:46 4,9 °C 4,9 °C 69 % 1000,6 hPa 0,0 mm 11,9 km/h (2 Bft) W-SW 255 ° 0 min 0,000 mm 0,0 UV-I 0 W/m² -0,3 °C 2,2 °C 20,9 km/h (4 Bft)
05.03.2017 00:47 4,9 °C 4,9 °C 69 % 1000,6 hPa 0,0 mm 15,4 km/h (3 Bft) W 271 ° 0 min 0,000 mm 0,0 UV-I 0 W/m² -0,3 °C 1,6 °C 24,1 km/h (4 Bft)
05.03.2017 00:48 4,9 °C 4,9 °C 68 % 1000,7 hPa 0,0 mm 10,7 km/h (2 Bft) W 270 ° 0 min 0,000 mm 0,0 UV-I 0 W/m² -0,5 °C 2,4 °C 24,1 km/h (4 Bft)
05.03.2017 00:49 4,9 °C 4,9 °C 68 % 1000,7 hPa 0,0 mm 14,4 km/h (3 Bft) W 261 ° 0 min 0,000 mm 0,0 UV-I 0 W/m² -0,5 °C 1,7 °C 24,1 km/h (4 Bft)
05.03.2017 00:50 4,9 °C 5,0 °C 68 % 1000,7 hPa 0,0 mm 13,9 km/h (3 Bft) S-SW 213 ° 0 min 0,000 mm 0,0 UV-I 0 W/m² -0,5 °C 1,8 °C 20,9 km/h (4 Bft)
05.03.2017 00:51 5,0 °C 5,0 °C 68 % 1000,7 hPa 0,0 mm 13,9 km/h (3 Bft) SW 227 ° 0 min 0,000 mm 0,0 UV-I 0 W/m² -0,4 °C 1,9 °C 24,1 km/h (4 Bft)
05.03.2017 00:52 4,9 °C 5,0 °C 68 % 1000,8 hPa 0,0 mm 9,2 km/h (2 Bft) W-SW 247 ° 0 min 0,000 mm 0,0 UV-I 0 W/m² -0,5 °C 2,7 °C 16,1 km/h (3 Bft)
05.03.2017 00:53 4,9 °C 5,0 °C 68 % 1000,8 hPa 0,0 mm 11,9 km/h (2 Bft) W 271 ° 0 min 0,000 mm 0,0 UV-I 0 W/m² -0,5 °C 2,2 °C 17,7 km/h (3 Bft)
05.03.2017 00:54 4,9 °C 5,0 °C 68 % 1000,8 hPa 0,0 mm 16,2 km/h (3 Bft) W-SW 245 ° 0 min 0,000 mm 0,0 UV-I 0 W/m² -0,5 °C 1,4 °C 27,4 km/h (4 Bft)
05.03.2017 00:55 5,0 °C 5,0 °C 68 % 1000,8 hPa 0,0 mm 11,5 km/h (2 Bft) W-SW 246 ° 0 min 0,000 mm 0,0 UV-I 0 W/m² -0,4 °C 2,4 °C 16,1 km/h (3 Bft)
05.03.2017 00:56 4,9 °C 5,0 °C 67 % 1000,8 hPa 0,0 mm 12,3 km/h (3 Bft) W 264 ° 0 min 0,000 mm 0,0 UV-I 0 W/m² -0,7 °C 2,1 °C 16,1 km/h (3 Bft)
05.03.2017 00:57 5,0 °C 5,0 °C 68 % 1000,8 hPa 0,0 mm 12,3 km/h (3 Bft) W 263 ° 0 min 0,000 mm 0,0 UV-I 0 W/m² -0,4 °C 2,2 °C 22,5 km/h (4 Bft)
05.03.2017 00:58 4,9 °C 5,0 °C 68 % 1000,8 hPa 0,0 mm 9,8 km/h (2 Bft) W-SW 242 ° 0 min 0,000 mm 0,0 UV-I 0 W/m² -0,5 °C 2,6 °C 14,5 km/h (3 Bft)
05.03.2017 00:59 4,9 °C 4,9 °C 68 % 1000,8 hPa 0,0 mm 8,6 km/h (2 Bft) W-SW 250 ° 0 min 0,000 mm 0,0 UV-I 0 W/m² -0,5 °C 2,9 °C 14,5 km/h (3 Bft)
05.03.2017 01:00 4,9 °C 4,9 °C 68 % 1000,8 hPa 0,0 mm 9,0 km/h (2 Bft) W 262 ° 0 min 0,051 mm 0,0 UV-I 0 W/m² -0,5 °C 2,8 °C 16,1 km/h (3 Bft)
05.03.2017 01:01 4,9 °C 4,9 °C 68 % 1000,8 hPa 0,0 mm 8,8 km/h (2 Bft) SW 224 ° 0 min 0,000 mm 0,0 UV-I 0 W/m² -0,5 °C 2,8 °C 14,5 km/h (3 Bft)
05.03.2017 01:02 4,9 °C 4,9 °C 68 % 1000,8 hPa 0,0 mm 17,1 km/h (3 Bft) W-SW 256 ° 0 min 0,000 mm 0,0 UV-I 0 W/m² -0,5 °C 1,3 °C 25,7 km/h (4 Bft)
05.03.2017 01:03 4,9 °C 4,9 °C 68 % 1000,9 hPa 0,0 mm 14,7 km/h (3 Bft) W 263 ° 0 min 0,000 mm 0,0 UV-I 0 W/m² -0,5 °C 1,7 °C 20,9 km/h (4 Bft)
05.03.2017 01:04 5,0 °C 5,0 °C 68 % 1000,9 hPa 0,0 mm 17,6 km/h (3 Bft) SW 236 ° 0 min 0,000 mm 0,0 UV-I 0 W/m² -0,4 °C 1,4 °C 25,7 km/h (4 Bft)
05.03.2017 01:05 4,9 °C 5,0 °C 68 % 1001,0 hPa 0,0 mm 9,8 km/h (2 Bft) W-NW 284 ° 0 min 0,000 mm 0,0 UV-I 0 W/m² -0,5 °C 2,6 °C 16,1 km/h (3 Bft)
05.03.2017 01:06 5,0 °C 5,0 °C 67 % 1000,9 hPa 0,0 mm 11,7 km/h (2 Bft) W-SW 252 ° 0 min 0,000 mm 0,0 UV-I 0 W/m² -0,6 °C 2,3 °C 16,1 km/h (3 Bft)
05.03.2017 01:07 5,1 °C 5,1 °C 68 % 1001,0 hPa 0,0 mm 16,6 km/h (3 Bft) W-SW 250 ° 0 min 0,000 mm 0,0 UV-I 0 W/m² -0,3 °C 1,6 °C 25,7 km/h (4 Bft)
05.03.2017 01:08 5,0 °C 5,1 °C 68 % 1000,9 hPa 0,0 mm 8,9 km/h (2 Bft) S-SW 205 ° 0 min 0,000 mm 0,0 UV-I 0 W/m² -0,4 °C 2,9 °C 16,1 km/h (3 Bft)
05.03.2017 01:09 5,1 °C 5,1 °C 68 % 1000,9 hPa 0,0 mm 6,4 km/h (2 Bft) S-SW 213 ° 0 min 0,000 mm 0,0 UV-I 0 W/m² -0,3 °C 3,7 °C 11,3 km/h (2 Bft)
05.03.2017 01:10 5,1 °C 5,1 °C 68 % 1000,9 hPa 0,0 mm 15,2 km/h (3 Bft) W-SW 257 ° 0 min 0,000 mm 0,0 UV-I 0 W/m² -0,3 °C 1,8 °C 22,5 km/h (4 Bft)
05.03.2017 01:11 5,1 °C 5,1 °C 66 % 1001,0 hPa 0,0 mm 16,8 km/h (3 Bft) W-SW 253 ° 0 min 0,000 mm 0,0 UV-I 0 W/m² -0,7 °C 1,6 °C 22,5 km/h (4 Bft)
05.03.2017 01:12 5,1 °C 5,1 °C 67 % 1001,0 hPa 0,0 mm 13,0 km/h (3 Bft) SW 225 ° 0 min 0,000 mm 0,0 UV-I 0 W/m² -0,5 °C 2,2 °C 22,5 km/h (4 Bft)
05.03.2017 01:13 5,1 °C 5,1 °C 67 % 1001,0 hPa 0,0 mm 15,0 km/h (3 Bft) W-SW 256 ° 0 min 0,000 mm 0,0 UV-I 0 W/m² -0,5 °C 1,9 °C 20,9 km/h (4 Bft)
05.03.2017 01:14 5,1 °C 5,1 °C 67 % 1001,0 hPa 0,0 mm 12,8 km/h (3 Bft) SW 234 ° 0 min 0,000 mm 0,0 UV-I 0 W/m² -0,5 °C 2,2 °C 19,3 km/h (3 Bft)
05.03.2017 01:15 5,1 °C 5,1 °C 66 % 1001,1 hPa 0,0 mm 12,5 km/h (3 Bft) W-NW 283 ° 0 min 0,000 mm 0,0 UV-I 0 W/m² -0,7 °C 2,3 °C 20,9 km/h (4 Bft)
05.03.2017 01:16 5,1 °C 5,1 °C 66 % 1001,2 hPa 0,0 mm 14,6 km/h (3 Bft) W-NW 290 ° 0 min 0,000 mm 0,0 UV-I 0 W/m² -0,7 °C 1,9 °C 22,5 km/h (4 Bft)
05.03.2017 01:17 5,1 °C 5,2 °C 66 % 1001,0 hPa 0,0 mm 15,8 km/h (3 Bft) W-SW 246 ° 0 min 0,000 mm 0,0 UV-I 0 W/m² -0,7 °C 1,8 °C 25,7 km/h (4 Bft)
05.03.2017 01:18 5,2 °C 5,2 °C 66 % 1001,2 hPa 0,0 mm 17,0 km/h (3 Bft) W-SW 242 ° 0 min 0,000 mm 0,0 UV-I 0 W/m² -0,6 °C 1,7 °C 27,4 km/h (4 Bft)
05.03.2017 01:19 5,2 °C 5,2 °C 66 % 1001,2 hPa 0,0 mm 10,5 km/h (2 Bft) W 261 ° 0 min 0,000 mm 0,0 UV-I 0 W/m² -0,6 °C 2,8 °C 16,1 km/h (3 Bft)
05.03.2017 01:20 5,1 °C 5,2 °C 65 % 1001,3 hPa 0,0 mm 8,5 km/h (2 Bft) W-NW 288 ° 0 min 0,000 mm 0,0 UV-I 0 W/m² -0,9 °C 3,1 °C 14,5 km/h (3 Bft)
05.03.2017 01:21 5,1 °C 5,1 °C 65 % 1001,3 hPa 0,0 mm 22,9 km/h (4 Bft) W-SW 253 ° 0 min 0,000 mm 0,0 UV-I 0 W/m² -0,9 °C 0,9 °C 27,4 km/h (4 Bft)
05.03.2017 01:22 5,1 °C 5,1 °C 65 % 1001,3 hPa 0,0 mm 15,3 km/h (3 Bft) W-SW 252 ° 0 min 0,000 mm 0,0 UV-I 0 W/m² -0,9 °C 1,8 °C 24,1 km/h (4 Bft)
05.03.2017 01:23 5,1 °C 5,1 °C 65 % 1001,5 hPa 0,0 mm 21,0 km/h (4 Bft) SW 227 ° 0 min 0,000 mm 0,0 UV-I 0 W/m² -0,9 °C 1,1 °C 25,7 km/h (4 Bft)
05.03.2017 01:24 5,1 °C 5,1 °C 64 % 1001,4 hPa 0,0 mm 10,8 km/h (2 Bft) W-SW 246 ° 0 min 0,000 mm 0,0 UV-I 0 W/m² -1,1 °C 2,6 °C 17,7 km/h (3 Bft)
05.03.2017 01:25 5,1 °C 5,1 °C 65 % 1001,4 hPa 0,0 mm 14,7 km/h (3 Bft) W 262 ° 0 min 0,000 mm 0,0 UV-I 0 W/m² -0,9 °C 1,9 °C 24,1 km/h (4 Bft)
05.03.2017 01:26 5,1 °C 5,1 °C 64 % 1001,3 hPa 0,0 mm 25,9 km/h (4 Bft) W 268 ° 0 min 0,000 mm 0,0 UV-I 0 W/m² -1,1 °C 0,6 °C 37,0 km/h (5 Bft)
05.03.2017 01:27 5,1 °C 5,2 °C 63 % 1001,3 hPa 0,0 mm 14,4 km/h (3 Bft) S-SW 213 ° 0 min 0,000 mm 0,0 UV-I 0 W/m² -1,4 °C 2,0 °C 20,9 km/h (4 Bft)
05.03.2017 01:28 5,1 °C 5,2 °C 63 % 1001,3 hPa 0,0 mm 18,4 km/h (3 Bft) W 273 ° 0 min 0,000 mm 0,0 UV-I 0 W/m² -1,4 °C 1,4 °C 27,4 km/h (4 Bft)
05.03.2017 01:29 5,2 °C 5,2 °C 63 % 1001,3 hPa 0,0 mm 15,7 km/h (3 Bft) SW 224 ° 0 min 0,000 mm 0,0 UV-I 0 W/m² -1,3 °C 1,9 °C 20,9 km/h (4 Bft)
05.03.2017 01:30 5,1 °C 5,2 °C 63 % 1001,3 hPa 0,0 mm 19,4 km/h (3 Bft) W 263 ° 0 min 0,000 mm 0,0 UV-I 0 W/m² -1,4 °C 1,3 °C 32,2 km/h (5 Bft)
05.03.2017 01:31 5,1 °C 5,2 °C 62 % 1001,2 hPa 0,0 mm 19,0 km/h (3 Bft) W-NW 294 ° 0 min 0,000 mm 0,0 UV-I 0 W/m² -1,6 °C 1,3 °C 29,0 km/h (5 Bft)
05.03.2017 01:32 5,2 °C 5,2 °C 62 % 1001,3 hPa 0,0 mm 16,5 km/h (3 Bft) W 267 ° 0 min 0,000 mm 0,0 UV-I 0 W/m² -1,5 °C 1,8 °C 27,4 km/h (4 Bft)
05.03.2017 01:33 5,2 °C 5,2 °C 61 % 1001,4 hPa 0,0 mm 18,5 km/h (3 Bft) W-NW 288 ° 0 min 0,000 mm 0,0 UV-I 0 W/m² -1,7 °C 1,5 °C 29,0 km/h (5 Bft)
05.03.2017 01:34 5,2 °C 5,2 °C 61 % 1001,3 hPa 0,0 mm 19,0 km/h (3 Bft) W 259 ° 0 min 0,000 mm 0,0 UV-I 0 W/m² -1,7 °C 1,4 °C 27,4 km/h (4 Bft)
05.03.2017 01:35 5,2 °C 5,2 °C 62 % 1001,5 hPa 0,0 mm 13,8 km/h (3 Bft) W-SW 240 ° 0 min 0,000 mm 0,0 UV-I 0 W/m² -1,5 °C 2,2 °C 27,4 km/h (4 Bft)
05.03.2017 01:36 5,2 °C 5,2 °C 61 % 1001,4 hPa 0,0 mm 19,3 km/h (3 Bft) W-NW 292 ° 0 min 0,000 mm 0,0 UV-I 0 W/m² -1,7 °C 1,4 °C 25,7 km/h (4 Bft)
05.03.2017 01:37 5,2 °C 5,2 °C 61 % 1001,4 hPa 0,0 mm 17,5 km/h (3 Bft) W-SW 254 ° 0 min 0,000 mm 0,0 UV-I 0 W/m² -1,7 °C 1,6 °C 25,7 km/h (4 Bft)
05.03.2017 01:38 5,1 °C 5,2 °C 61 % 1001,5 hPa 0,0 mm 16,6 km/h (3 Bft) W 267 ° 0 min 0,000 mm 0,0 UV-I 0 W/m² -1,8 °C 1,6 °C 25,7 km/h (4 Bft)
05.03.2017 01:39 5,1 °C 5,1 °C 61 % 1001,5 hPa 0,0 mm 18,9 km/h (3 Bft) W-SW 247 ° 0 min 0,000 mm 0,0 UV-I 0 W/m² -1,8 °C 1,3 °C 29,0 km/h (5 Bft)
05.03.2017 01:40 5,1 °C 5,1 °C 61 % 1001,5 hPa 0,0 mm 20,3 km/h (4 Bft) W 261 ° 0 min 0,000 mm 0,0 UV-I 0 W/m² -1,8 °C 1,2 °C 25,7 km/h (4 Bft)
05.03.2017 01:41 5,1 °C 5,2 °C 61 % 1001,5 hPa 0,0 mm 14,9 km/h (3 Bft) W-SW 246 ° 0 min 0,000 mm 0,0 UV-I 0 W/m² -1,8 °C 1,9 °C 22,5 km/h (4 Bft)
05.03.2017 01:42 5,1 °C 5,1 °C 61 % 1001,6 hPa 0,0 mm 18,3 km/h (3 Bft) W 273 ° 0 min 0,000 mm 0,0 UV-I 0 W/m² -1,8 °C 1,4 °C 25,7 km/h (4 Bft)
05.03.2017 01:43 5,1 °C 5,1 °C 61 % 1001,5 hPa 0,0 mm 11,7 km/h (2 Bft) W 272 ° 0 min 0,000 mm 0,0 UV-I 0 W/m² -1,8 °C 2,4 °C 19,3 km/h (3 Bft)
05.03.2017 01:44 5,1 °C 5,1 °C 61 % 1001,6 hPa 0,0 mm 18,5 km/h (3 Bft) W-SW 255 ° 0 min 0,000 mm 0,0 UV-I 0 W/m² -1,8 °C 1,4 °C 27,4 km/h (4 Bft)
05.03.2017 01:45 5,1 °C 5,1 °C 61 % 1001,5 hPa 0,0 mm 13,1 km/h (3 Bft) W 263 ° 0 min 0,000 mm 0,0 UV-I 0 W/m² -1,8 °C 2,2 °C 27,4 km/h (4 Bft)
05.03.2017 01:46 5,1 °C 5,1 °C 61 % 1001,5 hPa 0,0 mm 17,6 km/h (3 Bft) W 261 ° 0 min 0,000 mm 0,0 UV-I 0 W/m² -1,8 °C 1,5 °C 27,4 km/h (4 Bft)
05.03.2017 01:47 5,1 °C 5,1 °C 61 % 1001,5 hPa 0,0 mm 14,6 km/h (3 Bft) W-NW 299 ° 0 min 0,000 mm 0,0 UV-I 0 W/m² -1,8 °C 1,9 °C 25,7 km/h (4 Bft)
05.03.2017 01:48 5,1 °C 5,1 °C 61 % 1001,5 hPa 0,0 mm 13,9 km/h (3 Bft) W-SW 258 ° 0 min 0,000 mm 0,0 UV-I 0 W/m² -1,8 °C 2,0 °C 20,9 km/h (4 Bft)
05.03.2017 01:49 5,1 °C 5,1 °C 61 % 1001,5 hPa 0,0 mm 12,3 km/h (3 Bft) W-NW 286 ° 0 min 0,000 mm 0,0 UV-I 0 W/m² -1,8 °C 2,3 °C 19,3 km/h (3 Bft)
05.03.2017 01:50 5,0 °C 5,1 °C 61 % 1001,5 hPa 0,0 mm 16,8 km/h (3 Bft) W 263 ° 0 min 0,000 mm 0,0 UV-I 0 W/m² -1,9 °C 1,5 °C 27,4 km/h (4 Bft)
05.03.2017 01:51 4,9 °C 5,0 °C 61 % 1001,5 hPa 0,0 mm 14,8 km/h (3 Bft) W-SW 255 ° 0 min 0,000 mm 0,0 UV-I 0 W/m² -2,0 °C 1,7 °C 19,3 km/h (3 Bft)
05.03.2017 01:52 4,9 °C 4,9 °C 62 % 1001,6 hPa 0,0 mm 16,8 km/h (3 Bft) W 263 ° 0 min 0,000 mm 0,0 UV-I 0 W/m² -1,8 °C 1,4 °C 20,9 km/h (4 Bft)
05.03.2017 01:53 4,9 °C 5,0 °C 62 % 1001,6 hPa 0,0 mm 11,9 km/h (2 Bft) W-NW 288 ° 0 min 0,000 mm 0,0 UV-I 0 W/m² -1,8 °C 2,2 °C 17,7 km/h (3 Bft)
05.03.2017 01:54 4,9 °C 4,9 °C 62 % 1001,6 hPa 0,0 mm 17,4 km/h (3 Bft) W 276 ° 0 min 0,000 mm 0,0 UV-I 0 W/m² -1,8 °C 1,3 °C 24,1 km/h (4 Bft)
05.03.2017 01:55 4,9 °C 4,9 °C 61 % 1001,7 hPa 0,0 mm 15,3 km/h (3 Bft) W 271 ° 0 min 0,000 mm 0,0 UV-I 0 W/m² -2,0 °C 1,6 °C 25,7 km/h (4 Bft)
05.03.2017 01:56 4,9 °C 4,9 °C 61 % 1001,7 hPa 0,0 mm 10,4 km/h (2 Bft) W 267 ° 0 min 0,000 mm 0,0 UV-I 0 W/m² -2,0 °C 2,5 °C 17,7 km/h (3 Bft)
05.03.2017 01:57 4,9 °C 4,9 °C 62 % 1001,6 hPa 0,0 mm 8,4 km/h (2 Bft) W-NW 298 ° 0 min 0,000 mm 0,0 UV-I 0 W/m² -1,8 °C 2,9 °C 12,9 km/h (3 Bft)
05.03.2017 01:58 4,9 °C 4,9 °C 61 % 1001,7 hPa 0,0 mm 11,9 km/h (2 Bft) W 279 ° 0 min 0,000 mm 0,0 UV-I 0 W/m² -2,0 °C 2,2 °C 19,3 km/h (3 Bft)
05.03.2017 01:59 4,9 °C 4,9 °C 62 % 1001,7 hPa 0,0 mm 15,7 km/h (3 Bft) W 261 ° 0 min 0,000 mm 0,0 UV-I 0 W/m² -1,8 °C 1,5 °C 24,1 km/h (4 Bft)
05.03.2017 02:00 4,9 °C 4,9 °C 62 % 1001,7 hPa 0,0 mm 13,5 km/h (3 Bft) W 269 ° 0 min 0,000 mm 0,0 UV-I 0 W/m² -1,8 °C 1,9 °C 17,7 km/h (3 Bft)
05.03.2017 02:01 4,9 °C 4,9 °C 62 % 1001,7 hPa 0,0 mm 10,3 km/h (2 Bft) W 260 ° 0 min 0,051 mm 0,0 UV-I 0 W/m² -1,8 °C 2,5 °C 24,1 km/h (4 Bft)
05.03.2017 02:02 4,9 °C 4,9 °C 61 % 1001,8 hPa 0,0 mm 19,8 km/h (3 Bft) W 266 ° 0 min 0,000 mm 0,0 UV-I 0 W/m² -2,0 °C 1,0 °C 27,4 km/h (4 Bft)
05.03.2017 02:03 4,9 °C 4,9 °C 61 % 1001,8 hPa 0,0 mm 13,9 km/h (3 Bft) W-SW 242 ° 0 min 0,000 mm 0,0 UV-I 0 W/m² -2,0 °C 1,8 °C 20,9 km/h (4 Bft)
05.03.2017 02:04 4,9 °C 4,9 °C 62 % 1001,8 hPa 0,0 mm 17,5 km/h (3 Bft) W 279 ° 0 min 0,000 mm 0,0 UV-I 0 W/m² -1,8 °C 1,3 °C 24,1 km/h (4 Bft)
05.03.2017 02:05 5,0 °C 5,0 °C 62 % 1001,8 hPa 0,0 mm 18,3 km/h (3 Bft) SW 232 ° 0 min 0,000 mm 0,0 UV-I 0 W/m² -1,7 °C 1,3 °C 22,5 km/h (4 Bft)
05.03.2017 02:06 5,0 °C 5,0 °C 62 % 1001,8 hPa 0,0 mm 17,3 km/h (3 Bft) W 266 ° 0 min 0,000 mm 0,0 UV-I 0 W/m² -1,7 °C 1,4 °C 24,1 km/h (4 Bft)
05.03.2017 02:07 5,0 °C 5,0 °C 61 % 1001,8 hPa 0,0 mm 15,1 km/h (3 Bft) W-SW 245 ° 0 min 0,000 mm 0,0 UV-I 0 W/m² -1,9 °C 1,7 °C 20,9 km/h (4 Bft)
05.03.2017 02:08 5,0 °C 5,0 °C 61 % 1001,8 hPa 0,0 mm 16,0 km/h (3 Bft) SW 225 ° 0 min 0,000 mm 0,0 UV-I 0 W/m² -1,9 °C 1,6 °C 24,1 km/h (4 Bft)
05.03.2017 02:09 5,0 °C 5,1 °C 61 % 1001,8 hPa 0,0 mm 16,0 km/h (3 Bft) W-SW 242 ° 0 min 0,000 mm 0,0 UV-I 0 W/m² -1,9 °C 1,6 °C 20,9 km/h (4 Bft)
05.03.2017 02:10 5,1 °C 5,1 °C 61 % 1001,8 hPa 0,0 mm 16,2 km/h (3 Bft) W 262 ° 0 min 0,000 mm 0,0 UV-I 0 W/m² -1,8 °C 1,7 °C 24,1 km/h (4 Bft)
05.03.2017 02:11 5,1 °C 5,1 °C 61 % 1001,9 hPa 0,0 mm 15,5 km/h (3 Bft) SW 225 ° 0 min 0,000 mm 0,0 UV-I 0 W/m² -1,8 °C 1,8 °C 27,4 km/h (4 Bft)
05.03.2017 02:12 5,1 °C 5,1 °C 61 % 1001,9 hPa 0,0 mm 19,0 km/h (3 Bft) W 281 ° 0 min 0,000 mm 0,0 UV-I 0 W/m² -1,8 °C 1,3 °C 25,7 km/h (4 Bft)
05.03.2017 02:13 5,1 °C 5,1 °C 61 % 1001,9 hPa 0,0 mm 19,5 km/h (3 Bft) W-SW 246 ° 0 min 0,000 mm 0,0 UV-I 0 W/m² -1,8 °C 1,3 °C 29,0 km/h (5 Bft)
05.03.2017 02:14 5,1 °C 5,1 °C 61 % 1001,9 hPa 0,0 mm 20,0 km/h (4 Bft) W 261 ° 0 min 0,000 mm 0,0 UV-I 0 W/m² -1,8 °C 1,2 °C 32,2 km/h (5 Bft)
05.03.2017 02:15 5,1 °C 5,1 °C 61 % 1001,9 hPa 0,0 mm 12,5 km/h (3 Bft) W 276 ° 0 min 0,000 mm 0,0 UV-I 0 W/m² -1,8 °C 2,3 °C 17,7 km/h (3 Bft)
05.03.2017 02:16 5,1 °C 5,1 °C 61 % 1002,0 hPa 0,0 mm 16,4 km/h (3 Bft) W 267 ° 0 min 0,000 mm 0,0 UV-I 0 W/m² -1,8 °C 1,7 °C 22,5 km/h (4 Bft)
05.03.2017 02:17 5,1 °C 5,1 °C 61 % 1002,0 hPa 0,0 mm 20,3 km/h (4 Bft) W 279 ° 0 min 0,000 mm 0,0 UV-I 0 W/m² -1,8 °C 1,2 °C 29,0 km/h (5 Bft)
05.03.2017 02:18 5,1 °C 5,1 °C 61 % 1001,9 hPa 0,0 mm 17,9 km/h (3 Bft) W-SW 252 ° 0 min 0,000 mm 0,0 UV-I 0 W/m² -1,8 °C 1,5 °C 27,4 km/h (4 Bft)
05.03.2017 02:19 5,1 °C 5,1 °C 61 % 1001,9 hPa 0,0 mm 16,0 km/h (3 Bft) W 276 ° 0 min 0,000 mm 0,0 UV-I 0 W/m² -1,8 °C 1,7 °C 20,9 km/h (4 Bft)
05.03.2017 02:20 5,1 °C 5,1 °C 61 % 1001,9 hPa 0,0 mm 13,9 km/h (3 Bft) W-SW 250 ° 0 min 0,000 mm 0,0 UV-I 0 W/m² -1,8 °C 2,0 °C 19,3 km/h (3 Bft)
05.03.2017 02:21 5,1 °C 5,1 °C 61 % 1002,0 hPa 0,0 mm 16,4 km/h (3 Bft) W 261 ° 0 min 0,000 mm 0,0 UV-I 0 W/m² -1,8 °C 1,7 °C 22,5 km/h (4 Bft)
05.03.2017 02:22 5,1 °C 5,1 °C 61 % 1002,0 hPa 0,0 mm 12,4 km/h (3 Bft) W-SW 256 ° 0 min 0,000 mm 0,0 UV-I 0 W/m² -1,8 °C 2,3 °C 17,7 km/h (3 Bft)
05.03.2017 02:23 5,1 °C 5,1 °C 62 % 1002,0 hPa 0,0 mm 12,2 km/h (2 Bft) W 275 ° 0 min 0,000 mm 0,0 UV-I 0 W/m² -1,6 °C 2,3 °C 17,7 km/h (3 Bft)
05.03.2017 02:24 5,1 °C 5,1 °C 62 % 1002,0 hPa 0,0 mm 12,5 km/h (3 Bft) W 259 ° 0 min 0,000 mm 0,0 UV-I 0 W/m² -1,6 °C 2,3 °C 17,7 km/h (3 Bft)
05.03.2017 02:25 5,1 °C 5,1 °C 62 % 1002,0 hPa 0,0 mm 11,5 km/h (2 Bft) NW 312 ° 0 min 0,000 mm 0,0 UV-I 0 W/m² -1,6 °C 2,5 °C 16,1 km/h (3 Bft)
05.03.2017 02:26 5,1 °C 5,1 °C 62 % 1002,0 hPa 0,0 mm 10,9 km/h (2 Bft) W 266 ° 0 min 0,000 mm 0,0 UV-I 0 W/m² -1,6 °C 2,6 °C 16,1 km/h (3 Bft)
05.03.2017 02:27 5,0 °C 5,1 °C 62 % 1002,0 hPa 0,0 mm 13,5 km/h (3 Bft) W-SW 258 ° 0 min 0,000 mm 0,0 UV-I 0 W/m² -1,7 °C 2,0 °C 20,9 km/h (4 Bft)
05.03.2017 02:28 5,0 °C 5,0 °C 62 % 1002,0 hPa 0,0 mm 14,3 km/h (3 Bft) W 269 ° 0 min 0,000 mm 0,0 UV-I 0 W/m² -1,7 °C 1,9 °C 20,9 km/h (4 Bft)
05.03.2017 02:29 5,0 °C 5,0 °C 62 % 1002,0 hPa 0,0 mm 13,2 km/h (3 Bft) W-SW 257 ° 0 min 0,000 mm 0,0 UV-I 0 W/m² -1,7 °C 2,0 °C 17,7 km/h (3 Bft)
05.03.2017 02:30 4,9 °C 5,0 °C 62 % 1002,0 hPa 0,0 mm 12,1 km/h (2 Bft) W-SW 244 ° 0 min 0,000 mm 0,0 UV-I 0 W/m² -1,8 °C 2,1 °C 17,7 km/h (3 Bft)
05.03.2017 02:31 5,0 °C 5,0 °C 62 % 1002,0 hPa 0,0 mm 13,0 km/h (3 Bft) W-NW 282 ° 0 min 0,000 mm 0,0 UV-I 0 W/m² -1,7 °C 2,1 °C 19,3 km/h (3 Bft)
05.03.2017 02:32 4,9 °C 5,0 °C 62 % 1002,0 hPa 0,0 mm 11,7 km/h (2 Bft) SW 234 ° 0 min 0,000 mm 0,0 UV-I 0 W/m² -1,8 °C 2,2 °C 16,1 km/h (3 Bft)
05.03.2017 02:33 4,9 °C 4,9 °C 62 % 1002,0 hPa 0,0 mm 11,4 km/h (2 Bft) W 273 ° 0 min 0,000 mm 0,0 UV-I 0 W/m² -1,8 °C 2,3 °C 17,7 km/h (3 Bft)
05.03.2017 02:34 4,9 °C 4,9 °C 63 % 1002,0 hPa 0,0 mm 7,3 km/h (2 Bft) W 261 ° 0 min 0,000 mm 0,0 UV-I 0 W/m² -1,5 °C 3,2 °C 11,3 km/h (2 Bft)
05.03.2017 02:35 4,9 °C 4,9 °C 63 % 1002,0 hPa 0,0 mm 6,2 km/h (2 Bft) W 279 ° 0 min 0,000 mm 0,0 UV-I 0 W/m² -1,5 °C 3,5 °C 9,7 km/h (2 Bft)
05.03.2017 02:36 4,9 °C 4,9 °C 63 % 1002,1 hPa 0,0 mm 10,3 km/h (2 Bft) W-NW 295 ° 0 min 0,000 mm 0,0 UV-I 0 W/m² -1,5 °C 2,5 °C 14,5 km/h (3 Bft)
05.03.2017 02:37 4,8 °C 4,9 °C 63 % 1002,0 hPa 0,0 mm 8,7 km/h (2 Bft) W-SW 242 ° 0 min 0,000 mm 0,0 UV-I 0 W/m² -1,6 °C 2,7 °C 12,9 km/h (3 Bft)
05.03.2017 02:38 4,8 °C 4,9 °C 63 % 1001,9 hPa 0,0 mm 11,3 km/h (2 Bft) W 278 ° 0 min 0,000 mm 0,0 UV-I 0 W/m² -1,6 °C 2,1 °C 16,1 km/h (3 Bft)
05.03.2017 02:39 4,8 °C 4,8 °C 63 % 1001,9 hPa 0,0 mm 7,5 km/h (2 Bft) W 261 ° 0 min 0,000 mm 0,0 UV-I 0 W/m² -1,6 °C 3,0 °C 11,3 km/h (2 Bft)
05.03.2017 02:40 4,8 °C 4,8 °C 64 % 1001,9 hPa 0,0 mm 7,7 km/h (2 Bft) W 279 ° 0 min 0,000 mm 0,0 UV-I 0 W/m² -1,4 °C 3,0 °C 12,9 km/h (3 Bft)
05.03.2017 02:41 4,8 °C 4,8 °C 63 % 1001,9 hPa 0,0 mm 6,3 km/h (2 Bft) W-SW 247 ° 0 min 0,000 mm 0,0 UV-I 0 W/m² -1,6 °C 3,4 °C 11,3 km/h (2 Bft)
05.03.2017 02:42 4,8 °C 4,8 °C 63 % 1001,9 hPa 0,0 mm 9,3 km/h (2 Bft) W 263 ° 0 min 0,000 mm 0,0 UV-I 0 W/m² -1,6 °C 2,6 °C 14,5 km/h (3 Bft)
05.03.2017 02:43 4,8 °C 4,8 °C 63 % 1001,9 hPa 0,0 mm 9,8 km/h (2 Bft) W-SW 246 ° 0 min 0,000 mm 0,0 UV-I 0 W/m² -1,6 °C 2,5 °C 14,5 km/h (3 Bft)
05.03.2017 02:44 4,8 °C 4,8 °C 63 % 1001,9 hPa 0,0 mm 10,5 km/h (2 Bft) W-SW 254 ° 0 min 0,000 mm 0,0 UV-I 0 W/m² -1,6 °C 2,3 °C 14,5 km/h (3 Bft)
05.03.2017 02:45 4,8 °C 4,8 °C 63 % 1001,9 hPa 0,0 mm 8,4 km/h (2 Bft) W-SW 255 ° 0 min 0,000 mm 0,0 UV-I 0 W/m² -1,6 °C 2,8 °C 14,5 km/h (3 Bft)
05.03.2017 02:46 4,7 °C 4,8 °C 63 % 1001,9 hPa 0,0 mm 7,6 km/h (2 Bft) W-SW 246 ° 0 min 0,000 mm 0,0 UV-I 0 W/m² -1,7 °C 2,9 °C 14,5 km/h (3 Bft)
05.03.2017 02:47 4,8 °C 4,8 °C 63 % 1001,9 hPa 0,0 mm 10,1 km/h (2 Bft) W-SW 256 ° 0 min 0,000 mm 0,0 UV-I 0 W/m² -1,6 °C 2,4 °C 12,9 km/h (3 Bft)
05.03.2017 02:48 4,7 °C 4,8 °C 63 % 1001,9 hPa 0,0 mm 6,9 km/h (2 Bft) W 259 ° 0 min 0,000 mm 0,0 UV-I 0 W/m² -1,7 °C 3,1 °C 9,7 km/h (2 Bft)
05.03.2017 02:49 4,7 °C 4,8 °C 64 % 1001,9 hPa 0,0 mm 11,3 km/h (2 Bft) W-SW 257 ° 0 min 0,000 mm 0,0 UV-I 0 W/m² -1,5 °C 2,0 °C 12,9 km/h (3 Bft)
05.03.2017 02:50 4,7 °C 4,7 °C 64 % 1001,9 hPa 0,0 mm 5,7 km/h (1 Bft) W-SW 258 ° 0 min 0,000 mm 0,0 UV-I 0 W/m² -1,5 °C 3,5 °C 14,5 km/h (3 Bft)
05.03.2017 02:51 4,6 °C 4,7 °C 64 % 1001,9 hPa 0,0 mm 11,0 km/h (2 Bft) W-SW 254 ° 0 min 0,000 mm 0,0 UV-I 0 W/m² -1,6 °C 2,0 °C 14,5 km/h (3 Bft)
05.03.2017 02:52 4,6 °C 4,7 °C 64 % 1001,9 hPa 0,0 mm 7,6 km/h (2 Bft) W-SW 247 ° 0 min 0,000 mm 0,0 UV-I 0 W/m² -1,6 °C 2,8 °C 14,5 km/h (3 Bft)
05.03.2017 02:53 4,6 °C 4,6 °C 64 % 1001,9 hPa 0,0 mm 10,3 km/h (2 Bft) W-SW 248 ° 0 min 0,000 mm 0,0 UV-I 0 W/m² -1,6 °C 2,1 °C 12,9 km/h (3 Bft)
05.03.2017 02:54 4,6 °C 4,6 °C 64 % 1001,9 hPa 0,0 mm 9,2 km/h (2 Bft) W 259 ° 0 min 0,000 mm 0,0 UV-I 0 W/m² -1,6 °C 2,4 °C 12,9 km/h (3 Bft)
05.03.2017 02:55 4,6 °C 4,7 °C 64 % 1001,9 hPa 0,0 mm 7,9 km/h (2 Bft) W 266 ° 0 min 0,000 mm 0,0 UV-I 0 W/m² -1,6 °C 2,7 °C 11,3 km/h (2 Bft)
05.03.2017 02:56 4,6 °C 4,7 °C 64 % 1001,9 hPa 0,0 mm 8,4 km/h (2 Bft) W 264 ° 0 min 0,000 mm 0,0 UV-I 0 W/m² -1,6 °C 2,6 °C 11,3 km/h (2 Bft)
05.03.2017 02:57 4,6 °C 4,7 °C 64 % 1001,9 hPa 0,0 mm 9,3 km/h (2 Bft) W 267 ° 0 min 0,000 mm 0,0 UV-I 0 W/m² -1,6 °C 2,3 °C 16,1 km/h (3 Bft)
05.03.2017 02:58 4,7 °C 4,7 °C 63 % 1001,9 hPa 0,0 mm 14,6 km/h (3 Bft) W 265 ° 0 min 0,000 mm 0,0 UV-I 0 W/m² -1,7 °C 1,4 °C 19,3 km/h (3 Bft)
05.03.2017 02:59 4,7 °C 4,7 °C 64 % 1001,9 hPa 0,0 mm 7,2 km/h (2 Bft) W-SW 251 ° 0 min 0,000 mm 0,0 UV-I 0 W/m² -1,5 °C 3,0 °C 12,9 km/h (3 Bft)
05.03.2017 03:00 4,7 °C 4,7 °C 64 % 1001,9 hPa 0,0 mm 12,3 km/h (3 Bft) SW 235 ° 0 min 0,050 mm 0,0 UV-I 0 W/m² -1,5 °C 1,8 °C 17,7 km/h (3 Bft)
05.03.2017 03:01 4,8 °C 4,8 °C 63 % 1001,9 hPa 0,0 mm 10,7 km/h (2 Bft) W-SW 258 ° 0 min 0,000 mm 0,0 UV-I 0 W/m² -1,6 °C 2,3 °C 16,1 km/h (3 Bft)
05.03.2017 03:02 4,8 °C 4,8 °C 63 % 1001,9 hPa 0,0 mm 13,4 km/h (3 Bft) W-SW 238 ° 0 min 0,000 mm 0,0 UV-I 0 W/m² -1,6 °C 1,8 °C 16,1 km/h (3 Bft)
05.03.2017 03:03 4,8 °C 4,8 °C 63 % 1001,9 hPa 0,0 mm 7,4 km/h (2 Bft) W-SW 239 ° 0 min 0,000 mm 0,0 UV-I 0 W/m² -1,6 °C 3,1 °C 16,1 km/h (3 Bft)
05.03.2017 03:04 4,8 °C 4,8 °C 63 % 1001,9 hPa 0,0 mm 9,5 km/h (2 Bft) W 261 ° 0 min 0,000 mm 0,0 UV-I 0 W/m² -1,6 °C 2,5 °C 16,1 km/h (3 Bft)
05.03.2017 03:05 4,8 °C 4,8 °C 63 % 1001,9 hPa 0,0 mm 7,1 km/h (2 Bft) W-SW 241 ° 0 min 0,000 mm 0,0 UV-I 0 W/m² -1,6 °C 3,1 °C 9,7 km/h (2 Bft)
05.03.2017 03:06 4,8 °C 4,9 °C 62 % 1001,9 hPa 0,0 mm 9,9 km/h (2 Bft) W-NW 289 ° 0 min 0,000 mm 0,0 UV-I 0 W/m² -1,9 °C 2,4 °C 19,3 km/h (3 Bft)
05.03.2017 03:07 4,9 °C 4,9 °C 62 % 1002,0 hPa 0,0 mm 9,1 km/h (2 Bft) W-SW 254 ° 0 min 0,000 mm 0,0 UV-I 0 W/m² -1,8 °C 2,7 °C 12,9 km/h (3 Bft)
05.03.2017 03:08 4,9 °C 4,9 °C 62 % 1002,0 hPa 0,0 mm 8,2 km/h (2 Bft) W-SW 248 ° 0 min 0,000 mm 0,0 UV-I 0 W/m² -1,8 °C 3,0 °C 12,9 km/h (3 Bft)
05.03.2017 03:09 4,9 °C 4,9 °C 62 % 1001,9 hPa 0,0 mm 16,1 km/h (3 Bft) W 260 ° 0 min 0,000 mm 0,0 UV-I 0 W/m² -1,8 °C 1,5 °C 24,1 km/h (4 Bft)
05.03.2017 03:10 4,9 °C 4,9 °C 61 % 1001,8 hPa 0,0 mm 10,9 km/h (2 Bft) W-SW 253 ° 0 min 0,000 mm 0,0 UV-I 0 W/m² -2,0 °C 2,3 °C 20,9 km/h (4 Bft)
05.03.2017 03:11 5,0 °C 5,0 °C 62 % 1001,9 hPa 0,0 mm 20,0 km/h (4 Bft) S-SW 200 ° 0 min 0,000 mm 0,0 UV-I 0 W/m² -1,7 °C 1,1 °C 25,7 km/h (4 Bft)
05.03.2017 03:12 4,9 °C 5,0 °C 62 % 1001,9 hPa 0,0 mm 12,1 km/h (2 Bft) W 260 ° 0 min 0,000 mm 0,0 UV-I 0 W/m² -1,8 °C 2,1 °C 17,7 km/h (3 Bft)
05.03.2017 03:13 5,0 °C 5,0 °C 62 % 1001,9 hPa 0,0 mm 9,7 km/h (2 Bft) W-NW 299 ° 0 min 0,000 mm 0,0 UV-I 0 W/m² -1,7 °C 2,7 °C 14,5 km/h (3 Bft)
05.03.2017 03:14 5,0 °C 5,1 °C 61 % 1002,0 hPa 0,0 mm 10,5 km/h (2 Bft) SW 226 ° 0 min 0,000 mm 0,0 UV-I 0 W/m² -1,9 °C 2,6 °C 14,5 km/h (3 Bft)
05.03.2017 03:15 5,1 °C 5,1 °C 61 % 1002,0 hPa 0,0 mm 4,8 km/h (1 Bft) W-NW 300 ° 0 min 0,000 mm 0,0 UV-I 0 W/m² -1,8 °C 4,3 °C 8,0 km/h (2 Bft)
05.03.2017 03:16 5,1 °C 5,1 °C 61 % 1002,0 hPa 0,0 mm 13,3 km/h (3 Bft) W 263 ° 0 min 0,000 mm 0,0 UV-I 0 W/m² -1,8 °C 2,1 °C 19,3 km/h (3 Bft)
05.03.2017 03:17 5,1 °C 5,1 °C 61 % 1002,0 hPa 0,0 mm 10,9 km/h (2 Bft) W-SW 248 ° 0 min 0,000 mm 0,0 UV-I 0 W/m² -1,8 °C 2,6 °C 19,3 km/h (3 Bft)
05.03.2017 03:18 5,1 °C 5,1 °C 61 % 1002,0 hPa 0,0 mm 11,2 km/h (2 Bft) W 269 ° 0 min 0,000 mm 0,0 UV-I 0 W/m² -1,8 °C 2,5 °C 17,7 km/h (3 Bft)
05.03.2017 03:19 5,1 °C 5,1 °C 61 % 1002,0 hPa 0,0 mm 11,6 km/h (2 Bft) W 274 ° 0 min 0,000 mm 0,0 UV-I 0 W/m² -1,8 °C 2,5 °C 17,7 km/h (3 Bft)
05.03.2017 03:20 5,2 °C 5,2 °C 61 % 1002,0 hPa 0,0 mm 10,6 km/h (2 Bft) W-SW 251 ° 0 min 0,000 mm 0,0 UV-I 0 W/m² -1,7 °C 2,8 °C 16,1 km/h (3 Bft)
05.03.2017 03:21 5,1 °C 5,2 °C 61 % 1002,0 hPa 0,0 mm 7,3 km/h (2 Bft) W-SW 252 ° 0 min 0,000 mm 0,0 UV-I 0 W/m² -1,8 °C 3,4 °C 17,7 km/h (3 Bft)
05.03.2017 03:22 5,1 °C 5,2 °C 61 % 1002,0 hPa 0,0 mm 16,8 km/h (3 Bft) W 261 ° 0 min 0,000 mm 0,0 UV-I 0 W/m² -1,8 °C 1,6 °C 20,9 km/h (4 Bft)
05.03.2017 03:23 5,1 °C 5,2 °C 60 % 1002,0 hPa 0,0 mm 11,7 km/h (2 Bft) W-SW 249 ° 0 min 0,000 mm 0,0 UV-I 0 W/m² -2,0 °C 2,4 °C 17,7 km/h (3 Bft)
05.03.2017 03:24 5,2 °C 5,2 °C 61 % 1002,0 hPa 0,0 mm 13,0 km/h (3 Bft) W-SW 249 ° 0 min 0,000 mm 0,0 UV-I 0 W/m² -1,7 °C 2,3 °C 19,3 km/h (3 Bft)
05.03.2017 03:25 5,2 °C 5,2 °C 60 % 1002,0 hPa 0,0 mm 9,1 km/h (2 Bft) W 263 ° 0 min 0,000 mm 0,0 UV-I 0 W/m² -1,9 °C 3,1 °C 14,5 km/h (3 Bft)
05.03.2017 03:26 5,2 °C 5,2 °C 60 % 1002,0 hPa 0,0 mm 13,0 km/h (3 Bft) W-SW 240 ° 0 min 0,000 mm 0,0 UV-I 0 W/m² -1,9 °C 2,3 °C 19,3 km/h (3 Bft)
05.03.2017 03:27 5,2 °C 5,2 °C 61 % 1002,0 hPa 0,0 mm 9,8 km/h (2 Bft) W 264 ° 0 min 0,000 mm 0,0 UV-I 0 W/m² -1,7 °C 2,9 °C 19,3 km/h (3 Bft)
05.03.2017 03:28 5,2 °C 5,2 °C 60 % 1002,0 hPa 0,0 mm 14,1 km/h (3 Bft) W-SW 245 ° 0 min 0,000 mm 0,0 UV-I 0 W/m² -1,9 °C 2,1 °C 20,9 km/h (4 Bft)
05.03.2017 03:29 5,2 °C 5,2 °C 60 % 1002,0 hPa 0,0 mm 6,5 km/h (2 Bft) SW 229 ° 0 min 0,000 mm 0,0 UV-I 0 W/m² -1,9 °C 3,8 °C 9,7 km/h (2 Bft)
05.03.2017 03:30 5,2 °C 5,2 °C 61 % 1002,1 hPa 0,0 mm 4,0 km/h (1 Bft) W-SW 245 ° 0 min 0,000 mm 0,0 UV-I 0 W/m² -1,7 °C 5,2 °C 6,4 km/h (2 Bft)
05.03.2017 03:31 5,2 °C 5,2 °C 61 % 1002,1 hPa 0,0 mm 5,0 km/h (1 Bft) SW 232 ° 0 min 0,000 mm 0,0 UV-I 0 W/m² -1,7 °C 4,3 °C 11,3 km/h (2 Bft)
05.03.2017 03:32 5,1 °C 5,2 °C 61 % 1002,1 hPa 0,0 mm 5,2 km/h (1 Bft) W-SW 258 ° 0 min 0,000 mm 0,0 UV-I 0 W/m² -1,8 °C 4,1 °C 8,0 km/h (2 Bft)
05.03.2017 03:33 5,1 °C 5,1 °C 61 % 1002,1 hPa 0,0 mm 8,6 km/h (2 Bft) W-SW 242 ° 0 min 0,000 mm 0,0 UV-I 0 W/m² -1,8 °C 3,1 °C 16,1 km/h (3 Bft)
05.03.2017 03:34 5,1 °C 5,1 °C 61 % 1002,1 hPa 0,0 mm 5,6 km/h (1 Bft) W-SW 240 ° 0 min 0,000 mm 0,0 UV-I 0 W/m² -1,8 °C 4,0 °C 14,5 km/h (3 Bft)
05.03.2017 03:35 5,1 °C 5,1 °C 61 % 1002,1 hPa 0,0 mm 9,1 km/h (2 Bft) W 259 ° 0 min 0,000 mm 0,0 UV-I 0 W/m² -1,8 °C 3,0 °C 12,9 km/h (3 Bft)
05.03.2017 03:36 5,0 °C 5,1 °C 61 % 1002,1 hPa 0,0 mm 4,5 km/h (1 Bft) W 260 ° 0 min 0,000 mm 0,0 UV-I 0 W/m² -1,9 °C 5,0 °C 9,7 km/h (2 Bft)
05.03.2017 03:37 5,0 °C 5,1 °C 62 % 1002,1 hPa 0,0 mm 13,9 km/h (3 Bft) W 262 ° 0 min 0,000 mm 0,0 UV-I 0 W/m² -1,7 °C 1,9 °C 25,7 km/h (4 Bft)
05.03.2017 03:38 4,9 °C 5,0 °C 62 % 1002,1 hPa 0,0 mm 13,9 km/h (3 Bft) W 266 ° 0 min 0,000 mm 0,0 UV-I 0 W/m² -1,8 °C 1,8 °C 20,9 km/h (4 Bft)
05.03.2017 03:39 5,0 °C 5,0 °C 61 % 1002,1 hPa 0,0 mm 11,1 km/h (2 Bft) SW 225 ° 0 min 0,000 mm 0,0 UV-I 0 W/m² -1,9 °C 2,4 °C 20,9 km/h (4 Bft)
05.03.2017 03:40 5,1 °C 5,1 °C 61 % 1002,1 hPa 0,0 mm 8,5 km/h (2 Bft) W-SW 257 ° 0 min 0,000 mm 0,0 UV-I 0 W/m² -1,8 °C 3,1 °C 14,5 km/h (3 Bft)
05.03.2017 03:41 5,1 °C 5,1 °C 61 % 1002,1 hPa 0,0 mm 16,1 km/h (3 Bft) W 263 ° 0 min 0,000 mm 0,0 UV-I 0 W/m² -1,8 °C 1,7 °C 22,5 km/h (4 Bft)
05.03.2017 03:42 5,1 °C 5,1 °C 61 % 1002,1 hPa 0,0 mm 14,8 km/h (3 Bft) W 269 ° 0 min 0,000 mm 0,0 UV-I 0 W/m² -1,8 °C 1,9 °C 19,3 km/h (3 Bft)
05.03.2017 03:43 5,1 °C 5,1 °C 61 % 1002,1 hPa 0,0 mm 9,9 km/h (2 Bft) W-SW 258 ° 0 min 0,000 mm 0,0 UV-I 0 W/m² -1,8 °C 2,8 °C 17,7 km/h (3 Bft)
05.03.2017 03:44 5,1 °C 5,1 °C 61 % 1002,1 hPa 0,0 mm 10,7 km/h (2 Bft) W-NW 292 ° 0 min 0,000 mm 0,0 UV-I 0 W/m² -1,8 °C 2,6 °C 16,1 km/h (3 Bft)
05.03.2017 03:45 5,1 °C 5,1 °C 61 % 1002,1 hPa 0,0 mm 5,2 km/h (1 Bft) W-SW 250 ° 0 min 0,000 mm 0,0 UV-I 0 W/m² -1,8 °C 4,1 °C 8,0 km/h (2 Bft)
05.03.2017 03:46 5,1 °C 5,1 °C 61 % 1002,1 hPa 0,0 mm 5,2 km/h (1 Bft) W-SW 254 ° 0 min 0,000 mm 0,0 UV-I 0 W/m² -1,8 °C 4,1 °C 6,4 km/h (2 Bft)
05.03.2017 03:47 5,1 °C 5,1 °C 62 % 1002,2 hPa 0,0 mm 12,3 km/h (3 Bft) W 264 ° 0 min 0,000 mm 0,0 UV-I 0 W/m² -1,6 °C 2,3 °C 20,9 km/h (4 Bft)
05.03.2017 03:48 5,0 °C 5,1 °C 62 % 1002,2 hPa 0,0 mm 10,8 km/h (2 Bft) W 264 ° 0 min 0,000 mm 0,0 UV-I 0 W/m² -1,7 °C 2,5 °C 20,9 km/h (4 Bft)
05.03.2017 03:49 5,1 °C 5,1 °C 62 % 1002,2 hPa 0,0 mm 5,0 km/h (1 Bft) W-SW 256 ° 0 min 0,000 mm 0,0 UV-I 0 W/m² -1,6 °C 4,2 °C 9,7 km/h (2 Bft)
05.03.2017 03:50 5,1 °C 5,1 °C 61 % 1002,1 hPa 0,0 mm 7,6 km/h (2 Bft) SW 234 ° 0 min 0,000 mm 0,0 UV-I 0 W/m² -1,8 °C 3,4 °C 11,3 km/h (2 Bft)
05.03.2017 03:51 5,0 °C 5,1 °C 62 % 1002,1 hPa 0,0 mm 4,5 km/h (1 Bft) W-SW 246 ° 0 min 0,000 mm 0,0 UV-I 0 W/m² -1,7 °C 5,0 °C 11,3 km/h (2 Bft)
05.03.2017 03:52 5,1 °C 5,1 °C 62 % 1002,2 hPa 0,0 mm 10,0 km/h (2 Bft) NW 304 ° 0 min 0,000 mm 0,0 UV-I 0 W/m² -1,6 °C 2,8 °C 14,5 km/h (3 Bft)
05.03.2017 03:53 5,0 °C 5,1 °C 62 % 1002,2 hPa 0,0 mm 7,1 km/h (2 Bft) W 271 ° 0 min 0,000 mm 0,0 UV-I 0 W/m² -1,7 °C 3,4 °C 12,9 km/h (3 Bft)
05.03.2017 03:54 4,9 °C 5,0 °C 62 % 1002,2 hPa 0,0 mm 10,7 km/h (2 Bft) W-SW 252 ° 0 min 0,000 mm 0,0 UV-I 0 W/m² -1,8 °C 2,4 °C 16,1 km/h (3 Bft)
05.03.2017 03:55 4,9 °C 4,9 °C 62 % 1002,2 hPa 0,0 mm 12,0 km/h (2 Bft) W-SW 254 ° 0 min 0,000 mm 0,0 UV-I 0 W/m² -1,8 °C 2,1 °C 19,3 km/h (3 Bft)
05.03.2017 03:56 4,9 °C 4,9 °C 62 % 1002,3 hPa 0,0 mm 9,3 km/h (2 Bft) W-SW 257 ° 0 min 0,000 mm 0,0 UV-I 0 W/m² -1,8 °C 2,7 °C 17,7 km/h (3 Bft)
05.03.2017 03:57 4,9 °C 4,9 °C 62 % 1002,2 hPa 0,0 mm 5,5 km/h (1 Bft) W-SW 244 ° 0 min 0,000 mm 0,0 UV-I 0 W/m² -1,8 °C 3,8 °C 9,7 km/h (2 Bft)
05.03.2017 03:58 4,9 °C 4,9 °C 62 % 1002,2 hPa 0,0 mm 11,5 km/h (2 Bft) W 269 ° 0 min 0,000 mm 0,0 UV-I 0 W/m² -1,8 °C 2,2 °C 16,1 km/h (3 Bft)
05.03.2017 03:59 4,9 °C 4,9 °C 62 % 1002,2 hPa 0,0 mm 13,2 km/h (3 Bft) W-SW 257 ° 0 min 0,000 mm 0,0 UV-I 0 W/m² -1,8 °C 1,9 °C 17,7 km/h (3 Bft)
05.03.2017 04:00 4,9 °C 4,9 °C 62 % 1002,3 hPa 0,0 mm 10,6 km/h (2 Bft) W 267 ° 0 min 0,051 mm 0,0 UV-I 0 W/m² -1,8 °C 2,4 °C 16,1 km/h (3 Bft)
05.03.2017 04:01 4,9 °C 4,9 °C 62 % 1002,3 hPa 0,0 mm 14,5 km/h (3 Bft) W-SW 247 ° 0 min 0,000 mm 0,0 UV-I 0 W/m² -1,8 °C 1,7 °C 17,7 km/h (3 Bft)
05.03.2017 04:02 4,9 °C 4,9 °C 62 % 1002,3 hPa 0,0 mm 4,8 km/h (1 Bft) S-SW 202 ° 0 min 0,000 mm 0,0 UV-I 0 W/m² -1,8 °C 4,0 °C 12,9 km/h (3 Bft)
05.03.2017 04:03 4,9 °C 4,9 °C 62 % 1002,3 hPa 0,0 mm 8,0 km/h (2 Bft) W-SW 247 ° 0 min 0,000 mm 0,0 UV-I 0 W/m² -1,8 °C 3,0 °C 11,3 km/h (2 Bft)
05.03.2017 04:04 4,9 °C 5,0 °C 62 % 1002,3 hPa 0,0 mm 9,7 km/h (2 Bft) W 270 ° 0 min 0,000 mm 0,0 UV-I 0 W/m² -1,8 °C 2,6 °C 14,5 km/h (3 Bft)
05.03.2017 04:05 5,0 °C 5,0 °C 62 % 1002,3 hPa 0,0 mm 12,9 km/h (3 Bft) W-NW 292 ° 0 min 0,000 mm 0,0 UV-I 0 W/m² -1,7 °C 2,1 °C 19,3 km/h (3 Bft)
05.03.2017 04:06 5,0 °C 5,0 °C 62 % 1002,3 hPa 0,0 mm 9,7 km/h (2 Bft) W 270 ° 0 min 0,000 mm 0,0 UV-I 0 W/m² -1,7 °C 2,7 °C 12,9 km/h (3 Bft)
05.03.2017 04:07 5,0 °C 5,0 °C 62 % 1002,3 hPa 0,0 mm 6,4 km/h (2 Bft) W 270 ° 0 min 0,000 mm 0,0 UV-I 0 W/m² -1,7 °C 3,6 °C 11,3 km/h (2 Bft)
05.03.2017 04:08 5,0 °C 5,0 °C 62 % 1002,4 hPa 0,0 mm 6,4 km/h (2 Bft) SW 225 ° 0 min 0,000 mm 0,0 UV-I 0 W/m² -1,7 °C 3,6 °C 12,9 km/h (3 Bft)
05.03.2017 04:09 5,0 °C 5,0 °C 62 % 1002,4 hPa 0,0 mm 14,5 km/h (3 Bft) W 270 ° 0 min 0,000 mm 0,0 UV-I 0 W/m² -1,7 °C 1,8 °C 19,3 km/h (3 Bft)
05.03.2017 04:10 5,0 °C 5,0 °C 62 % 1002,4 hPa 0,0 mm 9,7 km/h (2 Bft) W-SW 247 ° 0 min 0,000 mm 0,0 UV-I 0 W/m² -1,7 °C 2,7 °C 12,9 km/h (3 Bft)
05.03.2017 04:11 5,0 °C 5,1 °C 62 % 1002,4 hPa 0,0 mm 14,5 km/h (3 Bft) W-SW 247 ° 0 min 0,000 mm 0,0 UV-I 0 W/m² -1,7 °C 1,8 °C 20,9 km/h (4 Bft)
05.03.2017 04:12 5,1 °C 5,1 °C 62 % 1002,4 hPa 0,0 mm 16,1 km/h (3 Bft) W 270 ° 0 min 0,000 mm 0,0 UV-I 0 W/m² -1,6 °C 1,7 °C 19,3 km/h (3 Bft)
05.03.2017 04:13 5,1 °C 5,1 °C 62 % 1002,5 hPa 0,0 mm 14,5 km/h (3 Bft) W-SW 247 ° 0 min 0,000 mm 0,0 UV-I 0 W/m² -1,6 °C 2,0 °C 20,9 km/h (4 Bft)
05.03.2017 04:14 5,1 °C 5,1 °C 62 % 1002,4 hPa 0,0 mm 11,3 km/h (2 Bft) W 270 ° 0 min 0,000 mm 0,0 UV-I 0 W/m² -1,6 °C 2,5 °C 19,3 km/h (3 Bft)
05.03.2017 04:15 5,0 °C 5,1 °C 63 % 1002,5 hPa 0,0 mm 16,1 km/h (3 Bft) W-SW 247 ° 0 min 0,000 mm 0,0 UV-I 0 W/m² -1,4 °C 1,6 °C 25,7 km/h (4 Bft)
05.03.2017 04:16 5,0 °C 5,1 °C 62 % 1002,4 hPa 0,0 mm 12,9 km/h (3 Bft) W 270 ° 0 min 0,000 mm 0,0 UV-I 0 W/m² -1,7 °C 2,1 °C 17,7 km/h (3 Bft)
05.03.2017 04:17 5,0 °C 5,1 °C 62 % 1002,5 hPa 0,0 mm 12,9 km/h (3 Bft) W 270 ° 0 min 0,000 mm 0,0 UV-I 0 W/m² -1,7 °C 2,1 °C 16,1 km/h (3 Bft)
05.03.2017 04:18 5,0 °C 5,1 °C 63 % 1002,5 hPa 0,0 mm 9,7 km/h (2 Bft) W 270 ° 0 min 0,000 mm 0,0 UV-I 0 W/m² -1,4 °C 2,7 °C 14,5 km/h (3 Bft)
05.03.2017 04:19 5,0 °C 5,1 °C 63 % 1002,5 hPa 0,0 mm 14,5 km/h (3 Bft) W-SW 247 ° 0 min 0,000 mm 0,0 UV-I 0 W/m² -1,4 °C 1,8 °C 22,5 km/h (4 Bft)
05.03.2017 04:20 5,0 °C 5,0 °C 62 % 1002,5 hPa 0,0 mm 12,9 km/h (3 Bft) W-SW 247 ° 0 min 0,000 mm 0,0 UV-I 0 W/m² -1,7 °C 2,1 °C 20,9 km/h (4 Bft)
05.03.2017 04:21 5,0 °C 5,0 °C 62 % 1002,5 hPa 0,0 mm 16,1 km/h (3 Bft) W 270 ° 0 min 0,000 mm 0,0 UV-I 0 W/m² -1,7 °C 1,6 °C 24,1 km/h (4 Bft)
05.03.2017 04:22 5,0 °C 5,1 °C 63 % 1002,6 hPa 0,0 mm 14,5 km/h (3 Bft) W 270 ° 0 min 0,000 mm 0,0 UV-I 0 W/m² -1,4 °C 1,8 °C 24,1 km/h (4 Bft)
05.03.2017 04:23 5,0 °C 5,0 °C 63 % 1002,6 hPa 0,0 mm 20,9 km/h (4 Bft) W-SW 247 ° 0 min 0,000 mm 0,0 UV-I 0 W/m² -1,4 °C 1,0 °C 27,4 km/h (4 Bft)
05.03.2017 04:24 5,1 °C 5,1 °C 62 % 1002,7 hPa 0,0 mm 14,5 km/h (3 Bft) W-SW 247 ° 0 min 0,000 mm 0,0 UV-I 0 W/m² -1,6 °C 2,0 °C 22,5 km/h (4 Bft)
05.03.2017 04:25 5,0 °C 5,1 °C 63 % 1002,7 hPa 0,0 mm 11,3 km/h (2 Bft) W-SW 247 ° 0 min 0,000 mm 0,0 UV-I 0 W/m² -1,4 °C 2,4 °C 16,1 km/h (3 Bft)
05.03.2017 04:26 5,0 °C 5,1 °C 64 % 1002,7 hPa 0,0 mm 9,7 km/h (2 Bft) W 270 ° 0 min 0,000 mm 0,0 UV-I 0 W/m² -1,2 °C 2,7 °C 16,1 km/h (3 Bft)
05.03.2017 04:27 4,9 °C 5,0 °C 63 % 1002,7 hPa 0,0 mm 9,7 km/h (2 Bft) W-SW 247 ° 0 min 0,000 mm 0,0 UV-I 0 W/m² -1,5 °C 2,6 °C 14,5 km/h (3 Bft)
05.03.2017 04:28 4,9 °C 4,9 °C 64 % 1002,7 hPa 0,0 mm 6,4 km/h (2 Bft) W-SW 247 ° 0 min 0,000 mm 0,0 UV-I 0 W/m² -1,3 °C 3,5 °C 11,3 km/h (2 Bft)
05.03.2017 04:29 4,9 °C 4,9 °C 64 % 1002,7 hPa 0,0 mm 11,3 km/h (2 Bft) W 270 ° 0 min 0,000 mm 0,0 UV-I 0 W/m² -1,3 °C 2,3 °C 12,9 km/h (3 Bft)
05.03.2017 04:30 4,8 °C 4,9 °C 64 % 1002,7 hPa 0,0 mm 12,9 km/h (3 Bft) W 270 ° 0 min 0,000 mm 0,0 UV-I 0 W/m² -1,4 °C 1,9 °C 20,9 km/h (4 Bft)
05.03.2017 04:31 4,8 °C 4,8 °C 65 % 1002,7 hPa 0,0 mm 11,3 km/h (2 Bft) W 270 ° 0 min 0,000 mm 0,0 UV-I 0 W/m² -1,2 °C 2,1 °C 20,9 km/h (4 Bft)
05.03.2017 04:32 4,8 °C 4,8 °C 65 % 1002,8 hPa 0,0 mm 12,9 km/h (3 Bft) W-SW 247 ° 0 min 0,000 mm 0,0 UV-I 0 W/m² -1,2 °C 1,9 °C 17,7 km/h (3 Bft)
05.03.2017 04:33 4,8 °C 4,8 °C 65 % 1002,9 hPa 0,0 mm 12,9 km/h (3 Bft) W 270 ° 0 min 0,000 mm 0,0 UV-I 0 W/m² -1,2 °C 1,9 °C 19,3 km/h (3 Bft)
05.03.2017 04:34 4,8 °C 4,8 °C 65 % 1002,8 hPa 0,0 mm 14,5 km/h (3 Bft) W-SW 247 ° 0 min 0,000 mm 0,0 UV-I 0 W/m² -1,2 °C 1,6 °C 19,3 km/h (3 Bft)
05.03.2017 04:35 4,8 °C 4,8 °C 65 % 1002,8 hPa 0,0 mm 17,7 km/h (3 Bft) W-SW 247 ° 0 min 0,000 mm 0,0 UV-I 0 W/m² -1,2 °C 1,1 °C 22,5 km/h (4 Bft)
05.03.2017 04:36 4,8 °C 4,8 °C 65 % 1002,9 hPa 0,0 mm 17,7 km/h (3 Bft) W-SW 247 ° 0 min 0,000 mm 0,0 UV-I 0 W/m² -1,2 °C 1,1 °C 27,4 km/h (4 Bft)
05.03.2017 04:37 4,8 °C 4,8 °C 65 % 1002,8 hPa 0,0 mm 14,5 km/h (3 Bft) W-SW 247 ° 0 min 0,000 mm 0,0 UV-I 0 W/m² -1,2 °C 1,6 °C 19,3 km/h (3 Bft)
05.03.2017 04:38 4,8 °C 4,8 °C 65 % 1002,9 hPa 0,0 mm 11,3 km/h (2 Bft) SW 225 ° 0 min 0,000 mm 0,0 UV-I 0 W/m² -1,2 °C 2,1 °C 20,9 km/h (4 Bft)
05.03.2017 04:39 4,8 °C 4,8 °C 66 % 1003,0 hPa 0,0 mm 14,5 km/h (3 Bft) W 270 ° 0 min 0,000 mm 0,0 UV-I 0 W/m² -1,0 °C 1,6 °C 19,3 km/h (3 Bft)
05.03.2017 04:40 4,8 °C 4,8 °C 66 % 1003,0 hPa 0,0 mm 11,3 km/h (2 Bft) W-SW 247 ° 0 min 0,000 mm 0,0 UV-I 0 W/m² -1,0 °C 2,1 °C 16,1 km/h (3 Bft)
05.03.2017 04:41 4,7 °C 4,8 °C 67 % 1003,1 hPa 0,0 mm 14,5 km/h (3 Bft) W-SW 247 ° 0 min 0,000 mm 0,0 UV-I 0 W/m² -0,9 °C 1,5 °C 24,1 km/h (4 Bft)
05.03.2017 04:42 4,7 °C 4,8 °C 67 % 1003,1 hPa 0,0 mm 17,7 km/h (3 Bft) W 270 ° 0 min 0,000 mm 0,0 UV-I 0 W/m² -0,9 °C 1,0 °C 29,0 km/h (5 Bft)
05.03.2017 04:43 4,7 °C 4,7 °C 68 % 1003,1 hPa 0,0 mm 20,9 km/h (4 Bft) W-SW 247 ° 0 min 0,000 mm 0,0 UV-I 0 W/m² -0,7 °C 0,6 °C 32,2 km/h (5 Bft)
05.03.2017 04:44 4,6 °C 4,7 °C 69 % 1003,3 hPa 0,0 mm 19,3 km/h (3 Bft) W 270 ° 0 min 0,000 mm 0,0 UV-I 0 W/m² -0,6 °C 0,6 °C 32,2 km/h (5 Bft)
05.03.2017 04:45 4,6 °C 4,6 °C 70 % 1003,2 hPa 0,0 mm 17,7 km/h (3 Bft) W 270 ° 0 min 0,000 mm 0,0 UV-I 0 W/m² -0,4 °C 0,9 °C 27,4 km/h (4 Bft)
05.03.2017 04:46 4,5 °C 4,6 °C 71 % 1003,4 hPa 0,0 mm 11,3 km/h (2 Bft) W 270 ° 0 min 0,000 mm 0,0 UV-I 0 W/m² -0,3 °C 1,8 °C 17,7 km/h (3 Bft)
05.03.2017 04:47 4,3 °C 4,4 °C 71 % 1003,4 hPa 0,0 mm 17,7 km/h (3 Bft) W 270 ° 0 min 0,000 mm 0,0 UV-I 0 W/m² -0,5 °C 0,5 °C 29,0 km/h (5 Bft)
05.03.2017 04:48 4,3 °C 4,3 °C 72 % 1003,4 hPa 0,0 mm 22,5 km/h (4 Bft) W-SW 247 ° 0 min 0,000 mm 0,0 UV-I 0 W/m² -0,3 °C -0,1 °C 35,4 km/h (5 Bft)
05.03.2017 04:52 3,9 °C 4,3 °C 75 % 1003,5 hPa 0,0 mm 18,2 km/h (3 Bft) W-SW 242 ° 0 min 0,000 mm 0,0 UV-I 0 W/m² -0,1 °C -0,1 °C 29,0 km/h (5 Bft)
05.03.2017 04:53 3,8 °C 3,9 °C 76 % 1003,5 hPa 0,0 mm 10,8 km/h (2 Bft) W-SW 240 ° 0 min 0,000 mm 0,0 UV-I 0 W/m² -0,0 °C 1,0 °C 19,3 km/h (3 Bft)
05.03.2017 04:54 3,7 °C 3,8 °C 76 % 1003,5 hPa 0,0 mm 11,4 km/h (2 Bft) W-SW 257 ° 0 min 0,000 mm 0,0 UV-I 0 W/m² -0,1 °C 0,8 °C 19,3 km/h (3 Bft)
05.03.2017 04:55 3,6 °C 3,7 °C 78 % 1003,5 hPa 0,0 mm 15,1 km/h (3 Bft) W-SW 258 ° 0 min 0,000 mm 0,0 UV-I 0 W/m² 0,1 °C 0,0 °C 19,3 km/h (3 Bft)
05.03.2017 04:56 3,6 °C 3,6 °C 78 % 1003,5 hPa 0,0 mm 8,6 km/h (2 Bft) W-SW 244 ° 0 min 0,000 mm 0,0 UV-I 0 W/m² 0,1 °C 1,3 °C 14,5 km/h (3 Bft)
05.03.2017 04:57 3,5 °C 3,6 °C 79 % 1003,6 hPa 0,0 mm 15,2 km/h (3 Bft) S-SW 210 ° 0 min 0,000 mm 0,0 UV-I 0 W/m² 0,2 °C -0,1 °C 20,9 km/h (4 Bft)
05.03.2017 04:58 3,4 °C 3,5 °C 79 % 1003,6 hPa 0,0 mm 9,6 km/h (2 Bft) W 264 ° 0 min 0,000 mm 0,0 UV-I 0 W/m² 0,1 °C 0,8 °C 17,7 km/h (3 Bft)
05.03.2017 04:59 3,4 °C 3,4 °C 79 % 1003,6 hPa 0,0 mm 11,9 km/h (2 Bft) W 259 ° 0 min 0,000 mm 0,0 UV-I 0 W/m² 0,1 °C 0,3 °C 16,1 km/h (3 Bft)
05.03.2017 05:00 3,3 °C 3,4 °C 79 % 1003,6 hPa 0,0 mm 8,7 km/h (2 Bft) SW 214 ° 0 min 0,000 mm 0,0 UV-I 0 W/m² 0,0 °C 0,9 °C 22,5 km/h (4 Bft)
05.03.2017 05:01 3,3 °C 3,3 °C 79 % 1003,7 hPa 0,0 mm 9,6 km/h (2 Bft) S-SW 196 ° 0 min 0,051 mm 0,0 UV-I 0 W/m² 0,0 °C 0,7 °C 19,3 km/h (3 Bft)
05.03.2017 05:02 3,3 °C 3,3 °C 80 % 1003,7 hPa 0,0 mm 8,0 km/h (2 Bft) S-SW 212 ° 0 min 0,000 mm 0,0 UV-I 0 W/m² 0,2 °C 1,1 °C 14,5 km/h (3 Bft)
05.03.2017 05:03 3,3 °C 3,3 °C 80 % 1003,7 hPa 0,0 mm 14,8 km/h (3 Bft) SW 232 ° 0 min 0,000 mm 0,0 UV-I 0 W/m² 0,2 °C -0,3 °C 20,9 km/h (4 Bft)
05.03.2017 05:04 3,3 °C 3,3 °C 80 % 1003,7 hPa 0,0 mm 16,0 km/h (3 Bft) W-NW 293 ° 0 min 0,000 mm 0,0 UV-I 0 W/m² 0,2 °C -0,5 °C 24,1 km/h (4 Bft)
05.03.2017 05:05 3,2 °C 3,3 °C 80 % 1003,7 hPa 0,0 mm 9,2 km/h (2 Bft) W-SW 240 ° 0 min 0,000 mm 0,0 UV-I 0 W/m² 0,1 °C 0,7 °C 14,5 km/h (3 Bft)
05.03.2017 05:06 3,2 °C 3,2 °C 80 % 1003,7 hPa 0,0 mm 14,3 km/h (3 Bft) SW 234 ° 0 min 0,000 mm 0,0 UV-I 0 W/m² 0,1 °C -0,4 °C 22,5 km/h (4 Bft)
05.03.2017 05:07 3,2 °C 3,2 °C 81 % 1003,8 hPa 0,0 mm 9,7 km/h (2 Bft) W 263 ° 0 min 0,000 mm 0,0 UV-I 0 W/m² 0,3 °C 0,6 °C 16,1 km/h (3 Bft)
05.03.2017 05:08 3,2 °C 3,2 °C 81 % 1003,8 hPa 0,0 mm 11,8 km/h (2 Bft) SW 222 ° 0 min 0,000 mm 0,0 UV-I 0 W/m² 0,3 °C 0,1 °C 16,1 km/h (3 Bft)
05.03.2017 05:09 3,2 °C 3,2 °C 81 % 1003,9 hPa 0,0 mm 14,6 km/h (3 Bft) S-SW 204 ° 0 min 0,000 mm 0,0 UV-I 0 W/m² 0,3 °C -0,4 °C 24,1 km/h (4 Bft)
05.03.2017 05:10 3,2 °C 3,2 °C 80 % 1003,8 hPa 0,0 mm 11,8 km/h (2 Bft) S-SW 213 ° 0 min 0,000 mm 0,0 UV-I 0 W/m² 0,1 °C 0,1 °C 17,7 km/h (3 Bft)
05.03.2017 05:11 3,2 °C 3,2 °C 81 % 1003,9 hPa 0,0 mm 8,5 km/h (2 Bft) W-SW 246 ° 0 min 0,000 mm 0,0 UV-I 0 W/m² 0,3 °C 0,9 °C 17,7 km/h (3 Bft)
05.03.2017 05:12 3,2 °C 3,2 °C 81 % 1004,0 hPa 0,0 mm 10,1 km/h (2 Bft) SW 226 ° 0 min 0,000 mm 0,0 UV-I 0 W/m² 0,3 °C 0,5 °C 14,5 km/h (3 Bft)
05.03.2017 05:13 3,1 °C 3,2 °C 81 % 1003,9 hPa 0,0 mm 11,2 km/h (2 Bft) W 266 ° 0 min 0,000 mm 0,0 UV-I 0 W/m² 0,2 °C 0,1 °C 17,7 km/h (3 Bft)
05.03.2017 05:14 3,1 °C 3,1 °C 81 % 1003,9 hPa 0,0 mm 10,3 km/h (2 Bft) W-SW 237 ° 0 min 0,000 mm 0,0 UV-I 0 W/m² 0,2 °C 0,3 °C 20,9 km/h (4 Bft)
05.03.2017 05:15 3,1 °C 3,1 °C 82 % 1003,9 hPa 0,0 mm 8,4 km/h (2 Bft) S 181 ° 0 min 0,000 mm 0,0 UV-I 0 W/m² 0,3 °C 0,8 °C 16,1 km/h (3 Bft)
05.03.2017 05:16 3,0 °C 3,1 °C 81 % 1003,9 hPa 0,0 mm 7,4 km/h (2 Bft) W 267 ° 0 min 0,000 mm 0,0 UV-I 0 W/m² 0,1 °C 1,0 °C 12,9 km/h (3 Bft)
05.03.2017 05:17 3,0 °C 3,1 °C 82 % 1004,0 hPa 0,2 mm 8,6 km/h (2 Bft) S-SW 192 ° 0 min 0,000 mm 0,0 UV-I 0 W/m² 0,2 °C 0,6 °C 12,9 km/h (3 Bft)
05.03.2017 05:18 2,9 °C 3,0 °C 82 % 1004,0 hPa 0,0 mm 7,4 km/h (2 Bft) W-SW 249 ° 0 min 0,000 mm 0,0 UV-I 0 W/m² 0,1 °C 0,8 °C 12,9 km/h (3 Bft)
05.03.2017 05:19 2,9 °C 2,9 °C 83 % 1004,0 hPa 0,0 mm 7,4 km/h (2 Bft) S-SW 194 ° 0 min 0,000 mm 0,0 UV-I 0 W/m² 0,3 °C 0,8 °C 16,1 km/h (3 Bft)
05.03.2017 05:20 2,9 °C 2,9 °C 83 % 1004,0 hPa 0,0 mm 6,8 km/h (2 Bft) W-SW 242 ° 0 min 0,000 mm 0,0 UV-I 0 W/m² 0,3 °C 1,0 °C 9,7 km/h (2 Bft)
05.03.2017 05:21 2,8 °C 2,9 °C 83 % 1004,0 hPa 0,0 mm 5,4 km/h (1 Bft) W-SW 248 ° 0 min 0,000 mm 0,0 UV-I 0 W/m² 0,2 °C 1,4 °C 8,0 km/h (2 Bft)
05.03.2017 05:22 2,8 °C 2,9 °C 83 % 1004,0 hPa 0,0 mm 6,5 km/h (2 Bft) SW 228 ° 0 min 0,000 mm 0,0 UV-I 0 W/m² 0,2 °C 1,0 °C 14,5 km/h (3 Bft)
05.03.2017 05:23 2,8 °C 2,8 °C 83 % 1004,0 hPa 0,0 mm 7,7 km/h (2 Bft) S-SW 205 ° 0 min 0,000 mm 0,0 UV-I 0 W/m² 0,2 °C 0,6 °C 14,5 km/h (3 Bft)
05.03.2017 05:24 2,8 °C 2,8 °C 83 % 1004,0 hPa 0,0 mm 11,9 km/h (2 Bft) S-SW 211 ° 0 min 0,000 mm 0,0 UV-I 0 W/m² 0,2 °C -0,4 °C 19,3 km/h (3 Bft)
05.03.2017 05:25 2,8 °C 2,8 °C 83 % 1004,1 hPa 0,0 mm 7,2 km/h (2 Bft) S-SW 193 ° 0 min 0,000 mm 0,0 UV-I 0 W/m² 0,2 °C 0,8 °C 16,1 km/h (3 Bft)
05.03.2017 05:26 2,8 °C 2,8 °C 84 % 1004,1 hPa 0,0 mm 12,4 km/h (3 Bft) W-SW 249 ° 0 min 0,000 mm 0,0 UV-I 0 W/m² 0,4 °C -0,5 °C 19,3 km/h (3 Bft)
05.03.2017 05:27 2,7 °C 2,8 °C 83 % 1004,1 hPa 0,0 mm 11,5 km/h (2 Bft) S-SW 196 ° 0 min 0,000 mm 0,0 UV-I 0 W/m² 0,1 °C -0,4 °C 17,7 km/h (3 Bft)
05.03.2017 05:28 2,7 °C 2,7 °C 84 % 1004,1 hPa 0,0 mm 7,1 km/h (2 Bft) SW 234 ° 0 min 0,000 mm 0,0 UV-I 0 W/m² 0,3 °C 0,7 °C 14,5 km/h (3 Bft)
05.03.2017 05:29 2,7 °C 2,7 °C 84 % 1004,1 hPa 0,2 mm 7,5 km/h (2 Bft) S-SW 200 ° 0 min 0,000 mm 0,0 UV-I 0 W/m² 0,3 °C 0,6 °C 12,9 km/h (3 Bft)
05.03.2017 05:30 2,7 °C 2,7 °C 84 % 1004,1 hPa 0,0 mm 7,8 km/h (2 Bft) S-SW 208 ° 0 min 0,000 mm 0,0 UV-I 0 W/m² 0,3 °C 0,5 °C 9,7 km/h (2 Bft)
05.03.2017 05:31 2,7 °C 2,7 °C 84 % 1004,2 hPa 0,0 mm 5,3 km/h (1 Bft) S-SW 202 ° 0 min 0,000 mm 0,0 UV-I 0 W/m² 0,3 °C 1,3 °C 11,3 km/h (2 Bft)
05.03.2017 05:32 2,6 °C 2,7 °C 84 % 1004,2 hPa 0,0 mm 8,5 km/h (2 Bft) W-SW 244 ° 0 min 0,000 mm 0,0 UV-I 0 W/m² 0,2 °C 0,2 °C 14,5 km/h (3 Bft)
05.03.2017 05:33 2,6 °C 2,7 °C 84 % 1004,2 hPa 0,0 mm 8,5 km/h (2 Bft) S-SO 157 ° 0 min 0,000 mm 0,0 UV-I 0 W/m² 0,2 °C 0,2 °C 14,5 km/h (3 Bft)
05.03.2017 05:34 2,6 °C 2,6 °C 85 % 1004,1 hPa 0,0 mm 12,4 km/h (3 Bft) S-SW 204 ° 0 min 0,000 mm 0,0 UV-I 0 W/m² 0,3 °C -0,7 °C 17,7 km/h (3 Bft)
05.03.2017 05:35 2,6 °C 2,6 °C 85 % 1004,2 hPa 0,0 mm 8,8 km/h (2 Bft) W 273 ° 0 min 0,000 mm 0,0 UV-I 0 W/m² 0,3 °C 0,1 °C 14,5 km/h (3 Bft)
05.03.2017 05:36 2,6 °C 2,6 °C 85 % 1004,2 hPa 0,0 mm 6,6 km/h (2 Bft) SW 228 ° 0 min 0,000 mm 0,0 UV-I 0 W/m² 0,3 °C 0,8 °C 11,3 km/h (2 Bft)
05.03.2017 05:37 2,6 °C 2,6 °C 85 % 1004,2 hPa 0,0 mm 7,4 km/h (2 Bft) SW 217 ° 0 min 0,000 mm 0,0 UV-I 0 W/m² 0,3 °C 0,5 °C 11,3 km/h (2 Bft)
05.03.2017 05:38 2,6 °C 2,6 °C 85 % 1004,2 hPa 0,0 mm 7,8 km/h (2 Bft) SW 235 ° 0 min 0,000 mm 0,0 UV-I 0 W/m² 0,3 °C 0,4 °C 14,5 km/h (3 Bft)
05.03.2017 05:39 2,5 °C 2,6 °C 85 % 1004,2 hPa 0,0 mm 11,2 km/h (2 Bft) SW 216 ° 0 min 0,000 mm 0,0 UV-I 0 W/m² 0,2 °C -0,6 °C 17,7 km/h (3 Bft)
05.03.2017 05:40 2,6 °C 2,6 °C 85 % 1004,2 hPa 0,0 mm 4,6 km/h (1 Bft) W 265 ° 0 min 0,000 mm 0,0 UV-I 0 W/m² 0,3 °C 1,5 °C 6,4 km/h (2 Bft)
05.03.2017 05:41 2,5 °C 2,6 °C 85 % 1004,2 hPa 0,2 mm 5,2 km/h (1 Bft) S-SW 194 ° 0 min 0,000 mm 0,0 UV-I 0 W/m² 0,2 °C 1,2 °C 8,0 km/h (2 Bft)
05.03.2017 05:42 2,5 °C 2,6 °C 85 % 1004,2 hPa 0,0 mm 9,7 km/h (2 Bft) SW 223 ° 0 min 0,000 mm 0,0 UV-I 0 W/m² 0,2 °C -0,3 °C 16,1 km/h (3 Bft)
05.03.2017 05:43 2,5 °C 2,6 °C 86 % 1004,2 hPa 0,0 mm 7,9 km/h (2 Bft) SW 219 ° 0 min 0,000 mm 0,0 UV-I 0 W/m² 0,4 °C 0,2 °C 16,1 km/h (3 Bft)
05.03.2017 05:44 2,4 °C 2,5 °C 86 % 1004,2 hPa 0,0 mm 4,3 km/h (1 Bft) S-SW 209 ° 0 min 0,000 mm 0,0 UV-I 0 W/m² 0,3 °C 2,4 °C 6,4 km/h (2 Bft)
05.03.2017 05:45 2,5 °C 2,5 °C 86 % 1004,2 hPa 0,0 mm 4,8 km/h (1 Bft) S-SW 197 ° 0 min 0,000 mm 0,0 UV-I 0 W/m² 0,4 °C 1,3 °C 6,4 km/h (2 Bft)
05.03.2017 05:46 2,4 °C 2,5 °C 86 % 1004,2 hPa 0,0 mm 7,3 km/h (2 Bft) W-SW 254 ° 0 min 0,000 mm 0,0 UV-I 0 W/m² 0,3 °C 0,3 °C 12,9 km/h (3 Bft)
05.03.2017 05:47 2,4 °C 2,4 °C 86 % 1004,1 hPa 0,0 mm 6,2 km/h (2 Bft) SW 220 ° 0 min 0,000 mm 0,0 UV-I 0 W/m² 0,3 °C 0,7 °C 12,9 km/h (3 Bft)
05.03.2017 05:48 2,4 °C 2,5 °C 86 % 1004,2 hPa 0,0 mm 7,9 km/h (2 Bft) S-SW 207 ° 0 min 0,000 mm 0,0 UV-I 0 W/m² 0,3 °C 0,1 °C 12,9 km/h (3 Bft)
05.03.2017 05:49 2,4 °C 2,4 °C 86 % 1004,2 hPa 0,0 mm 7,6 km/h (2 Bft) W-SW 246 ° 0 min 0,000 mm 0,0 UV-I 0 W/m² 0,3 °C 0,2 °C 11,3 km/h (2 Bft)
05.03.2017 05:50 2,4 °C 2,4 °C 86 % 1004,2 hPa 0,0 mm 6,3 km/h (2 Bft) S 182 ° 0 min 0,000 mm 0,0 UV-I 0 W/m² 0,3 °C 0,6 °C 9,7 km/h (2 Bft)
05.03.2017 05:51 2,4 °C 2,4 °C 86 % 1004,1 hPa 0,0 mm 15,3 km/h (3 Bft) SW 218 ° 0 min 0,000 mm 0,0 UV-I 0 W/m² 0,3 °C -1,5 °C 25,7 km/h (4 Bft)
05.03.2017 05:52 2,4 °C 2,4 °C 86 % 1004,1 hPa 0,0 mm 8,4 km/h (2 Bft) SW 215 ° 0 min 0,000 mm 0,0 UV-I 0 W/m² 0,3 °C -0,0 °C 14,5 km/h (3 Bft)
05.03.2017 05:53 2,4 °C 2,4 °C 86 % 1004,2 hPa 0,0 mm 8,3 km/h (2 Bft) S-SW 192 ° 0 min 0,000 mm 0,0 UV-I 0 W/m² 0,3 °C -0,0 °C 12,9 km/h (3 Bft)
05.03.2017 05:54 2,4 °C 2,4 °C 86 % 1004,2 hPa 0,0 mm 7,4 km/h (2 Bft) S 171 ° 0 min 0,000 mm 0,0 UV-I 0 W/m² 0,3 °C 0,3 °C 11,3 km/h (2 Bft)
05.03.2017 05:55 2,4 °C 2,5 °C 86 % 1004,2 hPa 0,0 mm 7,7 km/h (2 Bft) S-SW 205 ° 0 min 0,000 mm 0,0 UV-I 0 W/m² 0,3 °C 0,2 °C 11,3 km/h (2 Bft)
05.03.2017 05:56 2,5 °C 2,5 °C 86 % 1004,2 hPa 0,0 mm 10,4 km/h (2 Bft) S-SW 202 ° 0 min 0,000 mm 0,0 UV-I 0 W/m² 0,4 °C -0,4 °C 16,1 km/h (3 Bft)
05.03.2017 05:57 2,5 °C 2,5 °C 86 % 1004,1 hPa 0,0 mm 6,3 km/h (2 Bft) S 186 ° 0 min 0,000 mm 0,0 UV-I 0 W/m² 0,4 °C 0,7 °C 9,7 km/h (2 Bft)
05.03.2017 05:58 2,5 °C 2,5 °C 86 % 1004,3 hPa 0,0 mm 7,1 km/h (2 Bft) S 190 ° 0 min 0,000 mm 0,0 UV-I 0 W/m² 0,4 °C 0,5 °C 9,7 km/h (2 Bft)
05.03.2017 05:59 2,5 °C 2,5 °C 86 % 1004,2 hPa 0,0 mm 5,8 km/h (2 Bft) SW 236 ° 0 min 0,000 mm 0,0 UV-I 0 W/m² 0,4 °C 0,9 °C 8,0 km/h (2 Bft)
05.03.2017 06:00 2,6 °C 2,6 °C 87 % 1004,3 hPa 0,0 mm 3,8 km/h (1 Bft) S-SW 199 ° 0 min 0,000 mm 0,0 UV-I 0 W/m² 0,7 °C 2,6 °C 6,4 km/h (2 Bft)
05.03.2017 06:01 2,5 °C 2,6 °C 86 % 1004,3 hPa 0,0 mm 5,5 km/h (1 Bft) S-SW 194 ° 0 min 0,025 mm 0,0 UV-I 0 W/m² 0,4 °C 1,0 °C 9,7 km/h (2 Bft)
05.03.2017 06:02 2,6 °C 2,6 °C 86 % 1004,4 hPa 0,0 mm 4,4 km/h (1 Bft) S-SW 198 ° 0 min 0,000 mm 0,0 UV-I 0 W/m² 0,5 °C 2,6 °C 6,4 km/h (2 Bft)
05.03.2017 06:03 2,6 °C 2,6 °C 86 % 1004,3 hPa 0,0 mm 4,2 km/h (1 Bft) S-SO 157 ° 0 min 0,000 mm 0,0 UV-I 0 W/m² 0,5 °C 2,6 °C 6,4 km/h (2 Bft)
05.03.2017 06:04 2,6 °C 2,6 °C 86 % 1004,4 hPa 0,0 mm 5,0 km/h (1 Bft) S 177 ° 0 min 0,000 mm 0,0 UV-I 0 W/m² 0,5 °C 1,4 °C 8,0 km/h (2 Bft)
05.03.2017 06:05 2,6 °C 2,6 °C 87 % 1004,4 hPa 0,0 mm 1,9 km/h (1 Bft) S-SW 194 ° 0 min 0,000 mm 0,0 UV-I 0 W/m² 0,7 °C 2,6 °C 4,8 km/h (1 Bft)
05.03.2017 06:06 2,6 °C 2,6 °C 87 % 1004,4 hPa 0,0 mm 3,2 km/h (1 Bft) SW 234 ° 0 min 0,000 mm 0,0 UV-I 0 W/m² 0,7 °C 2,6 °C 4,8 km/h (1 Bft)
05.03.2017 06:07 2,5 °C 2,6 °C 88 % 1004,4 hPa 0,0 mm 1,4 km/h (1 Bft) S-SW 198 ° 0 min 0,000 mm 0,0 UV-I 0 W/m² 0,7 °C 2,5 °C 3,2 km/h (1 Bft)
05.03.2017 06:08 2,4 °C 2,5 °C 88 % 1004,4 hPa 0,0 mm 1,6 km/h (1 Bft) S-SW 198 ° 0 min 0,000 mm 0,0 UV-I 0 W/m² 0,6 °C 2,4 °C 3,2 km/h (1 Bft)
05.03.2017 06:09 2,4 °C 2,4 °C 88 % 1004,5 hPa 0,0 mm 3,0 km/h (1 Bft) SW 234 ° 0 min 0,000 mm 0,0 UV-I 0 W/m² 0,6 °C 2,4 °C 6,4 km/h (2 Bft)
05.03.2017 06:10 2,3 °C 2,4 °C 88 % 1004,5 hPa 0,0 mm 3,8 km/h (1 Bft) W-SW 241 ° 0 min 0,000 mm 0,0 UV-I 0 W/m² 0,5 °C 2,3 °C 4,8 km/h (1 Bft)
05.03.2017 06:11 2,4 °C 2,4 °C 88 % 1004,6 hPa 0,0 mm 3,7 km/h (1 Bft) W-SW 248 ° 0 min 0,000 mm 0,0 UV-I 0 W/m² 0,6 °C 2,4 °C 8,0 km/h (2 Bft)
05.03.2017 06:12 2,4 °C 2,4 °C 88 % 1004,5 hPa 0,0 mm 4,3 km/h (1 Bft) W 261 ° 0 min 0,000 mm 0,0 UV-I 0 W/m² 0,6 °C 2,4 °C 8,0 km/h (2 Bft)
05.03.2017 06:13 2,4 °C 2,4 °C 87 % 1004,5 hPa 0,0 mm 4,4 km/h (1 Bft) S-SW 211 ° 0 min 0,000 mm 0,0 UV-I 0 W/m² 0,5 °C 2,4 °C 9,7 km/h (2 Bft)
05.03.2017 06:14 2,4 °C 2,4 °C 88 % 1004,6 hPa 0,0 mm 2,1 km/h (1 Bft) SO 134 ° 0 min 0,000 mm 0,0 UV-I 0 W/m² 0,6 °C 2,4 °C 6,4 km/h (2 Bft)
05.03.2017 06:15 2,4 °C 2,4 °C 88 % 1004,6 hPa 0,0 mm 2,5 km/h (1 Bft) S-SW 200 ° 0 min 0,000 mm 0,0 UV-I 0 W/m² 0,6 °C 2,4 °C 4,8 km/h (1 Bft)
05.03.2017 06:16 2,4 °C 2,4 °C 88 % 1004,6 hPa 0,0 mm 6,8 km/h (2 Bft) S-SO 158 ° 0 min 0,000 mm 0,0 UV-I 0 W/m² 0,6 °C 0,5 °C 11,3 km/h (2 Bft)
05.03.2017 06:17 2,4 °C 2,4 °C 87 % 1004,6 hPa 0,0 mm 3,8 km/h (1 Bft) S-SW 195 ° 0 min 0,000 mm 0,0 UV-I 0 W/m² 0,5 °C 2,4 °C 6,4 km/h (2 Bft)
05.03.2017 06:18 2,4 °C 2,4 °C 86 % 1004,6 hPa 0,0 mm 6,5 km/h (2 Bft) W-SW 241 ° 0 min 0,000 mm 0,0 UV-I 0 W/m² 0,3 °C 0,6 °C 9,7 km/h (2 Bft)
05.03.2017 06:19 2,5 °C 2,5 °C 86 % 1004,6 hPa 0,0 mm 6,1 km/h (2 Bft) S 188 ° 0 min 0,000 mm 0,0 UV-I 0 W/m² 0,4 °C 0,8 °C 9,7 km/h (2 Bft)
05.03.2017 06:20 2,6 °C 2,6 °C 86 % 1004,6 hPa 0,0 mm 4,9 km/h (1 Bft) SW 219 ° 0 min 0,000 mm 0,0 UV-I 0 W/m² 0,5 °C 1,4 °C 8,0 km/h (2 Bft)
05.03.2017 06:21 2,6 °C 2,6 °C 86 % 1004,5 hPa 0,0 mm 3,6 km/h (1 Bft) SW 235 ° 0 min 0,000 mm 0,0 UV-I 0 W/m² 0,5 °C 2,6 °C 6,4 km/h (2 Bft)
05.03.2017 06:22 2,5 °C 2,6 °C 87 % 1004,6 hPa 0,0 mm 4,0 km/h (1 Bft) W 259 ° 0 min 0,000 mm 0,0 UV-I 0 W/m² 0,6 °C 2,5 °C 6,4 km/h (2 Bft)
05.03.2017 06:23 2,6 °C 2,6 °C 86 % 1004,6 hPa 0,0 mm 4,3 km/h (1 Bft) W-SW 250 ° 0 min 0,000 mm 0,0 UV-I 0 W/m² 0,5 °C 2,6 °C 6,4 km/h (2 Bft)
05.03.2017 06:24 2,6 °C 2,6 °C 86 % 1004,6 hPa 0,0 mm 3,3 km/h (1 Bft) S-SW 212 ° 0 min 0,000 mm 0,0 UV-I 0 W/m² 0,5 °C 2,6 °C 6,4 km/h (2 Bft)
05.03.2017 06:25 2,6 °C 2,6 °C 85 % 1004,6 hPa 0,0 mm 4,0 km/h (1 Bft) SW 227 ° 0 min 0,000 mm 0,0 UV-I 0 W/m² 0,3 °C 2,6 °C 6,4 km/h (2 Bft)
05.03.2017 06:26 2,6 °C 2,6 °C 86 % 1004,6 hPa 0,0 mm 4,3 km/h (1 Bft) SW 224 ° 0 min 0,000 mm 0,0 UV-I 0 W/m² 0,5 °C 2,6 °C 6,4 km/h (2 Bft)
05.03.2017 06:27 2,6 °C 2,6 °C 86 % 1004,7 hPa 0,0 mm 3,0 km/h (1 Bft) S-SW 200 ° 0 min 0,000 mm 0,0 UV-I 0 W/m² 0,5 °C 2,6 °C 4,8 km/h (1 Bft)
05.03.2017 06:28 2,6 °C 2,6 °C 86 % 1004,7 hPa 0,0 mm 3,5 km/h (1 Bft) W-SW 246 ° 0 min 0,000 mm 0,0 UV-I 0 W/m² 0,5 °C 2,6 °C 4,8 km/h (1 Bft)
05.03.2017 06:29 2,6 °C 2,6 °C 86 % 1004,7 hPa 0,0 mm 3,2 km/h (1 Bft) W-SW 257 ° 0 min 0,000 mm 0,0 UV-I 0 W/m² 0,5 °C 2,6 °C 4,8 km/h (1 Bft)
05.03.2017 06:30 2,6 °C 2,6 °C 86 % 1004,7 hPa 0,0 mm 4,2 km/h (1 Bft) S-SW 211 ° 0 min 0,000 mm 0,0 UV-I 0 W/m² 0,5 °C 2,6 °C 6,4 km/h (2 Bft)
05.03.2017 06:31 2,5 °C 2,6 °C 88 % 1004,7 hPa 0,0 mm 2,6 km/h (1 Bft) SW 221 ° 0 min 0,000 mm 0,0 UV-I 0 W/m² 0,7 °C 2,5 °C 3,2 km/h (1 Bft)
05.03.2017 06:32 2,4 °C 2,5 °C 87 % 1004,7 hPa 0,0 mm 1,5 km/h (1 Bft) SW 217 ° 0 min 0,000 mm 0,0 UV-I 0 W/m² 0,5 °C 2,4 °C 3,2 km/h (1 Bft)
05.03.2017 06:33 2,4 °C 2,4 °C 88 % 1004,7 hPa 0,0 mm 1,7 km/h (1 Bft) SW 217 ° 0 min 0,000 mm 0,0 UV-I 0 W/m² 0,6 °C 2,4 °C 3,2 km/h (1 Bft)
05.03.2017 06:34 2,4 °C 2,4 °C 88 % 1004,7 hPa 0,0 mm 0,6 km/h (0 Bft) SW 217 ° 0 min 0,000 mm 0,0 UV-I 0 W/m² 0,6 °C 2,4 °C 1,6 km/h (1 Bft)
05.03.2017 06:35 2,3 °C 2,4 °C 89 % 1004,7 hPa 0,0 mm 0,1 km/h (0 Bft) SW 217 ° 0 min 0,000 mm 0,0 UV-I 0 W/m² 0,7 °C 2,3 °C 1,6 km/h (1 Bft)
05.03.2017 06:36 2,3 °C 2,3 °C 89 % 1004,7 hPa 0,0 mm 0,3 km/h (0 Bft) SW 217 ° 0 min 0,000 mm 0,0 UV-I 0 W/m² 0,7 °C 2,3 °C 1,6 km/h (1 Bft)
05.03.2017 06:37 2,2 °C 2,3 °C 89 % 1004,7 hPa 0,0 mm 1,5 km/h (1 Bft) SW 217 ° 0 min 0,000 mm 0,0 UV-I 0 W/m² 0,6 °C 2,2 °C 3,2 km/h (1 Bft)
05.03.2017 06:38 2,2 °C 2,3 °C 89 % 1004,8 hPa 0,0 mm 2,5 km/h (1 Bft) SW 219 ° 0 min 0,000 mm 0,0 UV-I 0 W/m² 0,6 °C 2,2 °C 4,8 km/h (1 Bft)
05.03.2017 06:39 2,2 °C 2,2 °C 89 % 1004,7 hPa 0,0 mm 4,9 km/h (1 Bft) S-SW 196 ° 0 min 0,000 mm 0,0 UV-I 0 W/m² 0,6 °C 1,0 °C 8,0 km/h (2 Bft)
05.03.2017 06:40 2,2 °C 2,2 °C 90 % 1004,7 hPa 0,0 mm 3,2 km/h (1 Bft) S-SW 196 ° 0 min 0,000 mm 0,0 UV-I 0 W/m² 0,7 °C 2,2 °C 4,8 km/h (1 Bft)
05.03.2017 06:41 2,2 °C 2,2 °C 90 % 1004,8 hPa 0,0 mm 1,7 km/h (1 Bft) SO 130 ° 0 min 0,000 mm 0,0 UV-I 0 W/m² 0,7 °C 2,2 °C 3,2 km/h (1 Bft)
05.03.2017 06:42 2,2 °C 2,2 °C 90 % 1004,8 hPa 0,0 mm 1,7 km/h (1 Bft) SO 130 ° 0 min 0,000 mm 0,0 UV-I 0 W/m² 0,7 °C 2,2 °C 3,2 km/h (1 Bft)
05.03.2017 06:43 2,2 °C 2,2 °C 90 % 1004,8 hPa 0,0 mm 2,7 km/h (1 Bft) W-NW 283 ° 0 min 0,000 mm 0,0 UV-I 0 W/m² 0,7 °C 2,2 °C 4,8 km/h (1 Bft)
05.03.2017 06:44 2,1 °C 2,2 °C 90 % 1004,8 hPa 0,0 mm 3,9 km/h (1 Bft) SW 225 ° 0 min 0,000 mm 0,0 UV-I 0 W/m² 0,6 °C 2,1 °C 6,4 km/h (2 Bft)
05.03.2017 06:45 2,1 °C 2,1 °C 90 % 1004,8 hPa 0,0 mm 3,2 km/h (1 Bft) SW 225 ° 0 min 0,000 mm 0,0 UV-I 0 W/m² 0,6 °C 2,1 °C 4,8 km/h (1 Bft)
05.03.2017 06:46 2,1 °C 2,1 °C 90 % 1004,8 hPa 0,0 mm 1,9 km/h (1 Bft) SW 225 ° 0 min 0,000 mm 0,0 UV-I 0 W/m² 0,6 °C 2,1 °C 3,2 km/h (1 Bft)
05.03.2017 06:47 2,1 °C 2,1 °C 90 % 1004,8 hPa 0,0 mm 2,2 km/h (1 Bft) SW 215 ° 0 min 0,000 mm 0,0 UV-I 0 W/m² 0,6 °C 2,1 °C 4,8 km/h (1 Bft)
05.03.2017 06:48 2,1 °C 2,1 °C 90 % 1004,7 hPa 0,0 mm 1,5 km/h (1 Bft) S 173 ° 0 min 0,000 mm 0,0 UV-I 0 W/m² 0,6 °C 2,1 °C 4,8 km/h (1 Bft)
05.03.2017 06:49 2,1 °C 2,1 °C 90 % 1004,8 hPa 0,0 mm 2,3 km/h (1 Bft) S 171 ° 0 min 0,000 mm 0,0 UV-I 0 W/m² 0,6 °C 2,1 °C 6,4 km/h (2 Bft)
05.03.2017 06:50 2,1 °C 2,1 °C 90 % 1004,7 hPa 0,0 mm 0,6 km/h (0 Bft) S 171 ° 0 min 0,000 mm 0,0 UV-I 0 W/m² 0,6 °C 2,1 °C 1,6 km/h (1 Bft)
05.03.2017 06:51 2,1 °C 2,1 °C 91 % 1004,7 hPa 0,0 mm 1,6 km/h (1 Bft) SO 136 ° 0 min 0,000 mm 0,0 UV-I 0 W/m² 0,8 °C 2,1 °C 3,2 km/h (1 Bft)
05.03.2017 06:52 2,1 °C 2,1 °C 91 % 1004,8 hPa 0,0 mm 0,1 km/h (0 Bft) SO 136 ° 0 min 0,000 mm 0,0 UV-I 0 W/m² 0,8 °C 2,1 °C 1,6 km/h (1 Bft)
05.03.2017 06:53 2,1 °C 2,1 °C 91 % 1004,7 hPa 0,0 mm 2,9 km/h (1 Bft) O 90 ° 0 min 0,000 mm 0,0 UV-I 0 W/m² 0,8 °C 2,1 °C 6,4 km/h (2 Bft)
05.03.2017 06:54 2,1 °C 2,1 °C 90 % 1004,7 hPa 0,0 mm 3,9 km/h (1 Bft) S-SO 153 ° 0 min 0,000 mm 0,0 UV-I 0 W/m² 0,6 °C 2,1 °C 8,0 km/h (2 Bft)
05.03.2017 06:55 2,1 °C 2,1 °C 91 % 1004,8 hPa 0,0 mm 1,9 km/h (1 Bft) S-SO 153 ° 0 min 0,000 mm 0,0 UV-I 0 W/m² 0,8 °C 2,1 °C 4,8 km/h (1 Bft)
05.03.2017 06:56 2,1 °C 2,1 °C 90 % 1004,8 hPa 0,0 mm 2,0 km/h (1 Bft) S-SW 209 ° 0 min 0,000 mm 0,0 UV-I 0 W/m² 0,6 °C 2,1 °C 3,2 km/h (1 Bft)
05.03.2017 06:57 2,2 °C 2,2 °C 90 % 1004,8 hPa 0,0 mm 2,2 km/h (1 Bft) S-SW 209 ° 0 min 0,000 mm 0,0 UV-I 0 W/m² 0,7 °C 2,2 °C 3,2 km/h (1 Bft)
05.03.2017 06:58 2,2 °C 2,2 °C 89 % 1004,8 hPa 0,0 mm 3,4 km/h (1 Bft) W-SW 248 ° 0 min 0,000 mm 0,0 UV-I 0 W/m² 0,6 °C 2,2 °C 6,4 km/h (2 Bft)
05.03.2017 06:59 2,2 °C 2,2 °C 89 % 1004,8 hPa 0,0 mm 3,6 km/h (1 Bft) W-SW 254 ° 0 min 0,000 mm 0,0 UV-I 0 W/m² 0,6 °C 2,2 °C 6,4 km/h (2 Bft)
05.03.2017 07:00 2,2 °C 2,2 °C 89 % 1004,9 hPa 0,0 mm 4,8 km/h (1 Bft) S-SW 213 ° 0 min 0,000 mm 0,0 UV-I 0 W/m² 0,6 °C 1,0 °C 8,0 km/h (2 Bft)
05.03.2017 07:01 2,2 °C 2,3 °C 89 % 1004,9 hPa 0,0 mm 2,7 km/h (1 Bft) S-SW 213 ° 0 min 0,000 mm 0,0 UV-I 0 W/m² 0,6 °C 2,2 °C 4,8 km/h (1 Bft)
05.03.2017 07:02 2,3 °C 2,3 °C 89 % 1005,0 hPa 0,0 mm 1,7 km/h (1 Bft) SW 227 ° 0 min 0,000 mm 0,0 UV-I 0 W/m² 0,7 °C 2,3 °C 3,2 km/h (1 Bft)
05.03.2017 07:03 2,3 °C 2,3 °C 89 % 1005,0 hPa 0,0 mm 1,7 km/h (1 Bft) S-SW 210 ° 0 min 0,000 mm 0,0 UV-I 0 W/m² 0,7 °C 2,3 °C 3,2 km/h (1 Bft)
05.03.2017 07:04 2,3 °C 2,3 °C 89 % 1005,1 hPa 0,0 mm 2,6 km/h (1 Bft) S-SW 211 ° 0 min 0,000 mm 0,0 UV-I 0 W/m² 0,7 °C 2,3 °C 6,4 km/h (2 Bft)
05.03.2017 07:05 2,3 °C 2,3 °C 89 % 1005,1 hPa 0,0 mm 6,7 km/h (2 Bft) S-SW 192 ° 0 min 0,000 mm 0,0 UV-I 0 W/m² 0,7 °C 0,4 °C 9,7 km/h (2 Bft)
05.03.2017 07:06 2,3 °C 2,3 °C 88 % 1005,1 hPa 0,0 mm 5,2 km/h (1 Bft) SW 234 ° 0 min 0,000 mm 0,0 UV-I 0 W/m² 0,5 °C 0,9 °C 8,0 km/h (2 Bft)
05.03.2017 07:07 2,4 °C 2,4 °C 87 % 1005,1 hPa 0,0 mm 4,7 km/h (1 Bft) S-SW 205 ° 0 min 0,000 mm 0,0 UV-I 0 W/m² 0,5 °C 1,3 °C 4,8 km/h (1 Bft)
05.03.2017 07:08 2,4 °C 2,4 °C 86 % 1005,2 hPa 0,0 mm 3,4 km/h (1 Bft) S-SW 212 ° 0 min 0,000 mm 0,0 UV-I 0 W/m² 0,3 °C 2,4 °C 4,8 km/h (1 Bft)
05.03.2017 07:09 2,5 °C 2,5 °C 86 % 1005,2 hPa 0,0 mm 4,8 km/h (1 Bft) SW 216 ° 0 min 0,000 mm 0,0 UV-I 0 W/m² 0,4 °C 1,3 °C 8,0 km/h (2 Bft)
05.03.2017 07:10 2,6 °C 2,6 °C 85 % 1005,3 hPa 0,0 mm 4,0 km/h (1 Bft) SW 229 ° 0 min 0,000 mm 0,0 UV-I 0 W/m² 0,3 °C 2,6 °C 6,4 km/h (2 Bft)
05.03.2017 07:11 2,7 °C 2,7 °C 85 % 1005,2 hPa 0,0 mm 2,1 km/h (1 Bft) S-SW 210 ° 0 min 0,000 mm 0,0 UV-I 0 W/m² 0,4 °C 2,7 °C 3,2 km/h (1 Bft)
05.03.2017 07:12 2,7 °C 2,7 °C 85 % 1005,2 hPa 0,0 mm 3,8 km/h (1 Bft) S 178 ° 0 min 0,000 mm 0,0 UV-I 0 W/m² 0,4 °C 2,7 °C 6,4 km/h (2 Bft)
05.03.2017 07:13 2,6 °C 2,7 °C 87 % 1005,2 hPa 0,0 mm 4,2 km/h (1 Bft) S 186 ° 0 min 0,000 mm 0,0 UV-I 0 W/m² 0,7 °C 2,6 °C 6,4 km/h (2 Bft)
05.03.2017 07:14 2,6 °C 2,7 °C 87 % 1005,3 hPa 0,0 mm 4,2 km/h (1 Bft) S-SW 200 ° 0 min 0,000 mm 0,0 UV-I 0 W/m² 0,7 °C 2,6 °C 6,4 km/h (2 Bft)
05.03.2017 07:15 2,6 °C 2,6 °C 86 % 1005,3 hPa 0,0 mm 3,6 km/h (1 Bft) SW 214 ° 0 min 0,000 mm 0,0 UV-I 0 W/m² 0,5 °C 2,6 °C 6,4 km/h (2 Bft)
05.03.2017 07:16 2,7 °C 2,7 °C 86 % 1005,3 hPa 0,0 mm 3,2 km/h (1 Bft) SW 214 ° 0 min 0,000 mm 0,0 UV-I 0 W/m² 0,6 °C 2,7 °C 4,8 km/h (1 Bft)
05.03.2017 07:17 2,7 °C 2,7 °C 86 % 1005,4 hPa 0,0 mm 3,7 km/h (1 Bft) SW 215 ° 0 min 0,000 mm 0,0 UV-I 0 W/m² 0,6 °C 2,7 °C 6,4 km/h (2 Bft)
05.03.2017 07:18 2,7 °C 2,7 °C 87 % 1005,4 hPa 0,0 mm 1,7 km/h (1 Bft) SW 215 ° 0 min 0,000 mm 0,0 UV-I 5 W/m² 0,8 °C 2,7 °C 3,2 km/h (1 Bft)
05.03.2017 07:19 2,7 °C 2,7 °C 86 % 1005,4 hPa 0,0 mm 3,4 km/h (1 Bft) SW 215 ° 0 min 0,000 mm 0,0 UV-I 5 W/m² 0,6 °C 2,7 °C 4,8 km/h (1 Bft)
05.03.2017 07:20 2,7 °C 2,7 °C 85 % 1005,4 hPa 0,0 mm 2,7 km/h (1 Bft) SW 215 ° 0 min 0,000 mm 0,0 UV-I 5 W/m² 0,4 °C 2,7 °C 3,2 km/h (1 Bft)
05.03.2017 07:21 2,7 °C 2,7 °C 85 % 1005,4 hPa 0,0 mm 3,9 km/h (1 Bft) S-SW 205 ° 0 min 0,000 mm 0,0 UV-I 5 W/m² 0,4 °C 2,7 °C 4,8 km/h (1 Bft)
05.03.2017 07:22 2,7 °C 2,8 °C 85 % 1005,4 hPa 0,0 mm 5,3 km/h (1 Bft) S 184 ° 0 min 0,000 mm 0,0 UV-I 5 W/m² 0,4 °C 1,3 °C 8,0 km/h (2 Bft)
05.03.2017 07:23 2,8 °C 2,8 °C 84 % 1005,4 hPa 0,0 mm 3,4 km/h (1 Bft) S-SW 204 ° 0 min 0,000 mm 0,0 UV-I 5 W/m² 0,4 °C 2,8 °C 8,0 km/h (2 Bft)
05.03.2017 07:24 2,8 °C 2,8 °C 84 % 1005,4 hPa 0,0 mm 3,9 km/h (1 Bft) S-SW 205 ° 0 min 0,000 mm 0,0 UV-I 5 W/m² 0,4 °C 2,8 °C 6,4 km/h (2 Bft)
05.03.2017 07:25 2,8 °C 2,9 °C 85 % 1005,5 hPa 0,0 mm 4,3 km/h (1 Bft) S 177 ° 0 min 0,000 mm 0,0 UV-I 5 W/m² 0,5 °C 2,8 °C 6,4 km/h (2 Bft)
05.03.2017 07:26 2,8 °C 2,8 °C 85 % 1005,4 hPa 0,0 mm 5,3 km/h (1 Bft) SW 234 ° 0 min 0,000 mm 0,0 UV-I 7 W/m² 0,5 °C 1,5 °C 9,7 km/h (2 Bft)
05.03.2017 07:27 2,8 °C 2,8 °C 85 % 1005,5 hPa 0,0 mm 9,6 km/h (2 Bft) W-SW 254 ° 0 min 0,000 mm 0,0 UV-I 7 W/m² 0,5 °C 0,1 °C 12,9 km/h (3 Bft)
05.03.2017 07:28 2,8 °C 2,8 °C 84 % 1005,4 hPa 0,0 mm 6,6 km/h (2 Bft) S-SW 202 ° 0 min 0,000 mm 0,0 UV-I 7 W/m² 0,4 °C 1,0 °C 9,7 km/h (2 Bft)
05.03.2017 07:29 2,8 °C 2,8 °C 83 % 1005,4 hPa 0,0 mm 4,0 km/h (1 Bft) W-SW 251 ° 0 min 0,000 mm 0,0 UV-I 7 W/m² 0,2 °C 2,8 °C 6,4 km/h (2 Bft)
05.03.2017 07:30 2,9 °C 2,9 °C 83 % 1005,4 hPa 0,0 mm 3,7 km/h (1 Bft) S-SW 211 ° 0 min 0,000 mm 0,0 UV-I 7 W/m² 0,3 °C 2,9 °C 4,8 km/h (1 Bft)
05.03.2017 07:31 2,9 °C 2,9 °C 85 % 1005,5 hPa 0,0 mm 0,9 km/h (0 Bft) S-SW 211 ° 0 min 0,000 mm 0,0 UV-I 9 W/m² 0,6 °C 2,9 °C 1,6 km/h (1 Bft)
05.03.2017 07:32 2,9 °C 2,9 °C 85 % 1005,4 hPa 0,0 mm 2,2 km/h (1 Bft) SW 217 ° 0 min 0,000 mm 0,0 UV-I 9 W/m² 0,6 °C 2,9 °C 4,8 km/h (1 Bft)
05.03.2017 07:33 2,9 °C 2,9 °C 84 % 1005,6 hPa 0,0 mm 2,5 km/h (1 Bft) SW 217 ° 0 min 0,000 mm 0,0 UV-I 9 W/m² 0,5 °C 2,9 °C 3,2 km/h (1 Bft)
05.03.2017 07:34 2,9 °C 2,9 °C 84 % 1005,5 hPa 0,0 mm 5,0 km/h (1 Bft) S-SW 198 ° 0 min 0,000 mm 0,0 UV-I 9 W/m² 0,5 °C 1,7 °C 6,4 km/h (2 Bft)
05.03.2017 07:35 2,9 °C 2,9 °C 84 % 1005,5 hPa 0,0 mm 3,9 km/h (1 Bft) SW 215 ° 0 min 0,000 mm 0,0 UV-I 9 W/m² 0,5 °C 2,9 °C 4,8 km/h (1 Bft)
05.03.2017 07:36 2,9 °C 2,9 °C 84 % 1005,5 hPa 0,0 mm 2,4 km/h (1 Bft) S-SW 212 ° 0 min 0,000 mm 0,0 UV-I 11 W/m² 0,5 °C 2,9 °C 4,8 km/h (1 Bft)
05.03.2017 07:37 2,9 °C 2,9 °C 83 % 1005,6 hPa 0,0 mm 4,9 km/h (1 Bft) S-SW 204 ° 0 min 0,000 mm 0,0 UV-I 11 W/m² 0,3 °C 1,7 °C 8,0 km/h (2 Bft)
05.03.2017 07:38 2,9 °C 2,9 °C 83 % 1005,6 hPa 0,0 mm 2,7 km/h (1 Bft) S-SW 204 ° 0 min 0,000 mm 0,0 UV-I 11 W/m² 0,3 °C 2,9 °C 6,4 km/h (2 Bft)
05.03.2017 07:39 2,9 °C 2,9 °C 84 % 1005,5 hPa 0,0 mm 4,2 km/h (1 Bft) SW 217 ° 0 min 0,000 mm 0,0 UV-I 11 W/m² 0,5 °C 2,9 °C 9,7 km/h (2 Bft)
05.03.2017 07:40 2,9 °C 2,9 °C 83 % 1005,5 hPa 0,0 mm 4,7 km/h (1 Bft) W-SW 244 ° 0 min 0,000 mm 0,0 UV-I 11 W/m² 0,3 °C 1,8 °C 8,0 km/h (2 Bft)
05.03.2017 07:41 3,0 °C 3,0 °C 82 % 1005,6 hPa 0,0 mm 3,0 km/h (1 Bft) W-SW 242 ° 0 min 0,000 mm 0,0 UV-I 11 W/m² 0,2 °C 3,0 °C 6,4 km/h (2 Bft)
05.03.2017 07:42 3,1 °C 3,1 °C 82 % 1005,6 hPa 0,0 mm 5,8 km/h (2 Bft) S-SW 213 ° 0 min 0,000 mm 0,0 UV-I 12 W/m² 0,3 °C 1,6 °C 8,0 km/h (2 Bft)
05.03.2017 07:43 3,1 °C 3,1 °C 82 % 1005,6 hPa 0,0 mm 3,8 km/h (1 Bft) W 279 ° 0 min 0,000 mm 0,0 UV-I 12 W/m² 0,3 °C 3,1 °C 8,0 km/h (2 Bft)
05.03.2017 07:44 3,1 °C 3,1 °C 82 % 1005,5 hPa 0,0 mm 9,3 km/h (2 Bft) SW 236 ° 0 min 0,000 mm 0,0 UV-I 12 W/m² 0,3 °C 0,6 °C 14,5 km/h (3 Bft)
05.03.2017 07:45 3,1 °C 3,1 °C 82 % 1005,5 hPa 0,0 mm 5,8 km/h (2 Bft) SW 232 ° 0 min 0,000 mm 0,0 UV-I 14 W/m² 0,3 °C 1,6 °C 8,0 km/h (2 Bft)
05.03.2017 07:46 3,1 °C 3,1 °C 82 % 1005,5 hPa 0,0 mm 3,8 km/h (1 Bft) W-SW 251 ° 0 min 0,000 mm 0,0 UV-I 14 W/m² 0,3 °C 3,1 °C 4,8 km/h (1 Bft)
05.03.2017 07:47 3,1 °C 3,1 °C 82 % 1005,6 hPa 0,0 mm 3,6 km/h (1 Bft) W-SW 251 ° 0 min 0,000 mm 0,0 UV-I 16 W/m² 0,3 °C 3,1 °C 4,8 km/h (1 Bft)
05.03.2017 07:48 3,1 °C 3,1 °C 83 % 1005,6 hPa 0,0 mm 4,3 km/h (1 Bft) W-SW 258 ° 0 min 0,000 mm 0,0 UV-I 16 W/m² 0,5 °C 3,1 °C 4,8 km/h (1 Bft)
05.03.2017 07:49 3,1 °C 3,1 °C 83 % 1005,6 hPa 0,0 mm 5,1 km/h (1 Bft) W-SW 247 ° 0 min 0,000 mm 0,0 UV-I 18 W/m² 0,5 °C 1,9 °C 6,4 km/h (2 Bft)
05.03.2017 07:50 3,1 °C 3,1 °C 83 % 1005,6 hPa 0,0 mm 5,8 km/h (2 Bft) W 259 ° 0 min 0,000 mm 0,0 UV-I 19 W/m² 0,5 °C 1,6 °C 6,4 km/h (2 Bft)
05.03.2017 07:51 3,0 °C 3,1 °C 83 % 1005,6 hPa 0,0 mm 5,2 km/h (1 Bft) W 261 ° 0 min 0,000 mm 0,0 UV-I 21 W/m² 0,4 °C 1,7 °C 9,7 km/h (2 Bft)
05.03.2017 07:52 3,0 °C 3,0 °C 83 % 1005,7 hPa 0,0 mm 4,9 km/h (1 Bft) W-SW 254 ° 0 min 0,000 mm 0,0 UV-I 23 W/m² 0,4 °C 1,9 °C 6,4 km/h (2 Bft)
05.03.2017 07:53 3,0 °C 3,0 °C 83 % 1005,7 hPa 0,0 mm 3,1 km/h (1 Bft) W-SW 257 ° 0 min 0,000 mm 0,0 UV-I 28 W/m² 0,4 °C 3,0 °C 6,4 km/h (2 Bft)
05.03.2017 07:54 3,0 °C 3,0 °C 83 % 1005,6 hPa 0,0 mm 2,8 km/h (1 Bft) W-SW 257 ° 0 min 0,000 mm 0,0 UV-I 30 W/m² 0,4 °C 3,0 °C 4,8 km/h (1 Bft)
05.03.2017 07:55 3,1 °C 3,1 °C 83 % 1005,6 hPa 0,0 mm 3,9 km/h (1 Bft) W 259 ° 0 min 0,000 mm 0,0 UV-I 30 W/m² 0,5 °C 3,1 °C 4,8 km/h (1 Bft)
05.03.2017 07:56 3,0 °C 3,1 °C 83 % 1005,6 hPa 0,0 mm 2,8 km/h (1 Bft) W-SW 258 ° 0 min 0,000 mm 0,0 UV-I 33 W/m² 0,4 °C 3,0 °C 4,8 km/h (1 Bft)
05.03.2017 07:57 3,0 °C 3,0 °C 83 % 1005,6 hPa 0,0 mm 4,7 km/h (1 Bft) SW 217 ° 0 min 0,000 mm 0,0 UV-I 35 W/m² 0,4 °C 1,9 °C 8,0 km/h (2 Bft)
05.03.2017 07:58 3,0 °C 3,1 °C 83 % 1005,6 hPa 0,0 mm 2,7 km/h (1 Bft) W-SW 244 ° 0 min 0,000 mm 0,0 UV-I 35 W/m² 0,4 °C 3,0 °C 4,8 km/h (1 Bft)
05.03.2017 07:59 3,0 °C 3,1 °C 83 % 1005,6 hPa 0,0 mm 4,0 km/h (1 Bft) W-SW 237 ° 0 min 0,000 mm 0,0 UV-I 39 W/m² 0,4 °C 3,0 °C 6,4 km/h (2 Bft)
05.03.2017 08:00 3,0 °C 3,1 °C 83 % 1005,6 hPa 0,0 mm 3,8 km/h (1 Bft) W-SW 246 ° 0 min 0,000 mm 0,0 UV-I 39 W/m² 0,4 °C 3,0 °C 4,8 km/h (1 Bft)
05.03.2017 08:01 3,0 °C 3,1 °C 84 % 1005,6 hPa 0,0 mm 4,3 km/h (1 Bft) W-SW 258 ° 0 min 0,000 mm 0,0 UV-I 39 W/m² 0,6 °C 3,0 °C 4,8 km/h (1 Bft)
05.03.2017 08:02 3,0 °C 3,1 °C 84 % 1005,7 hPa 0,0 mm 3,8 km/h (1 Bft) W 260 ° 0 min 0,000 mm 0,0 UV-I 37 W/m² 0,6 °C 3,0 °C 4,8 km/h (1 Bft)
05.03.2017 08:03 3,0 °C 3,0 °C 85 % 1005,7 hPa 0,0 mm 3,4 km/h (1 Bft) S-SW 202 ° 0 min 0,000 mm 0,0 UV-I 35 W/m² 0,7 °C 3,0 °C 4,8 km/h (1 Bft)
05.03.2017 08:04 2,9 °C 3,0 °C 84 % 1005,8 hPa 0,0 mm 4,5 km/h (1 Bft) S-SW 196 ° 0 min 0,000 mm 0,0 UV-I 33 W/m² 0,5 °C 2,9 °C 6,4 km/h (2 Bft)
05.03.2017 08:05 3,0 °C 3,0 °C 84 % 1005,7 hPa 0,0 mm 0,7 km/h (0 Bft) S-SW 196 ° 0 min 0,000 mm 0,0 UV-I 30 W/m² 0,6 °C 3,0 °C 1,6 km/h (1 Bft)
05.03.2017 08:06 2,9 °C 3,0 °C 85 % 1005,7 hPa 0,0 mm 1,5 km/h (1 Bft) S-SW 196 ° 0 min 0,000 mm 0,0 UV-I 30 W/m² 0,6 °C 2,9 °C 3,2 km/h (1 Bft)
05.03.2017 08:07 2,9 °C 2,9 °C 85 % 1005,7 hPa 0,0 mm 4,8 km/h (1 Bft) W 264 ° 0 min 0,000 mm 0,0 UV-I 28 W/m² 0,6 °C 1,8 °C 9,7 km/h (2 Bft)
05.03.2017 08:08 2,9 °C 3,0 °C 83 % 1005,7 hPa 0,0 mm 7,7 km/h (2 Bft) SW 228 ° 0 min 0,000 mm 0,0 UV-I 28 W/m² 0,3 °C 0,8 °C 16,1 km/h (3 Bft)
05.03.2017 08:09 3,0 °C 3,1 °C 82 % 1005,8 hPa 0,0 mm 2,4 km/h (1 Bft) S-SW 199 ° 0 min 0,000 mm 0,0 UV-I 28 W/m² 0,2 °C 3,0 °C 3,2 km/h (1 Bft)
05.03.2017 08:10 3,1 °C 3,1 °C 82 % 1005,8 hPa 0,0 mm 4,8 km/h (1 Bft) S-SW 194 ° 0 min 0,000 mm 0,0 UV-I 30 W/m² 0,3 °C 2,0 °C 8,0 km/h (2 Bft)
05.03.2017 08:11 3,1 °C 3,1 °C 82 % 1005,8 hPa 0,0 mm 3,1 km/h (1 Bft) S-SW 209 ° 0 min 0,000 mm 0,0 UV-I 30 W/m² 0,3 °C 3,1 °C 6,4 km/h (2 Bft)
05.03.2017 08:12 3,1 °C 3,1 °C 83 % 1005,8 hPa 0,0 mm 3,8 km/h (1 Bft) S 190 ° 0 min 0,000 mm 0,0 UV-I 30 W/m² 0,5 °C 3,1 °C 6,4 km/h (2 Bft)
05.03.2017 08:13 3,2 °C 3,2 °C 82 % 1005,8 hPa 0,0 mm 3,2 km/h (1 Bft) SW 234 ° 0 min 0,000 mm 0,0 UV-I 30 W/m² 0,4 °C 3,2 °C 4,8 km/h (1 Bft)
05.03.2017 08:14 3,2 °C 3,2 °C 82 % 1005,8 hPa 0,0 mm 3,5 km/h (1 Bft) SW 216 ° 0 min 0,000 mm 0,0 UV-I 28 W/m² 0,4 °C 3,2 °C 8,0 km/h (2 Bft)
05.03.2017 08:15 3,1 °C 3,2 °C 82 % 1005,8 hPa 0,0 mm 3,9 km/h (1 Bft) S-SW 205 ° 0 min 0,000 mm 0,0 UV-I 28 W/m² 0,3 °C 3,1 °C 9,7 km/h (2 Bft)
05.03.2017 08:16 3,2 °C 3,2 °C 82 % 1005,8 hPa 0,0 mm 4,0 km/h (1 Bft) SW 221 ° 0 min 0,000 mm 0,0 UV-I 28 W/m² 0,4 °C 3,2 °C 6,4 km/h (2 Bft)
05.03.2017 08:17 3,2 °C 3,2 °C 82 % 1005,8 hPa 0,0 mm 2,2 km/h (1 Bft) SW 221 ° 0 min 0,000 mm 0,0 UV-I 26 W/m² 0,4 °C 3,2 °C 3,2 km/h (1 Bft)
05.03.2017 08:18 3,2 °C 3,2 °C 82 % 1005,8 hPa 0,0 mm 3,6 km/h (1 Bft) SW 217 ° 0 min 0,000 mm 0,0 UV-I 26 W/m² 0,4 °C 3,2 °C 4,8 km/h (1 Bft)
05.03.2017 08:19 3,2 °C 3,2 °C 81 % 1005,8 hPa 0,0 mm 2,7 km/h (1 Bft) S-SW 202 ° 0 min 0,000 mm 0,0 UV-I 28 W/m² 0,3 °C 3,2 °C 4,8 km/h (1 Bft)
05.03.2017 08:20 3,2 °C 3,2 °C 82 % 1005,8 hPa 0,0 mm 4,6 km/h (1 Bft) S-SW 192 ° 0 min 0,000 mm 0,0 UV-I 28 W/m² 0,4 °C 2,2 °C 6,4 km/h (2 Bft)
05.03.2017 08:21 3,2 °C 3,2 °C 82 % 1005,8 hPa 0,0 mm 5,2 km/h (1 Bft) S-SW 196 ° 0 min 0,000 mm 0,0 UV-I 28 W/m² 0,4 °C 2,0 °C 8,0 km/h (2 Bft)
05.03.2017 08:22 3,2 °C 3,2 °C 81 % 1005,9 hPa 0,0 mm 4,3 km/h (1 Bft) S-SW 195 ° 0 min 0,000 mm 0,0 UV-I 30 W/m² 0,3 °C 3,2 °C 4,8 km/h (1 Bft)
05.03.2017 08:23 3,2 °C 3,2 °C 81 % 1005,8 hPa 0,0 mm 6,3 km/h (2 Bft) S 190 ° 0 min 0,000 mm 0,0 UV-I 30 W/m² 0,3 °C 1,5 °C 8,0 km/h (2 Bft)
05.03.2017 08:24 3,2 °C 3,2 °C 81 % 1005,8 hPa 0,0 mm 4,5 km/h (1 Bft) S-SW 203 ° 0 min 0,000 mm 0,0 UV-I 32 W/m² 0,3 °C 3,2 °C 6,4 km/h (2 Bft)
05.03.2017 08:25 3,2 °C 3,2 °C 82 % 1005,9 hPa 0,0 mm 2,5 km/h (1 Bft) S-SW 202 ° 0 min 0,000 mm 0,0 UV-I 32 W/m² 0,4 °C 3,2 °C 4,8 km/h (1 Bft)
05.03.2017 08:26 3,2 °C 3,2 °C 81 % 1005,9 hPa 0,0 mm 4,9 km/h (1 Bft) S-SW 205 ° 0 min 0,000 mm 0,0 UV-I 33 W/m² 0,3 °C 2,1 °C 6,4 km/h (2 Bft)
05.03.2017 08:27 3,2 °C 3,2 °C 81 % 1005,9 hPa 0,0 mm 4,0 km/h (1 Bft) W-SW 257 ° 0 min 0,000 mm 0,0 UV-I 33 W/m² 0,3 °C 3,2 °C 8,0 km/h (2 Bft)
05.03.2017 08:28 3,2 °C 3,2 °C 81 % 1006,0 hPa 0,0 mm 4,4 km/h (1 Bft) SW 225 ° 0 min 0,000 mm 0,0 UV-I 35 W/m² 0,3 °C 3,2 °C 6,4 km/h (2 Bft)
05.03.2017 08:29 3,3 °C 3,3 °C 79 % 1005,9 hPa 0,0 mm 4,8 km/h (1 Bft) S-SW 208 ° 0 min 0,000 mm 0,0 UV-I 37 W/m² 0,0 °C 2,2 °C 8,0 km/h (2 Bft)
05.03.2017 08:30 3,3 °C 3,3 °C 79 % 1006,0 hPa 0,0 mm 4,9 km/h (1 Bft) S-SW 196 ° 0 min 0,000 mm 0,0 UV-I 37 W/m² 0,0 °C 2,2 °C 8,0 km/h (2 Bft)
05.03.2017 08:31 3,3 °C 3,3 °C 79 % 1006,0 hPa 0,0 mm 3,6 km/h (1 Bft) W-SW 246 ° 0 min 0,000 mm 0,0 UV-I 39 W/m² 0,0 °C 3,3 °C 6,4 km/h (2 Bft)
05.03.2017 08:32 3,3 °C 3,4 °C 80 % 1006,0 hPa 0,0 mm 4,6 km/h (1 Bft) W-SW 258 ° 0 min 0,000 mm 0,0 UV-I 39 W/m² 0,2 °C 2,3 °C 8,0 km/h (2 Bft)
05.03.2017 08:33 3,4 °C 3,4 °C 79 % 1006,0 hPa 0,0 mm 4,2 km/h (1 Bft) SW 233 ° 0 min 0,000 mm 0,0 UV-I 40 W/m² 0,1 °C 3,4 °C 6,4 km/h (2 Bft)
05.03.2017 08:34 3,4 °C 3,4 °C 79 % 1006,0 hPa 0,0 mm 3,4 km/h (1 Bft) SW 236 ° 0 min 0,000 mm 0,0 UV-I 42 W/m² 0,1 °C 3,4 °C 6,4 km/h (2 Bft)
05.03.2017 08:35 3,4 °C 3,4 °C 79 % 1006,0 hPa 0,0 mm 3,4 km/h (1 Bft) S-SW 208 ° 0 min 0,000 mm 0,0 UV-I 42 W/m² 0,1 °C 3,4 °C 6,4 km/h (2 Bft)
05.03.2017 08:36 3,4 °C 3,4 °C 78 % 1006,0 hPa 0,0 mm 4,4 km/h (1 Bft) S-SW 198 ° 0 min 0,000 mm 0,0 UV-I 44 W/m² -0,1 °C 3,4 °C 6,4 km/h (2 Bft)
05.03.2017 08:37 3,5 °C 3,5 °C 78 % 1006,0 hPa 0,0 mm 3,5 km/h (1 Bft) SW 227 ° 0 min 0,000 mm 0,0 UV-I 46 W/m² 0,0 °C 3,5 °C 4,8 km/h (1 Bft)
05.03.2017 08:38 3,5 °C 3,5 °C 77 % 1006,0 hPa 0,0 mm 4,2 km/h (1 Bft) S 178 ° 0 min 0,000 mm 0,0 UV-I 46 W/m² -0,1 °C 3,5 °C 9,7 km/h (2 Bft)
05.03.2017 08:39 3,6 °C 3,6 °C 78 % 1006,0 hPa 0,0 mm 5,3 km/h (1 Bft) W-SW 255 ° 0 min 0,000 mm 0,0 UV-I 47 W/m² 0,1 °C 2,4 °C 6,4 km/h (2 Bft)
05.03.2017 08:40 3,6 °C 3,6 °C 78 % 1006,0 hPa 0,0 mm 2,1 km/h (1 Bft) W-SW 254 ° 0 min 0,000 mm 0,0 UV-I 47 W/m² 0,1 °C 3,6 °C 4,8 km/h (1 Bft)
05.03.2017 08:41 3,6 °C 3,6 °C 78 % 1006,0 hPa 0,0 mm 3,8 km/h (1 Bft) SW 236 ° 0 min 0,000 mm 0,0 UV-I 47 W/m² 0,1 °C 3,6 °C 4,8 km/h (1 Bft)
05.03.2017 08:42 3,6 °C 3,6 °C 78 % 1006,0 hPa 0,0 mm 4,8 km/h (1 Bft) W-SW 243 ° 0 min 0,000 mm 0,0 UV-I 47 W/m² 0,1 °C 2,6 °C 6,4 km/h (2 Bft)
05.03.2017 08:43 3,6 °C 3,6 °C 78 % 1006,0 hPa 0,0 mm 8,0 km/h (2 Bft) W-NW 292 ° 0 min 0,000 mm 0,0 UV-I 47 W/m² 0,1 °C 1,5 °C 12,9 km/h (3 Bft)
05.03.2017 08:44 3,6 °C 3,6 °C 78 % 1006,0 hPa 0,0 mm 7,6 km/h (2 Bft) SW 223 ° 0 min 0,000 mm 0,0 UV-I 46 W/m² 0,1 °C 1,6 °C 12,9 km/h (3 Bft)
05.03.2017 08:45 3,6 °C 3,6 °C 77 % 1006,1 hPa 0,0 mm 11,0 km/h (2 Bft) W 263 ° 0 min 0,000 mm 0,0 UV-I 46 W/m² -0,0 °C 0,8 °C 16,1 km/h (3 Bft)
05.03.2017 08:46 3,6 °C 3,6 °C 77 % 1006,1 hPa 0,0 mm 7,8 km/h (2 Bft) W-SW 238 ° 0 min 0,000 mm 0,0 UV-I 46 W/m² -0,0 °C 1,5 °C 12,9 km/h (3 Bft)
05.03.2017 08:47 3,6 °C 3,6 °C 78 % 1006,1 hPa 0,0 mm 6,2 km/h (2 Bft) W-SW 245 ° 0 min 0,000 mm 0,0 UV-I 44 W/m² 0,1 °C 2,0 °C 11,3 km/h (2 Bft)
05.03.2017 08:48 3,6 °C 3,6 °C 78 % 1006,1 hPa 0,0 mm 4,0 km/h (1 Bft) W-SW 255 ° 0 min 0,000 mm 0,0 UV-I 44 W/m² 0,1 °C 3,6 °C 6,4 km/h (2 Bft)
05.03.2017 08:49 3,6 °C 3,6 °C 78 % 1006,2 hPa 0,0 mm 3,2 km/h (1 Bft) W-SW 254 ° 0 min 0,000 mm 0,0 UV-I 44 W/m² 0,1 °C 3,6 °C 4,8 km/h (1 Bft)
05.03.2017 08:50 3,6 °C 3,7 °C 77 % 1006,1 hPa 0,0 mm 2,0 km/h (1 Bft) W-SW 254 ° 0 min 0,000 mm 0,0 UV-I 42 W/m² -0,0 °C 3,6 °C 3,2 km/h (1 Bft)
05.03.2017 08:51 3,6 °C 3,7 °C 77 % 1006,1 hPa 0,0 mm 1,6 km/h (1 Bft) W-SW 254 ° 0 min 0,000 mm 0,0 UV-I 39 W/m² -0,0 °C 3,6 °C 3,2 km/h (1 Bft)
05.03.2017 08:52 3,7 °C 3,7 °C 78 % 1006,2 hPa 0,0 mm 2,5 km/h (1 Bft) W-SW 254 ° 0 min 0,000 mm 0,0 UV-I 39 W/m² 0,2 °C 3,7 °C 3,2 km/h (1 Bft)
05.03.2017 08:53 3,7 °C 3,7 °C 77 % 1006,2 hPa 0,0 mm 2,5 km/h (1 Bft) W-SW 253 ° 0 min 0,000 mm 0,0 UV-I 37 W/m² 0,1 °C 3,7 °C 4,8 km/h (1 Bft)
05.03.2017 08:54 3,7 °C 3,7 °C 78 % 1006,2 hPa 0,0 mm 1,0 km/h (0 Bft) W-SW 253 ° 0 min 0,000 mm 0,0 UV-I 37 W/m² 0,2 °C 3,7 °C 3,2 km/h (1 Bft)
05.03.2017 08:55 3,6 °C 3,7 °C 78 % 1006,2 hPa 0,0 mm 3,6 km/h (1 Bft) W-SW 237 ° 0 min 0,000 mm 0,0 UV-I 35 W/m² 0,1 °C 3,6 °C 12,9 km/h (3 Bft)
05.03.2017 08:56 3,7 °C 3,7 °C 76 % 1006,2 hPa 0,0 mm 6,8 km/h (2 Bft) SW 235 ° 0 min 0,000 mm 0,0 UV-I 35 W/m² -0,1 °C 2,0 °C 11,3 km/h (2 Bft)
05.03.2017 08:57 3,7 °C 3,7 °C 76 % 1006,1 hPa 0,0 mm 5,8 km/h (2 Bft) SW 234 ° 0 min 0,000 mm 0,0 UV-I 37 W/m² -0,1 °C 2,3 °C 9,7 km/h (2 Bft)
05.03.2017 08:58 3,7 °C 3,7 °C 75 % 1006,2 hPa 0,0 mm 4,0 km/h (1 Bft) W-SW 250 ° 0 min 0,000 mm 0,0 UV-I 37 W/m² -0,3 °C 3,7 °C 9,7 km/h (2 Bft)
05.03.2017 08:59 3,7 °C 3,7 °C 76 % 1006,1 hPa 0,0 mm 5,4 km/h (1 Bft) SW 234 ° 0 min 0,000 mm 0,0 UV-I 39 W/m² -0,1 °C 2,4 °C 8,0 km/h (2 Bft)
05.03.2017 09:00 3,7 °C 3,7 °C 77 % 1006,2 hPa 0,0 mm 6,2 km/h (2 Bft) SW 221 ° 0 min 0,000 mm 0,0 UV-I 39 W/m² 0,1 °C 2,2 °C 11,3 km/h (2 Bft)
05.03.2017 09:01 3,7 °C 3,7 °C 75 % 1006,2 hPa 0,0 mm 5,2 km/h (1 Bft) S-SW 209 ° 0 min 0,026 mm 0,0 UV-I 39 W/m² -0,3 °C 2,5 °C 9,7 km/h (2 Bft)
05.03.2017 09:02 3,7 °C 3,7 °C 75 % 1006,2 hPa 0,0 mm 4,3 km/h (1 Bft) SW 236 ° 0 min 0,000 mm 0,0 UV-I 40 W/m² -0,3 °C 3,7 °C 6,4 km/h (2 Bft)
05.03.2017 09:03 3,7 °C 3,7 °C 76 % 1006,2 hPa 0,0 mm 4,2 km/h (1 Bft) SW 216 ° 0 min 0,000 mm 0,0 UV-I 42 W/m² -0,1 °C 3,7 °C 8,0 km/h (2 Bft)
05.03.2017 09:04 3,7 °C 3,7 °C 76 % 1006,2 hPa 0,0 mm 1,9 km/h (1 Bft) SW 219 ° 0 min 0,000 mm 0,0 UV-I 42 W/m² -0,1 °C 3,7 °C 4,8 km/h (1 Bft)
05.03.2017 09:05 3,7 °C 3,7 °C 76 % 1006,2 hPa 0,0 mm 5,9 km/h (2 Bft) W-SW 243 ° 0 min 0,000 mm 0,0 UV-I 44 W/m² -0,1 °C 2,3 °C 9,7 km/h (2 Bft)
05.03.2017 09:06 3,7 °C 3,7 °C 76 % 1006,2 hPa 0,0 mm 2,3 km/h (1 Bft) W-SW 243 ° 0 min 0,000 mm 0,0 UV-I 44 W/m² -0,1 °C 3,7 °C 3,2 km/h (1 Bft)
05.03.2017 09:07 3,7 °C 3,7 °C 77 % 1006,3 hPa 0,0 mm 3,2 km/h (1 Bft) W-SW 244 ° 0 min 0,000 mm 0,0 UV-I 44 W/m² 0,1 °C 3,7 °C 4,8 km/h (1 Bft)
05.03.2017 09:08 3,7 °C 3,7 °C 77 % 1006,2 hPa 0,0 mm 3,4 km/h (1 Bft) SW 229 ° 0 min 0,000 mm 0,0 UV-I 42 W/m² 0,1 °C 3,7 °C 4,8 km/h (1 Bft)
05.03.2017 09:09 3,7 °C 3,7 °C 76 % 1006,2 hPa 0,0 mm 2,6 km/h (1 Bft) S-SW 197 ° 0 min 0,000 mm 0,0 UV-I 42 W/m² -0,1 °C 3,7 °C 6,4 km/h (2 Bft)
05.03.2017 09:10 3,7 °C 3,7 °C 75 % 1006,2 hPa 0,0 mm 3,2 km/h (1 Bft) S-SW 210 ° 0 min 0,000 mm 0,0 UV-I 42 W/m² -0,3 °C 3,7 °C 4,8 km/h (1 Bft)
05.03.2017 09:11 3,7 °C 3,7 °C 79 % 1006,2 hPa 0,0 mm 2,5 km/h (1 Bft) S-SW 201 ° 0 min 0,000 mm 0,0 UV-I 44 W/m² 0,4 °C 3,7 °C 4,8 km/h (1 Bft)
05.03.2017 09:12 3,7 °C 3,7 °C 76 % 1006,2 hPa 0,0 mm 2,9 km/h (1 Bft) SW 228 ° 0 min 0,000 mm 0,0 UV-I 46 W/m² -0,1 °C 3,7 °C 4,8 km/h (1 Bft)
05.03.2017 09:13 3,7 °C 3,7 °C 76 % 1006,2 hPa 0,0 mm 5,2 km/h (1 Bft) W 265 ° 0 min 0,000 mm 0,0 UV-I 47 W/m² -0,1 °C 2,5 °C 8,0 km/h (2 Bft)
05.03.2017 09:14 3,7 °C 3,7 °C 76 % 1006,2 hPa 0,0 mm 3,8 km/h (1 Bft) S-SW 209 ° 0 min 0,000 mm 0,0 UV-I 47 W/m² -0,1 °C 3,7 °C 6,4 km/h (2 Bft)
05.03.2017 09:15 3,7 °C 3,7 °C 76 % 1006,2 hPa 0,0 mm 2,0 km/h (1 Bft) S-SW 209 ° 0 min 0,000 mm 0,0 UV-I 49 W/m² -0,1 °C 3,7 °C 3,2 km/h (1 Bft)
05.03.2017 09:16 3,7 °C 3,8 °C 77 % 1006,3 hPa 0,0 mm 3,5 km/h (1 Bft) S-SW 209 ° 0 min 0,000 mm 0,0 UV-I 51 W/m² 0,1 °C 3,7 °C 4,8 km/h (1 Bft)
05.03.2017 09:17 3,7 °C 3,8 °C 76 % 1006,2 hPa 0,0 mm 3,0 km/h (1 Bft) W-SW 258 ° 0 min 0,000 mm 0,0 UV-I 53 W/m² -0,1 °C 3,7 °C 4,8 km/h (1 Bft)
05.03.2017 09:18 3,7 °C 3,8 °C 77 % 1006,2 hPa 0,0 mm 1,5 km/h (1 Bft) W-SW 258 ° 0 min 0,000 mm 0,0 UV-I 56 W/m² 0,1 °C 3,7 °C 3,2 km/h (1 Bft)
05.03.2017 09:19 3,8 °C 3,8 °C 76 % 1006,2 hPa 0,0 mm 1,5 km/h (1 Bft) W-SW 258 ° 0 min 0,000 mm 0,0 UV-I 60 W/m² -0,0 °C 3,8 °C 3,2 km/h (1 Bft)
05.03.2017 09:20 3,7 °C 3,8 °C 77 % 1006,3 hPa 0,0 mm 2,0 km/h (1 Bft) W-SW 258 ° 0 min 0,000 mm 0,0 UV-I 62 W/m² 0,1 °C 3,7 °C 3,2 km/h (1 Bft)
05.03.2017 09:21 3,8 °C 3,8 °C 76 % 1006,3 hPa 0,0 mm 1,6 km/h (1 Bft) W-SW 258 ° 0 min 0,000 mm 0,0 UV-I 69 W/m² -0,0 °C 3,8 °C 3,2 km/h (1 Bft)
05.03.2017 09:22 3,8 °C 3,8 °C 78 % 1006,3 hPa 0,0 mm 2,3 km/h (1 Bft) W-SW 258 ° 0 min 0,000 mm 0,5 UV-I 70 W/m² 0,3 °C 3,8 °C 4,8 km/h (1 Bft)
05.03.2017 09:23 3,7 °C 3,8 °C 80 % 1006,3 hPa 0,0 mm 2,9 km/h (1 Bft) W-SW 256 ° 0 min 0,000 mm 0,5 UV-I 72 W/m² 0,6 °C 3,7 °C 4,8 km/h (1 Bft)
05.03.2017 09:24 3,8 °C 3,8 °C 77 % 1006,3 hPa 0,0 mm 1,7 km/h (1 Bft) W-SW 256 ° 0 min 0,000 mm 0,5 UV-I 76 W/m² 0,1 °C 3,8 °C 3,2 km/h (1 Bft)
05.03.2017 09:25 3,8 °C 3,8 °C 76 % 1006,3 hPa 0,0 mm 3,9 km/h (1 Bft) SW 215 ° 0 min 0,000 mm 0,5 UV-I 76 W/m² -0,0 °C 3,8 °C 6,4 km/h (2 Bft)
05.03.2017 09:26 3,8 °C 3,8 °C 77 % 1006,3 hPa 0,0 mm 3,7 km/h (1 Bft) W 263 ° 0 min 0,000 mm 0,5 UV-I 83 W/m² 0,1 °C 3,8 °C 4,8 km/h (1 Bft)
05.03.2017 09:27 3,8 °C 3,8 °C 76 % 1006,3 hPa 0,0 mm 3,6 km/h (1 Bft) S-SW 213 ° 0 min 0,000 mm 0,5 UV-I 86 W/m² -0,0 °C 3,8 °C 6,4 km/h (2 Bft)
05.03.2017 09:28 3,8 °C 3,9 °C 76 % 1006,3 hPa 0,0 mm 3,1 km/h (1 Bft) S-SW 209 ° 0 min 0,000 mm 0,5 UV-I 84 W/m² -0,0 °C 3,8 °C 6,4 km/h (2 Bft)
05.03.2017 09:29 3,9 °C 3,9 °C 76 % 1006,3 hPa 0,0 mm 3,4 km/h (1 Bft) SW 214 ° 0 min 0,000 mm 0,5 UV-I 81 W/m² 0,1 °C 3,9 °C 4,8 km/h (1 Bft)
05.03.2017 09:30 3,9 °C 3,9 °C 77 % 1006,3 hPa 0,0 mm 4,1 km/h (1 Bft) W 275 ° 0 min 0,000 mm 0,5 UV-I 74 W/m² 0,2 °C 3,9 °C 6,4 km/h (2 Bft)
05.03.2017 09:31 3,9 °C 3,9 °C 76 % 1006,3 hPa 0,0 mm 3,5 km/h (1 Bft) W-SW 252 ° 0 min 0,000 mm 0,5 UV-I 67 W/m² 0,1 °C 3,9 °C 4,8 km/h (1 Bft)
05.03.2017 09:32 3,9 °C 3,9 °C 76 % 1006,3 hPa 0,0 mm 5,5 km/h (1 Bft) W-SW 238 ° 0 min 0,000 mm 0,0 UV-I 53 W/m² 0,1 °C 2,6 °C 8,0 km/h (2 Bft)
05.03.2017 09:33 3,9 °C 3,9 °C 75 % 1006,3 hPa 0,0 mm 4,3 km/h (1 Bft) S-SW 213 ° 0 min 0,000 mm 0,0 UV-I 47 W/m² -0,1 °C 3,9 °C 8,0 km/h (2 Bft)
05.03.2017 09:34 3,9 °C 3,9 °C 75 % 1006,3 hPa 0,0 mm 3,7 km/h (1 Bft) SW 220 ° 0 min 0,000 mm 0,0 UV-I 44 W/m² -0,1 °C 3,9 °C 4,8 km/h (1 Bft)
05.03.2017 09:35 3,9 °C 3,9 °C 75 % 1006,2 hPa 0,0 mm 3,1 km/h (1 Bft) S-SW 192 ° 0 min 0,000 mm 0,0 UV-I 42 W/m² -0,1 °C 3,9 °C 4,8 km/h (1 Bft)
05.03.2017 09:36 3,9 °C 3,9 °C 75 % 1006,2 hPa 0,0 mm 2,7 km/h (1 Bft) SW 217 ° 0 min 0,000 mm 0,0 UV-I 42 W/m² -0,1 °C 3,9 °C 3,2 km/h (1 Bft)
05.03.2017 09:37 3,9 °C 3,9 °C 75 % 1006,3 hPa 0,0 mm 2,4 km/h (1 Bft) SW 217 ° 0 min 0,000 mm 0,0 UV-I 40 W/m² -0,1 °C 3,9 °C 3,2 km/h (1 Bft)
05.03.2017 09:38 3,9 °C 3,9 °C 77 % 1006,3 hPa 0,0 mm 2,4 km/h (1 Bft) W-SW 243 ° 0 min 0,000 mm 0,0 UV-I 42 W/m² 0,2 °C 3,9 °C 4,8 km/h (1 Bft)
05.03.2017 09:39 3,8 °C 3,9 °C 78 % 1006,3 hPa 0,0 mm 3,8 km/h (1 Bft) S-SW 210 ° 0 min 0,000 mm 0,0 UV-I 46 W/m² 0,3 °C 3,8 °C 4,8 km/h (1 Bft)
05.03.2017 09:40 3,8 °C 3,8 °C 76 % 1006,3 hPa 0,0 mm 3,0 km/h (1 Bft) SW 226 ° 0 min 0,000 mm 0,0 UV-I 53 W/m² -0,0 °C 3,8 °C 6,4 km/h (2 Bft)
05.03.2017 09:41 3,8 °C 3,8 °C 75 % 1006,3 hPa 0,0 mm 2,2 km/h (1 Bft) SW 226 ° 0 min 0,000 mm 0,0 UV-I 58 W/m² -0,2 °C 3,8 °C 3,2 km/h (1 Bft)
05.03.2017 09:42 3,8 °C 3,8 °C 76 % 1006,3 hPa 0,0 mm 2,1 km/h (1 Bft) SW 226 ° 0 min 0,000 mm 0,0 UV-I 65 W/m² -0,0 °C 3,8 °C 3,2 km/h (1 Bft)
05.03.2017 09:43 3,8 °C 3,8 °C 76 % 1006,3 hPa 0,0 mm 2,0 km/h (1 Bft) W-SW 248 ° 0 min 0,000 mm 0,5 UV-I 70 W/m² -0,0 °C 3,8 °C 3,2 km/h (1 Bft)
05.03.2017 09:44 3,8 °C 3,8 °C 77 % 1006,2 hPa 0,0 mm 3,1 km/h (1 Bft) W-SW 244 ° 0 min 0,000 mm 0,5 UV-I 79 W/m² 0,1 °C 3,8 °C 4,8 km/h (1 Bft)
05.03.2017 09:45 3,8 °C 3,8 °C 78 % 1006,2 hPa 0,0 mm 3,5 km/h (1 Bft) SW 216 ° 0 min 0,000 mm 0,5 UV-I 83 W/m² 0,3 °C 3,8 °C 6,4 km/h (2 Bft)
05.03.2017 09:46 3,8 °C 3,8 °C 75 % 1006,2 hPa 0,0 mm 2,7 km/h (1 Bft) S-SW 200 ° 0 min 0,000 mm 0,6 UV-I 84 W/m² -0,2 °C 3,8 °C 6,4 km/h (2 Bft)
05.03.2017 09:47 3,9 °C 3,9 °C 76 % 1006,1 hPa 0,0 mm 3,4 km/h (1 Bft) SW 221 ° 0 min 0,000 mm 0,6 UV-I 84 W/m² 0,1 °C 3,9 °C 6,4 km/h (2 Bft)
05.03.2017 09:48 3,9 °C 3,9 °C 76 % 1006,2 hPa 0,0 mm 3,4 km/h (1 Bft) SW 221 ° 0 min 0,000 mm 0,6 UV-I 84 W/m² 0,1 °C 3,9 °C 4,8 km/h (1 Bft)
05.03.2017 09:49 3,9 °C 3,9 °C 75 % 1006,1 hPa 0,0 mm 2,0 km/h (1 Bft) S-SW 204 ° 0 min 0,000 mm 0,6 UV-I 84 W/m² -0,1 °C 3,9 °C 3,2 km/h (1 Bft)
05.03.2017 09:50 3,9 °C 3,9 °C 77 % 1006,1 hPa 0,0 mm 1,4 km/h (1 Bft) SW 214 ° 0 min 0,000 mm 0,6 UV-I 86 W/m² 0,2 °C 3,9 °C 3,2 km/h (1 Bft)
05.03.2017 09:51 3,9 °C 3,9 °C 75 % 1006,2 hPa 0,0 mm 4,5 km/h (1 Bft) S 169 ° 0 min 0,000 mm 0,6 UV-I 90 W/m² -0,1 °C 3,9 °C 8,0 km/h (2 Bft)
05.03.2017 09:52 3,9 °C 3,9 °C 74 % 1006,2 hPa 0,0 mm 5,4 km/h (1 Bft) S-SW 198 ° 0 min 0,000 mm 0,6 UV-I 93 W/m² -0,3 °C 2,7 °C 8,0 km/h (2 Bft)
05.03.2017 09:53 3,9 °C 4,0 °C 75 % 1006,2 hPa 0,0 mm 3,4 km/h (1 Bft) S 171 ° 0 min 0,000 mm 0,6 UV-I 97 W/m² -0,1 °C 3,9 °C 8,0 km/h (2 Bft)
05.03.2017 09:54 4,0 °C 4,0 °C 75 % 1006,2 hPa 0,0 mm 3,2 km/h (1 Bft) S-SW 194 ° 0 min 0,000 mm 0,7 UV-I 100 W/m² -0,0 °C 4,0 °C 8,0 km/h (2 Bft)
05.03.2017 09:55 4,0 °C 4,0 °C 74 % 1006,2 hPa 0,0 mm 2,3 km/h (1 Bft) S-SW 194 ° 0 min 0,000 mm 0,7 UV-I 104 W/m² -0,2 °C 4,0 °C 3,2 km/h (1 Bft)
05.03.2017 09:56 4,1 °C 4,1 °C 75 % 1006,2 hPa 0,0 mm 3,3 km/h (1 Bft) W 269 ° 0 min 0,000 mm 0,7 UV-I 113 W/m² 0,1 °C 4,1 °C 4,8 km/h (1 Bft)
05.03.2017 09:57 4,1 °C 4,1 °C 75 % 1006,2 hPa 0,0 mm 3,6 km/h (1 Bft) W-SW 242 ° 0 min 0,000 mm 0,8 UV-I 116 W/m² 0,1 °C 4,1 °C 6,4 km/h (2 Bft)
05.03.2017 09:58 4,1 °C 4,1 °C 76 % 1006,2 hPa 0,0 mm 3,3 km/h (1 Bft) S-SW 198 ° 0 min 0,000 mm 0,8 UV-I 120 W/m² 0,3 °C 4,1 °C 6,4 km/h (2 Bft)
05.03.2017 09:59 4,1 °C 4,1 °C 75 % 1006,2 hPa 0,0 mm 5,6 km/h (1 Bft) S-SW 196 ° 0 min 0,000 mm 0,8 UV-I 123 W/m² 0,1 °C 2,8 °C 8,0 km/h (2 Bft)
05.03.2017 10:00 4,1 °C 4,1 °C 75 % 1006,2 hPa 0,0 mm 2,0 km/h (1 Bft) W 259 ° 0 min 0,000 mm 0,9 UV-I 125 W/m² 0,1 °C 4,1 °C 4,8 km/h (1 Bft)
05.03.2017 10:01 4,2 °C 4,2 °C 76 % 1006,2 hPa 0,0 mm 1,6 km/h (1 Bft) W 259 ° 0 min 0,025 mm 0,9 UV-I 127 W/m² 0,4 °C 4,2 °C 4,8 km/h (1 Bft)
05.03.2017 10:02 4,2 °C 4,2 °C 76 % 1006,3 hPa 0,0 mm 1,3 km/h (1 Bft) W 259 ° 0 min 0,000 mm 0,9 UV-I 132 W/m² 0,4 °C 4,2 °C 3,2 km/h (1 Bft)
05.03.2017 10:03 4,2 °C 4,2 °C 75 % 1006,2 hPa 0,0 mm 1,1 km/h (1 Bft) W 259 ° 0 min 0,000 mm 0,9 UV-I 134 W/m² 0,2 °C 4,2 °C 1,6 km/h (1 Bft)
05.03.2017 10:04 4,2 °C 4,2 °C 75 % 1006,2 hPa 0,0 mm 2,7 km/h (1 Bft) W-SW 253 ° 0 min 0,000 mm 0,9 UV-I 137 W/m² 0,2 °C 4,2 °C 4,8 km/h (1 Bft)
05.03.2017 10:05 4,2 °C 4,2 °C 76 % 1006,2 hPa 0,0 mm 2,4 km/h (1 Bft) W-SW 253 ° 0 min 0,000 mm 1,0 UV-I 141 W/m² 0,4 °C 4,2 °C 3,2 km/h (1 Bft)
05.03.2017 10:06 4,2 °C 4,3 °C 75 % 1006,3 hPa 0,0 mm 4,8 km/h (1 Bft) SW 214 ° 0 min 0,000 mm 1,0 UV-I 142 W/m² 0,2 °C 3,3 °C 8,0 km/h (2 Bft)
05.03.2017 10:07 4,3 °C 4,3 °C 76 % 1006,2 hPa 0,0 mm 1,9 km/h (1 Bft) SW 214 ° 0 min 0,000 mm 1,0 UV-I 144 W/m² 0,5 °C 4,3 °C 3,2 km/h (1 Bft)
05.03.2017 10:08 4,3 °C 4,3 °C 76 % 1006,3 hPa 0,0 mm 4,2 km/h (1 Bft) S-SW 213 ° 0 min 0,000 mm 0,9 UV-I 142 W/m² 0,5 °C 4,3 °C 6,4 km/h (2 Bft)
05.03.2017 10:09 4,3 °C 4,3 °C 74 % 1006,2 hPa 0,0 mm 2,9 km/h (1 Bft) W 269 ° 0 min 0,000 mm 0,9 UV-I 141 W/m² 0,1 °C 4,3 °C 4,8 km/h (1 Bft)
05.03.2017 10:10 4,3 °C 4,3 °C 76 % 1006,2 hPa 0,0 mm 3,0 km/h (1 Bft) W-SW 252 ° 0 min 0,000 mm 0,9 UV-I 139 W/m² 0,5 °C 4,3 °C 4,8 km/h (1 Bft)
05.03.2017 10:11 4,4 °C 4,4 °C 75 % 1006,3 hPa 0,0 mm 4,6 km/h (1 Bft) W-SW 252 ° 0 min 0,000 mm 0,9 UV-I 137 W/m² 0,4 °C 3,6 °C 6,4 km/h (2 Bft)
05.03.2017 10:12 4,4 °C 4,4 °C 75 % 1006,2 hPa 0,0 mm 3,0 km/h (1 Bft) W-SW 252 ° 0 min 0,000 mm 0,9 UV-I 135 W/m² 0,4 °C 4,4 °C 4,8 km/h (1 Bft)
05.03.2017 10:13 4,4 °C 4,4 °C 75 % 1006,3 hPa 0,0 mm 3,2 km/h (1 Bft) W-SW 255 ° 0 min 0,000 mm 0,9 UV-I 130 W/m² 0,4 °C 4,4 °C 4,8 km/h (1 Bft)
05.03.2017 10:14 4,4 °C 4,4 °C 75 % 1006,3 hPa 0,0 mm 3,8 km/h (1 Bft) W-SW 255 ° 0 min 0,000 mm 0,8 UV-I 128 W/m² 0,4 °C 4,4 °C 4,8 km/h (1 Bft)
05.03.2017 10:15 4,4 °C 4,4 °C 75 % 1006,4 hPa 0,0 mm 1,9 km/h (1 Bft) W-SW 255 ° 0 min 0,000 mm 0,8 UV-I 127 W/m² 0,4 °C 4,4 °C 4,8 km/h (1 Bft)
05.03.2017 10:16 4,4 °C 4,4 °C 75 % 1006,4 hPa 0,0 mm 2,1 km/h (1 Bft) S 188 ° 0 min 0,000 mm 0,8 UV-I 125 W/m² 0,4 °C 4,4 °C 4,8 km/h (1 Bft)
05.03.2017 10:17 4,4 °C 4,4 °C 72 % 1006,3 hPa 0,0 mm 7,0 km/h (2 Bft) W 264 ° 0 min 0,000 mm 0,8 UV-I 125 W/m² -0,2 °C 2,7 °C 11,3 km/h (2 Bft)
05.03.2017 10:18 4,4 °C 4,4 °C 73 % 1006,3 hPa 0,0 mm 6,4 km/h (2 Bft) W-SW 249 ° 0 min 0,000 mm 0,8 UV-I 125 W/m² -0,0 °C 2,9 °C 12,9 km/h (3 Bft)
05.03.2017 10:19 4,4 °C 4,5 °C 74 % 1006,4 hPa 0,0 mm 4,7 km/h (1 Bft) W 263 ° 0 min 0,000 mm 0,8 UV-I 123 W/m² 0,2 °C 3,5 °C 6,4 km/h (2 Bft)
05.03.2017 10:20 4,5 °C 4,5 °C 74 % 1006,4 hPa 0,0 mm 5,4 km/h (1 Bft) SW 224 ° 0 min 0,000 mm 0,8 UV-I 120 W/m² 0,3 °C 3,4 °C 8,0 km/h (2 Bft)
05.03.2017 10:21 4,5 °C 4,5 °C 74 % 1006,4 hPa 0,0 mm 4,6 km/h (1 Bft) SW 227 ° 0 min 0,000 mm 0,8 UV-I 118 W/m² 0,3 °C 3,7 °C 6,4 km/h (2 Bft)
05.03.2017 10:22 4,5 °C 4,6 °C 74 % 1006,3 hPa 0,0 mm 2,2 km/h (1 Bft) SW 227 ° 0 min 0,000 mm 0,8 UV-I 116 W/m² 0,3 °C 4,5 °C 4,8 km/h (1 Bft)
05.03.2017 10:23 4,5 °C 4,6 °C 75 % 1006,4 hPa 0,0 mm 0,4 km/h (0 Bft) SW 227 ° 0 min 0,000 mm 0,8 UV-I 116 W/m² 0,5 °C 4,5 °C 1,6 km/h (1 Bft)
05.03.2017 10:24 4,6 °C 4,6 °C 74 % 1006,4 hPa 0,0 mm 1,9 km/h (1 Bft) SW 227 ° 0 min 0,000 mm 0,8 UV-I 116 W/m² 0,4 °C 4,6 °C 3,2 km/h (1 Bft)
05.03.2017 10:25 4,6 °C 4,6 °C 73 % 1006,4 hPa 0,0 mm 1,6 km/h (1 Bft) SW 227 ° 0 min 0,000 mm 0,8 UV-I 120 W/m² 0,2 °C 4,6 °C 3,2 km/h (1 Bft)
05.03.2017 10:26 4,6 °C 4,6 °C 74 % 1006,4 hPa 0,0 mm 3,8 km/h (1 Bft) SW 226 ° 0 min 0,000 mm 0,8 UV-I 120 W/m² 0,4 °C 4,6 °C 4,8 km/h (1 Bft)
05.03.2017 10:27 4,6 °C 4,6 °C 73 % 1006,4 hPa 0,0 mm 9,3 km/h (2 Bft) W 261 ° 0 min 0,000 mm 0,9 UV-I 125 W/m² 0,2 °C 2,3 °C 12,9 km/h (3 Bft)
05.03.2017 10:28 4,6 °C 4,6 °C 72 % 1006,4 hPa 0,0 mm 7,9 km/h (2 Bft) NW 305 ° 0 min 0,000 mm 0,9 UV-I 134 W/m² -0,0 °C 2,7 °C 16,1 km/h (3 Bft)
05.03.2017 10:29 4,6 °C 4,6 °C 72 % 1006,3 hPa 0,0 mm 12,5 km/h (3 Bft) W-SW 258 ° 0 min 0,000 mm 1,0 UV-I 141 W/m² -0,0 °C 1,7 °C 14,5 km/h (3 Bft)
05.03.2017 10:30 4,6 °C 4,6 °C 71 % 1006,3 hPa 0,0 mm 14,3 km/h (3 Bft) W-SW 246 ° 0 min 0,000 mm 1,0 UV-I 148 W/m² -0,2 °C 1,4 °C 20,9 km/h (4 Bft)
05.03.2017 10:31 4,6 °C 4,6 °C 72 % 1006,3 hPa 0,0 mm 12,5 km/h (3 Bft) W 270 ° 0 min 0,000 mm 1,0 UV-I 151 W/m² -0,0 °C 1,7 °C 19,3 km/h (3 Bft)
05.03.2017 10:32 4,6 °C 4,6 °C 71 % 1006,3 hPa 0,0 mm 13,8 km/h (3 Bft) W-SW 258 ° 0 min 0,000 mm 1,1 UV-I 155 W/m² -0,2 °C 1,5 °C 17,7 km/h (3 Bft)
05.03.2017 10:33 4,7 °C 4,7 °C 71 % 1006,3 hPa 0,0 mm 7,0 km/h (2 Bft) W 268 ° 0 min 0,000 mm 1,1 UV-I 160 W/m² -0,1 °C 3,1 °C 12,9 km/h (3 Bft)
05.03.2017 10:34 4,7 °C 4,7 °C 72 % 1006,3 hPa 0,0 mm 12,5 km/h (3 Bft) W 274 ° 0 min 0,000 mm 1,1 UV-I 165 W/m² 0,1 °C 1,8 °C 19,3 km/h (3 Bft)
05.03.2017 10:35 4,6 °C 4,7 °C 70 % 1006,3 hPa 0,0 mm 15,4 km/h (3 Bft) W 273 ° 0 min 0,000 mm 1,1 UV-I 167 W/m² -0,4 °C 1,2 °C 22,5 km/h (4 Bft)
05.03.2017 10:36 4,6 °C 4,7 °C 71 % 1006,3 hPa 0,0 mm 12,4 km/h (3 Bft) W 281 ° 0 min 0,000 mm 1,1 UV-I 165 W/m² -0,2 °C 1,7 °C 19,3 km/h (3 Bft)
05.03.2017 10:37 4,6 °C 4,7 °C 70 % 1006,3 hPa 0,0 mm 10,2 km/h (2 Bft) W 263 ° 0 min 0,000 mm 1,1 UV-I 169 W/m² -0,4 °C 2,1 °C 19,3 km/h (3 Bft)
05.03.2017 10:38 4,7 °C 4,7 °C 71 % 1006,3 hPa 0,0 mm 10,2 km/h (2 Bft) W 273 ° 0 min 0,000 mm 1,2 UV-I 174 W/m² -0,1 °C 2,3 °C 14,5 km/h (3 Bft)
05.03.2017 10:39 4,7 °C 4,7 °C 71 % 1006,4 hPa 0,0 mm 9,5 km/h (2 Bft) W-NW 295 ° 0 min 0,000 mm 1,2 UV-I 178 W/m² -0,1 °C 2,4 °C 14,5 km/h (3 Bft)
05.03.2017 10:40 4,7 °C 4,7 °C 71 % 1006,4 hPa 0,0 mm 10,5 km/h (2 Bft) W 269 ° 0 min 0,000 mm 1,2 UV-I 179 W/m² -0,1 °C 2,2 °C 16,1 km/h (3 Bft)
05.03.2017 10:41 4,7 °C 4,7 °C 70 % 1006,4 hPa 0,0 mm 9,2 km/h (2 Bft) W-NW 302 ° 0 min 0,000 mm 1,3 UV-I 192 W/m² -0,3 °C 2,5 °C 12,9 km/h (3 Bft)
05.03.2017 10:42 4,7 °C 4,7 °C 70 % 1006,4 hPa 0,0 mm 8,7 km/h (2 Bft) W 267 ° 1 min 0,000 mm 1,3 UV-I 202 W/m² -0,3 °C 2,6 °C 14,5 km/h (3 Bft)
05.03.2017 10:43 4,7 °C 4,7 °C 70 % 1006,4 hPa 0,0 mm 10,0 km/h (2 Bft) W-NW 292 ° 1 min 0,000 mm 1,3 UV-I 225 W/m² -0,3 °C 2,3 °C 14,5 km/h (3 Bft)
05.03.2017 10:44 4,7 °C 4,7 °C 70 % 1006,4 hPa 0,0 mm 11,8 km/h (2 Bft) W 280 ° 1 min 0,000 mm 1,4 UV-I 234 W/m² -0,3 °C 1,9 °C 14,5 km/h (3 Bft)
05.03.2017 10:45 4,8 °C 4,8 °C 72 % 1006,4 hPa 0,0 mm 12,7 km/h (3 Bft) W 281 ° 1 min 0,000 mm 1,4 UV-I 230 W/m² 0,2 °C 1,9 °C 16,1 km/h (3 Bft)
05.03.2017 10:46 4,8 °C 4,8 °C 71 % 1006,4 hPa 0,0 mm 9,7 km/h (2 Bft) W 261 ° 1 min 0,000 mm 1,4 UV-I 220 W/m² -0,0 °C 2,5 °C 12,9 km/h (3 Bft)
05.03.2017 10:47 4,9 °C 4,9 °C 70 % 1006,3 hPa 0,0 mm 5,6 km/h (1 Bft) W 278 ° 1 min 0,000 mm 1,3 UV-I 209 W/m² -0,1 °C 3,7 °C 6,4 km/h (2 Bft)
05.03.2017 10:48 4,9 °C 4,9 °C 71 % 1006,4 hPa 0,0 mm 7,2 km/h (2 Bft) W-SW 253 ° 0 min 0,000 mm 1,3 UV-I 195 W/m² 0,1 °C 3,2 °C 9,7 km/h (2 Bft)
05.03.2017 10:49 4,9 °C 4,9 °C 69 % 1006,4 hPa 0,0 mm 6,2 km/h (2 Bft) W-NW 297 ° 0 min 0,000 mm 1,2 UV-I 169 W/m² -0,3 °C 3,5 °C 9,7 km/h (2 Bft)
05.03.2017 10:50 4,9 °C 4,9 °C 71 % 1006,4 hPa 0,0 mm 8,3 km/h (2 Bft) W 263 ° 0 min 0,000 mm 1,1 UV-I 165 W/m² 0,1 °C 2,9 °C 12,9 km/h (3 Bft)
05.03.2017 10:51 4,9 °C 4,9 °C 70 % 1006,4 hPa 0,0 mm 6,5 km/h (2 Bft) W 264 ° 0 min 0,000 mm 1,1 UV-I 160 W/m² -0,1 °C 3,4 °C 12,9 km/h (3 Bft)
05.03.2017 10:52 4,9 °C 4,9 °C 70 % 1006,4 hPa 0,0 mm 5,5 km/h (1 Bft) W-SW 247 ° 0 min 0,000 mm 1,1 UV-I 156 W/m² -0,1 °C 3,8 °C 11,3 km/h (2 Bft)
05.03.2017 10:53 4,9 °C 4,9 °C 70 % 1006,4 hPa 0,0 mm 14,8 km/h (3 Bft) W 259 ° 0 min 0,000 mm 1,0 UV-I 153 W/m² -0,1 °C 1,7 °C 19,3 km/h (3 Bft)
05.03.2017 10:54 4,9 °C 4,9 °C 70 % 1006,4 hPa 0,0 mm 13,1 km/h (3 Bft) W-SW 246 ° 0 min 0,000 mm 1,0 UV-I 139 W/m² -0,1 °C 1,9 °C 16,1 km/h (3 Bft)
05.03.2017 10:55 4,8 °C 4,9 °C 70 % 1006,4 hPa 0,0 mm 10,3 km/h (2 Bft) W-NW 289 ° 0 min 0,000 mm 0,9 UV-I 134 W/m² -0,2 °C 2,4 °C 14,5 km/h (3 Bft)
05.03.2017 10:56 4,8 °C 4,8 °C 68 % 1006,3 hPa 0,0 mm 8,3 km/h (2 Bft) W-NW 300 ° 0 min 0,000 mm 0,9 UV-I 130 W/m² -0,6 °C 2,8 °C 11,3 km/h (2 Bft)
05.03.2017 10:57 4,8 °C 4,8 °C 68 % 1006,3 hPa 0,0 mm 10,1 km/h (2 Bft) W 263 ° 0 min 0,000 mm 0,9 UV-I 134 W/m² -0,6 °C 2,4 °C 12,9 km/h (3 Bft)
05.03.2017 10:58 4,8 °C 4,8 °C 69 % 1006,3 hPa 0,0 mm 6,7 km/h (2 Bft) W 260 ° 0 min 0,000 mm 0,9 UV-I 137 W/m² -0,4 °C 3,3 °C 12,9 km/h (3 Bft)
05.03.2017 10:59 4,7 °C 4,8 °C 69 % 1006,3 hPa 0,0 mm 5,2 km/h (1 Bft) W 277 ° 0 min 0,000 mm 0,9 UV-I 141 W/m² -0,5 °C 3,7 °C 8,0 km/h (2 Bft)
05.03.2017 11:00 4,8 °C 4,8 °C 70 % 1006,3 hPa 0,0 mm 6,0 km/h (2 Bft) W-SW 252 ° 0 min 0,000 mm 0,9 UV-I 142 W/m² -0,2 °C 3,5 °C 11,3 km/h (2 Bft)
05.03.2017 11:01 4,8 °C 4,8 °C 70 % 1006,2 hPa 0,0 mm 5,2 km/h (1 Bft) W-SW 256 ° 0 min 0,076 mm 0,9 UV-I 142 W/m² -0,2 °C 3,8 °C 8,0 km/h (2 Bft)
05.03.2017 11:02 4,8 °C 4,8 °C 71 % 1006,3 hPa 0,0 mm 4,6 km/h (1 Bft) W-SW 242 ° 0 min 0,000 mm 0,8 UV-I 134 W/m² -0,0 °C 4,0 °C 6,4 km/h (2 Bft)
05.03.2017 11:03 4,9 °C 4,9 °C 72 % 1006,2 hPa 0,0 mm 5,4 km/h (1 Bft) W 259 ° 0 min 0,000 mm 0,8 UV-I 127 W/m² 0,3 °C 3,8 °C 6,4 km/h (2 Bft)
05.03.2017 11:04 4,9 °C 4,9 °C 71 % 1006,3 hPa 0,0 mm 6,3 km/h (2 Bft) W-NW 282 ° 0 min 0,000 mm 0,7 UV-I 123 W/m² 0,1 °C 3,5 °C 9,7 km/h (2 Bft)
05.03.2017 11:05 4,9 °C 4,9 °C 70 % 1006,3 hPa 0,0 mm 11,5 km/h (2 Bft) W-NW 286 ° 0 min 0,000 mm 0,8 UV-I 123 W/m² -0,1 °C 2,2 °C 14,5 km/h (3 Bft)
05.03.2017 11:06 4,9 °C 4,9 °C 69 % 1006,2 hPa 0,0 mm 6,4 km/h (2 Bft) W-NW 288 ° 0 min 0,000 mm 0,8 UV-I 139 W/m² -0,3 °C 3,5 °C 9,7 km/h (2 Bft)
05.03.2017 11:07 4,9 °C 4,9 °C 70 % 1006,3 hPa 0,0 mm 6,0 km/h (2 Bft) W-SW 244 ° 0 min 0,000 mm 1,0 UV-I 151 W/m² -0,1 °C 3,6 °C 9,7 km/h (2 Bft)
05.03.2017 11:08 4,9 °C 4,9 °C 71 % 1006,3 hPa 0,0 mm 7,6 km/h (2 Bft) W 276 ° 0 min 0,000 mm 1,1 UV-I 162 W/m² 0,1 °C 3,1 °C 11,3 km/h (2 Bft)
05.03.2017 11:09 4,9 °C 4,9 °C 69 % 1006,2 hPa 0,0 mm 8,5 km/h (2 Bft) S-SW 205 ° 0 min 0,000 mm 1,2 UV-I 171 W/m² -0,3 °C 2,9 °C 12,9 km/h (3 Bft)
05.03.2017 11:10 4,9 °C 4,9 °C 69 % 1006,3 hPa 0,0 mm 5,7 km/h (1 Bft) W-NW 303 ° 0 min 0,000 mm 1,2 UV-I 171 W/m² -0,3 °C 3,7 °C 11,3 km/h (2 Bft)
05.03.2017 11:11 4,9 °C 4,9 °C 69 % 1006,3 hPa 0,0 mm 9,9 km/h (2 Bft) W-SW 249 ° 0 min 0,000 mm 1,2 UV-I 165 W/m² -0,3 °C 2,6 °C 16,1 km/h (3 Bft)
05.03.2017 11:12 4,9 °C 4,9 °C 70 % 1006,3 hPa 0,0 mm 6,0 km/h (2 Bft) W-SW 251 ° 0 min 0,000 mm 1,2 UV-I 149 W/m² -0,1 °C 3,6 °C 11,3 km/h (2 Bft)
05.03.2017 11:13 4,9 °C 4,9 °C 68 % 1006,3 hPa 0,0 mm 7,8 km/h (2 Bft) W-SW 250 ° 0 min 0,000 mm 1,1 UV-I 144 W/m² -0,5 °C 3,1 °C 12,9 km/h (3 Bft)
05.03.2017 11:14 4,9 °C 4,9 °C 70 % 1006,3 hPa 0,0 mm 15,6 km/h (3 Bft) SW 217 ° 0 min 0,000 mm 1,1 UV-I 139 W/m² -0,1 °C 1,5 °C 20,9 km/h (4 Bft)
05.03.2017 11:15 4,9 °C 4,9 °C 69 % 1006,3 hPa 0,0 mm 10,3 km/h (2 Bft) W-SW 250 ° 0 min 0,000 mm 1,1 UV-I 139 W/m² -0,3 °C 2,5 °C 12,9 km/h (3 Bft)
05.03.2017 11:16 4,9 °C 4,9 °C 68 % 1006,3 hPa 0,0 mm 10,8 km/h (2 Bft) W 277 ° 0 min 0,000 mm 1,1 UV-I 144 W/m² -0,5 °C 2,4 °C 14,5 km/h (3 Bft)
05.03.2017 11:17 4,9 °C 4,9 °C 69 % 1006,3 hPa 0,0 mm 6,7 km/h (2 Bft) W 260 ° 0 min 0,000 mm 1,2 UV-I 153 W/m² -0,3 °C 3,4 °C 14,5 km/h (3 Bft)
05.03.2017 11:18 4,8 °C 4,9 °C 69 % 1006,2 hPa 0,0 mm 5,9 km/h (2 Bft) W-NW 286 ° 0 min 0,000 mm 1,3 UV-I 165 W/m² -0,4 °C 3,5 °C 11,3 km/h (2 Bft)
05.03.2017 11:19 4,9 °C 4,9 °C 70 % 1006,2 hPa 0,0 mm 5,6 km/h (1 Bft) W 281 ° 0 min 0,000 mm 1,3 UV-I 171 W/m² -0,1 °C 3,7 °C 9,7 km/h (2 Bft)
05.03.2017 11:20 4,9 °C 4,9 °C 70 % 1006,2 hPa 0,0 mm 5,4 km/h (1 Bft) W-SW 252 ° 0 min 0,000 mm 1,3 UV-I 174 W/m² -0,1 °C 3,8 °C 8,0 km/h (2 Bft)
05.03.2017 11:21 4,9 °C 4,9 °C 69 % 1006,3 hPa 0,0 mm 15,2 km/h (3 Bft) W 259 ° 0 min 0,000 mm 1,3 UV-I 174 W/m² -0,3 °C 1,6 °C 22,5 km/h (4 Bft)
05.03.2017 11:22 4,9 °C 4,9 °C 70 % 1006,2 hPa 0,0 mm 10,3 km/h (2 Bft) W-NW 286 ° 0 min 0,000 mm 1,2 UV-I 174 W/m² -0,1 °C 2,5 °C 14,5 km/h (3 Bft)
05.03.2017 11:23 5,0 °C 5,0 °C 70 % 1006,2 hPa 0,0 mm 8,9 km/h (2 Bft) W 264 ° 0 min 0,000 mm 1,2 UV-I 174 W/m² -0,0 °C 2,9 °C 12,9 km/h (3 Bft)
05.03.2017 11:24 5,0 °C 5,0 °C 70 % 1006,2 hPa 0,0 mm 12,1 km/h (2 Bft) W-SW 240 ° 0 min 0,000 mm 1,2 UV-I 172 W/m² -0,0 °C 2,2 °C 19,3 km/h (3 Bft)
05.03.2017 11:25 4,9 °C 5,0 °C 70 % 1006,2 hPa 0,0 mm 11,1 km/h (2 Bft) W 277 ° 0 min 0,000 mm 1,1 UV-I 169 W/m² -0,1 °C 2,3 °C 16,1 km/h (3 Bft)
05.03.2017 11:26 5,0 °C 5,0 °C 71 % 1006,1 hPa 0,0 mm 12,9 km/h (3 Bft) W-SW 248 ° 0 min 0,000 mm 1,1 UV-I 165 W/m² 0,2 °C 2,1 °C 17,7 km/h (3 Bft)
05.03.2017 11:27 4,9 °C 5,0 °C 69 % 1006,1 hPa 0,0 mm 11,7 km/h (2 Bft) W-NW 282 ° 0 min 0,000 mm 1,1 UV-I 167 W/m² -0,3 °C 2,2 °C 19,3 km/h (3 Bft)
05.03.2017 11:28 4,9 °C 4,9 °C 69 % 1006,0 hPa 0,0 mm 11,1 km/h (2 Bft) W-SW 258 ° 0 min 0,000 mm 1,2 UV-I 172 W/m² -0,3 °C 2,3 °C 14,5 km/h (3 Bft)
05.03.2017 11:29 4,9 °C 4,9 °C 69 % 1006,0 hPa 0,0 mm 8,9 km/h (2 Bft) S-SW 198 ° 0 min 0,000 mm 1,2 UV-I 178 W/m² -0,3 °C 2,8 °C 12,9 km/h (3 Bft)
05.03.2017 11:30 4,9 °C 4,9 °C 68 % 1005,9 hPa 0,0 mm 11,7 km/h (2 Bft) W 267 ° 0 min 0,000 mm 1,3 UV-I 190 W/m² -0,5 °C 2,2 °C 16,1 km/h (3 Bft)
05.03.2017 11:31 4,9 °C 4,9 °C 69 % 1005,9 hPa 0,0 mm 8,3 km/h (2 Bft) W 272 ° 0 min 0,000 mm 1,3 UV-I 193 W/m² -0,3 °C 2,9 °C 12,9 km/h (3 Bft)
05.03.2017 11:32 4,8 °C 4,9 °C 70 % 1005,9 hPa 0,0 mm 8,5 km/h (2 Bft) W 267 ° 0 min 0,000 mm 1,3 UV-I 197 W/m² -0,2 °C 2,8 °C 12,9 km/h (3 Bft)
05.03.2017 11:33 4,9 °C 4,9 °C 69 % 1005,9 hPa 0,0 mm 10,5 km/h (2 Bft) NW 305 ° 1 min 0,000 mm 1,4 UV-I 202 W/m² -0,3 °C 2,4 °C 16,1 km/h (3 Bft)
05.03.2017 11:34 4,8 °C 4,9 °C 69 % 1005,9 hPa 0,0 mm 9,2 km/h (2 Bft) W 262 ° 1 min 0,000 mm 1,4 UV-I 207 W/m² -0,4 °C 2,6 °C 16,1 km/h (3 Bft)
05.03.2017 11:35 4,9 °C 4,9 °C 68 % 1005,9 hPa 0,0 mm 5,6 km/h (1 Bft) W-NW 284 ° 1 min 0,000 mm 1,5 UV-I 216 W/m² -0,5 °C 3,7 °C 11,3 km/h (2 Bft)
05.03.2017 11:36 4,9 °C 4,9 °C 70 % 1005,9 hPa 0,0 mm 5,5 km/h (1 Bft) W-NW 300 ° 1 min 0,000 mm 1,5 UV-I 230 W/m² -0,1 °C 3,8 °C 11,3 km/h (2 Bft)
05.03.2017 11:37 4,9 °C 4,9 °C 71 % 1005,8 hPa 0,0 mm 9,1 km/h (2 Bft) W 274 ° 1 min 0,000 mm 1,6 UV-I 239 W/m² 0,1 °C 2,7 °C 16,1 km/h (3 Bft)
05.03.2017 11:38 5,1 °C 5,1 °C 72 % 1005,8 hPa 0,0 mm 10,9 km/h (2 Bft) W 273 ° 1 min 0,000 mm 1,7 UV-I 248 W/m² 0,5 °C 2,6 °C 16,1 km/h (3 Bft)
05.03.2017 11:39 5,1 °C 5,1 °C 70 % 1005,8 hPa 0,0 mm 8,8 km/h (2 Bft) W-SW 242 ° 1 min 0,000 mm 1,7 UV-I 250 W/m² 0,1 °C 3,1 °C 14,5 km/h (3 Bft)
05.03.2017 11:40 5,1 °C 5,1 °C 69 % 1005,8 hPa 0,0 mm 6,3 km/h (2 Bft) W 277 ° 1 min 0,000 mm 1,7 UV-I 250 W/m² -0,1 °C 3,7 °C 11,3 km/h (2 Bft)
05.03.2017 11:41 5,1 °C 5,1 °C 70 % 1005,7 hPa 0,0 mm 9,4 km/h (2 Bft) W-NW 296 ° 1 min 0,000 mm 1,7 UV-I 248 W/m² 0,1 °C 2,9 °C 16,1 km/h (3 Bft)
05.03.2017 11:42 5,1 °C 5,1 °C 70 % 1005,7 hPa 0,0 mm 10,7 km/h (2 Bft) W-SW 240 ° 1 min 0,000 mm 1,7 UV-I 250 W/m² 0,1 °C 2,6 °C 14,5 km/h (3 Bft)
05.03.2017 11:43 5,1 °C 5,1 °C 72 % 1005,8 hPa 0,0 mm 10,6 km/h (2 Bft) NW 315 ° 1 min 0,000 mm 1,8 UV-I 253 W/m² 0,5 °C 2,7 °C 16,1 km/h (3 Bft)
05.03.2017 11:44 5,1 °C 5,2 °C 70 % 1005,7 hPa 0,0 mm 10,4 km/h (2 Bft) N-NW 328 ° 1 min 0,000 mm 1,8 UV-I 258 W/m² 0,1 °C 2,7 °C 14,5 km/h (3 Bft)
05.03.2017 11:45 5,1 °C 5,1 °C 69 % 1005,7 hPa 0,0 mm 6,7 km/h (2 Bft) NW 315 ° 1 min 0,000 mm 1,8 UV-I 258 W/m² -0,1 °C 3,6 °C 12,9 km/h (3 Bft)
05.03.2017 11:46 5,1 °C 5,1 °C 71 % 1005,7 hPa 0,0 mm 6,8 km/h (2 Bft) W 267 ° 1 min 0,000 mm 1,8 UV-I 258 W/m² 0,3 °C 3,6 °C 9,7 km/h (2 Bft)
05.03.2017 11:47 5,1 °C 5,1 °C 70 % 1005,7 hPa 0,0 mm 10,1 km/h (2 Bft) W-NW 285 ° 1 min 0,000 mm 1,9 UV-I 255 W/m² 0,1 °C 2,8 °C 14,5 km/h (3 Bft)
05.03.2017 11:48 5,1 °C 5,1 °C 71 % 1005,7 hPa 0,0 mm 7,8 km/h (2 Bft) W-NW 284 ° 1 min 0,000 mm 1,9 UV-I 260 W/m² 0,3 °C 3,3 °C 14,5 km/h (3 Bft)
05.03.2017 11:49 5,1 °C 5,1 °C 69 % 1005,7 hPa 0,0 mm 9,3 km/h (2 Bft) W-NW 300 ° 1 min 0,000 mm 1,8 UV-I 246 W/m² -0,1 °C 2,9 °C 14,5 km/h (3 Bft)
05.03.2017 11:50 5,2 °C 5,2 °C 70 % 1005,7 hPa 0,0 mm 5,8 km/h (2 Bft) W 281 ° 1 min 0,000 mm 1,8 UV-I 244 W/m² 0,2 °C 4,0 °C 11,3 km/h (2 Bft)
05.03.2017 11:51 5,2 °C 5,2 °C 70 % 1005,6 hPa 0,0 mm 10,5 km/h (2 Bft) W-NW 298 ° 1 min 0,000 mm 1,8 UV-I 243 W/m² 0,2 °C 2,8 °C 14,5 km/h (3 Bft)
05.03.2017 11:52 5,2 °C 5,2 °C 68 % 1005,6 hPa 0,0 mm 8,3 km/h (2 Bft) W 265 ° 1 min 0,000 mm 1,8 UV-I 241 W/m² -0,2 °C 3,3 °C 11,3 km/h (2 Bft)
05.03.2017 11:53 5,2 °C 5,2 °C 68 % 1005,6 hPa 0,0 mm 9,1 km/h (2 Bft) NW 305 ° 1 min 0,000 mm 1,8 UV-I 243 W/m² -0,2 °C 3,1 °C 12,9 km/h (3 Bft)
05.03.2017 11:54 5,2 °C 5,2 °C 68 % 1005,6 hPa 0,0 mm 5,6 km/h (1 Bft) W 269 ° 1 min 0,000 mm 1,9 UV-I 253 W/m² -0,2 °C 4,1 °C 12,9 km/h (3 Bft)
05.03.2017 11:55 5,2 °C 5,2 °C 71 % 1005,7 hPa 0,0 mm 5,4 km/h (1 Bft) W-NW 294 ° 1 min 0,000 mm 1,9 UV-I 269 W/m² 0,4 °C 4,2 °C 11,3 km/h (2 Bft)
05.03.2017 11:56 5,2 °C 5,2 °C 69 % 1005,6 hPa 0,0 mm 3,4 km/h (1 Bft) SW 233 ° 1 min 0,000 mm 2,0 UV-I 278 W/m² -0,0 °C 5,2 °C 6,4 km/h (2 Bft)
05.03.2017 11:57 5,2 °C 5,2 °C 68 % 1005,6 hPa 0,0 mm 6,1 km/h (2 Bft) W 278 ° 1 min 0,000 mm 2,1 UV-I 295 W/m² -0,2 °C 3,9 °C 9,7 km/h (2 Bft)
05.03.2017 11:58 5,2 °C 5,2 °C 69 % 1005,6 hPa 0,0 mm 8,4 km/h (2 Bft) SW 236 ° 1 min 0,000 mm 2,2 UV-I 295 W/m² -0,0 °C 3,3 °C 11,3 km/h (2 Bft)
05.03.2017 11:59 5,2 °C 5,2 °C 68 % 1005,6 hPa 0,0 mm 8,3 km/h (2 Bft) W-NW 286 ° 1 min 0,000 mm 2,1 UV-I 294 W/m² -0,2 °C 3,3 °C 11,3 km/h (2 Bft)
05.03.2017 12:00 5,2 °C 5,2 °C 70 % 1005,6 hPa 0,0 mm 6,8 km/h (2 Bft) W-NW 300 ° 1 min 0,000 mm 2,2 UV-I 302 W/m² 0,2 °C 3,7 °C 11,3 km/h (2 Bft)
05.03.2017 12:01 5,3 °C 5,3 °C 68 % 1005,5 hPa 0,0 mm 7,4 km/h (2 Bft) W 275 ° 1 min 0,102 mm 2,1 UV-I 285 W/m² -0,1 °C 3,6 °C 11,3 km/h (2 Bft)
05.03.2017 12:02 5,4 °C 5,4 °C 69 % 1005,5 hPa 0,0 mm 7,3 km/h (2 Bft) W-NW 290 ° 1 min 0,000 mm 2,1 UV-I 281 W/m² 0,2 °C 3,8 °C 11,3 km/h (2 Bft)
05.03.2017 12:03 5,3 °C 5,4 °C 69 % 1005,5 hPa 0,0 mm 6,6 km/h (2 Bft) W-NW 287 ° 1 min 0,000 mm 2,1 UV-I 292 W/m² 0,1 °C 3,9 °C 9,7 km/h (2 Bft)
05.03.2017 12:04 5,3 °C 5,4 °C 67 % 1005,5 hPa 0,0 mm 6,4 km/h (2 Bft) W 277 ° 1 min 0,000 mm 2,2 UV-I 362 W/m² -0,3 °C 3,9 °C 9,7 km/h (2 Bft)
05.03.2017 12:05 5,4 °C 5,4 °C 70 % 1005,5 hPa 0,0 mm 7,4 km/h (2 Bft) W-SW 243 ° 1 min 0,000 mm 2,3 UV-I 411 W/m² 0,4 °C 3,8 °C 11,3 km/h (2 Bft)
05.03.2017 12:06 5,4 °C 5,4 °C 69 % 1005,5 hPa 0,0 mm 3,8 km/h (1 Bft) S-SW 202 ° 1 min 0,000 mm 2,2 UV-I 334 W/m² 0,2 °C 5,4 °C 6,4 km/h (2 Bft)
05.03.2017 12:07 5,4 °C 5,4 °C 66 % 1005,4 hPa 0,0 mm 5,1 km/h (1 Bft) W 279 ° 1 min 0,000 mm 2,3 UV-I 341 W/m² -0,4 °C 4,5 °C 6,4 km/h (2 Bft)
05.03.2017 12:08 5,5 °C 5,5 °C 68 % 1005,5 hPa 0,0 mm 3,6 km/h (1 Bft) W-SW 253 ° 1 min 0,000 mm 2,5 UV-I 341 W/m² 0,1 °C 5,5 °C 6,4 km/h (2 Bft)
05.03.2017 12:09 5,6 °C 5,6 °C 67 % 1005,4 hPa 0,0 mm 1,1 km/h (1 Bft) W-SW 253 ° 1 min 0,000 mm 2,3 UV-I 339 W/m² -0,0 °C 5,6 °C 3,2 km/h (1 Bft)
05.03.2017 12:10 5,6 °C 5,6 °C 68 % 1005,4 hPa 0,0 mm 2,4 km/h (1 Bft) W 271 ° 1 min 0,000 mm 2,6 UV-I 432 W/m² 0,2 °C 5,6 °C 6,4 km/h (2 Bft)
05.03.2017 12:11 5,5 °C 5,6 °C 68 % 1005,5 hPa 0,0 mm 7,8 km/h (2 Bft) W 263 ° 1 min 0,000 mm 2,4 UV-I 353 W/m² 0,1 °C 3,8 °C 12,9 km/h (3 Bft)
05.03.2017 12:12 5,5 °C 5,5 °C 67 % 1005,4 hPa 0,0 mm 6,0 km/h (2 Bft) W-SW 247 ° 1 min 0,000 mm 3,0 UV-I 561 W/m² -0,1 °C 4,3 °C 11,3 km/h (2 Bft)
05.03.2017 12:13 5,5 °C 5,5 °C 67 % 1005,5 hPa 0,0 mm 3,4 km/h (1 Bft) W 270 ° 1 min 0,000 mm 3,5 UV-I 561 W/m² -0,1 °C 5,5 °C 4,8 km/h (1 Bft)
05.03.2017 12:14 5,6 °C 5,6 °C 67 % 1005,4 hPa 0,0 mm 0,2 km/h (0 Bft) W 270 ° 1 min 0,000 mm 3,2 UV-I 561 W/m² -0,0 °C 5,6 °C 1,6 km/h (1 Bft)
05.03.2017 12:15 5,7 °C 5,7 °C 70 % 1005,4 hPa 0,0 mm 0,5 km/h (0 Bft) W 270 ° 1 min 0,000 mm 2,5 UV-I 561 W/m² 0,7 °C 5,7 °C 3,2 km/h (1 Bft)
05.03.2017 12:16 5,7 °C 5,7 °C 68 % 1005,4 hPa 0,0 mm 4,4 km/h (1 Bft) W 275 ° 1 min 0,000 mm 2,9 UV-I 496 W/m² 0,3 °C 5,7 °C 9,7 km/h (2 Bft)
05.03.2017 12:17 5,8 °C 5,8 °C 68 % 1005,4 hPa 0,0 mm 6,7 km/h (2 Bft) SW 231 ° 1 min 0,000 mm 2,8 UV-I 466 W/m² 0,4 °C 4,4 °C 9,7 km/h (2 Bft)
05.03.2017 12:18 5,9 °C 5,9 °C 65 % 1005,4 hPa 0,0 mm 3,2 km/h (1 Bft) S-SW 207 ° 1 min 0,000 mm 2,6 UV-I 466 W/m² -0,2 °C 5,9 °C 6,4 km/h (2 Bft)
05.03.2017 12:19 5,8 °C 5,9 °C 64 % 1005,4 hPa 0,0 mm 6,3 km/h (2 Bft) S-SW 202 ° 1 min 0,000 mm 2,4 UV-I 466 W/m² -0,5 °C 4,5 °C 9,7 km/h (2 Bft)
05.03.2017 12:20 5,8 °C 5,8 °C 67 % 1005,3 hPa 0,0 mm 3,0 km/h (1 Bft) SO 146 ° 1 min 0,000 mm 2,2 UV-I 274 W/m² 0,2 °C 5,8 °C 4,8 km/h (1 Bft)
05.03.2017 12:21 5,8 °C 5,8 °C 68 % 1005,3 hPa 0,0 mm 2,2 km/h (1 Bft) S-SO 147 ° 1 min 0,000 mm 2,1 UV-I 251 W/m² 0,4 °C 5,8 °C 4,8 km/h (1 Bft)
05.03.2017 12:22 5,8 °C 5,8 °C 66 % 1005,2 hPa 0,0 mm 0,4 km/h (0 Bft) S-SO 147 ° 1 min 0,000 mm 2,0 UV-I 246 W/m² -0,0 °C 5,8 °C 1,6 km/h (1 Bft)
05.03.2017 12:23 5,7 °C 5,8 °C 68 % 1005,3 hPa 0,0 mm 0,2 km/h (0 Bft) S-SO 147 ° 1 min 0,000 mm 2,1 UV-I 264 W/m² 0,3 °C 5,7 °C 1,6 km/h (1 Bft)
05.03.2017 12:24 5,8 °C 5,8 °C 67 % 1005,2 hPa 0,0 mm 2,7 km/h (1 Bft) O 84 ° 1 min 0,000 mm 2,0 UV-I 257 W/m² 0,2 °C 5,8 °C 4,8 km/h (1 Bft)
05.03.2017 12:25 5,8 °C 5,8 °C 69 % 1005,2 hPa 0,0 mm 4,6 km/h (1 Bft) O 84 ° 1 min 0,000 mm 2,0 UV-I 260 W/m² 0,6 °C 5,1 °C 6,4 km/h (2 Bft)
05.03.2017 12:26 5,7 °C 5,8 °C 65 % 1005,2 hPa 0,0 mm 3,5 km/h (1 Bft) O 84 ° 1 min 0,000 mm 2,1 UV-I 260 W/m² -0,4 °C 5,7 °C 4,8 km/h (1 Bft)
05.03.2017 12:27 5,7 °C 5,8 °C 67 % 1005,2 hPa 0,0 mm 1,7 km/h (1 Bft) O 84 ° 1 min 0,000 mm 2,2 UV-I 260 W/m² 0,1 °C 5,7 °C 3,2 km/h (1 Bft)
05.03.2017 12:28 5,8 °C 5,8 °C 66 % 1005,1 hPa 0,0 mm 3,9 km/h (1 Bft) N-NO 31 ° 1 min 0,000 mm 2,1 UV-I 308 W/m² -0,0 °C 5,8 °C 6,4 km/h (2 Bft)
05.03.2017 12:29 5,8 °C 5,8 °C 67 % 1005,1 hPa 0,0 mm 4,5 km/h (1 Bft) N-NO 31 ° 1 min 0,000 mm 2,1 UV-I 290 W/m² 0,2 °C 5,8 °C 4,8 km/h (1 Bft)
05.03.2017 12:30 5,8 °C 5,8 °C 66 % 1005,1 hPa 0,0 mm 5,0 km/h (1 Bft) O-NO 76 ° 1 min 0,000 mm 2,4 UV-I 290 W/m² -0,0 °C 5,0 °C 6,4 km/h (2 Bft)
05.03.2017 12:31 5,8 °C 5,9 °C 67 % 1005,1 hPa 0,0 mm 4,4 km/h (1 Bft) O-NO 76 ° 1 min 0,000 mm 2,6 UV-I 480 W/m² 0,2 °C 5,8 °C 6,4 km/h (2 Bft)
05.03.2017 12:32 5,7 °C 5,8 °C 66 % 1005,0 hPa 0,0 mm 2,7 km/h (1 Bft) O-NO 76 ° 1 min 0,000 mm 3,0 UV-I 480 W/m² -0,1 °C 5,7 °C 4,8 km/h (1 Bft)
05.03.2017 12:33 5,7 °C 5,8 °C 66 % 1005,0 hPa 0,0 mm 4,3 km/h (1 Bft) O-NO 76 ° 1 min 0,000 mm 3,1 UV-I 480 W/m² -0,1 °C 5,7 °C 4,8 km/h (1 Bft)
05.03.2017 12:34 5,7 °C 5,7 °C 65 % 1004,9 hPa 0,0 mm 5,4 km/h (1 Bft) O-NO 71 ° 1 min 0,000 mm 2,4 UV-I 420 W/m² -0,4 °C 4,7 °C 6,4 km/h (2 Bft)
05.03.2017 12:35 5,7 °C 5,7 °C 67 % 1004,9 hPa 0,0 mm 6,1 km/h (2 Bft) O-SO 107 ° 1 min 0,000 mm 2,2 UV-I 348 W/m² 0,1 °C 4,5 °C 9,7 km/h (2 Bft)
05.03.2017 12:36 5,7 °C 5,7 °C 66 % 1004,9 hPa 0,0 mm 5,2 km/h (1 Bft) SO 129 ° 1 min 0,000 mm 2,3 UV-I 346 W/m² -0,1 °C 4,8 °C 6,4 km/h (2 Bft)
05.03.2017 12:37 5,6 °C 5,7 °C 66 % 1004,9 hPa 0,0 mm 4,0 km/h (1 Bft) N-NO 22 ° 1 min 0,000 mm 2,8 UV-I 346 W/m² -0,2 °C 5,6 °C 6,4 km/h (2 Bft)
05.03.2017 12:38 5,6 °C 5,6 °C 66 % 1004,8 hPa 0,0 mm 3,8 km/h (1 Bft) N-NO 18 ° 1 min 0,000 mm 3,0 UV-I 346 W/m² -0,2 °C 5,6 °C 6,4 km/h (2 Bft)
05.03.2017 12:39 5,8 °C 5,8 °C 68 % 1004,8 hPa 0,0 mm 6,8 km/h (2 Bft) N 360 ° 1 min 0,000 mm 3,5 UV-I 346 W/m² 0,4 °C 4,4 °C 11,3 km/h (2 Bft)
05.03.2017 12:40 6,0 °C 6,0 °C 66 % 1004,8 hPa 0,0 mm 5,2 km/h (1 Bft) N 350 ° 1 min 0,000 mm 3,6 UV-I 861 W/m² 0,1 °C 5,1 °C 8,0 km/h (2 Bft)
05.03.2017 12:41 6,2 °C 6,2 °C 67 % 1004,8 hPa 0,0 mm 4,0 km/h (1 Bft) N 350 ° 1 min 0,000 mm 1,9 UV-I 861 W/m² 0,5 °C 6,2 °C 4,8 km/h (1 Bft)
05.03.2017 12:42 6,3 °C 6,3 °C 66 % 1004,7 hPa 0,0 mm 5,0 km/h (1 Bft) N 5 ° 1 min 0,000 mm 1,9 UV-I 861 W/m² 0,4 °C 5,6 °C 6,4 km/h (2 Bft)
05.03.2017 12:43 6,3 °C 6,4 °C 64 % 1004,7 hPa 0,0 mm 8,3 km/h (2 Bft) NO 38 ° 1 min 0,000 mm 1,8 UV-I 271 W/m² 0,0 °C 4,6 °C 11,3 km/h (2 Bft)
05.03.2017 12:44 6,3 °C 6,3 °C 65 % 1004,7 hPa 0,0 mm 8,4 km/h (2 Bft) N-NO 32 ° 1 min 0,000 mm 1,7 UV-I 257 W/m² 0,2 °C 4,6 °C 9,7 km/h (2 Bft)
05.03.2017 12:45 6,2 °C 6,3 °C 65 % 1004,6 hPa 0,0 mm 6,3 km/h (2 Bft) N 351 ° 1 min 0,000 mm 1,7 UV-I 239 W/m² 0,1 °C 5,0 °C 11,3 km/h (2 Bft)
05.03.2017 12:46 6,1 °C 6,2 °C 65 % 1004,7 hPa 0,0 mm 3,7 km/h (1 Bft) N 360 ° 1 min 0,000 mm 1,7 UV-I 283 W/m² 0,0 °C 6,1 °C 4,8 km/h (1 Bft)
05.03.2017 12:47 6,1 °C 6,1 °C 65 % 1004,7 hPa 0,0 mm 4,7 km/h (1 Bft) N 360 ° 1 min 0,000 mm 2,6 UV-I 283 W/m² 0,0 °C 5,4 °C 6,4 km/h (2 Bft)
05.03.2017 12:48 6,2 °C 6,2 °C 66 % 1004,6 hPa 0,0 mm 4,5 km/h (1 Bft) O-SO 104 ° 1 min 0,000 mm 1,7 UV-I 283 W/m² 0,3 °C 6,2 °C 6,4 km/h (2 Bft)
05.03.2017 12:49 6,1 °C 6,2 °C 64 % 1004,6 hPa 0,0 mm 5,4 km/h (1 Bft) O-NO 64 ° 1 min 0,000 mm 1,6 UV-I 246 W/m² -0,2 °C 5,2 °C 11,3 km/h (2 Bft)
05.03.2017 12:50 6,1 °C 6,1 °C 65 % 1004,5 hPa 0,0 mm 7,0 km/h (2 Bft) O-SO 121 ° 1 min 0,000 mm 1,7 UV-I 272 W/m² 0,0 °C 4,7 °C 9,7 km/h (2 Bft)
05.03.2017 12:51 6,0 °C 6,1 °C 63 % 1004,5 hPa 0,0 mm 6,5 km/h (2 Bft) O-SO 113 ° 1 min 0,000 mm 2,1 UV-I 352 W/m² -0,5 °C 4,7 °C 9,7 km/h (2 Bft)
05.03.2017 12:52 5,9 °C 6,0 °C 63 % 1004,5 hPa 0,0 mm 2,7 km/h (1 Bft) O-SO 113 ° 1 min 0,000 mm 3,3 UV-I 352 W/m² -0,6 °C 5,9 °C 6,4 km/h (2 Bft)
05.03.2017 12:53 5,9 °C 5,9 °C 64 % 1004,4 hPa 0,0 mm 2,6 km/h (1 Bft) NO 44 ° 1 min 0,000 mm 3,3 UV-I 840 W/m² -0,4 °C 5,9 °C 4,8 km/h (1 Bft)
05.03.2017 12:54 6,1 °C 6,1 °C 65 % 1004,4 hPa 0,0 mm 5,6 km/h (1 Bft) NO 39 ° 1 min 0,000 mm 3,0 UV-I 744 W/m² 0,0 °C 5,1 °C 8,0 km/h (2 Bft)
05.03.2017 12:55 6,1 °C 6,2 °C 64 % 1004,4 hPa 0,0 mm 4,2 km/h (1 Bft) NO 40 ° 1 min 0,000 mm 2,9 UV-I 652 W/m² -0,2 °C 6,1 °C 6,4 km/h (2 Bft)
05.03.2017 12:56 6,2 °C 6,2 °C 64 % 1004,3 hPa 0,0 mm 2,5 km/h (1 Bft) NO 40 ° 1 min 0,000 mm 3,3 UV-I 652 W/m² -0,1 °C 6,2 °C 4,8 km/h (1 Bft)
05.03.2017 12:57 6,2 °C 6,2 °C 64 % 1004,3 hPa 0,0 mm 2,5 km/h (1 Bft) NO 40 ° 1 min 0,000 mm 3,3 UV-I 652 W/m² -0,1 °C 6,2 °C 4,8 km/h (1 Bft)
05.03.2017 12:58 6,2 °C 6,2 °C 62 % 1004,3 hPa 0,0 mm 3,2 km/h (1 Bft) O 81 ° 1 min 0,000 mm 2,6 UV-I 397 W/m² -0,5 °C 6,2 °C 6,4 km/h (2 Bft)
05.03.2017 12:59 6,2 °C 6,2 °C 65 % 1004,4 hPa 0,0 mm 2,6 km/h (1 Bft) O 81 ° 1 min 0,000 mm 2,2 UV-I 359 W/m² 0,1 °C 6,2 °C 4,8 km/h (1 Bft)
05.03.2017 13:00 6,2 °C 6,2 °C 64 % 1004,4 hPa 0,0 mm 5,0 km/h (1 Bft) N-NO 26 ° 1 min 0,000 mm 2,1 UV-I 332 W/m² -0,1 °C 5,4 °C 8,0 km/h (2 Bft)
05.03.2017 13:01 6,2 °C 6,2 °C 65 % 1004,4 hPa 0,0 mm 6,0 km/h (2 Bft) O-NO 61 ° 1 min 0,203 mm 2,0 UV-I 366 W/m² 0,1 °C 5,1 °C 8,0 km/h (2 Bft)
05.03.2017 13:02 6,1 °C 6,2 °C 65 % 1004,4 hPa 0,0 mm 6,8 km/h (2 Bft) O-NO 78 ° 1 min 0,000 mm 2,4 UV-I 332 W/m² 0,0 °C 4,7 °C 11,3 km/h (2 Bft)
05.03.2017 13:03 6,2 °C 6,2 °C 66 % 1004,2 hPa 0,0 mm 6,3 km/h (2 Bft) NO 47 ° 1 min 0,000 mm 2,2 UV-I 311 W/m² 0,3 °C 5,0 °C 8,0 km/h (2 Bft)
05.03.2017 13:04 6,2 °C 6,2 °C 65 % 1004,3 hPa 0,0 mm 6,4 km/h (2 Bft) O-NO 69 ° 1 min 0,000 mm 3,6 UV-I 311 W/m² 0,1 °C 5,0 °C 8,0 km/h (2 Bft)
05.03.2017 13:05 6,2 °C 6,2 °C 66 % 1004,2 hPa 0,0 mm 4,6 km/h (1 Bft) O-NO 58 ° 1 min 0,000 mm 3,6 UV-I 831 W/m² 0,3 °C 5,6 °C 6,4 km/h (2 Bft)
05.03.2017 13:06 6,3 °C 6,3 °C 66 % 1004,2 hPa 0,0 mm 2,0 km/h (1 Bft) O-NO 58 ° 1 min 0,000 mm 3,6 UV-I 830 W/m² 0,4 °C 6,3 °C 4,8 km/h (1 Bft)
05.03.2017 13:07 6,6 °C 6,6 °C 67 % 1004,2 hPa 0,0 mm 5,2 km/h (1 Bft) O-NO 57 ° 1 min 0,000 mm 3,6 UV-I 816 W/m² 0,9 °C 5,8 °C 8,0 km/h (2 Bft)
05.03.2017 13:08 6,7 °C 6,7 °C 63 % 1004,1 hPa 0,0 mm 4,4 km/h (1 Bft) N 360 ° 1 min 0,000 mm 2,2 UV-I 816 W/m² 0,2 °C 6,7 °C 6,4 km/h (2 Bft)
05.03.2017 13:09 6,7 °C 6,7 °C 66 % 1004,1 hPa 0,0 mm 5,6 km/h (1 Bft) N 360 ° 1 min 0,000 mm 3,1 UV-I 510 W/m² 0,8 °C 5,8 °C 6,4 km/h (2 Bft)
05.03.2017 13:10 6,8 °C 6,8 °C 64 % 1004,1 hPa 0,0 mm 6,1 km/h (2 Bft) NO 53 ° 0 min 0,000 mm 1,8 UV-I 199 W/m² 0,5 °C 5,8 °C 9,7 km/h (2 Bft)
05.03.2017 13:11 6,7 °C 6,8 °C 64 % 1004,1 hPa 0,0 mm 5,3 km/h (1 Bft) N 9 ° 0 min 0,000 mm 1,7 UV-I 149 W/m² 0,4 °C 5,9 °C 9,7 km/h (2 Bft)
05.03.2017 13:12 6,6 °C 6,7 °C 64 % 1004,0 hPa 0,0 mm 5,0 km/h (1 Bft) O-NO 57 ° 0 min 0,000 mm 1,6 UV-I 137 W/m² 0,3 °C 5,9 °C 8,0 km/h (2 Bft)
05.03.2017 13:13 6,6 °C 6,6 °C 64 % 1004,0 hPa 0,0 mm 4,4 km/h (1 Bft) O-NO 65 ° 0 min 0,000 mm 1,6 UV-I 137 W/m² 0,3 °C 6,6 °C 8,0 km/h (2 Bft)
05.03.2017 13:14 6,4 °C 6,6 °C 64 % 1004,0 hPa 0,0 mm 6,3 km/h (2 Bft) NO 55 ° 0 min 0,000 mm 1,7 UV-I 158 W/m² 0,1 °C 5,2 °C 9,7 km/h (2 Bft)
05.03.2017 13:15 6,4 °C 6,4 °C 64 % 1004,0 hPa 0,0 mm 6,4 km/h (2 Bft) O 82 ° 1 min 0,000 mm 2,2 UV-I 229 W/m² 0,1 °C 5,2 °C 8,0 km/h (2 Bft)
05.03.2017 13:16 6,3 °C 6,4 °C 64 % 1004,0 hPa 0,0 mm 3,0 km/h (1 Bft) O-NO 74 ° 0 min 0,000 mm 1,7 UV-I 183 W/m² 0,0 °C 6,3 °C 4,8 km/h (1 Bft)
05.03.2017 13:17 6,2 °C 6,3 °C 64 % 1004,1 hPa 0,0 mm 6,1 km/h (2 Bft) NO 47 ° 0 min 0,000 mm 1,7 UV-I 160 W/m² -0,1 °C 5,1 °C 9,7 km/h (2 Bft)
05.03.2017 13:18 6,2 °C 6,3 °C 65 % 1004,1 hPa 0,0 mm 5,2 km/h (1 Bft) O-NO 69 ° 0 min 0,000 mm 1,6 UV-I 156 W/m² 0,1 °C 5,4 °C 8,0 km/h (2 Bft)
05.03.2017 13:19 6,2 °C 6,3 °C 64 % 1004,1 hPa 0,0 mm 5,2 km/h (1 Bft) O-NO 74 ° 0 min 0,000 mm 1,6 UV-I 153 W/m² -0,1 °C 5,4 °C 6,4 km/h (2 Bft)
05.03.2017 13:20 6,2 °C 6,2 °C 65 % 1004,1 hPa 0,0 mm 5,4 km/h (1 Bft) NO 51 ° 0 min 0,000 mm 1,6 UV-I 172 W/m² 0,1 °C 5,3 °C 8,0 km/h (2 Bft)
05.03.2017 13:21 6,1 °C 6,2 °C 64 % 1004,1 hPa 0,0 mm 4,5 km/h (1 Bft) NO 48 ° 0 min 0,000 mm 2,5 UV-I 172 W/m² -0,2 °C 6,1 °C 9,7 km/h (2 Bft)
05.03.2017 13:22 6,2 °C 6,2 °C 66 % 1004,1 hPa 0,0 mm 10,9 km/h (2 Bft) O-NO 60 ° 1 min 0,000 mm 3,3 UV-I 733 W/m² 0,3 °C 3,9 °C 16,1 km/h (3 Bft)
05.03.2017 13:23 6,3 °C 6,3 °C 65 % 1004,0 hPa 0,0 mm 8,9 km/h (2 Bft) O-NO 65 ° 1 min 0,000 mm 3,3 UV-I 717 W/m² 0,2 °C 4,4 °C 12,9 km/h (3 Bft)
05.03.2017 13:24 6,3 °C 6,3 °C 65 % 1004,0 hPa 0,0 mm 7,7 km/h (2 Bft) O-NO 78 ° 1 min 0,000 mm 3,3 UV-I 717 W/m² 0,2 °C 4,7 °C 11,3 km/h (2 Bft)
05.03.2017 13:25 6,4 °C 6,4 °C 65 % 1004,0 hPa 0,0 mm 6,2 km/h (2 Bft) NO 51 ° 1 min 0,000 mm 3,3 UV-I 717 W/m² 0,3 °C 5,3 °C 9,7 km/h (2 Bft)
05.03.2017 13:26 6,6 °C 6,6 °C 64 % 1004,0 hPa 0,0 mm 3,8 km/h (1 Bft) NO 46 ° 1 min 0,000 mm 3,3 UV-I 717 W/m² 0,3 °C 6,6 °C 6,4 km/h (2 Bft)
05.03.2017 13:27 6,6 °C 6,6 °C 62 % 1004,0 hPa 0,0 mm 3,4 km/h (1 Bft) O 83 ° 1 min 0,000 mm 3,2 UV-I 712 W/m² -0,1 °C 6,6 °C 6,4 km/h (2 Bft)
05.03.2017 13:28 6,6 °C 6,6 °C 62 % 1004,0 hPa 0,0 mm 5,0 km/h (1 Bft) NO 49 ° 1 min 0,000 mm 2,4 UV-I 712 W/m² -0,1 °C 5,9 °C 6,4 km/h (2 Bft)
05.03.2017 13:29 6,7 °C 6,7 °C 62 % 1003,9 hPa 0,0 mm 6,3 km/h (2 Bft) O-NO 68 ° 1 min 0,000 mm 3,0 UV-I 712 W/m² -0,1 °C 5,6 °C 8,0 km/h (2 Bft)
05.03.2017 13:30 6,5 °C 6,7 °C 60 % 1003,9 hPa 0,0 mm 5,3 km/h (1 Bft) O-NO 78 ° 1 min 0,000 mm 1,7 UV-I 712 W/m² -0,7 °C 5,7 °C 6,4 km/h (2 Bft)
05.03.2017 13:31 6,5 °C 6,5 °C 61 % 1003,9 hPa 0,0 mm 3,8 km/h (1 Bft) O-SO 109 ° 1 min 0,000 mm 1,6 UV-I 712 W/m² -0,5 °C 6,5 °C 4,8 km/h (1 Bft)
05.03.2017 13:32 6,4 °C 6,5 °C 60 % 1003,8 hPa 0,0 mm 3,7 km/h (1 Bft) O 80 ° 0 min 0,000 mm 1,5 UV-I 79 W/m² -0,8 °C 6,4 °C 6,4 km/h (2 Bft)
05.03.2017 13:33 6,4 °C 6,4 °C 58 % 1003,9 hPa 0,0 mm 0,4 km/h (0 Bft) O 80 ° 0 min 0,000 mm 1,5 UV-I 102 W/m² -1,2 °C 6,4 °C 1,6 km/h (1 Bft)
05.03.2017 13:34 6,3 °C 6,4 °C 59 % 1003,8 hPa 0,0 mm 0,9 km/h (0 Bft) O 80 ° 0 min 0,000 mm 1,5 UV-I 114 W/m² -1,1 °C 6,3 °C 1,6 km/h (1 Bft)
05.03.2017 13:35 6,3 °C 6,3 °C 59 % 1003,8 hPa 0,0 mm 0,9 km/h (0 Bft) O 80 ° 0 min 0,000 mm 1,6 UV-I 127 W/m² -1,1 °C 6,3 °C 1,6 km/h (1 Bft)
05.03.2017 13:36 6,3 °C 6,3 °C 60 % 1003,8 hPa 0,0 mm 3,3 km/h (1 Bft) SO 126 ° 0 min 0,000 mm 1,6 UV-I 134 W/m² -0,9 °C 6,3 °C 9,7 km/h (2 Bft)
05.03.2017 13:37 6,3 °C 6,3 °C 60 % 1003,8 hPa 0,0 mm 1,8 km/h (1 Bft) SO 126 ° 0 min 0,000 mm 1,5 UV-I 116 W/m² -0,9 °C 6,3 °C 3,2 km/h (1 Bft)
05.03.2017 13:38 6,2 °C 6,3 °C 62 % 1003,7 hPa 0,0 mm 1,5 km/h (1 Bft) SO 126 ° 0 min 0,000 mm 1,5 UV-I 118 W/m² -0,5 °C 6,2 °C 3,2 km/h (1 Bft)
05.03.2017 13:39 6,2 °C 6,2 °C 62 % 1003,7 hPa 0,0 mm 4,4 km/h (1 Bft) NO 39 ° 0 min 0,000 mm 1,5 UV-I 135 W/m² -0,5 °C 6,2 °C 6,4 km/h (2 Bft)
05.03.2017 13:40 6,3 °C 6,3 °C 63 % 1003,7 hPa 0,0 mm 3,6 km/h (1 Bft) N-NO 24 ° 0 min 0,000 mm 1,6 UV-I 144 W/m² -0,2 °C 6,3 °C 4,8 km/h (1 Bft)
05.03.2017 13:41 6,3 °C 6,3 °C 62 % 1003,7 hPa 0,0 mm 3,8 km/h (1 Bft) N-NO 19 ° 0 min 0,000 mm 1,6 UV-I 155 W/m² -0,4 °C 6,3 °C 4,8 km/h (1 Bft)
05.03.2017 13:42 6,4 °C 6,4 °C 61 % 1003,7 hPa 0,0 mm 4,3 km/h (1 Bft) N-NW 348 ° 0 min 0,000 mm 1,7 UV-I 178 W/m² -0,6 °C 6,4 °C 4,8 km/h (1 Bft)
05.03.2017 13:43 6,4 °C 6,4 °C 62 % 1003,6 hPa 0,0 mm 4,5 km/h (1 Bft) N 355 ° 1 min 0,000 mm 1,9 UV-I 225 W/m² -0,3 °C 6,4 °C 6,4 km/h (2 Bft)
05.03.2017 13:44 6,5 °C 6,5 °C 60 % 1003,6 hPa 0,0 mm 6,1 km/h (2 Bft) N-NW 340 ° 1 min 0,000 mm 1,8 UV-I 221 W/m² -0,7 °C 5,4 °C 6,4 km/h (2 Bft)
05.03.2017 13:45 6,6 °C 6,6 °C 60 % 1003,6 hPa 0,0 mm 5,3 km/h (1 Bft) N 5 ° 1 min 0,000 mm 2,0 UV-I 216 W/m² -0,6 °C 5,8 °C 8,0 km/h (2 Bft)
05.03.2017 13:46 6,6 °C 6,6 °C 61 % 1003,6 hPa 0,0 mm 4,8 km/h (1 Bft) O 89 ° 0 min 0,000 mm 1,7 UV-I 158 W/m² -0,4 °C 6,0 °C 11,3 km/h (2 Bft)
05.03.2017 13:47 6,6 °C 6,6 °C 60 % 1003,6 hPa 0,0 mm 5,9 km/h (2 Bft) O 81 ° 0 min 0,000 mm 1,5 UV-I 107 W/m² -0,6 °C 5,6 °C 8,0 km/h (2 Bft)
05.03.2017 13:48 6,4 °C 6,6 °C 60 % 1003,6 hPa 0,0 mm 1,8 km/h (1 Bft) O 81 ° 0 min 0,000 mm 1,7 UV-I 116 W/m² -0,8 °C 6,4 °C 3,2 km/h (1 Bft)
05.03.2017 13:49 6,3 °C 6,4 °C 59 % 1003,6 hPa 0,0 mm 0,0 km/h (0 Bft) O 81 ° 0 min 0,000 mm 1,8 UV-I 179 W/m² -1,1 °C 6,3 °C 0,0 km/h (0 Bft)
05.03.2017 13:50 6,3 °C 6,3 °C 59 % 1003,6 hPa 0,0 mm 3,2 km/h (1 Bft) O 82 ° 1 min 0,000 mm 1,9 UV-I 227 W/m² -1,1 °C 6,3 °C 6,4 km/h (2 Bft)
05.03.2017 13:51 6,3 °C 6,3 °C 59 % 1003,6 hPa 0,0 mm 4,2 km/h (1 Bft) O 99 ° 1 min 0,000 mm 1,7 UV-I 246 W/m² -1,1 °C 6,3 °C 4,8 km/h (1 Bft)
05.03.2017 13:52 6,2 °C 6,3 °C 60 % 1003,5 hPa 0,0 mm 3,6 km/h (1 Bft) O-SO 107 ° 1 min 0,000 mm 1,5 UV-I 246 W/m² -1,0 °C 6,2 °C 4,8 km/h (1 Bft)
05.03.2017 13:53 6,2 °C 6,3 °C 60 % 1003,5 hPa 0,0 mm 1,8 km/h (1 Bft) O-SO 107 ° 0 min 0,000 mm 1,5 UV-I 100 W/m² -1,0 °C 6,2 °C 3,2 km/h (1 Bft)
05.03.2017 13:54 6,2 °C 6,2 °C 60 % 1003,5 hPa 0,0 mm 1,4 km/h (1 Bft) O-SO 107 ° 0 min 0,000 mm 1,5 UV-I 111 W/m² -1,0 °C 6,2 °C 3,2 km/h (1 Bft)
05.03.2017 13:55 6,2 °C 6,3 °C 60 % 1003,5 hPa 0,0 mm 1,5 km/h (1 Bft) O-SO 107 ° 0 min 0,000 mm 1,5 UV-I 125 W/m² -1,0 °C 6,2 °C 3,2 km/h (1 Bft)
05.03.2017 13:56 6,3 °C 6,3 °C 60 % 1003,4 hPa 0,0 mm 0,3 km/h (0 Bft) O-SO 107 ° 0 min 0,000 mm 2,1 UV-I 125 W/m² -0,9 °C 6,3 °C 1,6 km/h (1 Bft)
05.03.2017 13:57 6,4 °C 6,4 °C 63 % 1003,5 hPa 0,0 mm 2,2 km/h (1 Bft) O-SO 107 ° 1 min 0,000 mm 2,9 UV-I 668 W/m² -0,1 °C 6,4 °C 3,2 km/h (1 Bft)
05.03.2017 13:58 6,7 °C 6,7 °C 63 % 1003,4 hPa 0,0 mm 3,2 km/h (1 Bft) O-SO 107 ° 1 min 0,000 mm 2,9 UV-I 633 W/m² 0,2 °C 6,7 °C 4,8 km/h (1 Bft)
05.03.2017 13:59 6,8 °C 6,8 °C 60 % 1003,4 hPa 0,0 mm 2,3 km/h (1 Bft) O-SO 107 ° 1 min 0,000 mm 2,9 UV-I 598 W/m² -0,4 °C 6,8 °C 4,8 km/h (1 Bft)
05.03.2017 14:00 6,9 °C 6,9 °C 59 % 1003,3 hPa 0,0 mm 2,3 km/h (1 Bft) O-NO 74 ° 1 min 0,000 mm 2,6 UV-I 592 W/m² -0,5 °C 6,9 °C 4,8 km/h (1 Bft)
05.03.2017 14:01 7,0 °C 7,0 °C 59 % 1003,2 hPa 0,0 mm 4,4 km/h (1 Bft) O-NO 77 ° 1 min 0,153 mm 2,8 UV-I 585 W/m² -0,5 °C 7,0 °C 6,4 km/h (2 Bft)
05.03.2017 14:02 7,0 °C 7,0 °C 59 % 1003,2 hPa 0,0 mm 5,5 km/h (1 Bft) O 85 ° 1 min 0,000 mm 2,8 UV-I 589 W/m² -0,5 °C 6,2 °C 8,0 km/h (2 Bft)
05.03.2017 14:03 7,1 °C 7,1 °C 60 % 1003,2 hPa 0,0 mm 4,0 km/h (1 Bft) O-NO 71 ° 1 min 0,000 mm 2,8 UV-I 575 W/m² -0,1 °C 7,1 °C 9,7 km/h (2 Bft)
05.03.2017 14:04 7,1 °C 7,1 °C 59 % 1003,2 hPa 0,0 mm 9,5 km/h (2 Bft) O 96 ° 1 min 0,000 mm 2,8 UV-I 568 W/m² -0,4 °C 5,3 °C 16,1 km/h (3 Bft)
05.03.2017 14:05 7,2 °C 7,2 °C 60 % 1003,2 hPa 0,0 mm 4,9 km/h (1 Bft) O-NO 65 ° 1 min 0,000 mm 2,8 UV-I 568 W/m² -0,0 °C 6,6 °C 9,7 km/h (2 Bft)
05.03.2017 14:06 7,3 °C 7,3 °C 60 % 1003,1 hPa 0,0 mm 5,3 km/h (1 Bft) O 92 ° 1 min 0,000 mm 2,8 UV-I 573 W/m² 0,1 °C 6,6 °C 16,1 km/h (3 Bft)
05.03.2017 14:07 7,4 °C 7,4 °C 60 % 1003,1 hPa 0,0 mm 4,6 km/h (1 Bft) SO 128 ° 1 min 0,000 mm 2,8 UV-I 568 W/m² 0,2 °C 7,0 °C 11,3 km/h (2 Bft)
05.03.2017 14:08 7,4 °C 7,4 °C 61 % 1003,1 hPa 0,0 mm 4,5 km/h (1 Bft) O 98 ° 1 min 0,000 mm 2,8 UV-I 566 W/m² 0,4 °C 7,4 °C 8,0 km/h (2 Bft)
05.03.2017 14:09 7,5 °C 7,5 °C 61 % 1003,1 hPa 0,0 mm 4,6 km/h (1 Bft) NO 51 ° 1 min 0,000 mm 2,8 UV-I 566 W/m² 0,5 °C 7,1 °C 6,4 km/h (2 Bft)
05.03.2017 14:10 7,6 °C 7,6 °C 63 % 1003,1 hPa 0,0 mm 3,6 km/h (1 Bft) O 88 ° 1 min 0,000 mm 2,8 UV-I 568 W/m² 1,0 °C 7,6 °C 6,4 km/h (2 Bft)
05.03.2017 14:11 7,5 °C 7,6 °C 60 % 1003,1 hPa 0,0 mm 6,8 km/h (2 Bft) O 89 ° 1 min 0,000 mm 2,7 UV-I 566 W/m² 0,2 °C 6,4 °C 11,3 km/h (2 Bft)
05.03.2017 14:12 7,4 °C 7,5 °C 61 % 1003,0 hPa 0,0 mm 7,4 km/h (2 Bft) NO 51 ° 1 min 0,000 mm 2,7 UV-I 563 W/m² 0,4 °C 6,1 °C 12,9 km/h (3 Bft)
05.03.2017 14:13 7,4 °C 7,4 °C 61 % 1003,0 hPa 0,0 mm 14,3 km/h (3 Bft) O 80 ° 1 min 0,000 mm 2,7 UV-I 557 W/m² 0,4 °C 4,8 °C 19,3 km/h (3 Bft)
05.03.2017 14:14 7,4 °C 7,5 °C 61 % 1003,0 hPa 0,0 mm 9,4 km/h (2 Bft) O 92 ° 1 min 0,000 mm 2,7 UV-I 548 W/m² 0,4 °C 5,6 °C 12,9 km/h (3 Bft)
05.03.2017 14:15 7,3 °C 7,4 °C 60 % 1003,0 hPa 0,0 mm 8,6 km/h (2 Bft) N-NO 32 ° 1 min 0,000 mm 2,6 UV-I 543 W/m² 0,1 °C 5,7 °C 12,9 km/h (3 Bft)
05.03.2017 14:16 7,3 °C 7,3 °C 60 % 1003,0 hPa 0,0 mm 6,6 km/h (2 Bft) O-NO 63 ° 1 min 0,000 mm 2,6 UV-I 541 W/m² 0,1 °C 6,2 °C 11,3 km/h (2 Bft)
05.03.2017 14:17 7,3 °C 7,3 °C 61 % 1003,0 hPa 0,0 mm 8,3 km/h (2 Bft) O-NO 62 ° 1 min 0,000 mm 2,6 UV-I 538 W/m² 0,3 °C 5,8 °C 11,3 km/h (2 Bft)
05.03.2017 14:18 7,3 °C 7,3 °C 61 % 1002,9 hPa 0,0 mm 9,9 km/h (2 Bft) O-NO 70 ° 1 min 0,000 mm 2,6 UV-I 534 W/m² 0,3 °C 5,4 °C 14,5 km/h (3 Bft)
05.03.2017 14:19 7,4 °C 7,4 °C 61 % 1002,9 hPa 0,0 mm 12,3 km/h (3 Bft) NO 53 ° 1 min 0,000 mm 2,6 UV-I 531 W/m² 0,4 °C 5,1 °C 16,1 km/h (3 Bft)
05.03.2017 14:20 7,4 °C 7,4 °C 61 % 1002,9 hPa 0,0 mm 11,7 km/h (2 Bft) O-NO 63 ° 1 min 0,000 mm 2,6 UV-I 527 W/m² 0,4 °C 5,2 °C 16,1 km/h (3 Bft)
05.03.2017 14:21 7,3 °C 7,4 °C 60 % 1002,9 hPa 0,0 mm 10,3 km/h (2 Bft) O-NO 69 ° 1 min 0,000 mm 2,6 UV-I 524 W/m² 0,1 °C 5,3 °C 16,1 km/h (3 Bft)
05.03.2017 14:22 7,4 °C 7,4 °C 61 % 1002,9 hPa 0,0 mm 11,6 km/h (2 Bft) O 99 ° 1 min 0,000 mm 2,5 UV-I 522 W/m² 0,4 °C 5,2 °C 16,1 km/h (3 Bft)
05.03.2017 14:23 7,5 °C 7,5 °C 61 % 1002,9 hPa 0,0 mm 7,3 km/h (2 Bft) O-NO 61 ° 1 min 0,000 mm 2,5 UV-I 520 W/m² 0,5 °C 6,2 °C 12,9 km/h (3 Bft)
05.03.2017 14:24 7,5 °C 7,6 °C 61 % 1002,8 hPa 0,0 mm 15,0 km/h (3 Bft) O-SO 107 ° 1 min 0,000 mm 2,5 UV-I 519 W/m² 0,5 °C 4,8 °C 20,9 km/h (4 Bft)
05.03.2017 14:25 7,4 °C 7,5 °C 60 % 1002,9 hPa 0,0 mm 11,7 km/h (2 Bft) O-SO 116 ° 1 min 0,000 mm 2,5 UV-I 513 W/m² 0,2 °C 5,2 °C 16,1 km/h (3 Bft)
05.03.2017 14:26 7,3 °C 7,4 °C 59 % 1002,9 hPa 0,0 mm 7,1 km/h (2 Bft) O-NO 71 ° 1 min 0,000 mm 2,5 UV-I 513 W/m² -0,2 °C 6,1 °C 12,9 km/h (3 Bft)
05.03.2017 14:27 7,3 °C 7,3 °C 60 % 1002,9 hPa 0,0 mm 5,8 km/h (2 Bft) O-SO 120 ° 1 min 0,000 mm 2,4 UV-I 512 W/m² 0,1 °C 6,4 °C 12,9 km/h (3 Bft)
05.03.2017 14:28 7,3 °C 7,3 °C 62 % 1002,8 hPa 0,0 mm 4,7 km/h (1 Bft) O-NO 78 ° 1 min 0,000 mm 2,4 UV-I 510 W/m² 0,5 °C 6,8 °C 8,0 km/h (2 Bft)
05.03.2017 14:29 7,4 °C 7,4 °C 62 % 1002,8 hPa 0,0 mm 6,3 km/h (2 Bft) O-NO 63 ° 1 min 0,000 mm 2,4 UV-I 508 W/m² 0,6 °C 6,4 °C 9,7 km/h (2 Bft)
05.03.2017 14:30 7,5 °C 7,5 °C 62 % 1002,7 hPa 0,0 mm 11,5 km/h (2 Bft) O 83 ° 1 min 0,000 mm 2,4 UV-I 506 W/m² 0,7 °C 5,4 °C 19,3 km/h (3 Bft)
05.03.2017 14:31 7,5 °C 7,6 °C 62 % 1002,7 hPa 0,0 mm 14,0 km/h (3 Bft) O-NO 61 ° 1 min 0,000 mm 2,3 UV-I 503 W/m² 0,7 °C 5,0 °C 20,9 km/h (4 Bft)
05.03.2017 14:32 7,6 °C 7,6 °C 64 % 1002,6 hPa 0,0 mm 7,9 km/h (2 Bft) O-NO 63 ° 1 min 0,000 mm 2,3 UV-I 501 W/m² 1,2 °C 6,2 °C 12,9 km/h (3 Bft)
05.03.2017 14:33 7,5 °C 7,6 °C 60 % 1002,6 hPa 0,0 mm 8,2 km/h (2 Bft) O-NO 61 ° 1 min 0,000 mm 2,2 UV-I 501 W/m² 0,2 °C 6,0 °C 16,1 km/h (3 Bft)
05.03.2017 14:34 7,4 °C 7,5 °C 60 % 1002,6 hPa 0,0 mm 5,7 km/h (1 Bft) NO 40 ° 1 min 0,000 mm 2,2 UV-I 499 W/m² 0,2 °C 6,6 °C 9,7 km/h (2 Bft)
05.03.2017 14:35 7,4 °C 7,4 °C 61 % 1002,6 hPa 0,0 mm 4,7 km/h (1 Bft) O-SO 107 ° 1 min 0,000 mm 2,1 UV-I 496 W/m² 0,4 °C 6,9 °C 11,3 km/h (2 Bft)
05.03.2017 14:36 7,4 °C 7,4 °C 61 % 1002,6 hPa 0,0 mm 3,0 km/h (1 Bft) O-NO 65 ° 1 min 0,000 mm 2,1 UV-I 496 W/m² 0,4 °C 7,4 °C 6,4 km/h (2 Bft)
05.03.2017 14:37 7,4 °C 7,4 °C 61 % 1002,6 hPa 0,0 mm 5,8 km/h (2 Bft) O-NO 72 ° 1 min 0,000 mm 2,1 UV-I 490 W/m² 0,4 °C 6,5 °C 9,7 km/h (2 Bft)
05.03.2017 14:38 7,4 °C 7,4 °C 62 % 1002,7 hPa 0,0 mm 10,1 km/h (2 Bft) SO 143 ° 1 min 0,000 mm 2,0 UV-I 489 W/m² 0,6 °C 5,5 °C 14,5 km/h (3 Bft)
05.03.2017 14:39 7,4 °C 7,4 °C 62 % 1002,6 hPa 0,0 mm 7,2 km/h (2 Bft) O-NO 71 ° 1 min 0,000 mm 2,0 UV-I 489 W/m² 0,6 °C 6,1 °C 12,9 km/h (3 Bft)
05.03.2017 14:40 7,3 °C 7,4 °C 62 % 1002,5 hPa 0,0 mm 10,1 km/h (2 Bft) O-NO 69 ° 1 min 0,000 mm 2,0 UV-I 487 W/m² 0,5 °C 5,4 °C 16,1 km/h (3 Bft)
05.03.2017 14:41 7,3 °C 7,3 °C 61 % 1002,5 hPa 0,0 mm 13,5 km/h (3 Bft) N-NO 33 ° 1 min 0,000 mm 2,0 UV-I 483 W/m² 0,3 °C 4,8 °C 20,9 km/h (4 Bft)
05.03.2017 14:42 7,3 °C 7,3 °C 61 % 1002,5 hPa 0,0 mm 9,2 km/h (2 Bft) O 83 ° 1 min 0,000 mm 2,1 UV-I 483 W/m² 0,3 °C 5,6 °C 12,9 km/h (3 Bft)
05.03.2017 14:43 7,2 °C 7,3 °C 61 % 1002,5 hPa 0,0 mm 3,9 km/h (1 Bft) NO 35 ° 1 min 0,000 mm 2,1 UV-I 480 W/m² 0,2 °C 7,2 °C 6,4 km/h (2 Bft)
05.03.2017 14:44 7,2 °C 7,2 °C 61 % 1002,5 hPa 0,0 mm 10,1 km/h (2 Bft) O-NO 58 ° 1 min 0,000 mm 2,1 UV-I 478 W/m² 0,2 °C 5,3 °C 16,1 km/h (3 Bft)
05.03.2017 14:45 7,3 °C 7,3 °C 62 % 1002,5 hPa 0,0 mm 14,5 km/h (3 Bft) NO 52 ° 1 min 0,000 mm 2,0 UV-I 476 W/m² 0,5 °C 4,7 °C 20,9 km/h (4 Bft)
05.03.2017 14:46 7,3 °C 7,3 °C 64 % 1002,5 hPa 0,0 mm 8,5 km/h (2 Bft) O-NO 61 ° 1 min 0,000 mm 2,0 UV-I 473 W/m² 1,0 °C 5,7 °C 14,5 km/h (3 Bft)
05.03.2017 14:47 7,3 °C 7,3 °C 62 % 1002,5 hPa 0,0 mm 9,7 km/h (2 Bft) O 80 ° 1 min 0,000 mm 2,0 UV-I 471 W/m² 0,5 °C 5,5 °C 17,7 km/h (3 Bft)
05.03.2017 14:48 7,4 °C 7,4 °C 63 % 1002,5 hPa 0,0 mm 8,7 km/h (2 Bft) O-NO 67 ° 1 min 0,000 mm 1,9 UV-I 468 W/m² 0,8 °C 5,8 °C 14,5 km/h (3 Bft)
05.03.2017 14:49 7,4 °C 7,4 °C 63 % 1002,5 hPa 0,0 mm 7,9 km/h (2 Bft) O-NO 61 ° 1 min 0,000 mm 1,9 UV-I 464 W/m² 0,8 °C 6,0 °C 16,1 km/h (3 Bft)
05.03.2017 14:50 7,4 °C 7,4 °C 62 % 1002,5 hPa 0,0 mm 12,0 km/h (2 Bft) O-NO 61 ° 1 min 0,000 mm 1,9 UV-I 464 W/m² 0,6 °C 5,2 °C 16,1 km/h (3 Bft)
05.03.2017 14:51 7,3 °C 7,4 °C 61 % 1002,5 hPa 0,0 mm 8,1 km/h (2 Bft) O-NO 70 ° 1 min 0,000 mm 1,8 UV-I 462 W/m² 0,3 °C 5,8 °C 12,9 km/h (3 Bft)
05.03.2017 14:52 7,3 °C 7,3 °C 62 % 1002,4 hPa 0,0 mm 12,3 km/h (3 Bft) O-NO 63 ° 1 min 0,000 mm 1,8 UV-I 461 W/m² 0,5 °C 5,0 °C 19,3 km/h (3 Bft)
05.03.2017 14:53 7,3 °C 7,3 °C 61 % 1002,4 hPa 0,0 mm 10,0 km/h (2 Bft) S-SO 157 ° 1 min 0,000 mm 1,8 UV-I 457 W/m² 0,3 °C 5,4 °C 16,1 km/h (3 Bft)
05.03.2017 14:54 7,3 °C 7,3 °C 63 % 1002,4 hPa 0,0 mm 7,5 km/h (2 Bft) O-NO 67 ° 1 min 0,000 mm 1,8 UV-I 457 W/m² 0,7 °C 6,0 °C 12,9 km/h (3 Bft)
05.03.2017 14:55 7,4 °C 7,4 °C 61 % 1002,4 hPa 0,0 mm 10,8 km/h (2 Bft) O-NO 64 ° 1 min 0,000 mm 1,8 UV-I 454 W/m² 0,4 °C 5,4 °C 14,5 km/h (3 Bft)
05.03.2017 14:56 7,5 °C 7,5 °C 61 % 1002,3 hPa 0,0 mm 13,3 km/h (3 Bft) NO 53 ° 1 min 0,000 mm 1,9 UV-I 450 W/m² 0,5 °C 5,1 °C 22,5 km/h (4 Bft)
05.03.2017 14:57 7,5 °C 7,6 °C 61 % 1002,4 hPa 0,0 mm 9,5 km/h (2 Bft) O-NO 59 ° 1 min 0,000 mm 1,9 UV-I 448 W/m² 0,5 °C 5,7 °C 19,3 km/h (3 Bft)
05.03.2017 14:58 7,4 °C 7,5 °C 61 % 1002,3 hPa 0,0 mm 11,9 km/h (2 Bft) NO 50 ° 1 min 0,000 mm 1,9 UV-I 448 W/m² 0,4 °C 5,2 °C 17,7 km/h (3 Bft)
05.03.2017 14:59 7,3 °C 7,4 °C 63 % 1002,2 hPa 0,0 mm 7,6 km/h (2 Bft) O-SO 109 ° 1 min 0,000 mm 1,9 UV-I 446 W/m² 0,7 °C 5,9 °C 14,5 km/h (3 Bft)
05.03.2017 15:00 7,4 °C 7,4 °C 61 % 1002,2 hPa 0,0 mm 4,5 km/h (1 Bft) O 94 ° 1 min 0,000 mm 1,9 UV-I 445 W/m² 0,4 °C 7,4 °C 9,7 km/h (2 Bft)
05.03.2017 15:01 7,4 °C 7,4 °C 63 % 1002,3 hPa 0,0 mm 7,0 km/h (2 Bft) O 82 ° 1 min 0,254 mm 1,9 UV-I 439 W/m² 0,8 °C 6,2 °C 12,9 km/h (3 Bft)
05.03.2017 15:02 7,4 °C 7,4 °C 61 % 1002,2 hPa 0,0 mm 9,2 km/h (2 Bft) S-SO 159 ° 1 min 0,000 mm 1,9 UV-I 439 W/m² 0,4 °C 5,7 °C 12,9 km/h (3 Bft)
05.03.2017 15:03 7,3 °C 7,4 °C 61 % 1002,2 hPa 0,0 mm 7,0 km/h (2 Bft) O-NO 71 ° 1 min 0,000 mm 1,9 UV-I 436 W/m² 0,3 °C 6,1 °C 12,9 km/h (3 Bft)
05.03.2017 15:04 7,3 °C 7,3 °C 61 % 1002,2 hPa 0,0 mm 9,4 km/h (2 Bft) O-NO 59 ° 1 min 0,000 mm 1,9 UV-I 434 W/m² 0,3 °C 5,5 °C 14,5 km/h (3 Bft)
05.03.2017 15:05 7,3 °C 7,3 °C 63 % 1002,2 hPa 0,0 mm 9,0 km/h (2 Bft) O-NO 74 ° 1 min 0,000 mm 1,9 UV-I 432 W/m² 0,7 °C 5,6 °C 14,5 km/h (3 Bft)
05.03.2017 15:06 7,3 °C 7,3 °C 61 % 1002,2 hPa 0,0 mm 8,5 km/h (2 Bft) O-SO 114 ° 1 min 0,000 mm 1,9 UV-I 429 W/m² 0,3 °C 5,7 °C 12,9 km/h (3 Bft)
05.03.2017 15:07 7,3 °C 7,3 °C 61 % 1002,1 hPa 0,0 mm 9,5 km/h (2 Bft) NO 53 ° 1 min 0,000 mm 1,9 UV-I 425 W/m² 0,3 °C 5,5 °C 19,3 km/h (3 Bft)
05.03.2017 15:08 7,3 °C 7,3 °C 61 % 1002,1 hPa 0,0 mm 9,7 km/h (2 Bft) O-NO 72 ° 1 min 0,000 mm 1,9 UV-I 424 W/m² 0,3 °C 5,5 °C 16,1 km/h (3 Bft)
05.03.2017 15:09 7,3 °C 7,3 °C 61 % 1002,1 hPa 0,0 mm 6,9 km/h (2 Bft) NO 55 ° 1 min 0,000 mm 1,9 UV-I 422 W/m² 0,3 °C 6,1 °C 11,3 km/h (2 Bft)
05.03.2017 15:10 7,3 °C 7,3 °C 61 % 1002,1 hPa 0,0 mm 12,0 km/h (2 Bft) O-SO 107 ° 1 min 0,000 mm 1,8 UV-I 420 W/m² 0,3 °C 5,0 °C 16,1 km/h (3 Bft)
05.03.2017 15:11 7,3 °C 7,4 °C 60 % 1002,2 hPa 0,0 mm 9,7 km/h (2 Bft) O-NO 69 ° 1 min 0,000 mm 1,8 UV-I 418 W/m² 0,1 °C 5,5 °C 16,1 km/h (3 Bft)
05.03.2017 15:12 7,3 °C 7,4 °C 59 % 1002,2 hPa 0,0 mm 14,4 km/h (3 Bft) O-NO 74 ° 1 min 0,000 mm 1,8 UV-I 415 W/m² -0,2 °C 4,7 °C 20,9 km/h (4 Bft)
05.03.2017 15:13 7,3 °C 7,3 °C 61 % 1002,2 hPa 0,0 mm 9,2 km/h (2 Bft) O-SO 111 ° 1 min 0,000 mm 1,7 UV-I 413 W/m² 0,3 °C 5,6 °C 12,9 km/h (3 Bft)
05.03.2017 15:14 7,3 °C 7,3 °C 61 % 1002,2 hPa 0,0 mm 8,3 km/h (2 Bft) O-NO 60 ° 1 min 0,000 mm 1,7 UV-I 411 W/m² 0,3 °C 5,8 °C 14,5 km/h (3 Bft)
05.03.2017 15:15 7,3 °C 7,3 °C 60 % 1002,2 hPa 0,0 mm 11,9 km/h (2 Bft) O-SO 106 ° 1 min 0,000 mm 1,7 UV-I 410 W/m² 0,1 °C 5,1 °C 16,1 km/h (3 Bft)
05.03.2017 15:16 7,3 °C 7,3 °C 60 % 1002,1 hPa 0,0 mm 7,7 km/h (2 Bft) O-SO 107 ° 1 min 0,000 mm 1,7 UV-I 408 W/m² 0,1 °C 5,9 °C 14,5 km/h (3 Bft)
05.03.2017 15:17 7,3 °C 7,3 °C 61 % 1002,2 hPa 0,0 mm 3,6 km/h (1 Bft) O-SO 105 ° 1 min 0,000 mm 1,7 UV-I 404 W/m² 0,3 °C 7,3 °C 11,3 km/h (2 Bft)
05.03.2017 15:18 7,4 °C 7,4 °C 61 % 1002,1 hPa 0,0 mm 5,7 km/h (1 Bft) O-NO 74 ° 1 min 0,000 mm 1,7 UV-I 401 W/m² 0,4 °C 6,6 °C 9,7 km/h (2 Bft)
05.03.2017 15:19 7,4 °C 7,4 °C 60 % 1002,1 hPa 0,0 mm 9,7 km/h (2 Bft) O 87 ° 1 min 0,000 mm 1,7 UV-I 397 W/m² 0,2 °C 5,6 °C 16,1 km/h (3 Bft)
05.03.2017 15:20 7,4 °C 7,5 °C 60 % 1002,1 hPa 0,0 mm 9,0 km/h (2 Bft) NO 37 ° 1 min 0,000 mm 1,7 UV-I 396 W/m² 0,2 °C 5,7 °C 14,5 km/h (3 Bft)
05.03.2017 15:21 7,4 °C 7,4 °C 60 % 1002,1 hPa 0,0 mm 7,4 km/h (2 Bft) O 96 ° 1 min 0,000 mm 1,7 UV-I 394 W/m² 0,2 °C 6,1 °C 14,5 km/h (3 Bft)
05.03.2017 15:22 7,4 °C 7,4 °C 63 % 1002,1 hPa 0,0 mm 5,5 km/h (1 Bft) NO 49 ° 1 min 0,000 mm 1,6 UV-I 392 W/m² 0,8 °C 6,6 °C 11,3 km/h (2 Bft)
05.03.2017 15:23 7,3 °C 7,4 °C 61 % 1002,1 hPa 0,0 mm 9,1 km/h (2 Bft) O-NO 76 ° 1 min 0,000 mm 1,6 UV-I 388 W/m² 0,3 °C 5,6 °C 16,1 km/h (3 Bft)
05.03.2017 15:24 7,4 °C 7,4 °C 61 % 1002,1 hPa 0,0 mm 8,2 km/h (2 Bft) O 82 ° 1 min 0,000 mm 1,6 UV-I 385 W/m² 0,4 °C 5,9 °C 11,3 km/h (2 Bft)
05.03.2017 15:25 7,4 °C 7,4 °C 60 % 1002,1 hPa 0,0 mm 7,8 km/h (2 Bft) O-NO 70 ° 1 min 0,000 mm 1,6 UV-I 383 W/m² 0,2 °C 6,0 °C 12,9 km/h (3 Bft)
05.03.2017 15:26 7,4 °C 7,4 °C 61 % 1002,1 hPa 0,0 mm 10,0 km/h (2 Bft) O 94 ° 1 min 0,000 mm 1,7 UV-I 381 W/m² 0,4 °C 5,5 °C 16,1 km/h (3 Bft)
05.03.2017 15:27 7,4 °C 7,4 °C 61 % 1002,1 hPa 0,0 mm 8,7 km/h (2 Bft) O-NO 78 ° 1 min 0,000 mm 1,7 UV-I 381 W/m² 0,4 °C 5,8 °C 11,3 km/h (2 Bft)
05.03.2017 15:28 7,4 °C 7,4 °C 60 % 1002,1 hPa 0,0 mm 8,7 km/h (2 Bft) O-NO 67 ° 1 min 0,000 mm 1,7 UV-I 378 W/m² 0,2 °C 5,8 °C 16,1 km/h (3 Bft)
05.03.2017 15:29 7,5 °C 7,5 °C 62 % 1002,1 hPa 0,0 mm 9,4 km/h (2 Bft) O-NO 61 ° 1 min 0,000 mm 1,7 UV-I 374 W/m² 0,7 °C 5,8 °C 14,5 km/h (3 Bft)
05.03.2017 15:30 7,5 °C 7,5 °C 60 % 1002,0 hPa 0,0 mm 9,6 km/h (2 Bft) NO 49 ° 1 min 0,000 mm 1,6 UV-I 371 W/m² 0,2 °C 5,7 °C 12,9 km/h (3 Bft)
05.03.2017 15:31 7,4 °C 7,5 °C 61 % 1002,1 hPa 0,0 mm 13,8 km/h (3 Bft) O-NO 71 ° 1 min 0,000 mm 1,6 UV-I 369 W/m² 0,4 °C 4,9 °C 17,7 km/h (3 Bft)
05.03.2017 15:32 7,4 °C 7,4 °C 60 % 1002,1 hPa 0,0 mm 9,3 km/h (2 Bft) O-NO 58 ° 1 min 0,000 mm 1,6 UV-I 366 W/m² 0,2 °C 5,7 °C 17,7 km/h (3 Bft)
05.03.2017 15:33 7,4 °C 7,4 °C 60 % 1002,1 hPa 0,0 mm 8,4 km/h (2 Bft) NO 55 ° 1 min 0,000 mm 1,6 UV-I 364 W/m² 0,2 °C 5,9 °C 14,5 km/h (3 Bft)
05.03.2017 15:34 7,3 °C 7,4 °C 61 % 1002,0 hPa 0,0 mm 11,8 km/h (2 Bft) O 100 ° 1 min 0,000 mm 1,6 UV-I 362 W/m² 0,3 °C 5,1 °C 17,7 km/h (3 Bft)
05.03.2017 15:35 7,3 °C 7,3 °C 60 % 1002,1 hPa 0,0 mm 8,7 km/h (2 Bft) O-NO 65 ° 1 min 0,000 mm 1,6 UV-I 360 W/m² 0,1 °C 5,7 °C 16,1 km/h (3 Bft)
05.03.2017 15:36 7,3 °C 7,3 °C 60 % 1002,0 hPa 0,0 mm 12,3 km/h (3 Bft) O-SO 106 ° 1 min 0,000 mm 1,5 UV-I 287 W/m² 0,1 °C 5,0 °C 17,7 km/h (3 Bft)
05.03.2017 15:37 7,2 °C 7,3 °C 59 % 1002,0 hPa 0,0 mm 8,8 km/h (2 Bft) SO 133 ° 1 min 0,000 mm 1,4 UV-I 288 W/m² -0,3 °C 5,5 °C 14,5 km/h (3 Bft)
05.03.2017 15:38 7,2 °C 7,2 °C 59 % 1002,0 hPa 0,0 mm 6,4 km/h (2 Bft) O-SO 103 ° 1 min 0,000 mm 1,4 UV-I 281 W/m² -0,3 °C 6,1 °C 12,9 km/h (3 Bft)
05.03.2017 15:39 7,2 °C 7,2 °C 59 % 1002,0 hPa 0,0 mm 9,7 km/h (2 Bft) NO 40 ° 1 min 0,000 mm 1,3 UV-I 251 W/m² -0,3 °C 5,3 °C 12,9 km/h (3 Bft)
05.03.2017 15:40 7,2 °C 7,2 °C 60 % 1002,0 hPa 0,0 mm 10,9 km/h (2 Bft) O-NO 61 ° 0 min 0,000 mm 1,2 UV-I 199 W/m² -0,0 °C 5,1 °C 14,5 km/h (3 Bft)
05.03.2017 15:41 7,2 °C 7,2 °C 60 % 1002,0 hPa 0,0 mm 8,7 km/h (2 Bft) O 84 ° 0 min 0,000 mm 1,1 UV-I 128 W/m² -0,0 °C 5,6 °C 14,5 km/h (3 Bft)
05.03.2017 15:42 7,2 °C 7,2 °C 60 % 1001,9 hPa 0,0 mm 9,0 km/h (2 Bft) O-NO 67 ° 0 min 0,000 mm 1,1 UV-I 139 W/m² -0,0 °C 5,5 °C 12,9 km/h (3 Bft)
05.03.2017 15:43 7,2 °C 7,2 °C 61 % 1001,9 hPa 0,0 mm 5,4 km/h (1 Bft) O 84 ° 0 min 0,000 mm 1,1 UV-I 134 W/m² 0,2 °C 6,4 °C 8,0 km/h (2 Bft)
05.03.2017 15:44 7,2 °C 7,3 °C 61 % 1001,9 hPa 0,0 mm 4,7 km/h (1 Bft) NO 55 ° 0 min 0,000 mm 1,1 UV-I 155 W/m² 0,2 °C 6,7 °C 8,0 km/h (2 Bft)
05.03.2017 15:45 7,3 °C 7,3 °C 61 % 1001,9 hPa 0,0 mm 7,0 km/h (2 Bft) O-NO 58 ° 0 min 0,000 mm 1,1 UV-I 155 W/m² 0,3 °C 6,1 °C 12,9 km/h (3 Bft)
05.03.2017 15:46 7,3 °C 7,3 °C 61 % 1001,9 hPa 0,0 mm 11,5 km/h (2 Bft) O-NO 61 ° 0 min 0,000 mm 1,0 UV-I 107 W/m² 0,3 °C 5,1 °C 16,1 km/h (3 Bft)
05.03.2017 15:47 7,3 °C 7,3 °C 61 % 1001,9 hPa 0,0 mm 7,0 km/h (2 Bft) O-NO 74 ° 0 min 0,000 mm 1,1 UV-I 127 W/m² 0,3 °C 6,1 °C 14,5 km/h (3 Bft)
05.03.2017 15:48 7,3 °C 7,3 °C 60 % 1001,9 hPa 0,0 mm 7,6 km/h (2 Bft) O-SO 105 ° 0 min 0,000 mm 1,1 UV-I 121 W/m² 0,1 °C 5,9 °C 12,9 km/h (3 Bft)
05.03.2017 15:49 7,3 °C 7,3 °C 61 % 1001,9 hPa 0,0 mm 7,2 km/h (2 Bft) NO 44 ° 0 min 0,000 mm 1,0 UV-I 104 W/m² 0,3 °C 6,0 °C 9,7 km/h (2 Bft)
05.03.2017 15:50 7,3 °C 7,3 °C 60 % 1001,9 hPa 0,0 mm 6,6 km/h (2 Bft) O-NO 75 ° 0 min 0,000 mm 1,1 UV-I 121 W/m² 0,1 °C 6,2 °C 12,9 km/h (3 Bft)
05.03.2017 15:51 7,3 °C 7,3 °C 59 % 1001,9 hPa 0,0 mm 5,0 km/h (1 Bft) O-SO 111 ° 0 min 0,000 mm 1,1 UV-I 135 W/m² -0,2 °C 6,7 °C 11,3 km/h (2 Bft)
05.03.2017 15:52 7,3 °C 7,3 °C 60 % 1001,9 hPa 0,0 mm 11,7 km/h (2 Bft) O-NO 57 ° 0 min 0,000 mm 1,0 UV-I 132 W/m² 0,1 °C 5,1 °C 17,7 km/h (3 Bft)
05.03.2017 15:53 7,2 °C 7,3 °C 60 % 1001,9 hPa 0,0 mm 5,5 km/h (1 Bft) O 92 ° 0 min 0,000 mm 0,0 UV-I 30 W/m² -0,0 °C 6,4 °C 6,4 km/h (2 Bft)
05.03.2017 15:54 7,2 °C 7,2 °C 59 % 1001,9 hPa 0,0 mm 3,3 km/h (1 Bft) O-NO 78 ° 0 min 0,000 mm 0,0 UV-I 30 W/m² -0,3 °C 7,2 °C 4,8 km/h (1 Bft)
05.03.2017 15:55 7,2 °C 7,2 °C 60 % 1001,9 hPa 0,0 mm 4,7 km/h (1 Bft) O-NO 67 ° 0 min 0,000 mm 0,0 UV-I 33 W/m² -0,0 °C 6,7 °C 9,7 km/h (2 Bft)
05.03.2017 15:56 7,1 °C 7,2 °C 60 % 1001,9 hPa 0,0 mm 6,4 km/h (2 Bft) NO 39 ° 0 min 0,000 mm 0,9 UV-I 60 W/m² -0,1 °C 6,0 °C 8,0 km/h (2 Bft)
05.03.2017 15:57 7,1 °C 7,1 °C 61 % 1001,9 hPa 0,0 mm 6,9 km/h (2 Bft) O 80 ° 0 min 0,000 mm 0,9 UV-I 77 W/m² 0,1 °C 5,9 °C 9,7 km/h (2 Bft)
05.03.2017 15:58 7,1 °C 7,1 °C 62 % 1001,9 hPa 0,0 mm 8,9 km/h (2 Bft) NO 42 ° 0 min 0,000 mm 0,9 UV-I 56 W/m² 0,3 °C 5,4 °C 14,5 km/h (3 Bft)
05.03.2017 15:59 7,0 °C 7,1 °C 64 % 1001,9 hPa 0,0 mm 5,7 km/h (1 Bft) O-NO 78 ° 0 min 0,000 mm 0,9 UV-I 97 W/m² 0,7 °C 6,1 °C 11,3 km/h (2 Bft)
05.03.2017 16:00 6,9 °C 7,0 °C 62 % 1001,9 hPa 0,0 mm 11,1 km/h (2 Bft) O-NO 77 ° 0 min 0,000 mm 0,9 UV-I 114 W/m² 0,1 °C 4,7 °C 14,5 km/h (3 Bft)
05.03.2017 16:01 6,9 °C 6,9 °C 62 % 1001,9 hPa 0,0 mm 10,8 km/h (2 Bft) O-NO 78 ° 0 min 0,152 mm 0,9 UV-I 88 W/m² 0,1 °C 4,8 °C 17,7 km/h (3 Bft)
05.03.2017 16:02 7,0 °C 7,0 °C 61 % 1001,9 hPa 0,0 mm 8,1 km/h (2 Bft) O 89 ° 0 min 0,000 mm 0,8 UV-I 58 W/m² 0,0 °C 5,5 °C 12,9 km/h (3 Bft)
05.03.2017 16:03 7,0 °C 7,0 °C 61 % 1001,9 hPa 0,0 mm 9,5 km/h (2 Bft) NO 53 ° 0 min 0,000 mm 0,8 UV-I 58 W/m² 0,0 °C 5,1 °C 12,9 km/h (3 Bft)
05.03.2017 16:04 7,0 °C 7,0 °C 62 % 1001,9 hPa 0,0 mm 6,9 km/h (2 Bft) O 84 ° 0 min 0,000 mm 0,0 UV-I 54 W/m² 0,2 °C 5,8 °C 12,9 km/h (3 Bft)
05.03.2017 16:05 7,1 °C 7,1 °C 61 % 1001,9 hPa 0,0 mm 6,6 km/h (2 Bft) O 79 ° 0 min 0,000 mm 0,0 UV-I 30 W/m² 0,1 °C 6,0 °C 8,0 km/h (2 Bft)
05.03.2017 16:06 7,1 °C 7,1 °C 63 % 1001,9 hPa 0,0 mm 6,6 km/h (2 Bft) O 84 ° 0 min 0,000 mm 0,0 UV-I 32 W/m² 0,5 °C 6,0 °C 11,3 km/h (2 Bft)
05.03.2017 16:07 6,9 °C 7,1 °C 62 % 1001,9 hPa 0,0 mm 5,1 km/h (1 Bft) O-NO 64 ° 0 min 0,000 mm 0,0 UV-I 30 W/m² 0,1 °C 6,2 °C 8,0 km/h (2 Bft)
05.03.2017 16:08 6,9 °C 6,9 °C 62 % 1001,9 hPa 0,0 mm 3,8 km/h (1 Bft) O-NO 61 ° 0 min 0,000 mm 0,0 UV-I 28 W/m² 0,1 °C 6,9 °C 6,4 km/h (2 Bft)
05.03.2017 16:09 6,8 °C 6,9 °C 62 % 1001,9 hPa 0,0 mm 4,3 km/h (1 Bft) O-NO 65 ° 0 min 0,000 mm 0,0 UV-I 32 W/m² 0,0 °C 6,8 °C 8,0 km/h (2 Bft)
05.03.2017 16:10 6,8 °C 6,8 °C 64 % 1001,9 hPa 0,0 mm 6,3 km/h (2 Bft) O-NO 63 ° 0 min 0,000 mm 0,0 UV-I 33 W/m² 0,5 °C 5,7 °C 8,0 km/h (2 Bft)
05.03.2017 16:11 6,7 °C 6,8 °C 64 % 1001,9 hPa 0,0 mm 3,4 km/h (1 Bft) O-NO 73 ° 0 min 0,000 mm 0,0 UV-I 37 W/m² 0,4 °C 6,7 °C 9,7 km/h (2 Bft)
05.03.2017 16:12 6,7 °C 6,7 °C 63 % 1001,9 hPa 0,0 mm 5,3 km/h (1 Bft) NO 53 ° 0 min 0,000 mm 0,0 UV-I 40 W/m² 0,2 °C 5,9 °C 8,0 km/h (2 Bft)
05.03.2017 16:13 6,7 °C 6,7 °C 63 % 1001,9 hPa 0,0 mm 2,7 km/h (1 Bft) O-NO 62 ° 0 min 0,000 mm 0,0 UV-I 44 W/m² 0,2 °C 6,7 °C 4,8 km/h (1 Bft)
05.03.2017 16:14 6,8 °C 6,8 °C 62 % 1001,9 hPa 0,0 mm 8,2 km/h (2 Bft) NO 52 ° 0 min 0,000 mm 0,0 UV-I 49 W/m² 0,0 °C 5,2 °C 11,3 km/h (2 Bft)
05.03.2017 16:15 6,8 °C 6,8 °C 62 % 1001,8 hPa 0,0 mm 7,6 km/h (2 Bft) O-NO 67 ° 0 min 0,000 mm 0,0 UV-I 56 W/m² 0,0 °C 5,3 °C 12,9 km/h (3 Bft)
05.03.2017 16:16 6,9 °C 6,9 °C 62 % 1001,8 hPa 0,0 mm 7,7 km/h (2 Bft) O-NO 65 ° 0 min 0,000 mm 0,7 UV-I 67 W/m² 0,1 °C 5,4 °C 12,9 km/h (3 Bft)
05.03.2017 16:17 6,8 °C 6,9 °C 63 % 1001,8 hPa 0,0 mm 8,9 km/h (2 Bft) NO 51 ° 0 min 0,000 mm 0,7 UV-I 86 W/m² 0,3 °C 5,0 °C 12,9 km/h (3 Bft)
05.03.2017 16:18 6,8 °C 6,8 °C 62 % 1001,8 hPa 0,0 mm 6,8 km/h (2 Bft) O 79 ° 0 min 0,000 mm 0,7 UV-I 93 W/m² 0,0 °C 5,6 °C 11,3 km/h (2 Bft)
05.03.2017 16:19 6,7 °C 6,8 °C 64 % 1001,9 hPa 0,0 mm 7,4 km/h (2 Bft) O-NO 75 ° 0 min 0,000 mm 0,7 UV-I 95 W/m² 0,4 °C 5,3 °C 11,3 km/h (2 Bft)
05.03.2017 16:20 6,7 °C 6,8 °C 65 % 1001,9 hPa 0,0 mm 7,3 km/h (2 Bft) O-NO 78 ° 0 min 0,000 mm 0,7 UV-I 88 W/m² 0,6 °C 5,3 °C 9,7 km/h (2 Bft)
05.03.2017 16:21 6,7 °C 6,7 °C 63 % 1001,9 hPa 0,0 mm 7,4 km/h (2 Bft) O-NO 67 ° 0 min 0,000 mm 0,7 UV-I 74 W/m² 0,2 °C 5,3 °C 8,0 km/h (2 Bft)
05.03.2017 16:22 6,7 °C 6,7 °C 63 % 1001,9 hPa 0,0 mm 6,7 km/h (2 Bft) O-NO 69 ° 0 min 0,000 mm 0,6 UV-I 67 W/m² 0,2 °C 5,5 °C 12,9 km/h (3 Bft)
05.03.2017 16:23 6,7 °C 6,7 °C 63 % 1001,9 hPa 0,0 mm 4,8 km/h (1 Bft) O 93 ° 0 min 0,000 mm 0,6 UV-I 67 W/m² 0,2 °C 6,1 °C 9,7 km/h (2 Bft)
05.03.2017 16:24 6,7 °C 6,7 °C 62 % 1001,9 hPa 0,0 mm 6,0 km/h (2 Bft) O-NO 64 ° 0 min 0,000 mm 0,6 UV-I 70 W/m² -0,1 °C 5,7 °C 8,0 km/h (2 Bft)
05.03.2017 16:25 6,7 °C 6,7 °C 63 % 1001,9 hPa 0,0 mm 6,0 km/h (2 Bft) O 84 ° 0 min 0,000 mm 0,6 UV-I 74 W/m² 0,2 °C 5,7 °C 11,3 km/h (2 Bft)
05.03.2017 16:26 6,7 °C 6,7 °C 63 % 1001,9 hPa 0,0 mm 8,4 km/h (2 Bft) NO 55 ° 0 min 0,000 mm 0,6 UV-I 81 W/m² 0,2 °C 5,0 °C 12,9 km/h (3 Bft)
05.03.2017 16:27 6,7 °C 6,7 °C 62 % 1001,8 hPa 0,0 mm 6,4 km/h (2 Bft) O-NO 63 ° 0 min 0,000 mm 0,6 UV-I 86 W/m² -0,1 °C 5,6 °C 9,7 km/h (2 Bft)
05.03.2017 16:28 6,7 °C 6,8 °C 64 % 1001,8 hPa 0,0 mm 5,3 km/h (1 Bft) O-NO 70 ° 0 min 0,000 mm 0,6 UV-I 97 W/m² 0,4 °C 5,9 °C 6,4 km/h (2 Bft)
05.03.2017 16:29 6,7 °C 6,7 °C 64 % 1001,9 hPa 0,0 mm 6,3 km/h (2 Bft) O-NO 75 ° 0 min 0,000 mm 0,6 UV-I 97 W/m² 0,4 °C 5,6 °C 12,9 km/h (3 Bft)
05.03.2017 16:30 6,7 °C 6,7 °C 63 % 1001,9 hPa 0,0 mm 4,7 km/h (1 Bft) O 88 ° 0 min 0,000 mm 0,6 UV-I 91 W/m² 0,2 °C 6,1 °C 6,4 km/h (2 Bft)
05.03.2017 16:31 6,8 °C 6,8 °C 64 % 1001,9 hPa 0,0 mm 2,4 km/h (1 Bft) O 82 ° 0 min 0,000 mm 0,6 UV-I 86 W/m² 0,5 °C 6,8 °C 4,8 km/h (1 Bft)
05.03.2017 16:32 6,8 °C 6,8 °C 63 % 1001,9 hPa 0,0 mm 4,0 km/h (1 Bft) SO 126 ° 0 min 0,000 mm 0,5 UV-I 81 W/m² 0,3 °C 6,8 °C 6,4 km/h (2 Bft)
05.03.2017 16:33 6,7 °C 6,8 °C 63 % 1001,9 hPa 0,0 mm 8,6 km/h (2 Bft) O 89 ° 0 min 0,000 mm 0,5 UV-I 76 W/m² 0,2 °C 5,0 °C 12,9 km/h (3 Bft)
05.03.2017 16:34 6,8 °C 6,8 °C 63 % 1001,9 hPa 0,0 mm 9,1 km/h (2 Bft) O-NO 76 ° 0 min 0,000 mm 0,5 UV-I 72 W/m² 0,3 °C 5,0 °C 12,9 km/h (3 Bft)
05.03.2017 16:35 6,8 °C 6,8 °C 63 % 1001,9 hPa 0,0 mm 6,3 km/h (2 Bft) O-NO 63 ° 0 min 0,000 mm 0,5 UV-I 74 W/m² 0,3 °C 5,7 °C 8,0 km/h (2 Bft)
05.03.2017 16:36 6,8 °C 6,8 °C 63 % 1001,9 hPa 0,0 mm 5,7 km/h (1 Bft) O-NO 65 ° 0 min 0,000 mm 0,5 UV-I 77 W/m² 0,3 °C 5,9 °C 8,0 km/h (2 Bft)
05.03.2017 16:37 6,8 °C 6,8 °C 63 % 1001,9 hPa 0,0 mm 5,6 km/h (1 Bft) O-NO 73 ° 0 min 0,000 mm 0,5 UV-I 77 W/m² 0,3 °C 5,9 °C 8,0 km/h (2 Bft)
05.03.2017 16:38 6,7 °C 6,8 °C 65 % 1001,9 hPa 0,0 mm 2,7 km/h (1 Bft) O-NO 73 ° 0 min 0,000 mm 0,5 UV-I 77 W/m² 0,6 °C 6,7 °C 3,2 km/h (1 Bft)
05.03.2017 16:39 6,7 °C 6,7 °C 68 % 1001,8 hPa 0,0 mm 2,6 km/h (1 Bft) O-NO 73 ° 0 min 0,000 mm 0,5 UV-I 83 W/m² 1,2 °C 6,7 °C 3,2 km/h (1 Bft)
05.03.2017 16:40 6,6 °C 6,7 °C 64 % 1001,8 hPa 0,0 mm 4,8 km/h (1 Bft) O 85 ° 0 min 0,000 mm 0,5 UV-I 76 W/m² 0,3 °C 6,0 °C 6,4 km/h (2 Bft)
05.03.2017 16:41 6,7 °C 6,7 °C 65 % 1001,8 hPa 0,0 mm 6,0 km/h (2 Bft) NO 50 ° 0 min 0,000 mm 0,5 UV-I 77 W/m² 0,6 °C 5,7 °C 8,0 km/h (2 Bft)
05.03.2017 16:42 6,6 °C 6,7 °C 64 % 1001,8 hPa 0,0 mm 6,2 km/h (2 Bft) O-NO 69 ° 0 min 0,000 mm 0,0 UV-I 81 W/m² 0,3 °C 5,5 °C 8,0 km/h (2 Bft)
05.03.2017 16:43 6,7 °C 6,7 °C 67 % 1001,8 hPa 0,0 mm 6,7 km/h (2 Bft) O-NO 74 ° 0 min 0,000 mm 0,0 UV-I 83 W/m² 1,0 °C 5,5 °C 8,0 km/h (2 Bft)
05.03.2017 16:44 6,7 °C 6,7 °C 64 % 1001,8 hPa 0,0 mm 3,7 km/h (1 Bft) O-NO 68 ° 0 min 0,000 mm 0,0 UV-I 84 W/m² 0,4 °C 6,7 °C 8,0 km/h (2 Bft)
05.03.2017 16:45 6,7 °C 6,7 °C 65 % 1001,8 hPa 0,0 mm 5,4 km/h (1 Bft) O 80 ° 0 min 0,000 mm 0,0 UV-I 83 W/m² 0,6 °C 5,9 °C 11,3 km/h (2 Bft)
05.03.2017 16:46 6,7 °C 6,7 °C 64 % 1001,8 hPa 0,0 mm 2,5 km/h (1 Bft) O-NO 60 ° 0 min 0,000 mm 0,0 UV-I 77 W/m² 0,4 °C 6,7 °C 4,8 km/h (1 Bft)
05.03.2017 16:47 6,7 °C 6,7 °C 63 % 1001,8 hPa 0,0 mm 4,0 km/h (1 Bft) O-NO 60 ° 0 min 0,000 mm 0,0 UV-I 76 W/m² 0,2 °C 6,7 °C 4,8 km/h (1 Bft)
05.03.2017 16:48 6,7 °C 6,7 °C 66 % 1001,8 hPa 0,0 mm 2,5 km/h (1 Bft) O-NO 60 ° 0 min 0,000 mm 0,0 UV-I 72 W/m² 0,8 °C 6,7 °C 4,8 km/h (1 Bft)
05.03.2017 16:49 6,7 °C 6,7 °C 65 % 1001,8 hPa 0,0 mm 1,6 km/h (1 Bft) O-NO 60 ° 0 min 0,000 mm 0,0 UV-I 69 W/m² 0,6 °C 6,7 °C 3,2 km/h (1 Bft)
05.03.2017 16:50 6,7 °C 6,8 °C 65 % 1001,8 hPa 0,0 mm 4,2 km/h (1 Bft) NO 55 ° 0 min 0,000 mm 0,0 UV-I 65 W/m² 0,6 °C 6,7 °C 8,0 km/h (2 Bft)
05.03.2017 16:51 6,7 °C 6,7 °C 65 % 1001,8 hPa 0,0 mm 6,1 km/h (2 Bft) O-NO 71 ° 0 min 0,000 mm 0,0 UV-I 62 W/m² 0,6 °C 5,6 °C 11,3 km/h (2 Bft)
05.03.2017 16:52 6,7 °C 6,7 °C 65 % 1001,8 hPa 0,0 mm 6,1 km/h (2 Bft) NO 53 ° 0 min 0,000 mm 0,0 UV-I 54 W/m² 0,6 °C 5,6 °C 8,0 km/h (2 Bft)
05.03.2017 16:53 6,7 °C 6,7 °C 65 % 1001,8 hPa 0,0 mm 4,0 km/h (1 Bft) NO 55 ° 0 min 0,000 mm 0,0 UV-I 51 W/m² 0,6 °C 6,7 °C 6,4 km/h (2 Bft)
05.03.2017 16:54 6,6 °C 6,7 °C 67 % 1001,9 hPa 0,0 mm 1,5 km/h (1 Bft) NO 55 ° 0 min 0,000 mm 0,0 UV-I 49 W/m² 0,9 °C 6,6 °C 3,2 km/h (1 Bft)
05.03.2017 16:55 6,6 °C 6,7 °C 66 % 1001,8 hPa 0,0 mm 1,2 km/h (1 Bft) NO 55 ° 0 min 0,000 mm 0,0 UV-I 46 W/m² 0,7 °C 6,6 °C 3,2 km/h (1 Bft)
05.03.2017 16:56 6,6 °C 6,6 °C 66 % 1001,8 hPa 0,0 mm 1,2 km/h (1 Bft) NO 55 ° 0 min 0,000 mm 0,0 UV-I 44 W/m² 0,7 °C 6,6 °C 3,2 km/h (1 Bft)
05.03.2017 16:57 6,6 °C 6,6 °C 66 % 1001,8 hPa 0,0 mm 3,0 km/h (1 Bft) O-NO 74 ° 0 min 0,000 mm 0,0 UV-I 42 W/m² 0,7 °C 6,6 °C 8,0 km/h (2 Bft)
05.03.2017 16:58 6,6 °C 6,6 °C 65 % 1001,8 hPa 0,0 mm 3,2 km/h (1 Bft) O-NO 72 ° 0 min 0,000 mm 0,0 UV-I 37 W/m² 0,5 °C 6,6 °C 6,4 km/h (2 Bft)
05.03.2017 16:59 6,6 °C 6,6 °C 65 % 1001,9 hPa 0,0 mm 3,9 km/h (1 Bft) N-NO 29 ° 0 min 0,000 mm 0,0 UV-I 35 W/m² 0,5 °C 6,6 °C 6,4 km/h (2 Bft)
05.03.2017 17:00 6,5 °C 6,6 °C 65 % 1001,8 hPa 0,0 mm 4,0 km/h (1 Bft) O-NO 78 ° 0 min 0,000 mm 0,0 UV-I 35 W/m² 0,4 °C 6,5 °C 6,4 km/h (2 Bft)
05.03.2017 17:01 6,4 °C 6,5 °C 65 % 1001,9 hPa 0,0 mm 2,2 km/h (1 Bft) O-NO 78 ° 0 min 0,051 mm 0,0 UV-I 33 W/m² 0,3 °C 6,4 °C 3,2 km/h (1 Bft)
05.03.2017 17:02 6,4 °C 6,4 °C 65 % 1001,9 hPa 0,0 mm 4,1 km/h (1 Bft) O-NO 61 ° 0 min 0,000 mm 0,0 UV-I 33 W/m² 0,3 °C 6,4 °C 6,4 km/h (2 Bft)
05.03.2017 17:03 6,4 °C 6,4 °C 67 % 1001,8 hPa 0,0 mm 5,5 km/h (1 Bft) O-NO 61 ° 0 min 0,000 mm 0,0 UV-I 33 W/m² 0,7 °C 5,5 °C 8,0 km/h (2 Bft)
05.03.2017 17:04 6,3 °C 6,4 °C 68 % 1001,8 hPa 0,0 mm 4,4 km/h (1 Bft) O-NO 65 ° 0 min 0,000 mm 0,0 UV-I 33 W/m² 0,8 °C 6,3 °C 6,4 km/h (2 Bft)
05.03.2017 17:05 6,3 °C 6,3 °C 67 % 1001,8 hPa 0,0 mm 2,7 km/h (1 Bft) NO 38 ° 0 min 0,000 mm 0,0 UV-I 32 W/m² 0,6 °C 6,3 °C 4,8 km/h (1 Bft)
05.03.2017 17:06 6,3 °C 6,3 °C 66 % 1001,9 hPa 0,0 mm 1,9 km/h (1 Bft) NO 39 ° 0 min 0,000 mm 0,0 UV-I 33 W/m² 0,4 °C 6,3 °C 3,2 km/h (1 Bft)
05.03.2017 17:07 6,2 °C 6,3 °C 67 % 1001,9 hPa 0,0 mm 2,8 km/h (1 Bft) NO 39 ° 0 min 0,000 mm 0,0 UV-I 33 W/m² 0,5 °C 6,2 °C 4,8 km/h (1 Bft)
05.03.2017 17:08 6,2 °C 6,2 °C 66 % 1001,9 hPa 0,0 mm 0,2 km/h (0 Bft) NO 39 ° 0 min 0,000 mm 0,0 UV-I 33 W/m² 0,3 °C 6,2 °C 1,6 km/h (1 Bft)
05.03.2017 17:09 6,2 °C 6,2 °C 66 % 1001,9 hPa 0,0 mm 0,9 km/h (0 Bft) NO 39 ° 0 min 0,000 mm 0,0 UV-I 35 W/m² 0,3 °C 6,2 °C 1,6 km/h (1 Bft)
05.03.2017 17:10 6,2 °C 6,2 °C 67 % 1001,9 hPa 0,0 mm 1,3 km/h (1 Bft) NO 39 ° 0 min 0,000 mm 0,0 UV-I 37 W/m² 0,5 °C 6,2 °C 3,2 km/h (1 Bft)
05.03.2017 17:11 6,2 °C 6,2 °C 67 % 1001,9 hPa 0,0 mm 1,4 km/h (1 Bft) NO 39 ° 0 min 0,000 mm 0,0 UV-I 37 W/m² 0,5 °C 6,2 °C 3,2 km/h (1 Bft)
05.03.2017 17:12 6,1 °C 6,2 °C 67 % 1001,9 hPa 0,0 mm 1,7 km/h (1 Bft) NO 39 ° 0 min 0,000 mm 0,0 UV-I 37 W/m² 0,4 °C 6,1 °C 3,2 km/h (1 Bft)
05.03.2017 17:13 6,1 °C 6,1 °C 67 % 1001,9 hPa 0,0 mm 1,0 km/h (0 Bft) NO 39 ° 0 min 0,000 mm 0,0 UV-I 37 W/m² 0,4 °C 6,1 °C 1,6 km/h (1 Bft)
05.03.2017 17:14 6,1 °C 6,1 °C 68 % 1001,9 hPa 0,0 mm 1,4 km/h (1 Bft) NO 39 ° 0 min 0,000 mm 0,0 UV-I 37 W/m² 0,6 °C 6,1 °C 3,2 km/h (1 Bft)
05.03.2017 17:15 6,0 °C 6,1 °C 68 % 1001,9 hPa 0,0 mm 0,2 km/h (0 Bft) NO 39 ° 0 min 0,000 mm 0,0 UV-I 39 W/m² 0,6 °C 6,0 °C 1,6 km/h (1 Bft)
05.03.2017 17:16 5,9 °C 6,1 °C 67 % 1001,9 hPa 0,0 mm 0,4 km/h (0 Bft) NO 39 ° 0 min 0,000 mm 0,0 UV-I 39 W/m² 0,3 °C 5,9 °C 1,6 km/h (1 Bft)
05.03.2017 17:17 5,9 °C 6,0 °C 68 % 1001,9 hPa 0,0 mm 0,2 km/h (0 Bft) NO 39 ° 0 min 0,000 mm 0,0 UV-I 39 W/m² 0,5 °C 5,9 °C 1,6 km/h (1 Bft)
05.03.2017 17:18 5,8 °C 5,9 °C 68 % 1001,9 hPa 0,0 mm 1,2 km/h (1 Bft) NO 39 ° 0 min 0,000 mm 0,0 UV-I 39 W/m² 0,4 °C 5,8 °C 1,6 km/h (1 Bft)
05.03.2017 17:19 5,8 °C 5,8 °C 69 % 1001,9 hPa 0,0 mm 2,0 km/h (1 Bft) NO 39 ° 0 min 0,000 mm 0,0 UV-I 39 W/m² 0,6 °C 5,8 °C 3,2 km/h (1 Bft)
05.03.2017 17:20 5,8 °C 5,8 °C 69 % 1001,9 hPa 0,0 mm 1,5 km/h (1 Bft) NO 39 ° 0 min 0,000 mm 0,0 UV-I 37 W/m² 0,6 °C 5,8 °C 1,6 km/h (1 Bft)
05.03.2017 17:21 5,8 °C 5,8 °C 68 % 1001,9 hPa 0,0 mm 0,4 km/h (0 Bft) NO 39 ° 0 min 0,000 mm 0,0 UV-I 35 W/m² 0,4 °C 5,8 °C 1,6 km/h (1 Bft)
05.03.2017 17:22 5,8 °C 5,8 °C 68 % 1001,9 hPa 0,0 mm 0,0 km/h (0 Bft) NO 39 ° 0 min 0,000 mm 0,0 UV-I 35 W/m² 0,4 °C 5,8 °C 0,0 km/h (0 Bft)
05.03.2017 17:23 5,8 °C 5,9 °C 68 % 1001,9 hPa 0,0 mm 0,0 km/h (0 Bft) NO 39 ° 0 min 0,000 mm 0,0 UV-I 33 W/m² 0,4 °C 5,8 °C 0,0 km/h (0 Bft)
05.03.2017 17:24 5,8 °C 5,9 °C 68 % 1001,9 hPa 0,0 mm 0,0 km/h (0 Bft) NO 39 ° 0 min 0,000 mm 0,0 UV-I 32 W/m² 0,4 °C 5,8 °C 0,0 km/h (0 Bft)
05.03.2017 17:25 5,8 °C 5,8 °C 69 % 1001,9 hPa 0,0 mm 1,7 km/h (1 Bft) NO 39 ° 0 min 0,000 mm 0,0 UV-I 32 W/m² 0,6 °C 5,8 °C 3,2 km/h (1 Bft)
05.03.2017 17:26 5,8 °C 5,8 °C 69 % 1001,9 hPa 0,0 mm 0,9 km/h (0 Bft) NO 39 ° 0 min 0,000 mm 0,0 UV-I 30 W/m² 0,6 °C 5,8 °C 1,6 km/h (1 Bft)
05.03.2017 17:27 5,8 °C 5,8 °C 69 % 1001,9 hPa 0,0 mm 1,5 km/h (1 Bft) NO 39 ° 0 min 0,000 mm 0,0 UV-I 28 W/m² 0,6 °C 5,8 °C 1,6 km/h (1 Bft)
05.03.2017 17:28 5,8 °C 5,8 °C 68 % 1001,9 hPa 0,0 mm 1,2 km/h (1 Bft) NO 39 ° 0 min 0,000 mm 0,0 UV-I 28 W/m² 0,4 °C 5,8 °C 1,6 km/h (1 Bft)
05.03.2017 17:29 5,9 °C 5,9 °C 69 % 1002,0 hPa 0,0 mm 0,2 km/h (0 Bft) NO 39 ° 0 min 0,000 mm 0,0 UV-I 28 W/m² 0,7 °C 5,9 °C 1,6 km/h (1 Bft)
05.03.2017 17:30 5,9 °C 5,9 °C 68 % 1001,9 hPa 0,0 mm 0,1 km/h (0 Bft) NO 39 ° 0 min 0,000 mm 0,0 UV-I 26 W/m² 0,5 °C 5,9 °C 1,6 km/h (1 Bft)
05.03.2017 17:31 5,9 °C 5,9 °C 68 % 1001,9 hPa 0,0 mm 1,3 km/h (1 Bft) NO 39 ° 0 min 0,000 mm 0,0 UV-I 26 W/m² 0,5 °C 5,9 °C 1,6 km/h (1 Bft)
05.03.2017 17:32 5,9 °C 5,9 °C 68 % 1001,9 hPa 0,0 mm 0,8 km/h (0 Bft) NO 39 ° 0 min 0,000 mm 0,0 UV-I 26 W/m² 0,5 °C 5,9 °C 1,6 km/h (1 Bft)
05.03.2017 17:33 5,9 °C 5,9 °C 67 % 1001,9 hPa 0,0 mm 0,0 km/h (0 Bft) NO 39 ° 0 min 0,000 mm 0,0 UV-I 25 W/m² 0,3 °C 5,9 °C 0,0 km/h (0 Bft)
05.03.2017 17:34 5,9 °C 5,9 °C 68 % 1001,9 hPa 0,0 mm 1,1 km/h (1 Bft) NO 39 ° 0 min 0,000 mm 0,0 UV-I 25 W/m² 0,5 °C 5,9 °C 1,6 km/h (1 Bft)
05.03.2017 17:35 5,9 °C 5,9 °C 68 % 1001,9 hPa 0,0 mm 1,1 km/h (1 Bft) NO 39 ° 0 min 0,000 mm 0,0 UV-I 25 W/m² 0,5 °C 5,9 °C 1,6 km/h (1 Bft)
05.03.2017 17:36 5,8 °C 5,9 °C 69 % 1001,9 hPa 0,0 mm 0,9 km/h (0 Bft) NO 39 ° 0 min 0,000 mm 0,0 UV-I 25 W/m² 0,6 °C 5,8 °C 1,6 km/h (1 Bft)
05.03.2017 17:37 5,8 °C 5,9 °C 69 % 1001,9 hPa 0,0 mm 0,5 km/h (0 Bft) NO 39 ° 0 min 0,000 mm 0,0 UV-I 23 W/m² 0,6 °C 5,8 °C 1,6 km/h (1 Bft)
05.03.2017 17:38 5,8 °C 5,8 °C 70 % 1001,9 hPa 0,0 mm 0,5 km/h (0 Bft) NO 39 ° 0 min 0,000 mm 0,0 UV-I 21 W/m² 0,8 °C 5,8 °C 1,6 km/h (1 Bft)
05.03.2017 17:39 5,8 °C 5,8 °C 70 % 1001,9 hPa 0,0 mm 1,7 km/h (1 Bft) NO 39 ° 0 min 0,000 mm 0,0 UV-I 21 W/m² 0,8 °C 5,8 °C 3,2 km/h (1 Bft)
05.03.2017 17:40 5,7 °C 5,8 °C 70 % 1001,9 hPa 0,0 mm 1,3 km/h (1 Bft) NO 39 ° 0 min 0,000 mm 0,0 UV-I 21 W/m² 0,7 °C 5,7 °C 1,6 km/h (1 Bft)
05.03.2017 17:41 5,7 °C 5,7 °C 70 % 1001,9 hPa 0,0 mm 1,7 km/h (1 Bft) NO 39 ° 0 min 0,000 mm 0,0 UV-I 19 W/m² 0,7 °C 5,7 °C 3,2 km/h (1 Bft)
05.03.2017 17:42 5,7 °C 5,7 °C 70 % 1001,8 hPa 0,0 mm 1,7 km/h (1 Bft) NO 39 ° 0 min 0,000 mm 0,0 UV-I 18 W/m² 0,7 °C 5,7 °C 3,2 km/h (1 Bft)
05.03.2017 17:43 5,6 °C 5,7 °C 70 % 1001,8 hPa 0,0 mm 1,6 km/h (1 Bft) NO 39 ° 0 min 0,000 mm 0,0 UV-I 18 W/m² 0,6 °C 5,6 °C 1,6 km/h (1 Bft)
05.03.2017 17:44 5,6 °C 5,6 °C 69 % 1001,8 hPa 0,0 mm 1,4 km/h (1 Bft) NO 39 ° 0 min 0,000 mm 0,0 UV-I 16 W/m² 0,4 °C 5,6 °C 3,2 km/h (1 Bft)
05.03.2017 17:45 5,6 °C 5,6 °C 70 % 1001,8 hPa 0,0 mm 1,3 km/h (1 Bft) NO 39 ° 0 min 0,000 mm 0,0 UV-I 14 W/m² 0,6 °C 5,6 °C 3,2 km/h (1 Bft)
05.03.2017 17:46 5,5 °C 5,6 °C 71 % 1001,8 hPa 0,0 mm 1,4 km/h (1 Bft) NO 39 ° 0 min 0,000 mm 0,0 UV-I 12 W/m² 0,7 °C 5,5 °C 3,2 km/h (1 Bft)
05.03.2017 17:47 5,5 °C 5,5 °C 70 % 1001,8 hPa 0,0 mm 1,0 km/h (0 Bft) NO 39 ° 0 min 0,000 mm 0,0 UV-I 12 W/m² 0,5 °C 5,5 °C 1,6 km/h (1 Bft)
05.03.2017 17:48 5,4 °C 5,5 °C 70 % 1001,8 hPa 0,0 mm 0,6 km/h (0 Bft) NO 39 ° 0 min 0,000 mm 0,0 UV-I 11 W/m² 0,4 °C 5,4 °C 1,6 km/h (1 Bft)
05.03.2017 17:49 5,4 °C 5,4 °C 71 % 1001,8 hPa 0,0 mm 0,8 km/h (0 Bft) NO 39 ° 0 min 0,000 mm 0,0 UV-I 11 W/m² 0,6 °C 5,4 °C 1,6 km/h (1 Bft)
05.03.2017 17:50 5,3 °C 5,4 °C 70 % 1001,8 hPa 0,0 mm 0,1 km/h (0 Bft) NO 39 ° 0 min 0,000 mm 0,0 UV-I 9 W/m² 0,3 °C 5,3 °C 1,6 km/h (1 Bft)
05.03.2017 17:51 5,3 °C 5,3 °C 71 % 1001,7 hPa 0,0 mm 0,2 km/h (0 Bft) NO 39 ° 0 min 0,000 mm 0,0 UV-I 9 W/m² 0,5 °C 5,3 °C 1,6 km/h (1 Bft)
05.03.2017 17:52 5,2 °C 5,3 °C 71 % 1001,8 hPa 0,0 mm 0,5 km/h (0 Bft) NO 39 ° 0 min 0,000 mm 0,0 UV-I 9 W/m² 0,4 °C 5,2 °C 1,6 km/h (1 Bft)
05.03.2017 17:53 5,2 °C 5,2 °C 71 % 1001,8 hPa 0,0 mm 0,0 km/h (0 Bft) NO 39 ° 0 min 0,000 mm 0,0 UV-I 7 W/m² 0,4 °C 5,2 °C 0,0 km/h (0 Bft)
05.03.2017 17:54 5,1 °C 5,2 °C 72 % 1001,8 hPa 0,0 mm 0,0 km/h (0 Bft) NO 39 ° 0 min 0,000 mm 0,0 UV-I 7 W/m² 0,5 °C 5,1 °C 0,0 km/h (0 Bft)
05.03.2017 17:55 5,1 °C 5,1 °C 71 % 1001,8 hPa 0,0 mm 0,0 km/h (0 Bft) NO 39 ° 0 min 0,000 mm 0,0 UV-I 7 W/m² 0,3 °C 5,1 °C 0,0 km/h (0 Bft)
05.03.2017 17:56 5,1 °C 5,2 °C 72 % 1001,8 hPa 0,0 mm 0,1 km/h (0 Bft) NO 39 ° 0 min 0,000 mm 0,0 UV-I 5 W/m² 0,5 °C 5,1 °C 1,6 km/h (1 Bft)
05.03.2017 17:57 5,1 °C 5,1 °C 72 % 1001,8 hPa 0,0 mm 0,3 km/h (0 Bft) NO 39 ° 0 min 0,000 mm 0,0 UV-I 5 W/m² 0,5 °C 5,1 °C 1,6 km/h (1 Bft)
05.03.2017 17:58 5,1 °C 5,1 °C 72 % 1001,8 hPa 0,0 mm 0,2 km/h (0 Bft) NO 39 ° 0 min 0,000 mm 0,0 UV-I 5 W/m² 0,5 °C 5,1 °C 1,6 km/h (1 Bft)
05.03.2017 17:59 5,1 °C 5,1 °C 72 % 1001,8 hPa 0,0 mm 0,0 km/h (0 Bft) NO 39 ° 0 min 0,000 mm 0,0 UV-I 5 W/m² 0,5 °C 5,1 °C 0,0 km/h (0 Bft)
05.03.2017 18:00 5,1 °C 5,1 °C 72 % 1001,9 hPa 0,0 mm 0,1 km/h (0 Bft) NO 39 ° 0 min 0,000 mm 0,0 UV-I 0 W/m² 0,5 °C 5,1 °C 1,6 km/h (1 Bft)
05.03.2017 18:01 5,1 °C 5,1 °C 72 % 1001,8 hPa 0,0 mm 0,3 km/h (0 Bft) NO 39 ° 0 min 0,025 mm 0,0 UV-I 0 W/m² 0,5 °C 5,1 °C 1,6 km/h (1 Bft)
05.03.2017 18:02 5,1 °C 5,1 °C 72 % 1001,9 hPa 0,0 mm 0,2 km/h (0 Bft) NO 39 ° 0 min 0,000 mm 0,0 UV-I 0 W/m² 0,5 °C 5,1 °C 1,6 km/h (1 Bft)
05.03.2017 18:03 5,1 °C 5,1 °C 72 % 1001,9 hPa 0,0 mm 0,0 km/h (0 Bft) NO 39 ° 0 min 0,000 mm 0,0 UV-I 0 W/m² 0,5 °C 5,1 °C 0,0 km/h (0 Bft)
05.03.2017 18:04 5,1 °C 5,1 °C 72 % 1001,9 hPa 0,0 mm 0,0 km/h (0 Bft) NO 39 ° 0 min 0,000 mm 0,0 UV-I 0 W/m² 0,5 °C 5,1 °C 0,0 km/h (0 Bft)
05.03.2017 18:05 5,1 °C 5,1 °C 72 % 1001,9 hPa 0,0 mm 0,0 km/h (0 Bft) NO 39 ° 0 min 0,000 mm 0,0 UV-I 0 W/m² 0,5 °C 5,1 °C 0,0 km/h (0 Bft)
05.03.2017 18:06 5,1 °C 5,1 °C 72 % 1001,9 hPa 0,0 mm 0,0 km/h (0 Bft) NO 39 ° 0 min 0,000 mm 0,0 UV-I 0 W/m² 0,5 °C 5,1 °C 0,0 km/h (0 Bft)
05.03.2017 18:07 5,1 °C 5,1 °C 72 % 1001,9 hPa 0,0 mm 0,0 km/h (0 Bft) NO 39 ° 0 min 0,000 mm 0,0 UV-I 0 W/m² 0,5 °C 5,1 °C 0,0 km/h (0 Bft)
05.03.2017 18:08 5,1 °C 5,1 °C 72 % 1002,0 hPa 0,0 mm 0,0 km/h (0 Bft) NO 39 ° 0 min 0,000 mm 0,0 UV-I 0 W/m² 0,5 °C 5,1 °C 0,0 km/h (0 Bft)
05.03.2017 18:09 5,1 °C 5,1 °C 72 % 1002,0 hPa 0,0 mm 0,1 km/h (0 Bft) NO 39 ° 0 min 0,000 mm 0,0 UV-I 0 W/m² 0,5 °C 5,1 °C 1,6 km/h (1 Bft)
05.03.2017 18:10 5,0 °C 5,1 °C 72 % 1002,0 hPa 0,0 mm 0,2 km/h (0 Bft) NO 39 ° 0 min 0,000 mm 0,0 UV-I 0 W/m² 0,4 °C 5,0 °C 1,6 km/h (1 Bft)
05.03.2017 18:11 4,9 °C 5,0 °C 73 % 1002,0 hPa 0,0 mm 0,0 km/h (0 Bft) NO 39 ° 0 min 0,000 mm 0,0 UV-I 0 W/m² 0,5 °C 4,9 °C 0,0 km/h (0 Bft)
05.03.2017 18:12 4,9 °C 4,9 °C 73 % 1002,0 hPa 0,0 mm 0,1 km/h (0 Bft) NO 39 ° 0 min 0,000 mm 0,0 UV-I 0 W/m² 0,5 °C 4,9 °C 1,6 km/h (1 Bft)
05.03.2017 18:13 4,8 °C 4,9 °C 73 % 1002,1 hPa 0,0 mm 0,0 km/h (0 Bft) NO 39 ° 0 min 0,000 mm 0,0 UV-I 0 W/m² 0,4 °C 4,8 °C 0,0 km/h (0 Bft)
05.03.2017 18:14 4,8 °C 4,8 °C 73 % 1002,0 hPa 0,0 mm 0,5 km/h (0 Bft) NO 39 ° 0 min 0,000 mm 0,0 UV-I 0 W/m² 0,4 °C 4,8 °C 1,6 km/h (1 Bft)
05.03.2017 18:15 4,7 °C 4,8 °C 74 % 1002,1 hPa 0,0 mm 1,4 km/h (1 Bft) NO 39 ° 0 min 0,000 mm 0,0 UV-I 0 W/m² 0,5 °C 4,7 °C 3,2 km/h (1 Bft)
05.03.2017 18:16 4,7 °C 4,7 °C 74 % 1002,2 hPa 0,0 mm 0,3 km/h (0 Bft) NO 39 ° 0 min 0,000 mm 0,0 UV-I 0 W/m² 0,5 °C 4,7 °C 1,6 km/h (1 Bft)
05.03.2017 18:17 4,7 °C 4,7 °C 74 % 1002,1 hPa 0,0 mm 0,9 km/h (0 Bft) NO 39 ° 0 min 0,000 mm 0,0 UV-I 0 W/m² 0,5 °C 4,7 °C 1,6 km/h (1 Bft)
05.03.2017 18:18 4,8 °C 4,8 °C 74 % 1002,1 hPa 0,0 mm 0,1 km/h (0 Bft) NO 39 ° 0 min 0,000 mm 0,0 UV-I 0 W/m² 0,6 °C 4,8 °C 1,6 km/h (1 Bft)
05.03.2017 18:19 4,8 °C 4,8 °C 74 % 1002,2 hPa 0,0 mm 0,7 km/h (0 Bft) NO 39 ° 0 min 0,000 mm 0,0 UV-I 0 W/m² 0,6 °C 4,8 °C 1,6 km/h (1 Bft)
05.03.2017 18:20 4,8 °C 4,8 °C 74 % 1002,2 hPa 0,0 mm 1,5 km/h (1 Bft) NO 39 ° 0 min 0,000 mm 0,0 UV-I 0 W/m² 0,6 °C 4,8 °C 3,2 km/h (1 Bft)
05.03.2017 18:21 4,8 °C 4,8 °C 75 % 1002,1 hPa 0,0 mm 1,9 km/h (1 Bft) NO 39 ° 0 min 0,000 mm 0,0 UV-I 0 W/m² 0,8 °C 4,8 °C 3,2 km/h (1 Bft)
05.03.2017 18:22 4,8 °C 4,8 °C 75 % 1002,1 hPa 0,0 mm 1,9 km/h (1 Bft) NO 39 ° 0 min 0,000 mm 0,0 UV-I 0 W/m² 0,8 °C 4,8 °C 3,2 km/h (1 Bft)
05.03.2017 18:23 4,7 °C 4,8 °C 75 % 1002,1 hPa 0,0 mm 2,0 km/h (1 Bft) NO 39 ° 0 min 0,000 mm 0,0 UV-I 0 W/m² 0,7 °C 4,7 °C 3,2 km/h (1 Bft)
05.03.2017 18:24 4,7 °C 4,7 °C 75 % 1002,1 hPa 0,0 mm 1,0 km/h (0 Bft) NO 39 ° 0 min 0,000 mm 0,0 UV-I 0 W/m² 0,7 °C 4,7 °C 3,2 km/h (1 Bft)
05.03.2017 18:25 4,7 °C 4,8 °C 75 % 1002,1 hPa 0,0 mm 0,0 km/h (0 Bft) NO 39 ° 0 min 0,000 mm 0,0 UV-I 0 W/m² 0,7 °C 4,7 °C 0,0 km/h (0 Bft)
05.03.2017 18:26 4,7 °C 4,7 °C 75 % 1002,1 hPa 0,0 mm 0,0 km/h (0 Bft) NO 39 ° 0 min 0,000 mm 0,0 UV-I 0 W/m² 0,7 °C 4,7 °C 0,0 km/h (0 Bft)
05.03.2017 18:27 4,7 °C 4,7 °C 75 % 1002,1 hPa 0,0 mm 0,0 km/h (0 Bft) NO 39 ° 0 min 0,000 mm 0,0 UV-I 0 W/m² 0,7 °C 4,7 °C 0,0 km/h (0 Bft)
05.03.2017 18:28 4,6 °C 4,7 °C 75 % 1002,1 hPa 0,0 mm 0,0 km/h (0 Bft) NO 39 ° 0 min 0,000 mm 0,0 UV-I 0 W/m² 0,6 °C 4,6 °C 0,0 km/h (0 Bft)
05.03.2017 18:29 4,5 °C 4,6 °C 77 % 1002,2 hPa 0,0 mm 0,8 km/h (0 Bft) NO 39 ° 0 min 0,000 mm 0,0 UV-I 0 W/m² 0,8 °C 4,5 °C 1,6 km/h (1 Bft)
05.03.2017 18:30 4,4 °C 4,5 °C 77 % 1002,2 hPa 0,0 mm 2,3 km/h (1 Bft) NO 39 ° 0 min 0,000 mm 0,0 UV-I 0 W/m² 0,7 °C 4,4 °C 3,2 km/h (1 Bft)
05.03.2017 18:31 4,4 °C 4,4 °C 76 % 1002,3 hPa 0,0 mm 2,3 km/h (1 Bft) NO 39 ° 0 min 0,000 mm 0,0 UV-I 0 W/m² 0,5 °C 4,4 °C 3,2 km/h (1 Bft)
05.03.2017 18:32 4,4 °C 4,4 °C 76 % 1002,2 hPa 0,0 mm 2,6 km/h (1 Bft) NO 39 ° 0 min 0,000 mm 0,0 UV-I 0 W/m² 0,5 °C 4,4 °C 3,2 km/h (1 Bft)
05.03.2017 18:33 4,5 °C 4,5 °C 76 % 1002,3 hPa 0,0 mm 1,8 km/h (1 Bft) O 89 ° 0 min 0,000 mm 0,0 UV-I 0 W/m² 0,6 °C 4,5 °C 3,2 km/h (1 Bft)
05.03.2017 18:34 4,6 °C 4,6 °C 75 % 1002,2 hPa 0,0 mm 3,1 km/h (1 Bft) O 89 ° 0 min 0,000 mm 0,0 UV-I 0 W/m² 0,6 °C 4,6 °C 3,2 km/h (1 Bft)
05.03.2017 18:35 4,6 °C 4,6 °C 76 % 1002,2 hPa 0,0 mm 3,8 km/h (1 Bft) O 95 ° 0 min 0,000 mm 0,0 UV-I 0 W/m² 0,7 °C 4,6 °C 4,8 km/h (1 Bft)
05.03.2017 18:36 4,6 °C 4,6 °C 77 % 1002,2 hPa 0,0 mm 4,8 km/h (1 Bft) O-SO 111 ° 0 min 0,000 mm 0,0 UV-I 0 W/m² 0,9 °C 3,7 °C 4,8 km/h (1 Bft)
05.03.2017 18:37 4,6 °C 4,6 °C 76 % 1002,2 hPa 0,0 mm 3,9 km/h (1 Bft) O-SO 111 ° 0 min 0,000 mm 0,0 UV-I 0 W/m² 0,7 °C 4,6 °C 4,8 km/h (1 Bft)
05.03.2017 18:38 4,6 °C 4,6 °C 76 % 1002,2 hPa 0,0 mm 3,8 km/h (1 Bft) O-SO 111 ° 0 min 0,000 mm 0,0 UV-I 0 W/m² 0,7 °C 4,6 °C 4,8 km/h (1 Bft)
05.03.2017 18:39 4,6 °C 4,6 °C 77 % 1002,1 hPa 0,0 mm 3,4 km/h (1 Bft) O-SO 111 ° 0 min 0,000 mm 0,0 UV-I 0 W/m² 0,9 °C 4,6 °C 4,8 km/h (1 Bft)
05.03.2017 18:40 4,5 °C 4,6 °C 77 % 1002,1 hPa 0,0 mm 3,0 km/h (1 Bft) O-SO 111 ° 0 min 0,000 mm 0,0 UV-I 0 W/m² 0,8 °C 4,5 °C 3,2 km/h (1 Bft)
05.03.2017 18:41 4,5 °C 4,5 °C 76 % 1002,1 hPa 0,0 mm 1,8 km/h (1 Bft) O-SO 111 ° 0 min 0,000 mm 0,0 UV-I 0 W/m² 0,6 °C 4,5 °C 3,2 km/h (1 Bft)
05.03.2017 18:42 4,4 °C 4,5 °C 77 % 1002,1 hPa 0,0 mm 3,0 km/h (1 Bft) O-SO 111 ° 0 min 0,000 mm 0,0 UV-I 0 W/m² 0,7 °C 4,4 °C 4,8 km/h (1 Bft)
05.03.2017 18:43 4,4 °C 4,4 °C 77 % 1002,1 hPa 0,0 mm 2,0 km/h (1 Bft) O-SO 111 ° 0 min 0,000 mm 0,0 UV-I 0 W/m² 0,7 °C 4,4 °C 3,2 km/h (1 Bft)
05.03.2017 18:44 4,4 °C 4,4 °C 77 % 1002,1 hPa 0,0 mm 1,5 km/h (1 Bft) O-SO 111 ° 0 min 0,000 mm 0,0 UV-I 0 W/m² 0,7 °C 4,4 °C 1,6 km/h (1 Bft)
05.03.2017 18:45 4,4 °C 4,4 °C 77 % 1002,1 hPa 0,0 mm 1,8 km/h (1 Bft) O-SO 111 ° 0 min 0,000 mm 0,0 UV-I 0 W/m² 0,7 °C 4,4 °C 3,2 km/h (1 Bft)
05.03.2017 18:46 4,3 °C 4,4 °C 77 % 1002,1 hPa 0,0 mm 1,2 km/h (1 Bft) O-SO 111 ° 0 min 0,000 mm 0,0 UV-I 0 W/m² 0,6 °C 4,3 °C 1,6 km/h (1 Bft)
05.03.2017 18:47 4,3 °C 4,3 °C 77 % 1002,1 hPa 0,0 mm 1,5 km/h (1 Bft) O-SO 111 ° 0 min 0,000 mm 0,0 UV-I 0 W/m² 0,6 °C 4,3 °C 3,2 km/h (1 Bft)
05.03.2017 18:48 4,3 °C 4,3 °C 77 % 1002,2 hPa 0,0 mm 1,1 km/h (1 Bft) O-SO 111 ° 0 min 0,000 mm 0,0 UV-I 0 W/m² 0,6 °C 4,3 °C 1,6 km/h (1 Bft)
05.03.2017 18:49 4,3 °C 4,3 °C 77 % 1002,2 hPa 0,0 mm 1,0 km/h (0 Bft) O-SO 111 ° 0 min 0,000 mm 0,0 UV-I 0 W/m² 0,6 °C 4,3 °C 1,6 km/h (1 Bft)
05.03.2017 18:50 4,3 °C 4,3 °C 77 % 1002,2 hPa 0,0 mm 1,7 km/h (1 Bft) O-SO 111 ° 0 min 0,000 mm 0,0 UV-I 0 W/m² 0,6 °C 4,3 °C 3,2 km/h (1 Bft)
05.03.2017 18:51 4,3 °C 4,3 °C 77 % 1002,2 hPa 0,0 mm 2,0 km/h (1 Bft) O-SO 111 ° 0 min 0,000 mm 0,0 UV-I 0 W/m² 0,6 °C 4,3 °C 3,2 km/h (1 Bft)
05.03.2017 18:52 4,4 °C 4,4 °C 77 % 1002,2 hPa 0,0 mm 1,2 km/h (1 Bft) O-SO 111 ° 0 min 0,000 mm 0,0 UV-I 0 W/m² 0,7 °C 4,4 °C 1,6 km/h (1 Bft)
05.03.2017 18:53 4,4 °C 4,4 °C 76 % 1002,2 hPa 0,0 mm 0,4 km/h (0 Bft) O-SO 111 ° 0 min 0,000 mm 0,0 UV-I 0 W/m² 0,5 °C 4,4 °C 1,6 km/h (1 Bft)
05.03.2017 18:54 4,4 °C 4,5 °C 76 % 1002,2 hPa 0,0 mm 0,1 km/h (0 Bft) O-SO 111 ° 0 min 0,000 mm 0,0 UV-I 0 W/m² 0,5 °C 4,4 °C 1,6 km/h (1 Bft)
05.03.2017 18:55 4,4 °C 4,5 °C 77 % 1002,2 hPa 0,0 mm 0,1 km/h (0 Bft) O-SO 111 ° 0 min 0,000 mm 0,0 UV-I 0 W/m² 0,7 °C 4,4 °C 1,6 km/h (1 Bft)
05.03.2017 18:56 4,3 °C 4,4 °C 78 % 1002,2 hPa 0,0 mm 0,0 km/h (0 Bft) O-SO 111 ° 0 min 0,000 mm 0,0 UV-I 0 W/m² 0,8 °C 4,3 °C 0,0 km/h (0 Bft)
05.03.2017 18:57 4,2 °C 4,3 °C 79 % 1002,2 hPa 0,0 mm 0,0 km/h (0 Bft) O-SO 111 ° 0 min 0,000 mm 0,0 UV-I 0 W/m² 0,9 °C 4,2 °C 0,0 km/h (0 Bft)
05.03.2017 18:58 4,1 °C 4,2 °C 80 % 1002,2 hPa 0,0 mm 0,5 km/h (0 Bft) O-SO 111 ° 0 min 0,000 mm 0,0 UV-I 0 W/m² 1,0 °C 4,1 °C 1,6 km/h (1 Bft)
05.03.2017 18:59 3,9 °C 4,1 °C 80 % 1002,2 hPa 0,0 mm 1,7 km/h (1 Bft) O-SO 111 ° 0 min 0,000 mm 0,0 UV-I 0 W/m² 0,8 °C 3,9 °C 3,2 km/h (1 Bft)
05.03.2017 19:00 3,8 °C 3,9 °C 80 % 1002,2 hPa 0,0 mm 1,3 km/h (1 Bft) O-SO 111 ° 0 min 0,000 mm 0,0 UV-I 0 W/m² 0,7 °C 3,8 °C 1,6 km/h (1 Bft)
05.03.2017 19:01 3,8 °C 3,8 °C 81 % 1002,3 hPa 0,0 mm 0,9 km/h (0 Bft) O-SO 111 ° 0 min 0,000 mm 0,0 UV-I 0 W/m² 0,8 °C 3,8 °C 1,6 km/h (1 Bft)
05.03.2017 19:02 3,8 °C 3,8 °C 81 % 1002,3 hPa 0,0 mm 1,8 km/h (1 Bft) O-SO 111 ° 0 min 0,000 mm 0,0 UV-I 0 W/m² 0,8 °C 3,8 °C 3,2 km/h (1 Bft)
05.03.2017 19:03 3,7 °C 3,8 °C 80 % 1002,3 hPa 0,0 mm 2,5 km/h (1 Bft) S-SO 150 ° 0 min 0,000 mm 0,0 UV-I 0 W/m² 0,6 °C 3,7 °C 4,8 km/h (1 Bft)
05.03.2017 19:04 3,8 °C 3,8 °C 79 % 1002,4 hPa 0,0 mm 4,8 km/h (1 Bft) S 188 ° 0 min 0,000 mm 0,0 UV-I 0 W/m² 0,5 °C 2,8 °C 6,4 km/h (2 Bft)
05.03.2017 19:05 3,9 °C 3,9 °C 79 % 1002,3 hPa 0,0 mm 2,8 km/h (1 Bft) S 188 ° 0 min 0,000 mm 0,0 UV-I 0 W/m² 0,6 °C 3,9 °C 4,8 km/h (1 Bft)
05.03.2017 19:06 4,1 °C 4,1 °C 78 % 1002,3 hPa 0,0 mm 1,5 km/h (1 Bft) S 188 ° 0 min 0,000 mm 0,0 UV-I 0 W/m² 0,6 °C 4,1 °C 3,2 km/h (1 Bft)
05.03.2017 19:07 4,2 °C 4,2 °C 78 % 1002,3 hPa 0,0 mm 1,3 km/h (1 Bft) S 188 ° 0 min 0,000 mm 0,0 UV-I 0 W/m² 0,7 °C 4,2 °C 3,2 km/h (1 Bft)
05.03.2017 19:08 4,3 °C 4,3 °C 77 % 1002,2 hPa 0,0 mm 2,0 km/h (1 Bft) S 188 ° 0 min 0,000 mm 0,0 UV-I 0 W/m² 0,6 °C 4,3 °C 3,2 km/h (1 Bft)
05.03.2017 19:09 4,4 °C 4,4 °C 77 % 1002,3 hPa 0,0 mm 2,7 km/h (1 Bft) S 188 ° 0 min 0,000 mm 0,0 UV-I 0 W/m² 0,7 °C 4,4 °C 3,2 km/h (1 Bft)
05.03.2017 19:10 4,5 °C 4,5 °C 77 % 1002,3 hPa 0,0 mm 3,3 km/h (1 Bft) S 188 ° 0 min 0,000 mm 0,0 UV-I 0 W/m² 0,8 °C 4,5 °C 4,8 km/h (1 Bft)
05.03.2017 19:11 4,4 °C 4,5 °C 77 % 1002,2 hPa 0,0 mm 1,7 km/h (1 Bft) S 188 ° 0 min 0,000 mm 0,0 UV-I 0 W/m² 0,7 °C 4,4 °C 3,2 km/h (1 Bft)
05.03.2017 19:12 4,4 °C 4,4 °C 78 % 1002,1 hPa 0,0 mm 1,6 km/h (1 Bft) S 188 ° 0 min 0,000 mm 0,0 UV-I 0 W/m² 0,9 °C 4,4 °C 3,2 km/h (1 Bft)
05.03.2017 19:13 4,3 °C 4,4 °C 78 % 1002,1 hPa 0,0 mm 2,1 km/h (1 Bft) S 178 ° 0 min 0,000 mm 0,0 UV-I 0 W/m² 0,8 °C 4,3 °C 3,2 km/h (1 Bft)
05.03.2017 19:14 4,3 °C 4,3 °C 78 % 1002,1 hPa 0,0 mm 0,9 km/h (0 Bft) S 178 ° 0 min 0,000 mm 0,0 UV-I 0 W/m² 0,8 °C 4,3 °C 3,2 km/h (1 Bft)
05.03.2017 19:15 4,2 °C 4,3 °C 79 % 1002,1 hPa 0,0 mm 1,0 km/h (0 Bft) S 178 ° 0 min 0,000 mm 0,0 UV-I 0 W/m² 0,9 °C 4,2 °C 3,2 km/h (1 Bft)
05.03.2017 19:16 4,2 °C 4,2 °C 78 % 1002,1 hPa 0,0 mm 3,3 km/h (1 Bft) S 178 ° 0 min 0,000 mm 0,0 UV-I 0 W/m² 0,7 °C 4,2 °C 4,8 km/h (1 Bft)
05.03.2017 19:17 4,2 °C 4,2 °C 78 % 1002,2 hPa 0,0 mm 5,7 km/h (1 Bft) S 178 ° 0 min 0,000 mm 0,0 UV-I 0 W/m² 0,7 °C 2,9 °C 6,4 km/h (2 Bft)
05.03.2017 19:18 4,2 °C 4,2 °C 78 % 1002,3 hPa 0,0 mm 3,8 km/h (1 Bft) S 178 ° 0 min 0,000 mm 0,0 UV-I 0 W/m² 0,7 °C 4,2 °C 4,8 km/h (1 Bft)
05.03.2017 19:19 4,2 °C 4,2 °C 78 % 1002,3 hPa 0,0 mm 2,9 km/h (1 Bft) S 178 ° 0 min 0,000 mm 0,0 UV-I 0 W/m² 0,7 °C 4,2 °C 4,8 km/h (1 Bft)
05.03.2017 19:20 4,2 °C 4,2 °C 79 % 1002,3 hPa 0,0 mm 3,9 km/h (1 Bft) S 178 ° 0 min 0,000 mm 0,0 UV-I 0 W/m² 0,9 °C 4,2 °C 4,8 km/h (1 Bft)
05.03.2017 19:21 4,2 °C 4,2 °C 79 % 1002,3 hPa 0,0 mm 2,6 km/h (1 Bft) S 178 ° 0 min 0,000 mm 0,0 UV-I 0 W/m² 0,9 °C 4,2 °C 4,8 km/h (1 Bft)
05.03.2017 19:22 4,2 °C 4,2 °C 79 % 1002,3 hPa 0,0 mm 1,5 km/h (1 Bft) S 178 ° 0 min 0,000 mm 0,0 UV-I 0 W/m² 0,9 °C 4,2 °C 1,6 km/h (1 Bft)
05.03.2017 19:23 4,1 °C 4,2 °C 79 % 1002,3 hPa 0,0 mm 1,6 km/h (1 Bft) S 178 ° 0 min 0,000 mm 0,0 UV-I 0 W/m² 0,8 °C 4,1 °C 3,2 km/h (1 Bft)
05.03.2017 19:24 4,1 °C 4,1 °C 80 % 1002,3 hPa 0,0 mm 0,5 km/h (0 Bft) S 178 ° 0 min 0,000 mm 0,0 UV-I 0 W/m² 1,0 °C 4,1 °C 1,6 km/h (1 Bft)
05.03.2017 19:25 4,1 °C 4,1 °C 79 % 1002,3 hPa 0,0 mm 2,7 km/h (1 Bft) S 178 ° 0 min 0,000 mm 0,0 UV-I 0 W/m² 0,8 °C 4,1 °C 3,2 km/h (1 Bft)
05.03.2017 19:26 4,1 °C 4,1 °C 79 % 1002,3 hPa 0,0 mm 1,3 km/h (1 Bft) S 178 ° 0 min 0,000 mm 0,0 UV-I 0 W/m² 0,8 °C 4,1 °C 3,2 km/h (1 Bft)
05.03.2017 19:27 4,1 °C 4,1 °C 80 % 1002,3 hPa 0,0 mm 0,9 km/h (0 Bft) S 178 ° 0 min 0,000 mm 0,0 UV-I 0 W/m² 1,0 °C 4,1 °C 1,6 km/h (1 Bft)
05.03.2017 19:28 4,1 °C 4,1 °C 80 % 1002,3 hPa 0,0 mm 0,6 km/h (0 Bft) S 178 ° 0 min 0,000 mm 0,0 UV-I 0 W/m² 1,0 °C 4,1 °C 1,6 km/h (1 Bft)
05.03.2017 19:29 4,0 °C 4,1 °C 80 % 1002,3 hPa 0,0 mm 1,1 km/h (1 Bft) S 178 ° 0 min 0,000 mm 0,0 UV-I 0 W/m² 0,9 °C 4,0 °C 3,2 km/h (1 Bft)
05.03.2017 19:30 4,0 °C 4,0 °C 80 % 1002,4 hPa 0,0 mm 0,7 km/h (0 Bft) S 178 ° 0 min 0,000 mm 0,0 UV-I 0 W/m² 0,9 °C 4,0 °C 1,6 km/h (1 Bft)
05.03.2017 19:31 4,0 °C 4,0 °C 80 % 1002,5 hPa 0,0 mm 3,2 km/h (1 Bft) S 178 ° 0 min 0,000 mm 0,0 UV-I 0 W/m² 0,9 °C 4,0 °C 4,8 km/h (1 Bft)
05.03.2017 19:32 4,1 °C 4,1 °C 80 % 1002,5 hPa 0,0 mm 3,7 km/h (1 Bft) S 180 ° 0 min 0,000 mm 0,0 UV-I 0 W/m² 1,0 °C 4,1 °C 6,4 km/h (2 Bft)
05.03.2017 19:33 4,2 °C 4,2 °C 79 % 1002,5 hPa 0,0 mm 3,4 km/h (1 Bft) S-SW 193 ° 0 min 0,000 mm 0,0 UV-I 0 W/m² 0,9 °C 4,2 °C 6,4 km/h (2 Bft)
05.03.2017 19:34 4,3 °C 4,3 °C 79 % 1002,5 hPa 0,0 mm 6,1 km/h (2 Bft) S-SW 195 ° 0 min 0,000 mm 0,0 UV-I 0 W/m² 1,0 °C 2,9 °C 8,0 km/h (2 Bft)
05.03.2017 19:35 4,3 °C 4,3 °C 78 % 1002,5 hPa 0,0 mm 7,8 km/h (2 Bft) S-SW 208 ° 0 min 0,000 mm 0,0 UV-I 0 W/m² 0,8 °C 2,4 °C 9,7 km/h (2 Bft)
05.03.2017 19:36 4,4 °C 4,4 °C 78 % 1002,6 hPa 0,0 mm 4,2 km/h (1 Bft) S-SW 208 ° 0 min 0,000 mm 0,0 UV-I 0 W/m² 0,9 °C 4,4 °C 6,4 km/h (2 Bft)
05.03.2017 19:37 4,5 °C 4,5 °C 78 % 1002,6 hPa 0,0 mm 3,3 km/h (1 Bft) S-SW 209 ° 0 min 0,000 mm 0,0 UV-I 0 W/m² 1,0 °C 4,5 °C 4,8 km/h (1 Bft)
05.03.2017 19:38 4,5 °C 4,5 °C 78 % 1002,8 hPa 0,0 mm 5,7 km/h (1 Bft) W 264 ° 0 min 0,000 mm 0,0 UV-I 0 W/m² 1,0 °C 3,3 °C 9,7 km/h (2 Bft)
05.03.2017 19:39 4,6 °C 4,6 °C 78 % 1002,8 hPa 0,0 mm 5,2 km/h (1 Bft) W 276 ° 0 min 0,000 mm 0,0 UV-I 0 W/m² 1,1 °C 3,6 °C 6,4 km/h (2 Bft)
05.03.2017 19:40 4,5 °C 4,6 °C 78 % 1002,8 hPa 0,0 mm 4,5 km/h (1 Bft) W-SW 254 ° 0 min 0,000 mm 0,0 UV-I 0 W/m² 1,0 °C 4,5 °C 6,4 km/h (2 Bft)
05.03.2017 19:41 4,5 °C 4,5 °C 78 % 1002,8 hPa 0,0 mm 5,3 km/h (1 Bft) W-SW 248 ° 0 min 0,000 mm 0,0 UV-I 0 W/m² 1,0 °C 3,4 °C 8,0 km/h (2 Bft)
05.03.2017 19:42 4,4 °C 4,5 °C 79 % 1002,9 hPa 0,0 mm 6,2 km/h (2 Bft) SW 230 ° 0 min 0,000 mm 0,0 UV-I 0 W/m² 1,1 °C 3,0 °C 8,0 km/h (2 Bft)
05.03.2017 19:43 4,4 °C 4,4 °C 78 % 1003,0 hPa 0,0 mm 5,0 km/h (1 Bft) W-SW 257 ° 0 min 0,000 mm 0,0 UV-I 0 W/m² 0,9 °C 3,4 °C 6,4 km/h (2 Bft)
05.03.2017 19:44 4,3 °C 4,4 °C 78 % 1003,0 hPa 0,0 mm 5,7 km/h (1 Bft) W-SW 254 ° 0 min 0,000 mm 0,0 UV-I 0 W/m² 0,8 °C 3,0 °C 8,0 km/h (2 Bft)
05.03.2017 19:45 4,4 °C 4,4 °C 78 % 1003,1 hPa 0,0 mm 9,4 km/h (2 Bft) W 269 ° 0 min 0,000 mm 0,0 UV-I 0 W/m² 0,9 °C 2,1 °C 12,9 km/h (3 Bft)
05.03.2017 19:46 4,4 °C 4,4 °C 78 % 1003,1 hPa 0,0 mm 10,8 km/h (2 Bft) W 269 ° 0 min 0,000 mm 0,0 UV-I 0 W/m² 0,9 °C 1,8 °C 14,5 km/h (3 Bft)
05.03.2017 19:47 4,4 °C 4,4 °C 78 % 1003,1 hPa 0,0 mm 11,7 km/h (2 Bft) W 277 ° 0 min 0,000 mm 0,0 UV-I 0 W/m² 0,9 °C 1,6 °C 17,7 km/h (3 Bft)
05.03.2017 19:48 4,5 °C 4,5 °C 79 % 1003,2 hPa 0,0 mm 12,3 km/h (3 Bft) W-SW 250 ° 0 min 0,000 mm 0,0 UV-I 0 W/m² 1,2 °C 1,6 °C 19,3 km/h (3 Bft)
05.03.2017 19:49 4,5 °C 4,5 °C 79 % 1003,3 hPa 0,0 mm 11,3 km/h (2 Bft) W-NW 290 ° 0 min 0,000 mm 0,0 UV-I 0 W/m² 1,2 °C 1,8 °C 19,3 km/h (3 Bft)
05.03.2017 19:50 4,6 °C 4,6 °C 79 % 1003,2 hPa 0,0 mm 10,5 km/h (2 Bft) W 275 ° 0 min 0,000 mm 0,0 UV-I 0 W/m² 1,3 °C 2,1 °C 17,7 km/h (3 Bft)
05.03.2017 19:51 4,6 °C 4,6 °C 79 % 1003,3 hPa 0,0 mm 12,9 km/h (3 Bft) W-SW 254 ° 0 min 0,000 mm 0,0 UV-I 0 W/m² 1,3 °C 1,6 °C 20,9 km/h (4 Bft)
05.03.2017 19:52 4,6 °C 4,6 °C 79 % 1003,3 hPa 0,2 mm 20,8 km/h (4 Bft) W-SW 255 ° 0 min 0,000 mm 0,0 UV-I 0 W/m² 1,3 °C 0,5 °C 33,8 km/h (5 Bft)
05.03.2017 19:53 4,6 °C 4,6 °C 79 % 1003,4 hPa 0,0 mm 19,2 km/h (3 Bft) W 275 ° 0 min 0,000 mm 0,0 UV-I 0 W/m² 1,3 °C 0,7 °C 25,7 km/h (4 Bft)
05.03.2017 19:54 4,6 °C 4,6 °C 79 % 1003,5 hPa 0,0 mm 19,8 km/h (3 Bft) W 269 ° 0 min 0,000 mm 0,0 UV-I 0 W/m² 1,3 °C 0,6 °C 25,7 km/h (4 Bft)
05.03.2017 19:55 4,6 °C 4,6 °C 80 % 1003,7 hPa 0,0 mm 14,1 km/h (3 Bft) W-SW 250 ° 0 min 0,000 mm 0,0 UV-I 0 W/m² 1,5 °C 1,4 °C 19,3 km/h (3 Bft)
05.03.2017 19:56 4,5 °C 4,6 °C 81 % 1003,8 hPa 0,0 mm 20,3 km/h (4 Bft) W 262 ° 0 min 0,000 mm 0,0 UV-I 0 W/m² 1,5 °C 0,4 °C 29,0 km/h (5 Bft)
05.03.2017 19:57 4,4 °C 4,5 °C 82 % 1003,9 hPa 0,0 mm 21,6 km/h (4 Bft) W-SW 258 ° 0 min 0,000 mm 0,0 UV-I 0 W/m² 1,6 °C 0,1 °C 30,6 km/h (5 Bft)
05.03.2017 19:58 4,3 °C 4,4 °C 82 % 1003,9 hPa 0,2 mm 20,6 km/h (4 Bft) W-NW 301 ° 0 min 0,000 mm 0,0 UV-I 0 W/m² 1,5 °C 0,1 °C 30,6 km/h (5 Bft)
05.03.2017 19:59 4,1 °C 4,3 °C 82 % 1004,0 hPa 0,0 mm 16,1 km/h (3 Bft) W-SW 247 ° 0 min 0,000 mm 0,0 UV-I 0 W/m² 1,3 °C 0,5 °C 22,5 km/h (4 Bft)
05.03.2017 20:00 3,9 °C 4,1 °C 82 % 1004,0 hPa 0,2 mm 11,9 km/h (2 Bft) W 270 ° 0 min 0,000 mm 0,0 UV-I 0 W/m² 1,1 °C 0,9 °C 17,7 km/h (3 Bft)
05.03.2017 20:01 3,8 °C 3,9 °C 82 % 1004,0 hPa 0,0 mm 12,1 km/h (2 Bft) W 273 ° 0 min 0,026 mm 0,0 UV-I 0 W/m² 1,0 °C 0,8 °C 25,7 km/h (4 Bft)
05.03.2017 20:02 3,6 °C 3,8 °C 83 % 1004,0 hPa 0,2 mm 15,0 km/h (3 Bft) W 273 ° 0 min 0,000 mm 0,0 UV-I 0 W/m² 1,0 °C 0,0 °C 20,9 km/h (4 Bft)
05.03.2017 20:03 3,4 °C 3,6 °C 84 % 1004,0 hPa 0,2 mm 11,1 km/h (2 Bft) W 263 ° 0 min 0,000 mm 0,0 UV-I 0 W/m² 1,0 °C 0,5 °C 17,7 km/h (3 Bft)
05.03.2017 20:04 3,2 °C 3,4 °C 84 % 1003,9 hPa 0,2 mm 7,2 km/h (2 Bft) W-SW 240 ° 0 min 0,000 mm 0,0 UV-I 0 W/m² 0,8 °C 1,3 °C 11,3 km/h (2 Bft)
05.03.2017 20:05 3,0 °C 3,2 °C 85 % 1003,9 hPa 0,2 mm 5,1 km/h (1 Bft) W-SW 243 ° 0 min 0,000 mm 0,0 UV-I 0 W/m² 0,7 °C 1,8 °C 9,7 km/h (2 Bft)
05.03.2017 20:06 2,9 °C 3,0 °C 86 % 1003,9 hPa 0,2 mm 11,2 km/h (2 Bft) SW 224 ° 0 min 0,000 mm 0,0 UV-I 0 W/m² 0,8 °C -0,1 °C 14,5 km/h (3 Bft)
05.03.2017 20:07 2,8 °C 2,9 °C 86 % 1003,9 hPa 0,2 mm 13,3 km/h (3 Bft) S-SW 213 ° 0 min 0,000 mm 0,0 UV-I 0 W/m² 0,7 °C -0,7 °C 17,7 km/h (3 Bft)
05.03.2017 20:08 2,8 °C 2,8 °C 87 % 1003,8 hPa 0,0 mm 6,3 km/h (2 Bft) SW 228 ° 0 min 0,000 mm 0,0 UV-I 0 W/m² 0,9 °C 1,1 °C 9,7 km/h (2 Bft)
05.03.2017 20:09 2,7 °C 2,8 °C 87 % 1003,8 hPa 0,2 mm 5,7 km/h (1 Bft) SW 225 ° 0 min 0,000 mm 0,0 UV-I 0 W/m² 0,8 °C 1,2 °C 8,0 km/h (2 Bft)
05.03.2017 20:10 2,7 °C 2,7 °C 88 % 1003,9 hPa 0,0 mm 8,0 km/h (2 Bft) W-SW 245 ° 0 min 0,000 mm 0,0 UV-I 0 W/m² 0,9 °C 0,4 °C 14,5 km/h (3 Bft)
05.03.2017 20:11 2,7 °C 2,7 °C 88 % 1003,9 hPa 0,2 mm 8,4 km/h (2 Bft) SW 229 ° 0 min 0,000 mm 0,0 UV-I 0 W/m² 0,9 °C 0,3 °C 12,9 km/h (3 Bft)
05.03.2017 20:12 2,7 °C 2,7 °C 88 % 1003,8 hPa 0,0 mm 6,1 km/h (2 Bft) W-SW 242 ° 0 min 0,000 mm 0,0 UV-I 0 W/m² 0,9 °C 1,0 °C 8,0 km/h (2 Bft)
05.03.2017 20:13 2,6 °C 2,7 °C 88 % 1003,8 hPa 0,0 mm 7,2 km/h (2 Bft) SW 229 ° 0 min 0,000 mm 0,0 UV-I 0 W/m² 0,8 °C 0,6 °C 14,5 km/h (3 Bft)
05.03.2017 20:14 2,6 °C 2,6 °C 88 % 1003,8 hPa 0,0 mm 6,6 km/h (2 Bft) SW 225 ° 0 min 0,000 mm 0,0 UV-I 0 W/m² 0,8 °C 0,8 °C 11,3 km/h (2 Bft)
05.03.2017 20:15 2,5 °C 2,6 °C 89 % 1003,8 hPa 0,0 mm 4,3 km/h (1 Bft) W-SW 238 ° 0 min 0,000 mm 0,0 UV-I 0 W/m² 0,9 °C 2,5 °C 6,4 km/h (2 Bft)
05.03.2017 20:16 2,4 °C 2,5 °C 89 % 1003,7 hPa 0,0 mm 5,8 km/h (2 Bft) W 266 ° 0 min 0,000 mm 0,0 UV-I 0 W/m² 0,8 °C 0,8 °C 11,3 km/h (2 Bft)
05.03.2017 20:17 2,4 °C 2,4 °C 89 % 1003,7 hPa 0,0 mm 3,2 km/h (1 Bft) W 275 ° 0 min 0,000 mm 0,0 UV-I 0 W/m² 0,8 °C 2,4 °C 4,8 km/h (1 Bft)
05.03.2017 20:18 2,4 °C 2,4 °C 89 % 1003,6 hPa 0,0 mm 2,2 km/h (1 Bft) W-SW 250 ° 0 min 0,000 mm 0,0 UV-I 0 W/m² 0,8 °C 2,4 °C 4,8 km/h (1 Bft)
05.03.2017 20:19 2,3 °C 2,4 °C 89 % 1003,5 hPa 0,2 mm 2,6 km/h (1 Bft) W-SW 250 ° 0 min 0,000 mm 0,0 UV-I 0 W/m² 0,7 °C 2,3 °C 4,8 km/h (1 Bft)
05.03.2017 20:20 2,3 °C 2,3 °C 89 % 1003,5 hPa 0,0 mm 4,4 km/h (1 Bft) W-SW 248 ° 0 min 0,000 mm 0,0 UV-I 0 W/m² 0,7 °C 2,3 °C 6,4 km/h (2 Bft)
05.03.2017 20:21 2,2 °C 2,3 °C 90 % 1003,5 hPa 0,0 mm 4,8 km/h (1 Bft) W-SW 239 ° 0 min 0,000 mm 0,0 UV-I 0 W/m² 0,7 °C 1,0 °C 8,0 km/h (2 Bft)
05.03.2017 20:22 2,2 °C 2,2 °C 90 % 1003,5 hPa 0,0 mm 2,7 km/h (1 Bft) W-SW 252 ° 0 min 0,000 mm 0,0 UV-I 0 W/m² 0,7 °C 2,2 °C 6,4 km/h (2 Bft)
05.03.2017 20:23 2,2 °C 2,2 °C 90 % 1003,5 hPa 0,0 mm 3,9 km/h (1 Bft) SW 228 ° 0 min 0,000 mm 0,0 UV-I 0 W/m² 0,7 °C 2,2 °C 6,4 km/h (2 Bft)
05.03.2017 20:24 2,2 °C 2,2 °C 90 % 1003,6 hPa 0,0 mm 4,6 km/h (1 Bft) S-SW 205 ° 0 min 0,000 mm 0,0 UV-I 0 W/m² 0,7 °C 1,1 °C 11,3 km/h (2 Bft)
05.03.2017 20:25 2,2 °C 2,3 °C 90 % 1003,6 hPa 0,0 mm 4,2 km/h (1 Bft) W-SW 246 ° 0 min 0,000 mm 0,0 UV-I 0 W/m² 0,7 °C 2,2 °C 6,4 km/h (2 Bft)
05.03.2017 20:26 2,3 °C 2,3 °C 90 % 1003,6 hPa 0,0 mm 6,0 km/h (2 Bft) SW 217 ° 0 min 0,000 mm 0,0 UV-I 0 W/m² 0,8 °C 0,6 °C 9,7 km/h (2 Bft)
05.03.2017 20:27 2,2 °C 2,3 °C 90 % 1003,7 hPa 0,0 mm 3,6 km/h (1 Bft) SW 220 ° 0 min 0,000 mm 0,0 UV-I 0 W/m² 0,7 °C 2,2 °C 4,8 km/h (1 Bft)
05.03.2017 20:28 2,2 °C 2,3 °C 90 % 1003,7 hPa 0,0 mm 4,0 km/h (1 Bft) SW 227 ° 0 min 0,000 mm 0,0 UV-I 0 W/m² 0,7 °C 2,2 °C 6,4 km/h (2 Bft)
05.03.2017 20:29 2,2 °C 2,2 °C 90 % 1003,7 hPa 0,0 mm 5,8 km/h (2 Bft) W 261 ° 0 min 0,000 mm 0,0 UV-I 0 W/m² 0,7 °C 0,6 °C 9,7 km/h (2 Bft)
05.03.2017 20:30 2,2 °C 2,2 °C 90 % 1003,7 hPa 0,0 mm 5,8 km/h (2 Bft) W-SW 242 ° 0 min 0,000 mm 0,0 UV-I 0 W/m² 0,7 °C 0,6 °C 9,7 km/h (2 Bft)
05.03.2017 20:31 2,3 °C 2,3 °C 91 % 1003,7 hPa 0,0 mm 5,1 km/h (1 Bft) W-SW 257 ° 0 min 0,000 mm 0,0 UV-I 0 W/m² 1,0 °C 1,0 °C 6,4 km/h (2 Bft)
05.03.2017 20:32 2,2 °C 2,3 °C 91 % 1003,8 hPa 0,0 mm 7,3 km/h (2 Bft) W-SW 254 ° 0 min 0,000 mm 0,0 UV-I 0 W/m² 0,9 °C 0,1 °C 9,7 km/h (2 Bft)
05.03.2017 20:33 2,2 °C 2,3 °C 91 % 1003,7 hPa 0,0 mm 8,3 km/h (2 Bft) W 263 ° 0 min 0,000 mm 0,0 UV-I 0 W/m² 0,9 °C -0,2 °C 12,9 km/h (3 Bft)
05.03.2017 20:34 2,3 °C 2,3 °C 91 % 1003,7 hPa 0,0 mm 7,2 km/h (2 Bft) W 259 ° 0 min 0,000 mm 0,0 UV-I 0 W/m² 1,0 °C 0,2 °C 11,3 km/h (2 Bft)
05.03.2017 20:35 2,3 °C 2,3 °C 91 % 1003,8 hPa 0,0 mm 8,1 km/h (2 Bft) W 263 ° 0 min 0,000 mm 0,0 UV-I 0 W/m² 1,0 °C -0,1 °C 11,3 km/h (2 Bft)
05.03.2017 20:36 2,3 °C 2,3 °C 91 % 1003,8 hPa 0,0 mm 7,4 km/h (2 Bft) W 279 ° 0 min 0,000 mm 0,0 UV-I 0 W/m² 1,0 °C 0,1 °C 11,3 km/h (2 Bft)
05.03.2017 20:37 2,3 °C 2,3 °C 91 % 1003,9 hPa 0,0 mm 7,6 km/h (2 Bft) W-SW 254 ° 0 min 0,000 mm 0,0 UV-I 0 W/m² 1,0 °C 0,1 °C 12,9 km/h (3 Bft)
05.03.2017 20:38 2,3 °C 2,3 °C 91 % 1004,0 hPa 0,0 mm 9,7 km/h (2 Bft) W-NW 287 ° 0 min 0,000 mm 0,0 UV-I 0 W/m² 1,0 °C -0,5 °C 14,5 km/h (3 Bft)
05.03.2017 20:39 2,4 °C 2,4 °C 91 % 1004,1 hPa 0,0 mm 10,8 km/h (2 Bft) W 278 ° 0 min 0,000 mm 0,0 UV-I 0 W/m² 1,1 °C -0,6 °C 19,3 km/h (3 Bft)
05.03.2017 20:40 2,4 °C 2,4 °C 91 % 1004,2 hPa 0,0 mm 13,6 km/h (3 Bft) W-SW 242 ° 0 min 0,000 mm 0,0 UV-I 0 W/m² 1,1 °C -1,2 °C 20,9 km/h (4 Bft)
05.03.2017 20:41 2,4 °C 2,4 °C 91 % 1004,4 hPa 0,0 mm 14,7 km/h (3 Bft) W-SW 250 ° 0 min 0,000 mm 0,0 UV-I 0 W/m² 1,1 °C -1,4 °C 22,5 km/h (4 Bft)
05.03.2017 20:42 2,4 °C 2,4 °C 92 % 1004,5 hPa 0,0 mm 15,7 km/h (3 Bft) W-SW 255 ° 0 min 0,000 mm 0,0 UV-I 0 W/m² 1,2 °C -1,6 °C 19,3 km/h (3 Bft)
05.03.2017 20:43 2,5 °C 2,5 °C 92 % 1004,6 hPa 0,0 mm 12,2 km/h (2 Bft) W-SW 257 ° 0 min 0,000 mm 0,0 UV-I 0 W/m² 1,3 °C -0,8 °C 14,5 km/h (3 Bft)
05.03.2017 20:44 2,5 °C 2,5 °C 92 % 1004,7 hPa 0,0 mm 11,1 km/h (2 Bft) W-SW 252 ° 0 min 0,000 mm 0,0 UV-I 0 W/m² 1,3 °C -0,6 °C 14,5 km/h (3 Bft)
05.03.2017 20:45 2,6 °C 2,6 °C 92 % 1004,7 hPa 0,2 mm 14,4 km/h (3 Bft) W 278 ° 0 min 0,000 mm 0,0 UV-I 0 W/m² 1,4 °C -1,1 °C 29,0 km/h (5 Bft)
05.03.2017 20:46 2,6 °C 2,6 °C 91 % 1004,6 hPa 0,2 mm 17,8 km/h (3 Bft) W-NW 300 ° 0 min 0,000 mm 0,0 UV-I 0 W/m² 1,3 °C -1,7 °C 24,1 km/h (4 Bft)
05.03.2017 20:47 2,6 °C 2,6 °C 91 % 1004,6 hPa 0,0 mm 11,8 km/h (2 Bft) W 279 ° 0 min 0,000 mm 0,0 UV-I 0 W/m² 1,3 °C -0,6 °C 20,9 km/h (4 Bft)
05.03.2017 20:48 2,5 °C 2,6 °C 91 % 1004,6 hPa 0,2 mm 16,9 km/h (3 Bft) W-SW 243 ° 0 min 0,000 mm 0,0 UV-I 0 W/m² 1,2 °C -1,6 °C 25,7 km/h (4 Bft)
05.03.2017 20:49 2,5 °C 2,5 °C 91 % 1004,7 hPa 0,0 mm 17,1 km/h (3 Bft) W 270 ° 0 min 0,000 mm 0,0 UV-I 0 W/m² 1,2 °C -1,7 °C 27,4 km/h (4 Bft)
05.03.2017 20:50 2,4 °C 2,5 °C 90 % 1004,7 hPa 0,2 mm 19,6 km/h (3 Bft) W-SW 248 ° 0 min 0,000 mm 0,0 UV-I 0 W/m² 0,9 °C -2,2 °C 27,4 km/h (4 Bft)
05.03.2017 20:51 2,3 °C 2,4 °C 90 % 1004,6 hPa 0,0 mm 17,0 km/h (3 Bft) W 276 ° 0 min 0,000 mm 0,0 UV-I 0 W/m² 0,8 °C -1,9 °C 24,1 km/h (4 Bft)
05.03.2017 20:52 2,2 °C 2,3 °C 90 % 1004,4 hPa 0,0 mm 12,8 km/h (3 Bft) SW 234 ° 0 min 0,000 mm 0,0 UV-I 0 W/m² 0,7 °C -1,3 °C 16,1 km/h (3 Bft)
05.03.2017 20:53 2,1 °C 2,2 °C 89 % 1004,2 hPa 0,2 mm 6,9 km/h (2 Bft) W 276 ° 0 min 0,000 mm 0,0 UV-I 0 W/m² 0,5 °C 0,1 °C 11,3 km/h (2 Bft)
05.03.2017 20:54 1,9 °C 2,1 °C 89 % 1004,0 hPa 0,0 mm 4,5 km/h (1 Bft) SW 214 ° 0 min 0,000 mm 0,0 UV-I 0 W/m² 0,3 °C 1,9 °C 8,0 km/h (2 Bft)
05.03.2017 20:55 1,8 °C 1,9 °C 89 % 1004,0 hPa 0,0 mm 2,3 km/h (1 Bft) S 181 ° 0 min 0,000 mm 0,0 UV-I 0 W/m² 0,2 °C 1,8 °C 4,8 km/h (1 Bft)
05.03.2017 20:56 1,7 °C 1,8 °C 90 % 1003,9 hPa 0,0 mm 3,4 km/h (1 Bft) S 191 ° 0 min 0,000 mm 0,0 UV-I 0 W/m² 0,2 °C 1,7 °C 4,8 km/h (1 Bft)
05.03.2017 20:57 1,7 °C 1,7 °C 90 % 1003,9 hPa 0,0 mm 4,2 km/h (1 Bft) S-SW 211 ° 0 min 0,000 mm 0,0 UV-I 0 W/m² 0,2 °C 1,7 °C 8,0 km/h (2 Bft)
05.03.2017 20:58 1,7 °C 1,7 °C 91 % 1003,8 hPa 0,0 mm 6,2 km/h (2 Bft) W-SW 241 ° 0 min 0,000 mm 0,0 UV-I 0 W/m² 0,4 °C -0,1 °C 12,9 km/h (3 Bft)
05.03.2017 20:59 1,7 °C 1,7 °C 91 % 1003,8 hPa 0,0 mm 5,4 km/h (1 Bft) S-SW 209 ° 0 min 0,000 mm 0,0 UV-I 0 W/m² 0,4 °C 0,2 °C 8,0 km/h (2 Bft)
05.03.2017 21:00 1,7 °C 1,7 °C 91 % 1003,7 hPa 0,0 mm 5,0 km/h (1 Bft) W-SW 248 ° 0 min 0,000 mm 0,0 UV-I 0 W/m² 0,4 °C 0,3 °C 8,0 km/h (2 Bft)
05.03.2017 21:01 1,7 °C 1,7 °C 91 % 1003,7 hPa 0,0 mm 3,4 km/h (1 Bft) W-SW 252 ° 0 min 0,000 mm 0,0 UV-I 0 W/m² 0,4 °C 1,7 °C 4,8 km/h (1 Bft)
05.03.2017 21:02 1,7 °C 1,7 °C 91 % 1003,7 hPa 0,0 mm 2,5 km/h (1 Bft) W-SW 252 ° 0 min 0,000 mm 0,0 UV-I 0 W/m² 0,4 °C 1,7 °C 4,8 km/h (1 Bft)
05.03.2017 21:03 1,7 °C 1,7 °C 91 % 1003,7 hPa 0,0 mm 4,8 km/h (1 Bft) SW 229 ° 0 min 0,000 mm 0,0 UV-I 0 W/m² 0,4 °C 0,4 °C 6,4 km/h (2 Bft)
05.03.2017 21:04 1,7 °C 1,7 °C 91 % 1003,7 hPa 0,0 mm 3,2 km/h (1 Bft) W-SW 254 ° 0 min 0,000 mm 0,0 UV-I 0 W/m² 0,4 °C 1,7 °C 6,4 km/h (2 Bft)
05.03.2017 21:05 1,7 °C 1,7 °C 91 % 1003,7 hPa 0,0 mm 3,5 km/h (1 Bft) SW 236 ° 0 min 0,000 mm 0,0 UV-I 0 W/m² 0,4 °C 1,7 °C 6,4 km/h (2 Bft)
05.03.2017 21:06 1,7 °C 1,7 °C 91 % 1003,6 hPa 0,0 mm 2,4 km/h (1 Bft) SW 236 ° 0 min 0,000 mm 0,0 UV-I 0 W/m² 0,4 °C 1,7 °C 4,8 km/h (1 Bft)
05.03.2017 21:07 1,7 °C 1,7 °C 91 % 1003,6 hPa 0,0 mm 1,3 km/h (1 Bft) SW 236 ° 0 min 0,000 mm 0,0 UV-I 0 W/m² 0,4 °C 1,7 °C 1,6 km/h (1 Bft)
05.03.2017 21:08 1,7 °C 1,7 °C 91 % 1003,6 hPa 0,0 mm 3,4 km/h (1 Bft) S-SW 211 ° 0 min 0,000 mm 0,0 UV-I 0 W/m² 0,4 °C 1,7 °C 6,4 km/h (2 Bft)
05.03.2017 21:09 1,6 °C 1,7 °C 91 % 1003,5 hPa 0,0 mm 1,5 km/h (1 Bft) S-SW 211 ° 0 min 0,000 mm 0,0 UV-I 0 W/m² 0,3 °C 1,6 °C 3,2 km/h (1 Bft)
05.03.2017 21:10 1,6 °C 1,6 °C 91 % 1003,4 hPa 0,0 mm 0,1 km/h (0 Bft) S-SW 211 ° 0 min 0,000 mm 0,0 UV-I 0 W/m² 0,3 °C 1,6 °C 1,6 km/h (1 Bft)
05.03.2017 21:11 1,5 °C 1,6 °C 91 % 1003,4 hPa 0,0 mm 0,2 km/h (0 Bft) S-SW 211 ° 0 min 0,000 mm 0,0 UV-I 0 W/m² 0,2 °C 1,5 °C 1,6 km/h (1 Bft)
05.03.2017 21:12 1,5 °C 1,5 °C 91 % 1003,3 hPa 0,0 mm 1,1 km/h (1 Bft) S-SW 211 ° 0 min 0,000 mm 0,0 UV-I 0 W/m² 0,2 °C 1,5 °C 3,2 km/h (1 Bft)
05.03.2017 21:13 1,4 °C 1,5 °C 91 % 1003,2 hPa 0,0 mm 1,9 km/h (1 Bft) S-SW 211 ° 0 min 0,000 mm 0,0 UV-I 0 W/m² 0,1 °C 1,4 °C 3,2 km/h (1 Bft)
05.03.2017 21:14 1,4 °C 1,4 °C 91 % 1003,2 hPa 0,0 mm 0,6 km/h (0 Bft) S-SW 211 ° 0 min 0,000 mm 0,0 UV-I 0 W/m² 0,1 °C 1,4 °C 1,6 km/h (1 Bft)
05.03.2017 21:15 1,3 °C 1,4 °C 92 % 1003,3 hPa 0,0 mm 0,1 km/h (0 Bft) S-SW 211 ° 0 min 0,000 mm 0,0 UV-I 0 W/m² 0,1 °C 1,3 °C 1,6 km/h (1 Bft)
05.03.2017 21:16 1,3 °C 1,3 °C 92 % 1003,2 hPa 0,0 mm 0,0 km/h (0 Bft) S-SW 211 ° 0 min 0,000 mm 0,0 UV-I 0 W/m² 0,1 °C 1,3 °C 0,0 km/h (0 Bft)
05.03.2017 21:17 1,3 °C 1,3 °C 91 % 1003,2 hPa 0,0 mm 0,0 km/h (0 Bft) S-SW 211 ° 0 min 0,000 mm 0,0 UV-I 0 W/m² -0,0 °C 1,3 °C 0,0 km/h (0 Bft)
05.03.2017 21:18 1,2 °C 1,3 °C 92 % 1003,1 hPa 0,0 mm 0,7 km/h (0 Bft) S-SW 211 ° 0 min 0,000 mm 0,0 UV-I 0 W/m² 0,0 °C 1,2 °C 3,2 km/h (1 Bft)
05.03.2017 21:19 1,2 °C 1,2 °C 92 % 1003,0 hPa 0,0 mm 3,8 km/h (1 Bft) S 178 ° 0 min 0,000 mm 0,0 UV-I 0 W/m² 0,0 °C 1,2 °C 4,8 km/h (1 Bft)
05.03.2017 21:20 1,2 °C 1,2 °C 92 % 1002,9 hPa 0,0 mm 1,5 km/h (1 Bft) S 178 ° 0 min 0,000 mm 0,0 UV-I 0 W/m² 0,0 °C 1,2 °C 3,2 km/h (1 Bft)
05.03.2017 21:21 1,2 °C 1,2 °C 92 % 1003,0 hPa 0,0 mm 0,2 km/h (0 Bft) S 178 ° 0 min 0,000 mm 0,0 UV-I 0 W/m² 0,0 °C 1,2 °C 1,6 km/h (1 Bft)
05.03.2017 21:22 1,2 °C 1,2 °C 92 % 1003,0 hPa 0,0 mm 0,0 km/h (0 Bft) S 178 ° 0 min 0,000 mm 0,0 UV-I 0 W/m² 0,0 °C 1,2 °C 0,0 km/h (0 Bft)
05.03.2017 21:23 1,2 °C 1,2 °C 92 % 1003,0 hPa 0,0 mm 0,1 km/h (0 Bft) S 178 ° 0 min 0,000 mm 0,0 UV-I 0 W/m² 0,0 °C 1,2 °C 1,6 km/h (1 Bft)
05.03.2017 21:24 1,2 °C 1,2 °C 92 % 1003,0 hPa 0,0 mm 0,5 km/h (0 Bft) S 178 ° 0 min 0,000 mm 0,0 UV-I 0 W/m² 0,0 °C 1,2 °C 1,6 km/h (1 Bft)
05.03.2017 21:25 1,1 °C 1,2 °C 92 % 1003,0 hPa 0,0 mm 0,6 km/h (0 Bft) S 178 ° 0 min 0,000 mm 0,0 UV-I 0 W/m² -0,1 °C 1,1 °C 3,2 km/h (1 Bft)
05.03.2017 21:26 1,2 °C 1,2 °C 92 % 1002,9 hPa 0,0 mm 2,3 km/h (1 Bft) S 178 ° 0 min 0,000 mm 0,0 UV-I 0 W/m² 0,0 °C 1,2 °C 3,2 km/h (1 Bft)
05.03.2017 21:27 1,2 °C 1,2 °C 93 % 1003,0 hPa 0,0 mm 1,7 km/h (1 Bft) S 178 ° 0 min 0,000 mm 0,0 UV-I 0 W/m² 0,2 °C 1,2 °C 3,2 km/h (1 Bft)
05.03.2017 21:28 1,1 °C 1,2 °C 93 % 1002,9 hPa 0,0 mm 2,0 km/h (1 Bft) S 178 ° 0 min 0,000 mm 0,0 UV-I 0 W/m² 0,1 °C 1,1 °C 3,2 km/h (1 Bft)
05.03.2017 21:29 1,1 °C 1,1 °C 93 % 1003,0 hPa 0,0 mm 0,7 km/h (0 Bft) S 178 ° 0 min 0,000 mm 0,0 UV-I 0 W/m² 0,1 °C 1,1 °C 1,6 km/h (1 Bft)
05.03.2017 21:30 1,1 °C 1,1 °C 93 % 1002,9 hPa 0,0 mm 0,1 km/h (0 Bft) S 178 ° 0 min 0,000 mm 0,0 UV-I 0 W/m² 0,1 °C 1,1 °C 1,6 km/h (1 Bft)
05.03.2017 21:31 1,1 °C 1,1 °C 93 % 1003,0 hPa 0,0 mm 0,0 km/h (0 Bft) S 178 ° 0 min 0,000 mm 0,0 UV-I 0 W/m² 0,1 °C 1,1 °C 0,0 km/h (0 Bft)
05.03.2017 21:32 1,1 °C 1,1 °C 93 % 1003,0 hPa 0,0 mm 0,0 km/h (0 Bft) S 178 ° 0 min 0,000 mm 0,0 UV-I 0 W/m² 0,1 °C 1,1 °C 0,0 km/h (0 Bft)
05.03.2017 21:33 1,1 °C 1,1 °C 93 % 1003,0 hPa 0,0 mm 0,0 km/h (0 Bft) S 178 ° 0 min 0,000 mm 0,0 UV-I 0 W/m² 0,1 °C 1,1 °C 0,0 km/h (0 Bft)
05.03.2017 21:34 1,1 °C 1,1 °C 93 % 1003,0 hPa 0,0 mm 0,0 km/h (0 Bft) S 178 ° 0 min 0,000 mm 0,0 UV-I 0 W/m² 0,1 °C 1,1 °C 0,0 km/h (0 Bft)
05.03.2017 21:35 1,1 °C 1,1 °C 93 % 1003,0 hPa 0,0 mm 0,0 km/h (0 Bft) S 178 ° 0 min 0,000 mm 0,0 UV-I 0 W/m² 0,1 °C 1,1 °C 0,0 km/h (0 Bft)
05.03.2017 21:36 1,0 °C 1,1 °C 93 % 1002,9 hPa 0,0 mm 0,0 km/h (0 Bft) S 178 ° 0 min 0,000 mm 0,0 UV-I 0 W/m² -0,0 °C 1,0 °C 0,0 km/h (0 Bft)
05.03.2017 21:37 0,9 °C 1,0 °C 93 % 1002,9 hPa 0,0 mm 0,0 km/h (0 Bft) S 178 ° 0 min 0,000 mm 0,0 UV-I 0 W/m² -0,1 °C 0,9 °C 0,0 km/h (0 Bft)
05.03.2017 21:38 0,9 °C 0,9 °C 93 % 1002,9 hPa 0,0 mm 0,1 km/h (0 Bft) S 178 ° 0 min 0,000 mm 0,0 UV-I 0 W/m² -0,1 °C 0,9 °C 1,6 km/h (1 Bft)
05.03.2017 21:39 0,8 °C 0,9 °C 93 % 1002,8 hPa 0,0 mm 0,9 km/h (0 Bft) S 178 ° 0 min 0,000 mm 0,0 UV-I 0 W/m² -0,2 °C 0,8 °C 1,6 km/h (1 Bft)
05.03.2017 21:40 0,8 °C 0,8 °C 93 % 1002,8 hPa 0,0 mm 0,5 km/h (0 Bft) S 178 ° 0 min 0,000 mm 0,0 UV-I 0 W/m² -0,2 °C 0,8 °C 1,6 km/h (1 Bft)
05.03.2017 21:41 0,8 °C 0,8 °C 93 % 1002,8 hPa 0,0 mm 0,0 km/h (0 Bft) S 178 ° 0 min 0,000 mm 0,0 UV-I 0 W/m² -0,2 °C 0,8 °C 0,0 km/h (0 Bft)
05.03.2017 21:42 0,8 °C 0,8 °C 93 % 1002,8 hPa 0,0 mm 0,0 km/h (0 Bft) S 178 ° 0 min 0,000 mm 0,0 UV-I 0 W/m² -0,2 °C 0,8 °C 0,0 km/h (0 Bft)
05.03.2017 21:43 0,8 °C 0,8 °C 93 % 1002,8 hPa 0,0 mm 0,1 km/h (0 Bft) S 178 ° 0 min 0,000 mm 0,0 UV-I 0 W/m² -0,2 °C 0,8 °C 1,6 km/h (1 Bft)
05.03.2017 21:44 0,7 °C 0,8 °C 93 % 1002,8 hPa 0,0 mm 1,6 km/h (1 Bft) S 178 ° 0 min 0,000 mm 0,0 UV-I 0 W/m² -0,3 °C 0,7 °C 3,2 km/h (1 Bft)
05.03.2017 21:45 0,7 °C 0,7 °C 93 % 1002,8 hPa 0,0 mm 0,7 km/h (0 Bft) S 178 ° 0 min 0,000 mm 0,0 UV-I 0 W/m² -0,3 °C 0,7 °C 1,6 km/h (1 Bft)
05.03.2017 21:46 0,7 °C 0,7 °C 93 % 1002,8 hPa 0,0 mm 1,3 km/h (1 Bft) S 178 ° 0 min 0,000 mm 0,0 UV-I 0 W/m² -0,3 °C 0,7 °C 3,2 km/h (1 Bft)
05.03.2017 21:47 0,7 °C 0,7 °C 93 % 1002,8 hPa 0,0 mm 2,2 km/h (1 Bft) S 178 ° 0 min 0,000 mm 0,0 UV-I 0 W/m² -0,3 °C 0,7 °C 4,8 km/h (1 Bft)
05.03.2017 21:48 0,7 °C 0,7 °C 93 % 1002,8 hPa 0,0 mm 1,9 km/h (1 Bft) S 178 ° 0 min 0,000 mm 0,0 UV-I 0 W/m² -0,3 °C 0,7 °C 3,2 km/h (1 Bft)
05.03.2017 21:49 0,7 °C 0,7 °C 93 % 1002,8 hPa 0,0 mm 0,0 km/h (0 Bft) S 178 ° 0 min 0,000 mm 0,0 UV-I 0 W/m² -0,3 °C 0,7 °C 0,0 km/h (0 Bft)
05.03.2017 21:50 0,7 °C 0,7 °C 93 % 1002,8 hPa 0,0 mm 0,0 km/h (0 Bft) S 178 ° 0 min 0,000 mm 0,0 UV-I 0 W/m² -0,3 °C 0,7 °C 0,0 km/h (0 Bft)
05.03.2017 21:51 0,7 °C 0,7 °C 94 % 1002,9 hPa 0,0 mm 0,0 km/h (0 Bft) S 178 ° 0 min 0,000 mm 0,0 UV-I 0 W/m² -0,2 °C 0,7 °C 0,0 km/h (0 Bft)
05.03.2017 21:52 0,7 °C 0,7 °C 94 % 1002,8 hPa 0,0 mm 0,0 km/h (0 Bft) S 178 ° 0 min 0,000 mm 0,0 UV-I 0 W/m² -0,2 °C 0,7 °C 0,0 km/h (0 Bft)
05.03.2017 21:53 0,7 °C 0,7 °C 93 % 1002,8 hPa 0,0 mm 0,1 km/h (0 Bft) S 178 ° 0 min 0,000 mm 0,0 UV-I 0 W/m² -0,3 °C 0,7 °C 1,6 km/h (1 Bft)
05.03.2017 21:54 0,7 °C 0,7 °C 94 % 1002,8 hPa 0,0 mm 0,6 km/h (0 Bft) S 178 ° 0 min 0,000 mm 0,0 UV-I 0 W/m² -0,2 °C 0,7 °C 1,6 km/h (1 Bft)
05.03.2017 21:55 0,8 °C 0,8 °C 94 % 1002,8 hPa 0,0 mm 1,4 km/h (1 Bft) S 178 ° 0 min 0,000 mm 0,0 UV-I 0 W/m² -0,1 °C 0,8 °C 1,6 km/h (1 Bft)
05.03.2017 21:56 0,8 °C 0,8 °C 94 % 1002,8 hPa 0,0 mm 1,7 km/h (1 Bft) S 178 ° 0 min 0,000 mm 0,0 UV-I 0 W/m² -0,1 °C 0,8 °C 3,2 km/h (1 Bft)
05.03.2017 21:57 0,8 °C 0,8 °C 94 % 1002,8 hPa 0,0 mm 0,9 km/h (0 Bft) S 178 ° 0 min 0,000 mm 0,0 UV-I 0 W/m² -0,1 °C 0,8 °C 1,6 km/h (1 Bft)
05.03.2017 21:58 0,8 °C 0,8 °C 94 % 1002,8 hPa 0,0 mm 0,8 km/h (0 Bft) S 178 ° 0 min 0,000 mm 0,0 UV-I 0 W/m² -0,1 °C 0,8 °C 1,6 km/h (1 Bft)
05.03.2017 21:59 0,8 °C 0,8 °C 94 % 1002,8 hPa 0,0 mm 0,1 km/h (0 Bft) S 178 ° 0 min 0,000 mm 0,0 UV-I 0 W/m² -0,1 °C 0,8 °C 1,6 km/h (1 Bft)
05.03.2017 22:00 0,7 °C 0,8 °C 93 % 1002,8 hPa 0,0 mm 0,1 km/h (0 Bft) S 178 ° 0 min 0,000 mm 0,0 UV-I 0 W/m² -0,3 °C 0,7 °C 1,6 km/h (1 Bft)
05.03.2017 22:01 0,7 °C 0,7 °C 93 % 1002,8 hPa 0,0 mm 0,1 km/h (0 Bft) S 178 ° 0 min 0,000 mm 0,0 UV-I 0 W/m² -0,3 °C 0,7 °C 1,6 km/h (1 Bft)
05.03.2017 22:02 0,7 °C 0,7 °C 94 % 1002,8 hPa 0,0 mm 0,9 km/h (0 Bft) S 178 ° 0 min 0,000 mm 0,0 UV-I 0 W/m² -0,2 °C 0,7 °C 1,6 km/h (1 Bft)
05.03.2017 22:03 0,8 °C 0,8 °C 94 % 1002,8 hPa 0,0 mm 0,3 km/h (0 Bft) S 178 ° 0 min 0,000 mm 0,0 UV-I 0 W/m² -0,1 °C 0,8 °C 3,2 km/h (1 Bft)
05.03.2017 22:04 0,7 °C 0,8 °C 94 % 1002,8 hPa 0,0 mm 3,0 km/h (1 Bft) W 274 ° 0 min 0,000 mm 0,0 UV-I 0 W/m² -0,2 °C 0,7 °C 4,8 km/h (1 Bft)
05.03.2017 22:05 0,7 °C 0,7 °C 94 % 1002,8 hPa 0,0 mm 0,2 km/h (0 Bft) W 274 ° 0 min 0,000 mm 0,0 UV-I 0 W/m² -0,2 °C 0,7 °C 1,6 km/h (1 Bft)
05.03.2017 22:06 0,7 °C 0,7 °C 94 % 1002,9 hPa 0,0 mm 0,9 km/h (0 Bft) W 274 ° 0 min 0,000 mm 0,0 UV-I 0 W/m² -0,2 °C 0,7 °C 3,2 km/h (1 Bft)
05.03.2017 22:07 0,6 °C 0,7 °C 94 % 1002,9 hPa 0,0 mm 3,4 km/h (1 Bft) W 274 ° 0 min 0,000 mm 0,0 UV-I 0 W/m² -0,3 °C 0,6 °C 4,8 km/h (1 Bft)
05.03.2017 22:08 0,6 °C 0,6 °C 93 % 1003,0 hPa 0,0 mm 1,4 km/h (1 Bft) W 274 ° 0 min 0,000 mm 0,0 UV-I 0 W/m² -0,4 °C 0,6 °C 3,2 km/h (1 Bft)
05.03.2017 22:09 0,5 °C 0,6 °C 93 % 1003,0 hPa 0,0 mm 0,5 km/h (0 Bft) W 274 ° 0 min 0,000 mm 0,0 UV-I 0 W/m² -0,5 °C 0,5 °C 1,6 km/h (1 Bft)
05.03.2017 22:10 0,4 °C 0,5 °C 93 % 1002,9 hPa 0,0 mm 0,2 km/h (0 Bft) W 274 ° 0 min 0,000 mm 0,0 UV-I 0 W/m² -0,6 °C 0,4 °C 1,6 km/h (1 Bft)
05.03.2017 22:11 0,4 °C 0,4 °C 93 % 1002,8 hPa 0,0 mm 0,6 km/h (0 Bft) W 274 ° 0 min 0,000 mm 0,0 UV-I 0 W/m² -0,6 °C 0,4 °C 1,6 km/h (1 Bft)
05.03.2017 22:12 0,4 °C 0,4 °C 93 % 1002,9 hPa 0,0 mm 0,0 km/h (0 Bft) W 274 ° 0 min 0,000 mm 0,0 UV-I 0 W/m² -0,6 °C 0,4 °C 0,0 km/h (0 Bft)
05.03.2017 22:13 0,5 °C 0,5 °C 94 % 1002,8 hPa 0,0 mm 0,2 km/h (0 Bft) W 274 ° 0 min 0,000 mm 0,0 UV-I 0 W/m² -0,4 °C 0,5 °C 1,6 km/h (1 Bft)
05.03.2017 22:14 0,6 °C 0,6 °C 94 % 1002,8 hPa 0,0 mm 1,3 km/h (1 Bft) W 274 ° 0 min 0,000 mm 0,0 UV-I 0 W/m² -0,3 °C 0,6 °C 3,2 km/h (1 Bft)
05.03.2017 22:15 0,6 °C 0,6 °C 94 % 1002,8 hPa 0,0 mm 1,3 km/h (1 Bft) W 274 ° 0 min 0,000 mm 0,0 UV-I 0 W/m² -0,3 °C 0,6 °C 3,2 km/h (1 Bft)
05.03.2017 22:16 0,6 °C 0,6 °C 94 % 1002,8 hPa 0,0 mm 1,0 km/h (0 Bft) W 274 ° 0 min 0,000 mm 0,0 UV-I 0 W/m² -0,3 °C 0,6 °C 1,6 km/h (1 Bft)
05.03.2017 22:17 0,4 °C 0,6 °C 94 % 1002,8 hPa 0,0 mm 0,9 km/h (0 Bft) W 274 ° 0 min 0,000 mm 0,0 UV-I 0 W/m² -0,5 °C 0,4 °C 1,6 km/h (1 Bft)
05.03.2017 22:18 0,4 °C 0,4 °C 94 % 1002,8 hPa 0,0 mm 0,0 km/h (0 Bft) W 274 ° 0 min 0,000 mm 0,0 UV-I 0 W/m² -0,5 °C 0,4 °C 0,0 km/h (0 Bft)
05.03.2017 22:19 0,4 °C 0,4 °C 94 % 1002,9 hPa 0,0 mm 0,0 km/h (0 Bft) W 274 ° 0 min 0,000 mm 0,0 UV-I 0 W/m² -0,5 °C 0,4 °C 0,0 km/h (0 Bft)
05.03.2017 22:20 0,5 °C 0,5 °C 94 % 1002,8 hPa 0,0 mm 0,5 km/h (0 Bft) W 274 ° 0 min 0,000 mm 0,0 UV-I 0 W/m² -0,4 °C 0,5 °C 1,6 km/h (1 Bft)
05.03.2017 22:21 0,5 °C 0,5 °C 94 % 1002,9 hPa 0,0 mm 0,0 km/h (0 Bft) W 274 ° 0 min 0,000 mm 0,0 UV-I 0 W/m² -0,4 °C 0,5 °C 0,0 km/h (0 Bft)
05.03.2017 22:22 0,6 °C 0,6 °C 94 % 1002,8 hPa 0,0 mm 0,3 km/h (0 Bft) W 274 ° 0 min 0,000 mm 0,0 UV-I 0 W/m² -0,3 °C 0,6 °C 1,6 km/h (1 Bft)
05.03.2017 22:23 0,6 °C 0,7 °C 94 % 1002,9 hPa 0,0 mm 0,5 km/h (0 Bft) W 274 ° 0 min 0,000 mm 0,0 UV-I 0 W/m² -0,3 °C 0,6 °C 1,6 km/h (1 Bft)
05.03.2017 22:24 0,6 °C 0,7 °C 94 % 1002,9 hPa 0,0 mm 1,3 km/h (1 Bft) W 274 ° 0 min 0,000 mm 0,0 UV-I 0 W/m² -0,3 °C 0,6 °C 3,2 km/h (1 Bft)
05.03.2017 22:25 0,6 °C 0,6 °C 94 % 1002,9 hPa 0,0 mm 0,0 km/h (0 Bft) W 274 ° 0 min 0,000 mm 0,0 UV-I 0 W/m² -0,3 °C 0,6 °C 0,0 km/h (0 Bft)
05.03.2017 22:26 0,5 °C 0,6 °C 94 % 1002,9 hPa 0,0 mm 0,5 km/h (0 Bft) W 274 ° 0 min 0,000 mm 0,0 UV-I 0 W/m² -0,4 °C 0,5 °C 1,6 km/h (1 Bft)
05.03.2017 22:27 0,5 °C 0,5 °C 94 % 1002,9 hPa 0,0 mm 0,0 km/h (0 Bft) W 274 ° 0 min 0,000 mm 0,0 UV-I 0 W/m² -0,4 °C 0,5 °C 0,0 km/h (0 Bft)
05.03.2017 22:28 0,4 °C 0,5 °C 94 % 1002,9 hPa 0,0 mm 0,1 km/h (0 Bft) W 274 ° 0 min 0,000 mm 0,0 UV-I 0 W/m² -0,5 °C 0,4 °C 1,6 km/h (1 Bft)
05.03.2017 22:29 0,5 °C 0,5 °C 94 % 1002,9 hPa 0,0 mm 2,4 km/h (1 Bft) W 274 ° 0 min 0,000 mm 0,0 UV-I 0 W/m² -0,4 °C 0,5 °C 4,8 km/h (1 Bft)
05.03.2017 22:30 0,5 °C 0,5 °C 94 % 1002,9 hPa 0,0 mm 3,8 km/h (1 Bft) W 274 ° 0 min 0,000 mm 0,0 UV-I 0 W/m² -0,4 °C 0,5 °C 4,8 km/h (1 Bft)
05.03.2017 22:31 0,5 °C 0,6 °C 94 % 1003,0 hPa 0,0 mm 3,8 km/h (1 Bft) W 276 ° 0 min 0,000 mm 0,0 UV-I 0 W/m² -0,4 °C 0,5 °C 4,8 km/h (1 Bft)
05.03.2017 22:32 0,5 °C 0,6 °C 94 % 1003,1 hPa 0,0 mm 2,1 km/h (1 Bft) W 276 ° 0 min 0,000 mm 0,0 UV-I 0 W/m² -0,4 °C 0,5 °C 3,2 km/h (1 Bft)
05.03.2017 22:33 0,5 °C 0,5 °C 94 % 1003,0 hPa 0,0 mm 1,9 km/h (1 Bft) W 276 ° 0 min 0,000 mm 0,0 UV-I 0 W/m² -0,4 °C 0,5 °C 3,2 km/h (1 Bft)
05.03.2017 22:34 0,5 °C 0,5 °C 94 % 1003,0 hPa 0,0 mm 1,8 km/h (1 Bft) W 276 ° 0 min 0,000 mm 0,0 UV-I 0 W/m² -0,4 °C 0,5 °C 3,2 km/h (1 Bft)
05.03.2017 22:35 0,6 °C 0,6 °C 94 % 1003,1 hPa 0,0 mm 2,3 km/h (1 Bft) W 276 ° 0 min 0,000 mm 0,0 UV-I 0 W/m² -0,3 °C 0,6 °C 3,2 km/h (1 Bft)
05.03.2017 22:36 0,6 °C 0,6 °C 94 % 1003,1 hPa 0,0 mm 1,7 km/h (1 Bft) W 276 ° 0 min 0,000 mm 0,0 UV-I 0 W/m² -0,3 °C 0,6 °C 3,2 km/h (1 Bft)
05.03.2017 22:37 0,6 °C 0,6 °C 94 % 1003,1 hPa 0,0 mm 1,3 km/h (1 Bft) W 276 ° 0 min 0,000 mm 0,0 UV-I 0 W/m² -0,3 °C 0,6 °C 3,2 km/h (1 Bft)
05.03.2017 22:38 0,6 °C 0,6 °C 94 % 1003,2 hPa 0,0 mm 2,1 km/h (1 Bft) W 276 ° 0 min 0,000 mm 0,0 UV-I 0 W/m² -0,3 °C 0,6 °C 3,2 km/h (1 Bft)
05.03.2017 22:39 0,7 °C 0,7 °C 94 % 1003,2 hPa 0,0 mm 1,8 km/h (1 Bft) W 276 ° 0 min 0,000 mm 0,0 UV-I 0 W/m² -0,2 °C 0,7 °C 3,2 km/h (1 Bft)
05.03.2017 22:40 0,7 °C 0,7 °C 94 % 1003,2 hPa 0,0 mm 2,3 km/h (1 Bft) W 276 ° 0 min 0,000 mm 0,0 UV-I 0 W/m² -0,2 °C 0,7 °C 3,2 km/h (1 Bft)
05.03.2017 22:41 0,8 °C 0,8 °C 94 % 1003,2 hPa 0,0 mm 2,1 km/h (1 Bft) W 276 ° 0 min 0,000 mm 0,0 UV-I 0 W/m² -0,1 °C 0,8 °C 3,2 km/h (1 Bft)
05.03.2017 22:42 0,8 °C 0,8 °C 94 % 1003,3 hPa 0,0 mm 0,5 km/h (0 Bft) W 276 ° 0 min 0,000 mm 0,0 UV-I 0 W/m² -0,1 °C 0,8 °C 1,6 km/h (1 Bft)
05.03.2017 22:43 0,8 °C 0,8 °C 94 % 1003,2 hPa 0,0 mm 0,7 km/h (0 Bft) W 276 ° 0 min 0,000 mm 0,0 UV-I 0 W/m² -0,1 °C 0,8 °C 1,6 km/h (1 Bft)
05.03.2017 22:44 0,8 °C 0,8 °C 94 % 1003,2 hPa 0,0 mm 0,1 km/h (0 Bft) W 276 ° 0 min 0,000 mm 0,0 UV-I 0 W/m² -0,1 °C 0,8 °C 1,6 km/h (1 Bft)
05.03.2017 22:45 0,9 °C 0,9 °C 94 % 1003,2 hPa 0,0 mm 0,0 km/h (0 Bft) W 276 ° 0 min 0,000 mm 0,0 UV-I 0 W/m² 0,0 °C 0,9 °C 0,0 km/h (0 Bft)
05.03.2017 22:46 0,9 °C 0,9 °C 94 % 1003,3 hPa 0,0 mm 0,0 km/h (0 Bft) W 276 ° 0 min 0,000 mm 0,0 UV-I 0 W/m² 0,0 °C 0,9 °C 0,0 km/h (0 Bft)
05.03.2017 22:47 0,9 °C 0,9 °C 94 % 1003,4 hPa 0,0 mm 1,6 km/h (1 Bft) W 276 ° 0 min 0,000 mm 0,0 UV-I 0 W/m² 0,0 °C 0,9 °C 3,2 km/h (1 Bft)
05.03.2017 22:48 0,9 °C 0,9 °C 94 % 1003,4 hPa 0,0 mm 1,3 km/h (1 Bft) W 276 ° 0 min 0,000 mm 0,0 UV-I 0 W/m² 0,0 °C 0,9 °C 3,2 km/h (1 Bft)
05.03.2017 22:49 0,9 °C 0,9 °C 94 % 1003,4 hPa 0,0 mm 0,0 km/h (0 Bft) W 276 ° 0 min 0,000 mm 0,0 UV-I 0 W/m² 0,0 °C 0,9 °C 0,0 km/h (0 Bft)
05.03.2017 22:50 0,9 °C 0,9 °C 94 % 1003,5 hPa 0,0 mm 0,5 km/h (0 Bft) W 276 ° 0 min 0,000 mm 0,0 UV-I 0 W/m² 0,0 °C 0,9 °C 1,6 km/h (1 Bft)
05.03.2017 22:51 0,9 °C 0,9 °C 94 % 1003,5 hPa 0,0 mm 1,8 km/h (1 Bft) W 276 ° 0 min 0,000 mm 0,0 UV-I 0 W/m² 0,0 °C 0,9 °C 3,2 km/h (1 Bft)
05.03.2017 22:52 0,9 °C 0,9 °C 94 % 1003,5 hPa 0,0 mm 1,6 km/h (1 Bft) W 276 ° 0 min 0,000 mm 0,0 UV-I 0 W/m² 0,0 °C 0,9 °C 3,2 km/h (1 Bft)
05.03.2017 22:53 0,8 °C 0,9 °C 94 % 1003,6 hPa 0,0 mm 0,5 km/h (0 Bft) W 276 ° 0 min 0,000 mm 0,0 UV-I 0 W/m² -0,1 °C 0,8 °C 1,6 km/h (1 Bft)
05.03.2017 22:54 0,7 °C 0,8 °C 94 % 1003,6 hPa 0,0 mm 2,0 km/h (1 Bft) W 276 ° 0 min 0,000 mm 0,0 UV-I 0 W/m² -0,2 °C 0,7 °C 3,2 km/h (1 Bft)
05.03.2017 22:55 0,7 °C 0,7 °C 94 % 1003,6 hPa 0,0 mm 1,7 km/h (1 Bft) W 276 ° 0 min 0,000 mm 0,0 UV-I 0 W/m² -0,2 °C 0,7 °C 3,2 km/h (1 Bft)
05.03.2017 22:56 0,7 °C 0,7 °C 94 % 1003,6 hPa 0,0 mm 2,0 km/h (1 Bft) W 276 ° 0 min 0,000 mm 0,0 UV-I 0 W/m² -0,2 °C 0,7 °C 3,2 km/h (1 Bft)
05.03.2017 22:57 0,7 °C 0,7 °C 94 % 1003,7 hPa 0,0 mm 3,0 km/h (1 Bft) SW 233 ° 0 min 0,000 mm 0,0 UV-I 0 W/m² -0,2 °C 0,7 °C 3,2 km/h (1 Bft)
05.03.2017 22:58 0,8 °C 0,8 °C 94 % 1003,8 hPa 0,0 mm 4,6 km/h (1 Bft) W 267 ° 0 min 0,000 mm 0,0 UV-I 0 W/m² -0,1 °C -0,5 °C 6,4 km/h (2 Bft)
05.03.2017 22:59 0,8 °C 0,8 °C 94 % 1003,8 hPa 0,0 mm 4,0 km/h (1 Bft) W-SW 237 ° 0 min 0,000 mm 0,0 UV-I 0 W/m² -0,1 °C 0,8 °C 4,8 km/h (1 Bft)
05.03.2017 23:00 0,8 °C 0,8 °C 94 % 1003,8 hPa 0,0 mm 2,4 km/h (1 Bft) W-SW 237 ° 0 min 0,000 mm 0,0 UV-I 0 W/m² -0,1 °C 0,8 °C 3,2 km/h (1 Bft)
05.03.2017 23:01 0,9 °C 0,9 °C 94 % 1003,8 hPa 0,0 mm 4,5 km/h (1 Bft) S 184 ° 0 min 0,000 mm 0,0 UV-I 0 W/m² 0,0 °C 0,9 °C 6,4 km/h (2 Bft)
05.03.2017 23:02 1,0 °C 1,0 °C 94 % 1003,9 hPa 0,0 mm 6,0 km/h (2 Bft) S-SO 161 ° 0 min 0,000 mm 0,0 UV-I 0 W/m² 0,1 °C -0,9 °C 11,3 km/h (2 Bft)
05.03.2017 23:03 1,1 °C 1,1 °C 94 % 1003,9 hPa 0,0 mm 5,6 km/h (1 Bft) W-SW 249 ° 0 min 0,000 mm 0,0 UV-I 0 W/m² 0,2 °C -0,6 °C 11,3 km/h (2 Bft)
05.03.2017 23:04 1,1 °C 1,2 °C 94 % 1003,9 hPa 0,0 mm 5,4 km/h (1 Bft) W-NW 283 ° 0 min 0,000 mm 0,0 UV-I 0 W/m² 0,2 °C -0,5 °C 11,3 km/h (2 Bft)
05.03.2017 23:05 1,2 °C 1,2 °C 95 % 1003,9 hPa 0,0 mm 10,2 km/h (2 Bft) SW 235 ° 0 min 0,000 mm 0,0 UV-I 0 W/m² 0,5 °C -1,9 °C 19,3 km/h (3 Bft)
05.03.2017 23:06 1,3 °C 1,3 °C 94 % 1004,0 hPa 0,0 mm 9,9 km/h (2 Bft) W-NW 302 ° 0 min 0,000 mm 0,0 UV-I 0 W/m² 0,4 °C -1,7 °C 16,1 km/h (3 Bft)
05.03.2017 23:07 1,4 °C 1,4 °C 94 % 1003,9 hPa 0,0 mm 8,9 km/h (2 Bft) S-SW 207 ° 0 min 0,000 mm 0,0 UV-I 0 W/m² 0,5 °C -1,4 °C 17,7 km/h (3 Bft)
05.03.2017 23:08 1,6 °C 1,6 °C 94 % 1003,8 hPa 0,0 mm 13,0 km/h (3 Bft) W 275 ° 0 min 0,000 mm 0,0 UV-I 0 W/m² 0,7 °C -2,1 °C 22,5 km/h (4 Bft)
05.03.2017 23:09 1,7 °C 1,7 °C 94 % 1003,7 hPa 0,0 mm 7,5 km/h (2 Bft) W-SW 254 ° 0 min 0,000 mm 0,0 UV-I 0 W/m² 0,8 °C -0,6 °C 9,7 km/h (2 Bft)
05.03.2017 23:10 1,8 °C 1,8 °C 93 % 1003,6 hPa 0,0 mm 8,5 km/h (2 Bft) SW 232 ° 0 min 0,000 mm 0,0 UV-I 0 W/m² 0,8 °C -0,8 °C 11,3 km/h (2 Bft)
05.03.2017 23:11 1,8 °C 1,8 °C 92 % 1003,5 hPa 0,0 mm 7,6 km/h (2 Bft) S 190 ° 0 min 0,000 mm 0,0 UV-I 0 W/m² 0,6 °C -0,5 °C 11,3 km/h (2 Bft)
05.03.2017 23:12 1,9 °C 1,9 °C 92 % 1003,4 hPa 0,0 mm 6,4 km/h (2 Bft) W-SW 257 ° 0 min 0,000 mm 0,0 UV-I 0 W/m² 0,7 °C 0,0 °C 9,7 km/h (2 Bft)
05.03.2017 23:13 1,9 °C 1,9 °C 92 % 1003,5 hPa 0,0 mm 8,1 km/h (2 Bft) S-SW 212 ° 0 min 0,000 mm 0,0 UV-I 0 W/m² 0,7 °C -0,5 °C 12,9 km/h (3 Bft)
05.03.2017 23:14 2,0 °C 2,0 °C 91 % 1003,4 hPa 0,0 mm 5,8 km/h (2 Bft) W 268 ° 0 min 0,000 mm 0,0 UV-I 0 W/m² 0,7 °C 0,4 °C 11,3 km/h (2 Bft)
05.03.2017 23:15 2,0 °C 2,0 °C 91 % 1003,4 hPa 0,0 mm 6,3 km/h (2 Bft) W-SW 254 ° 0 min 0,000 mm 0,0 UV-I 0 W/m² 0,7 °C 0,2 °C 11,3 km/h (2 Bft)
05.03.2017 23:16 2,1 °C 2,1 °C 91 % 1003,5 hPa 0,0 mm 5,0 km/h (1 Bft) S-SW 209 ° 0 min 0,000 mm 0,0 UV-I 0 W/m² 0,8 °C 0,8 °C 8,0 km/h (2 Bft)
05.03.2017 23:17 2,1 °C 2,1 °C 90 % 1003,5 hPa 0,0 mm 4,1 km/h (1 Bft) SW 223 ° 0 min 0,000 mm 0,0 UV-I 0 W/m² 0,6 °C 2,1 °C 9,7 km/h (2 Bft)
05.03.2017 23:18 2,1 °C 2,1 °C 90 % 1003,5 hPa 0,0 mm 3,8 km/h (1 Bft) S-SW 202 ° 0 min 0,000 mm 0,0 UV-I 0 W/m² 0,6 °C 2,1 °C 6,4 km/h (2 Bft)
05.03.2017 23:19 2,2 °C 2,2 °C 90 % 1003,5 hPa 0,0 mm 6,8 km/h (2 Bft) SW 235 ° 0 min 0,000 mm 0,0 UV-I 0 W/m² 0,7 °C 0,2 °C 12,9 km/h (3 Bft)
05.03.2017 23:20 2,2 °C 2,2 °C 89 % 1003,5 hPa 0,0 mm 2,7 km/h (1 Bft) SW 231 ° 0 min 0,000 mm 0,0 UV-I 0 W/m² 0,6 °C 2,2 °C 4,8 km/h (1 Bft)
05.03.2017 23:21 2,2 °C 2,2 °C 89 % 1003,6 hPa 0,0 mm 5,3 km/h (1 Bft) SW 229 ° 0 min 0,000 mm 0,0 UV-I 0 W/m² 0,6 °C 0,8 °C 9,7 km/h (2 Bft)
05.03.2017 23:22 2,2 °C 2,3 °C 88 % 1003,6 hPa 0,0 mm 7,9 km/h (2 Bft) W 276 ° 0 min 0,000 mm 0,0 UV-I 0 W/m² 0,4 °C -0,1 °C 12,9 km/h (3 Bft)
05.03.2017 23:23 2,3 °C 2,3 °C 88 % 1003,6 hPa 0,0 mm 5,3 km/h (1 Bft) W 265 ° 0 min 0,000 mm 0,0 UV-I 0 W/m² 0,5 °C 0,9 °C 11,3 km/h (2 Bft)
05.03.2017 23:24 2,3 °C 2,3 °C 88 % 1003,6 hPa 0,0 mm 8,0 km/h (2 Bft) W-SW 242 ° 0 min 0,000 mm 0,0 UV-I 0 W/m² 0,5 °C -0,0 °C 14,5 km/h (3 Bft)
05.03.2017 23:25 2,3 °C 2,3 °C 88 % 1003,6 hPa 0,0 mm 5,5 km/h (1 Bft) S-SW 201 ° 0 min 0,000 mm 0,0 UV-I 0 W/m² 0,5 °C 0,8 °C 8,0 km/h (2 Bft)
05.03.2017 23:26 2,3 °C 2,3 °C 88 % 1003,6 hPa 0,0 mm 4,4 km/h (1 Bft) W 263 ° 0 min 0,000 mm 0,0 UV-I 0 W/m² 0,5 °C 2,3 °C 8,0 km/h (2 Bft)
05.03.2017 23:27 2,3 °C 2,3 °C 87 % 1003,6 hPa 0,0 mm 9,3 km/h (2 Bft) SW 227 ° 0 min 0,000 mm 0,0 UV-I 0 W/m² 0,4 °C -0,4 °C 12,9 km/h (3 Bft)
05.03.2017 23:28 2,3 °C 2,3 °C 87 % 1003,6 hPa 0,0 mm 8,4 km/h (2 Bft) W 267 ° 0 min 0,000 mm 0,0 UV-I 0 W/m² 0,4 °C -0,2 °C 12,9 km/h (3 Bft)
05.03.2017 23:29 2,3 °C 2,4 °C 87 % 1003,7 hPa 0,0 mm 13,4 km/h (3 Bft) W 259 ° 0 min 0,000 mm 0,0 UV-I 0 W/m² 0,4 °C -1,3 °C 19,3 km/h (3 Bft)
05.03.2017 23:30 2,4 °C 2,4 °C 86 % 1003,7 hPa 0,0 mm 7,2 km/h (2 Bft) W-SW 246 ° 0 min 0,000 mm 0,0 UV-I 0 W/m² 0,3 °C 0,3 °C 14,5 km/h (3 Bft)
05.03.2017 23:31 2,4 °C 2,4 °C 87 % 1003,7 hPa 0,0 mm 14,2 km/h (3 Bft) SW 232 ° 0 min 0,000 mm 0,0 UV-I 0 W/m² 0,5 °C -1,3 °C 20,9 km/h (4 Bft)
05.03.2017 23:32 2,4 °C 2,4 °C 86 % 1003,7 hPa 0,0 mm 8,0 km/h (2 Bft) W 259 ° 0 min 0,000 mm 0,0 UV-I 0 W/m² 0,3 °C 0,1 °C 14,5 km/h (3 Bft)
05.03.2017 23:33 2,4 °C 2,4 °C 86 % 1003,7 hPa 0,0 mm 9,0 km/h (2 Bft) W-SW 248 ° 0 min 0,000 mm 0,0 UV-I 0 W/m² 0,3 °C -0,2 °C 14,5 km/h (3 Bft)
05.03.2017 23:34 2,3 °C 2,4 °C 87 % 1003,7 hPa 0,0 mm 7,8 km/h (2 Bft) W-SW 252 ° 0 min 0,000 mm 0,0 UV-I 0 W/m² 0,4 °C 0,0 °C 12,9 km/h (3 Bft)
05.03.2017 23:35 2,3 °C 2,4 °C 87 % 1003,8 hPa 0,0 mm 10,0 km/h (2 Bft) W 273 ° 0 min 0,000 mm 0,0 UV-I 0 W/m² 0,4 °C -0,6 °C 14,5 km/h (3 Bft)
05.03.2017 23:36 2,3 °C 2,3 °C 87 % 1003,7 hPa 0,0 mm 10,5 km/h (2 Bft) W 266 ° 0 min 0,000 mm 0,0 UV-I 0 W/m² 0,4 °C -0,7 °C 14,5 km/h (3 Bft)
05.03.2017 23:37 2,3 °C 2,3 °C 87 % 1003,8 hPa 0,0 mm 16,9 km/h (3 Bft) W-SW 242 ° 0 min 0,000 mm 0,0 UV-I 0 W/m² 0,4 °C -1,9 °C 25,7 km/h (4 Bft)
05.03.2017 23:38 2,3 °C 2,3 °C 87 % 1003,9 hPa 0,0 mm 8,4 km/h (2 Bft) W-SW 239 ° 0 min 0,000 mm 0,0 UV-I 0 W/m² 0,4 °C -0,2 °C 12,9 km/h (3 Bft)
05.03.2017 23:39 2,3 °C 2,3 °C 87 % 1003,9 hPa 0,0 mm 13,5 km/h (3 Bft) W 269 ° 0 min 0,000 mm 0,0 UV-I 0 W/m² 0,4 °C -1,3 °C 17,7 km/h (3 Bft)
05.03.2017 23:40 2,3 °C 2,3 °C 87 % 1004,0 hPa 0,0 mm 9,7 km/h (2 Bft) W-SW 246 ° 0 min 0,000 mm 0,0 UV-I 0 W/m² 0,4 °C -0,5 °C 16,1 km/h (3 Bft)
05.03.2017 23:41 2,3 °C 2,3 °C 87 % 1004,0 hPa 0,0 mm 9,5 km/h (2 Bft) SW 228 ° 0 min 0,000 mm 0,0 UV-I 0 W/m² 0,4 °C -0,4 °C 14,5 km/h (3 Bft)
05.03.2017 23:42 2,3 °C 2,4 °C 87 % 1004,1 hPa 0,0 mm 11,6 km/h (2 Bft) W-SW 239 ° 0 min 0,000 mm 0,0 UV-I 0 W/m² 0,4 °C -0,9 °C 14,5 km/h (3 Bft)
05.03.2017 23:43 2,3 °C 2,3 °C 87 % 1004,1 hPa 0,0 mm 13,1 km/h (3 Bft) W-NW 297 ° 0 min 0,000 mm 0,0 UV-I 0 W/m² 0,4 °C -1,2 °C 17,7 km/h (3 Bft)
05.03.2017 23:44 2,3 °C 2,3 °C 87 % 1004,1 hPa 0,0 mm 11,1 km/h (2 Bft) W-SW 252 ° 0 min 0,000 mm 0,0 UV-I 0 W/m² 0,4 °C -0,8 °C 17,7 km/h (3 Bft)
05.03.2017 23:45 2,3 °C 2,3 °C 87 % 1004,2 hPa 0,0 mm 13,1 km/h (3 Bft) W 263 ° 0 min 0,000 mm 0,0 UV-I 0 W/m² 0,4 °C -1,2 °C 16,1 km/h (3 Bft)
05.03.2017 23:46 2,3 °C 2,3 °C 87 % 1004,2 hPa 0,2 mm 10,5 km/h (2 Bft) W-SW 256 ° 0 min 0,000 mm 0,0 UV-I 0 W/m² 0,4 °C -0,7 °C 14,5 km/h (3 Bft)
05.03.2017 23:47 2,3 °C 2,3 °C 88 % 1004,2 hPa 0,0 mm 9,3 km/h (2 Bft) W 278 ° 0 min 0,000 mm 0,0 UV-I 0 W/m² 0,5 °C -0,4 °C 12,9 km/h (3 Bft)
05.03.2017 23:48 2,3 °C 2,3 °C 88 % 1004,1 hPa 0,0 mm 9,7 km/h (2 Bft) W 280 ° 0 min 0,000 mm 0,0 UV-I 0 W/m² 0,5 °C -0,5 °C 14,5 km/h (3 Bft)
05.03.2017 23:49 2,2 °C 2,3 °C 88 % 1004,1 hPa 0,0 mm 6,6 km/h (2 Bft) W-NW 285 ° 0 min 0,000 mm 0,0 UV-I 0 W/m² 0,4 °C 0,3 °C 11,3 km/h (2 Bft)
05.03.2017 23:50 2,2 °C 2,2 °C 88 % 1004,1 hPa 0,0 mm 9,4 km/h (2 Bft) W-NW 303 ° 0 min 0,000 mm 0,0 UV-I 0 W/m² 0,4 °C -0,5 °C 14,5 km/h (3 Bft)
05.03.2017 23:51 2,2 °C 2,2 °C 88 % 1004,0 hPa 0,0 mm 7,7 km/h (2 Bft) W-SW 257 ° 0 min 0,000 mm 0,0 UV-I 0 W/m² 0,4 °C -0,1 °C 14,5 km/h (3 Bft)
05.03.2017 23:52 2,1 °C 2,2 °C 88 % 1004,0 hPa 0,0 mm 8,5 km/h (2 Bft) W-SW 252 ° 0 min 0,000 mm 0,0 UV-I 0 W/m² 0,3 °C -0,4 °C 14,5 km/h (3 Bft)
05.03.2017 23:53 2,1 °C 2,1 °C 88 % 1004,0 hPa 0,0 mm 11,8 km/h (2 Bft) W-SW 254 ° 0 min 0,000 mm 0,0 UV-I 0 W/m² 0,3 °C -1,2 °C 16,1 km/h (3 Bft)
05.03.2017 23:54 2,0 °C 2,1 °C 88 % 1004,0 hPa 0,0 mm 7,6 km/h (2 Bft) W-SW 254 ° 0 min 0,000 mm 0,0 UV-I 0 W/m² 0,2 °C -0,3 °C 12,9 km/h (3 Bft)
05.03.2017 23:55 2,0 °C 2,0 °C 88 % 1004,0 hPa 0,0 mm 6,2 km/h (2 Bft) W-SW 256 ° 0 min 0,000 mm 0,0 UV-I 0 W/m² 0,2 °C 0,2 °C 11,3 km/h (2 Bft)
05.03.2017 23:56 1,9 °C 2,0 °C 89 % 1004,1 hPa 0,0 mm 10,0 km/h (2 Bft) SW 227 ° 0 min 0,000 mm 0,0 UV-I 0 W/m² 0,3 °C -1,0 °C 14,5 km/h (3 Bft)
05.03.2017 23:57 1,9 °C 1,9 °C 89 % 1004,1 hPa 0,0 mm 3,9 km/h (1 Bft) W-SW 247 ° 0 min 0,000 mm 0,0 UV-I 0 W/m² 0,3 °C 1,9 °C 6,4 km/h (2 Bft)
05.03.2017 23:58 1,8 °C 1,9 °C 89 % 1004,0 hPa 0,0 mm 6,2 km/h (2 Bft) W-SW 247 ° 0 min 0,000 mm 0,0 UV-I 0 W/m² 0,2 °C -0,0 °C 11,3 km/h (2 Bft)
05.03.2017 23:59 1,8 °C 1,9 °C 89 % 1004,0 hPa 0,0 mm 7,0 km/h (2 Bft) W-SW 249 ° 0 min 0,000 mm 0,0 UV-I 0 W/m² 0,2 °C -0,3 °C 11,3 km/h (2 Bft)
_ Min-Zeit 22:28 22:19 13:33 00:00 - 22:49 - - - - - - 03:23 20:50 22:49
Minimum _ 0,4 °C 0,4 °C 58 % 1000,0 hPa - 0,0 km/h (0 Bft) - - - - - - -2,0 °C -2,2 °C 0,0 km/h (0 Bft)
_ Max-Zeit 14:32 14:57 23:05 10:55 23:46 01:26 - - 15:39 15:01 13:07 12:42 19:57 14:10 00:05
Maximum _ 7,6 °C 7,6 °C 95 % 1006,4 hPa 0,2 mm 25,9 km/h
W (4 Bft)
- - 1 min 0,254 mm 3,6 UV-I 861 W/m² 1,6 °C 7,6 °C 38,6 km/h
W-SW (5 Bft)
Durchschnitt _ 4,3 °C 4,3 °C 74 % 1003,5 hPa #4,2 mm 6,8 km/h (2 Bft) W-SW - #3:43 h #1,372 mm 1,6 UV-I 88 W/m² -0,0 °C 3,0 °C 10,7 km/h (2 Bft)